<?xml version='1.0' encoding='UTF-8'?><gpx version="1.1" creator="JPX - https://github.com/jenetics/jpx" xmlns="http://www.topografix.com/GPX/1/1"><trk><trkseg><trkpt lat="46.02623762482072" lon="11.90361417317327"><ele>281.0</ele><time>2026-04-03T14:30:37Z</time></trkpt><trkpt lat="46.02615471717424" lon="11.903698233882047"><ele>281.0</ele><time>2026-04-03T14:30:53Z</time></trkpt><trkpt lat="46.02612412619011" lon="11.90378926421718"><ele>281.0</ele><time>2026-04-03T14:30:54Z</time></trkpt><trkpt lat="46.02608695460384" lon="11.903885010060673"><ele>281.0</ele><time>2026-04-03T14:30:55Z</time></trkpt><trkpt lat="46.02604589329935" lon="11.90399097068178"><ele>281.0</ele><time>2026-04-03T14:30:56Z</time></trkpt><trkpt lat="46.02599206506844" lon="11.904113792194336"><ele>281.0</ele><time>2026-04-03T14:30:58Z</time></trkpt><trkpt lat="46.026010309926455" lon="11.904264718790289"><ele>281.0</ele><time>2026-04-03T14:31:02Z</time></trkpt><trkpt lat="46.0260730838133" lon="11.90437095291028"><ele>281.0</ele><time>2026-04-03T14:31:04Z</time></trkpt><trkpt lat="46.026016915410956" lon="11.904501248974634"><ele>281.0</ele><time>2026-04-03T14:31:08Z</time></trkpt><trkpt lat="46.02595923161289" lon="11.904543647966598"><ele>281.0</ele><time>2026-04-03T14:31:09Z</time></trkpt><trkpt lat="46.02589815923868" lon="11.904606296418029"><ele>281.0</ele><time>2026-04-03T14:31:10Z</time></trkpt><trkpt lat="46.025822377370616" lon="11.904675574715831"><ele>281.0</ele><time>2026-04-03T14:31:12Z</time></trkpt><trkpt lat="46.025745913185915" lon="11.90465548120969"><ele>281.6666666666667</ele><time>2026-04-03T14:31:14Z</time></trkpt><trkpt lat="46.02569132030564" lon="11.904581773077846"><ele>282.33333333333337</ele><time>2026-04-03T14:31:14.999Z</time></trkpt><trkpt lat="46.02562078525483" lon="11.904518106378855"><ele>283.0</ele><time>2026-04-03T14:31:15.999Z</time></trkpt><trkpt lat="46.02555044088459" lon="11.904465448882146"><ele>283.6666666666667</ele><time>2026-04-03T14:31:16.999Z</time></trkpt><trkpt lat="46.02547416832867" lon="11.904413775000108"><ele>284.3333333333333</ele><time>2026-04-03T14:31:17.999Z</time></trkpt><trkpt lat="46.02540890507633" lon="11.904394770496253"><ele>285.0</ele><time>2026-04-03T14:31:18.999Z</time></trkpt><trkpt lat="46.02533815688547" lon="11.904400116463698"><ele>285.0</ele><time>2026-04-03T14:31:19.999Z</time></trkpt><trkpt lat="46.02525113627778" lon="11.904418565051019"><ele>285.0</ele><time>2026-04-03T14:31:20.999Z</time></trkpt><trkpt lat="46.025160019669244" lon="11.904436508565391"><ele>285.0</ele><time>2026-04-03T14:31:21.999Z</time></trkpt><trkpt lat="46.025051753314045" lon="11.904458895039157"><ele>285.0</ele><time>2026-04-03T14:31:22.999Z</time></trkpt><trkpt lat="46.02494777733268" lon="11.904492077249571"><ele>285.0</ele><time>2026-04-03T14:31:23.999Z</time></trkpt><trkpt lat="46.02484715527721" lon="11.904493696761499"><ele>284.6</ele><time>2026-04-03T14:31:24.999Z</time></trkpt><trkpt lat="46.02474594534738" lon="11.904522908686776"><ele>284.2</ele><time>2026-04-03T14:31:25.999Z</time></trkpt><trkpt lat="46.024642854367926" lon="11.904552663531536"><ele>283.8</ele><time>2026-04-03T14:31:26.999Z</time></trkpt><trkpt lat="46.02454235707928" lon="11.904605249215841"><ele>283.4</ele><time>2026-04-03T14:31:27.999Z</time></trkpt><trkpt lat="46.02444020474873" lon="11.904610723350567"><ele>283.0</ele><time>2026-04-03T14:31:28.999Z</time></trkpt><trkpt lat="46.02433507536125" lon="11.904640666976901"><ele>283.0</ele><time>2026-04-03T14:31:29.999Z</time></trkpt><trkpt lat="46.02422367855716" lon="11.904672395742688"><ele>283.0</ele><time>2026-04-03T14:31:30.999Z</time></trkpt><trkpt lat="46.024110165910706" lon="11.904704727150541"><ele>283.0</ele><time>2026-04-03T14:31:31.999Z</time></trkpt><trkpt lat="46.02399773971464" lon="11.904736749113164"><ele>283.0</ele><time>2026-04-03T14:31:32.999Z</time></trkpt><trkpt lat="46.02387728535841" lon="11.904771057705181"><ele>282.2</ele><time>2026-04-03T14:31:33.999Z</time></trkpt><trkpt lat="46.02375668669884" lon="11.904805407394452"><ele>281.4</ele><time>2026-04-03T14:31:34.999Z</time></trkpt><trkpt lat="46.02365185194451" lon="11.90483526710949"><ele>280.59999999999997</ele><time>2026-04-03T14:31:35.999Z</time></trkpt><trkpt lat="46.0235546270173" lon="11.90486295935841"><ele>279.8</ele><time>2026-04-03T14:31:36.999Z</time></trkpt><trkpt lat="46.023455125667866" lon="11.904891299977821"><ele>279.0</ele><time>2026-04-03T14:31:37.999Z</time></trkpt><trkpt lat="46.0233472427614" lon="11.904921862264578"><ele>279.0</ele><time>2026-04-03T14:31:38.999Z</time></trkpt><trkpt lat="46.023234821672766" lon="11.904953491910064"><ele>279.0</ele><time>2026-04-03T14:31:39.999Z</time></trkpt><trkpt lat="46.02314119156843" lon="11.904979834711598"><ele>279.0</ele><time>2026-04-03T14:31:40.999Z</time></trkpt><trkpt lat="46.02305062555004" lon="11.905005315438526"><ele>279.0</ele><time>2026-04-03T14:31:41.999Z</time></trkpt><trkpt lat="46.0229549013057" lon="11.905032247436784"><ele>279.0</ele><time>2026-04-03T14:31:42.999Z</time></trkpt><trkpt lat="46.022866843852725" lon="11.90505244400113"><ele>279.0</ele><time>2026-04-03T14:31:43.999Z</time></trkpt><trkpt lat="46.02278259034787" lon="11.905046064989238"><ele>279.0</ele><time>2026-04-03T14:31:44.999Z</time></trkpt><trkpt lat="46.02271098585144" lon="11.905013245123492"><ele>279.0</ele><time>2026-04-03T14:31:45.999Z</time></trkpt><trkpt lat="46.0226461248743" lon="11.904975027802662"><ele>279.0</ele><time>2026-04-03T14:31:46.999Z</time></trkpt><trkpt lat="46.02256600331953" lon="11.904927191069744"><ele>279.0</ele><time>2026-04-03T14:31:47.999Z</time></trkpt><trkpt lat="46.022500349154676" lon="11.904889826046054"><ele>279.0</ele><time>2026-04-03T14:31:48.999Z</time></trkpt><trkpt lat="46.02242753082758" lon="11.904886684165724"><ele>278.0</ele><time>2026-04-03T14:31:49.999Z</time></trkpt><trkpt lat="46.022339851116875" lon="11.904889782122822"><ele>277.0</ele><time>2026-04-03T14:31:50.999Z</time></trkpt><trkpt lat="46.022240017212674" lon="11.90492818406273"><ele>276.0</ele><time>2026-04-03T14:31:51.999Z</time></trkpt><trkpt lat="46.02214251416614" lon="11.904953595010225"><ele>275.0</ele><time>2026-04-03T14:31:52.999Z</time></trkpt><trkpt lat="46.02206644632483" lon="11.904973419577017"><ele>274.0</ele><time>2026-04-03T14:31:53.999Z</time></trkpt><trkpt lat="46.021957846862996" lon="11.905001722445592"><ele>274.0</ele><time>2026-04-03T14:31:55.999Z</time></trkpt><trkpt lat="46.021862430607875" lon="11.905026589538926"><ele>274.0</ele><time>2026-04-03T14:31:57.999Z</time></trkpt><trkpt lat="46.02178476027568" lon="11.905044771004492"><ele>274.0</ele><time>2026-04-03T14:32:01.999Z</time></trkpt><trkpt lat="46.021724654669896" lon="11.905075320094953"><ele>274.0</ele><time>2026-04-03T14:32:09Z</time></trkpt><trkpt lat="46.021627978417406" lon="11.9050503738331"><ele>274.0</ele><time>2026-04-03T14:32:12Z</time></trkpt><trkpt lat="46.02157676690327" lon="11.904986936975018"><ele>274.0</ele><time>2026-04-03T14:32:13Z</time></trkpt><trkpt lat="46.02153684312168" lon="11.904900310605754"><ele>273.8</ele><time>2026-04-03T14:32:14Z</time></trkpt><trkpt lat="46.02151484935701" lon="11.904788589566106"><ele>273.59999999999997</ele><time>2026-04-03T14:32:15Z</time></trkpt><trkpt lat="46.02151033318668" lon="11.90465716895393"><ele>273.4</ele><time>2026-04-03T14:32:16Z</time></trkpt><trkpt lat="46.02152508658825" lon="11.904500487470136"><ele>273.2</ele><time>2026-04-03T14:32:17Z</time></trkpt><trkpt lat="46.02150034232149" lon="11.904289081095467"><ele>273.0</ele><time>2026-04-03T14:32:18Z</time></trkpt><trkpt lat="46.021489982602716" lon="11.904098063700078"><ele>272.8</ele><time>2026-04-03T14:32:19Z</time></trkpt><trkpt lat="46.02148994230895" lon="11.903954679452351"><ele>272.6</ele><time>2026-04-03T14:32:20Z</time></trkpt><trkpt lat="46.02147902019685" lon="11.903806092340629"><ele>272.4</ele><time>2026-04-03T14:32:21Z</time></trkpt><trkpt lat="46.021473117542996" lon="11.903644118212341"><ele>272.2</ele><time>2026-04-03T14:32:22Z</time></trkpt><trkpt lat="46.02146410195313" lon="11.903510559107469"><ele>272.0</ele><time>2026-04-03T14:32:23Z</time></trkpt><trkpt lat="46.0214587380785" lon="11.903369174383954"><ele>272.0</ele><time>2026-04-03T14:32:24Z</time></trkpt><trkpt lat="46.0214490040698" lon="11.903227217625505"><ele>272.0</ele><time>2026-04-03T14:32:25Z</time></trkpt><trkpt lat="46.02144203279883" lon="11.90307837362495"><ele>272.0</ele><time>2026-04-03T14:32:26Z</time></trkpt><trkpt lat="46.021438498583535" lon="11.902934377983183"><ele>272.0</ele><time>2026-04-03T14:32:27Z</time></trkpt><trkpt lat="46.0214288326587" lon="11.902783633352852"><ele>272.0</ele><time>2026-04-03T14:32:28Z</time></trkpt><trkpt lat="46.021426484422875" lon="11.902628405020609"><ele>272.1666666666667</ele><time>2026-04-03T14:32:29Z</time></trkpt><trkpt lat="46.021417589311326" lon="11.902484205869554"><ele>272.33333333333337</ele><time>2026-04-03T14:32:30Z</time></trkpt><trkpt lat="46.02141100034209" lon="11.902360218363679"><ele>272.5</ele><time>2026-04-03T14:32:31Z</time></trkpt><trkpt lat="46.02140218971166" lon="11.902241641209788"><ele>272.6666666666667</ele><time>2026-04-03T14:32:32Z</time></trkpt><trkpt lat="46.021397175132506" lon="11.902120473164258"><ele>272.8333333333333</ele><time>2026-04-03T14:32:33Z</time></trkpt><trkpt lat="46.021387934655124" lon="11.901990350058497"><ele>273.0</ele><time>2026-04-03T14:32:34Z</time></trkpt><trkpt lat="46.021377539794116" lon="11.901868221881807"><ele>273.1666666666667</ele><time>2026-04-03T14:32:35Z</time></trkpt><trkpt lat="46.02135443579639" lon="11.901732097592099"><ele>273.3333333333333</ele><time>2026-04-03T14:32:36Z</time></trkpt><trkpt lat="46.02132203429497" lon="11.901586865721203"><ele>273.5</ele><time>2026-04-03T14:32:37Z</time></trkpt><trkpt lat="46.02128544962778" lon="11.901466290857618"><ele>273.66666666666663</ele><time>2026-04-03T14:32:38Z</time></trkpt><trkpt lat="46.02124852735634" lon="11.90136571811703"><ele>273.8333333333333</ele><time>2026-04-03T14:32:39Z</time></trkpt><trkpt lat="46.021216369722154" lon="11.901277726602784"><ele>274.0</ele><time>2026-04-03T14:32:40Z</time></trkpt><trkpt lat="46.021185108470924" lon="11.901154473473152"><ele>274.0</ele><time>2026-04-03T14:32:41Z</time></trkpt><trkpt lat="46.02114960138092" lon="11.901064570714812"><ele>274.0</ele><time>2026-04-03T14:32:42Z</time></trkpt><trkpt lat="46.02110504196562" lon="11.900999912966075"><ele>274.0</ele><time>2026-04-03T14:32:43Z</time></trkpt><trkpt lat="46.021049475140465" lon="11.900842770457023"><ele>274.0</ele><time>2026-04-03T14:32:45Z</time></trkpt><trkpt lat="46.02101376684911" lon="11.900756885186857"><ele>274.0</ele><time>2026-04-03T14:32:46Z</time></trkpt><trkpt lat="46.02099110485173" lon="11.900651568106497"><ele>274.0</ele><time>2026-04-03T14:32:47Z</time></trkpt><trkpt lat="46.0209400122596" lon="11.900555790098453"><ele>274.0</ele><time>2026-04-03T14:32:48Z</time></trkpt><trkpt lat="46.02090891199759" lon="11.900453558542765"><ele>274.0</ele><time>2026-04-03T14:32:49Z</time></trkpt><trkpt lat="46.02086046874961" lon="11.900309404366842"><ele>274.0</ele><time>2026-04-03T14:32:51Z</time></trkpt><trkpt lat="46.02082703103284" lon="11.900151891703572"><ele>274.0</ele><time>2026-04-03T14:32:53Z</time></trkpt><trkpt lat="46.02082230375595" lon="11.900061062227836"><ele>274.0</ele><time>2026-04-03T14:32:54Z</time></trkpt><trkpt lat="46.02083867130932" lon="11.899895188819979"><ele>274.0</ele><time>2026-04-03T14:32:56Z</time></trkpt><trkpt lat="46.02083168256652" lon="11.899735331792991"><ele>274.0</ele><time>2026-04-03T14:32:58Z</time></trkpt><trkpt lat="46.020736340840884" lon="11.899651249607889"><ele>274.0</ele><time>2026-04-03T14:33:00Z</time></trkpt><trkpt lat="46.02067527189397" lon="11.899696780088368"><ele>274.0</ele><time>2026-04-03T14:33:01Z</time></trkpt><trkpt lat="46.020644034497" lon="11.899792579522092"><ele>274.0</ele><time>2026-04-03T14:33:02Z</time></trkpt><trkpt lat="46.0206203208082" lon="11.899894910550351"><ele>274.0</ele><time>2026-04-03T14:33:03Z</time></trkpt><trkpt lat="46.02058399635723" lon="11.900000652649096"><ele>274.0</ele><time>2026-04-03T14:33:04Z</time></trkpt><trkpt lat="46.020533220580795" lon="11.900112178310236"><ele>274.0</ele><time>2026-04-03T14:33:05Z</time></trkpt><trkpt lat="46.02045567445021" lon="11.900219600407766"><ele>274.0</ele><time>2026-04-03T14:33:06Z</time></trkpt><trkpt lat="46.02035459478483" lon="11.900317364944657"><ele>274.0</ele><time>2026-04-03T14:33:07Z</time></trkpt><trkpt lat="46.02023827213845" lon="11.900388801981466"><ele>274.0</ele><time>2026-04-03T14:33:08Z</time></trkpt><trkpt lat="46.020113862295325" lon="11.900504319746931"><ele>273.5</ele><time>2026-04-03T14:33:09Z</time></trkpt><trkpt lat="46.01997169885051" lon="11.90063631891634"><ele>273.0</ele><time>2026-04-03T14:33:10Z</time></trkpt><trkpt lat="46.0198547335874" lon="11.90074642858795"><ele>272.5</ele><time>2026-04-03T14:33:11Z</time></trkpt><trkpt lat="46.0197487122828" lon="11.90084628148781"><ele>272.0</ele><time>2026-04-03T14:33:12Z</time></trkpt><trkpt lat="46.019650887031496" lon="11.900961119332226"><ele>272.0</ele><time>2026-04-03T14:33:13Z</time></trkpt><trkpt lat="46.01953704807257" lon="11.901065265960591"><ele>272.0</ele><time>2026-04-03T14:33:14Z</time></trkpt><trkpt lat="46.01942585725155" lon="11.901162895022788"><ele>272.0</ele><time>2026-04-03T14:33:15Z</time></trkpt><trkpt lat="46.019330857506084" lon="11.901250275720583"><ele>272.0</ele><time>2026-04-03T14:33:16Z</time></trkpt><trkpt lat="46.01925005268264" lon="11.90132781348725"><ele>272.0</ele><time>2026-04-03T14:33:17Z</time></trkpt><trkpt lat="46.01916873625813" lon="11.901403831085194"><ele>272.0</ele><time>2026-04-03T14:33:18Z</time></trkpt><trkpt lat="46.01909734612211" lon="11.901470185585154"><ele>272.0</ele><time>2026-04-03T14:33:19Z</time></trkpt><trkpt lat="46.01903131584334" lon="11.90153299622321"><ele>272.0</ele><time>2026-04-03T14:33:20Z</time></trkpt><trkpt lat="46.01894524175892" lon="11.901618398876169"><ele>272.0</ele><time>2026-04-03T14:33:22Z</time></trkpt><trkpt lat="46.0188851218199" lon="11.901659861849227"><ele>272.0</ele><time>2026-04-03T14:33:23.999Z</time></trkpt><trkpt lat="46.01880697943323" lon="11.9015905571169"><ele>272.0</ele><time>2026-04-03T14:33:25.999Z</time></trkpt><trkpt lat="46.01877792151387" lon="11.901492844469555"><ele>272.0</ele><time>2026-04-03T14:33:26.999Z</time></trkpt><trkpt lat="46.01872706472895" lon="11.901377032542761"><ele>272.0</ele><time>2026-04-03T14:33:27.999Z</time></trkpt><trkpt lat="46.01866663970603" lon="11.901249163046206"><ele>272.0</ele><time>2026-04-03T14:33:28.999Z</time></trkpt><trkpt lat="46.018623870019" lon="11.901128459894817"><ele>272.0</ele><time>2026-04-03T14:33:29.999Z</time></trkpt><trkpt lat="46.0185641393684" lon="11.900979555591636"><ele>272.0</ele><time>2026-04-03T14:33:30.999Z</time></trkpt><trkpt lat="46.01849767358532" lon="11.900837037055839"><ele>272.0</ele><time>2026-04-03T14:33:31.999Z</time></trkpt><trkpt lat="46.01844395779126" lon="11.900711095090232"><ele>272.0</ele><time>2026-04-03T14:33:32.999Z</time></trkpt><trkpt lat="46.01839580087131" lon="11.900607504975408"><ele>272.0</ele><time>2026-04-03T14:33:33.999Z</time></trkpt><trkpt lat="46.0183526879128" lon="11.900515571363709"><ele>272.0</ele><time>2026-04-03T14:33:34.999Z</time></trkpt><trkpt lat="46.01831137112641" lon="11.900414328131372"><ele>271.6666666666667</ele><time>2026-04-03T14:33:35.999Z</time></trkpt><trkpt lat="46.01827154264583" lon="11.900337233552419"><ele>271.33333333333337</ele><time>2026-04-03T14:33:36.999Z</time></trkpt><trkpt lat="46.01822184601468" lon="11.900230355920822"><ele>271.0</ele><time>2026-04-03T14:33:38.999Z</time></trkpt><trkpt lat="46.01819133991809" lon="11.900141778453335"><ele>270.6666666666667</ele><time>2026-04-03T14:33:40.999Z</time></trkpt><trkpt lat="46.01815880335717" lon="11.900059197468698"><ele>270.3333333333333</ele><time>2026-04-03T14:33:42.999Z</time></trkpt><trkpt lat="46.018113967030224" lon="11.899931219444799"><ele>270.0</ele><time>2026-04-03T14:33:55.999Z</time></trkpt><trkpt lat="46.018068994772406" lon="11.899785296396852"><ele>270.0</ele><time>2026-04-03T14:33:57.999Z</time></trkpt><trkpt lat="46.01801812109193" lon="11.899626996279151"><ele>270.0</ele><time>2026-04-03T14:33:59.999Z</time></trkpt><trkpt lat="46.01800039417812" lon="11.899479458344043"><ele>270.0</ele><time>2026-04-03T14:34:01.999Z</time></trkpt><trkpt lat="46.018020759374444" lon="11.899377658108113"><ele>270.0</ele><time>2026-04-03T14:34:03.999Z</time></trkpt><trkpt lat="46.01810026645143" lon="11.899341120618512"><ele>270.0</ele><time>2026-04-03T14:34:06.999Z</time></trkpt><trkpt lat="46.01818302919746" lon="11.899323467608601"><ele>270.0</ele><time>2026-04-03T14:34:09.999Z</time></trkpt><trkpt lat="46.018224774525734" lon="11.899453300168698"><ele>270.0</ele><time>2026-04-03T14:34:14Z</time></trkpt><trkpt lat="46.01797021411155" lon="11.89958089770373"><ele>270.0</ele><time>2026-04-03T14:39:38.999Z</time></trkpt><trkpt lat="46.01803302288464" lon="11.8996457306799"><ele>270.0</ele><time>2026-04-03T14:40:08.999Z</time></trkpt><trkpt lat="46.01798795700407" lon="11.899577355800028"><ele>270.0</ele><time>2026-04-03T14:41:55.999Z</time></trkpt><trkpt lat="46.018044242714005" lon="11.899517546109337"><ele>270.0</ele><time>2026-04-03T14:42:02.999Z</time></trkpt><trkpt lat="46.01810352684205" lon="11.89946603534914"><ele>270.0</ele><time>2026-04-03T14:42:10.999Z</time></trkpt><trkpt lat="46.01816416982537" lon="11.899410888432536"><ele>270.0</ele><time>2026-04-03T14:42:15.999Z</time></trkpt><trkpt lat="46.01823261129945" lon="11.899413653840323"><ele>270.0</ele><time>2026-04-03T14:42:35.999Z</time></trkpt><trkpt lat="46.01827855268669" lon="11.8993181934701"><ele>270.0</ele><time>2026-04-03T14:44:55Z</time></trkpt><trkpt lat="46.01835579086184" lon="11.899257428625202"><ele>270.0</ele><time>2026-04-03T14:44:57Z</time></trkpt><trkpt lat="46.018335216276334" lon="11.899127131170538"><ele>270.0</ele><time>2026-04-03T14:45:00Z</time></trkpt><trkpt lat="46.01824716336402" lon="11.899084715188678"><ele>270.0</ele><time>2026-04-03T14:45:02Z</time></trkpt><trkpt lat="46.01817773264168" lon="11.899095954405215"><ele>270.0</ele><time>2026-04-03T14:45:03Z</time></trkpt><trkpt lat="46.01809056031697" lon="11.899122812775067"><ele>270.0</ele><time>2026-04-03T14:45:05Z</time></trkpt><trkpt lat="46.01802250541064" lon="11.89914535401371"><ele>270.0</ele><time>2026-04-03T14:45:08Z</time></trkpt><trkpt lat="46.01796165921222" lon="11.899178343763392"><ele>270.0</ele><time>2026-04-03T14:45:20Z</time></trkpt><trkpt lat="46.01793153723759" lon="11.89928615535278"><ele>270.0</ele><time>2026-04-03T14:45:22Z</time></trkpt><trkpt lat="46.01794610623284" lon="11.899378107903475"><ele>270.0</ele><time>2026-04-03T14:45:23Z</time></trkpt><trkpt lat="46.01796861640891" lon="11.899509818203862"><ele>270.0</ele><time>2026-04-03T14:45:24Z</time></trkpt><trkpt lat="46.01798846543214" lon="11.89963705920114"><ele>270.0</ele><time>2026-04-03T14:45:25Z</time></trkpt><trkpt lat="46.018002212639914" lon="11.899775860575598"><ele>270.0</ele><time>2026-04-03T14:45:27Z</time></trkpt><trkpt lat="46.018042874589725" lon="11.899898895130192"><ele>270.0</ele><time>2026-04-03T14:45:31Z</time></trkpt><trkpt lat="46.01809213807128" lon="11.900029260121732"><ele>269.6666666666667</ele><time>2026-04-03T14:45:34Z</time></trkpt><trkpt lat="46.017984736091904" lon="11.900168517035175"><ele>269.3333333333333</ele><time>2026-04-03T14:45:35Z</time></trkpt><trkpt lat="46.01794966286278" lon="11.900251971233782"><ele>269.0</ele><time>2026-04-03T14:45:36Z</time></trkpt><trkpt lat="46.01789256260371" lon="11.900314086418142"><ele>268.66666666666663</ele><time>2026-04-03T14:45:37Z</time></trkpt><trkpt lat="46.01783341554698" lon="11.900388185776412"><ele>268.3333333333333</ele><time>2026-04-03T14:45:39Z</time></trkpt><trkpt lat="46.01777765282246" lon="11.90045603085455"><ele>268.0</ele><time>2026-04-03T14:45:42Z</time></trkpt><trkpt lat="46.01783596488091" lon="11.900646703529647"><ele>268.0</ele><time>2026-04-03T14:45:43Z</time></trkpt><trkpt lat="46.01783160475284" lon="11.900753051237173"><ele>268.0</ele><time>2026-04-03T14:45:44Z</time></trkpt><trkpt lat="46.017827289600135" lon="11.900868258031958"><ele>268.0</ele><time>2026-04-03T14:45:45Z</time></trkpt><trkpt lat="46.01783084207727" lon="11.900988205579946"><ele>268.0</ele><time>2026-04-03T14:45:46Z</time></trkpt><trkpt lat="46.0178308786951" lon="11.901094912315207"><ele>268.0</ele><time>2026-04-03T14:45:47Z</time></trkpt><trkpt lat="46.017836318306934" lon="11.90125281002313"><ele>268.0</ele><time>2026-04-03T14:45:49Z</time></trkpt><trkpt lat="46.01785798788614" lon="11.901359506129591"><ele>268.0</ele><time>2026-04-03T14:45:51Z</time></trkpt><trkpt lat="46.01784977775941" lon="11.901489022197817"><ele>268.0</ele><time>2026-04-03T14:45:54Z</time></trkpt><trkpt lat="46.01787995726844" lon="11.901649402208532"><ele>268.0</ele><time>2026-04-03T14:45:56Z</time></trkpt><trkpt lat="46.017898849430836" lon="11.90176030239908"><ele>268.0</ele><time>2026-04-03T14:45:57Z</time></trkpt><trkpt lat="46.01791110331861" lon="11.901891938352438"><ele>268.0</ele><time>2026-04-03T14:45:58Z</time></trkpt><trkpt lat="46.01791449139799" lon="11.902035817964622"><ele>268.2</ele><time>2026-04-03T14:45:59Z</time></trkpt><trkpt lat="46.01792306998188" lon="11.902177463737676"><ele>268.4</ele><time>2026-04-03T14:46:00Z</time></trkpt><trkpt lat="46.017931503937575" lon="11.90231107275319"><ele>268.59999999999997</ele><time>2026-04-03T14:46:01Z</time></trkpt><trkpt lat="46.01793040235062" lon="11.902418246153497"><ele>268.8</ele><time>2026-04-03T14:46:02Z</time></trkpt><trkpt lat="46.01794274330948" lon="11.902588614160589"><ele>269.0</ele><time>2026-04-03T14:46:04Z</time></trkpt><trkpt lat="46.01793095828821" lon="11.902765140014397"><ele>269.2</ele><time>2026-04-03T14:46:06Z</time></trkpt><trkpt lat="46.017895237088084" lon="11.902857553696263"><ele>269.4</ele><time>2026-04-03T14:46:07Z</time></trkpt><trkpt lat="46.01783072001088" lon="11.902950902931094"><ele>269.6</ele><time>2026-04-03T14:46:08Z</time></trkpt><trkpt lat="46.017765805986095" lon="11.903048053359957"><ele>269.8</ele><time>2026-04-03T14:46:09Z</time></trkpt><trkpt lat="46.01771970883651" lon="11.903172995381887"><ele>270.0</ele><time>2026-04-03T14:46:09.999Z</time></trkpt><trkpt lat="46.01766455158173" lon="11.90329660655756"><ele>270.0</ele><time>2026-04-03T14:46:10.999Z</time></trkpt><trkpt lat="46.01761643034119" lon="11.903385004231074"><ele>270.0</ele><time>2026-04-03T14:46:11.999Z</time></trkpt><trkpt lat="46.01757673843451" lon="11.903493362156023"><ele>270.0</ele><time>2026-04-03T14:46:12.999Z</time></trkpt><trkpt lat="46.01754060113973" lon="11.903610750316776"><ele>270.0</ele><time>2026-04-03T14:46:13.999Z</time></trkpt><trkpt lat="46.017504310228766" lon="11.903720091757023"><ele>270.0</ele><time>2026-04-03T14:46:14.999Z</time></trkpt><trkpt lat="46.017464749238435" lon="11.903847658434355"><ele>270.0</ele><time>2026-04-03T14:46:16.999Z</time></trkpt><trkpt lat="46.01741719480708" lon="11.90395740822319"><ele>270.4</ele><time>2026-04-03T14:46:24.999Z</time></trkpt><trkpt lat="46.01736501439895" lon="11.904085610896434"><ele>270.8</ele><time>2026-04-03T14:46:26.999Z</time></trkpt><trkpt lat="46.017333077093255" lon="11.90418929522703"><ele>271.2</ele><time>2026-04-03T14:46:28.999Z</time></trkpt><trkpt lat="46.017470982998205" lon="11.904287464595809"><ele>271.6</ele><time>2026-04-03T14:46:32.999Z</time></trkpt><trkpt lat="46.01754288023659" lon="11.904291778337171"><ele>272.0</ele><time>2026-04-03T14:46:33.999Z</time></trkpt><trkpt lat="46.017621506374134" lon="11.904302285097682"><ele>273.8</ele><time>2026-04-03T14:46:34.999Z</time></trkpt><trkpt lat="46.017701822025984" lon="11.904335306261746"><ele>275.6</ele><time>2026-04-03T14:46:35.999Z</time></trkpt><trkpt lat="46.01779091532022" lon="11.90440157840322"><ele>277.40000000000003</ele><time>2026-04-03T14:46:36.999Z</time></trkpt><trkpt lat="46.01789065329536" lon="11.904485950721067"><ele>279.2</ele><time>2026-04-03T14:46:37.999Z</time></trkpt><trkpt lat="46.01798986456212" lon="11.904572539144933"><ele>281.0</ele><time>2026-04-03T14:46:38.999Z</time></trkpt><trkpt lat="46.01808253155353" lon="11.904677675136258"><ele>281.0</ele><time>2026-04-03T14:46:39.999Z</time></trkpt><trkpt lat="46.018166936302606" lon="11.904826859264238"><ele>281.0</ele><time>2026-04-03T14:46:40.999Z</time></trkpt><trkpt lat="46.01826047717095" lon="11.90499349269484"><ele>281.0</ele><time>2026-04-03T14:46:41.999Z</time></trkpt><trkpt lat="46.018339644969366" lon="11.90514532086501"><ele>281.0</ele><time>2026-04-03T14:46:42.999Z</time></trkpt><trkpt lat="46.018399702258684" lon="11.905282551604436"><ele>281.6</ele><time>2026-04-03T14:46:43.999Z</time></trkpt><trkpt lat="46.01844803891303" lon="11.905423393211995"><ele>282.20000000000005</ele><time>2026-04-03T14:46:44.999Z</time></trkpt><trkpt lat="46.01848837158676" lon="11.905564229077047"><ele>282.79999999999995</ele><time>2026-04-03T14:46:45.999Z</time></trkpt><trkpt lat="46.0185260721181" lon="11.905684739361524"><ele>283.4</ele><time>2026-04-03T14:46:46.999Z</time></trkpt><trkpt lat="46.018564171605384" lon="11.905794766212548"><ele>284.0</ele><time>2026-04-03T14:46:47.999Z</time></trkpt><trkpt lat="46.01860620549997" lon="11.90590515451508"><ele>285.59999999999997</ele><time>2026-04-03T14:46:49Z</time></trkpt><trkpt lat="46.01865319003165" lon="11.906015228716216"><ele>287.2</ele><time>2026-04-03T14:46:50Z</time></trkpt><trkpt lat="46.01869777791039" lon="11.906113435276518"><ele>288.79999999999995</ele><time>2026-04-03T14:46:51Z</time></trkpt><trkpt lat="46.01873672584073" lon="11.906195379328762"><ele>290.4</ele><time>2026-04-03T14:46:52Z</time></trkpt><trkpt lat="46.01878422581811" lon="11.906284129634397"><ele>292.0</ele><time>2026-04-03T14:46:54Z</time></trkpt><trkpt lat="46.01897226802865" lon="11.90622244424811"><ele>292.0</ele><time>2026-04-03T14:46:57Z</time></trkpt><trkpt lat="46.01907334830907" lon="11.906174150816497"><ele>292.0</ele><time>2026-04-03T14:46:58Z</time></trkpt><trkpt lat="46.019198289680695" lon="11.906112773055797"><ele>292.0</ele><time>2026-04-03T14:46:59Z</time></trkpt><trkpt lat="46.01933460374049" lon="11.906048618623629"><ele>292.0</ele><time>2026-04-03T14:47:00Z</time></trkpt><trkpt lat="46.01949217376717" lon="11.905983270207821"><ele>286.66666666666663</ele><time>2026-04-03T14:47:01Z</time></trkpt><trkpt lat="46.01963534467335" lon="11.905930474036433"><ele>281.3333333333333</ele><time>2026-04-03T14:47:02Z</time></trkpt><trkpt lat="46.0197748874303" lon="11.905873785307048"><ele>276.0</ele><time>2026-04-03T14:47:03Z</time></trkpt><trkpt lat="46.019938974979176" lon="11.905813351476603"><ele>275.0</ele><time>2026-04-03T14:47:04Z</time></trkpt><trkpt lat="46.02008287063551" lon="11.905755558951897"><ele>274.0</ele><time>2026-04-03T14:47:05Z</time></trkpt><trkpt lat="46.02020466180882" lon="11.905698753156022"><ele>273.0</ele><time>2026-04-03T14:47:06Z</time></trkpt><trkpt lat="46.02031334418105" lon="11.90565293397224"><ele>272.0</ele><time>2026-04-03T14:47:07Z</time></trkpt><trkpt lat="46.020422016544" lon="11.905617650027592"><ele>272.0</ele><time>2026-04-03T14:47:08Z</time></trkpt><trkpt lat="46.02052614150675" lon="11.905579211643538"><ele>272.0</ele><time>2026-04-03T14:47:09Z</time></trkpt><trkpt lat="46.02061849688286" lon="11.905541210508469"><ele>272.0</ele><time>2026-04-03T14:47:10Z</time></trkpt><trkpt lat="46.020698439849255" lon="11.905510829992716"><ele>272.0</ele><time>2026-04-03T14:47:11Z</time></trkpt><trkpt lat="46.020770479673736" lon="11.905467690915284"><ele>272.0</ele><time>2026-04-03T14:47:12Z</time></trkpt><trkpt lat="46.020835982529256" lon="11.905447779340474"><ele>272.0</ele><time>2026-04-03T14:47:13Z</time></trkpt><trkpt lat="46.020900464253124" lon="11.905423557528028"><ele>272.5</ele><time>2026-04-03T14:47:14Z</time></trkpt><trkpt lat="46.0210054498149" lon="11.90537785814788"><ele>273.0</ele><time>2026-04-03T14:47:16Z</time></trkpt><trkpt lat="46.02111088297706" lon="11.905341029885271"><ele>273.5</ele><time>2026-04-03T14:47:18Z</time></trkpt><trkpt lat="46.02123348453996" lon="11.905296615696773"><ele>274.0</ele><time>2026-04-03T14:47:20Z</time></trkpt><trkpt lat="46.021340870020964" lon="11.90524180536462"><ele>274.0</ele><time>2026-04-03T14:47:22Z</time></trkpt><trkpt lat="46.021404296606896" lon="11.905211946311299"><ele>274.0</ele><time>2026-04-03T14:47:30Z</time></trkpt><trkpt lat="46.02147050429059" lon="11.905219120780238"><ele>274.0</ele><time>2026-04-03T14:47:32Z</time></trkpt><trkpt lat="46.02153827931534" lon="11.905359786657057"><ele>274.0</ele><time>2026-04-03T14:47:34Z</time></trkpt><trkpt lat="46.02153662937865" lon="11.905467390185926"><ele>274.0</ele><time>2026-04-03T14:47:35Z</time></trkpt><trkpt lat="46.0215376689425" lon="11.905568626439418"><ele>274.0</ele><time>2026-04-03T14:47:36Z</time></trkpt><trkpt lat="46.02155403225577" lon="11.905662209311226"><ele>274.0</ele><time>2026-04-03T14:47:37Z</time></trkpt><trkpt lat="46.02156043322516" lon="11.90588406148186"><ele>274.0</ele><time>2026-04-03T14:47:39Z</time></trkpt><trkpt lat="46.02157018169357" lon="11.90600554552289"><ele>274.0</ele><time>2026-04-03T14:47:40Z</time></trkpt><trkpt lat="46.021569613439844" lon="11.906120626827116"><ele>274.0</ele><time>2026-04-03T14:47:41Z</time></trkpt><trkpt lat="46.02157485203943" lon="11.906237328802403"><ele>274.0</ele><time>2026-04-03T14:47:42Z</time></trkpt><trkpt lat="46.02158516535993" lon="11.906352839221313"><ele>273.8</ele><time>2026-04-03T14:47:43Z</time></trkpt><trkpt lat="46.0215935753727" lon="11.906477452782728"><ele>273.59999999999997</ele><time>2026-04-03T14:47:44Z</time></trkpt><trkpt lat="46.02160829450299" lon="11.90660252907491"><ele>273.4</ele><time>2026-04-03T14:47:45Z</time></trkpt><trkpt lat="46.021627425047804" lon="11.906728685420356"><ele>273.2</ele><time>2026-04-03T14:47:46Z</time></trkpt><trkpt lat="46.021643973776335" lon="11.906867524998306"><ele>273.0</ele><time>2026-04-03T14:47:47Z</time></trkpt><trkpt lat="46.02166504576005" lon="11.906991780908895"><ele>273.0</ele><time>2026-04-03T14:47:48Z</time></trkpt><trkpt lat="46.02168382550627" lon="11.90712899450606"><ele>273.0</ele><time>2026-04-03T14:47:49Z</time></trkpt><trkpt lat="46.02171180144688" lon="11.907273609349232"><ele>273.0</ele><time>2026-04-03T14:47:50Z</time></trkpt><trkpt lat="46.02174309778525" lon="11.907425790048475"><ele>273.0</ele><time>2026-04-03T14:47:51Z</time></trkpt><trkpt lat="46.021775010750474" lon="11.907589138713023"><ele>273.0</ele><time>2026-04-03T14:47:52Z</time></trkpt><trkpt lat="46.02181371229104" lon="11.907753577553027"><ele>273.0</ele><time>2026-04-03T14:47:53Z</time></trkpt><trkpt lat="46.02185137330979" lon="11.907921727295747"><ele>273.0</ele><time>2026-04-03T14:47:54Z</time></trkpt><trkpt lat="46.02188873864752" lon="11.908098275316"><ele>273.0</ele><time>2026-04-03T14:47:55Z</time></trkpt><trkpt lat="46.0219307444887" lon="11.908272108100073"><ele>273.0</ele><time>2026-04-03T14:47:56Z</time></trkpt><trkpt lat="46.02196879265357" lon="11.908440322395078"><ele>273.25</ele><time>2026-04-03T14:47:57Z</time></trkpt><trkpt lat="46.022003741786236" lon="11.908606911759861"><ele>273.5</ele><time>2026-04-03T14:47:58Z</time></trkpt><trkpt lat="46.02203913341604" lon="11.908774756032722"><ele>273.75</ele><time>2026-04-03T14:47:59Z</time></trkpt><trkpt lat="46.022078636128555" lon="11.908946940293669"><ele>274.0</ele><time>2026-04-03T14:48:00Z</time></trkpt><trkpt lat="46.022117742247715" lon="11.909128109298"><ele>274.25</ele><time>2026-04-03T14:48:01Z</time></trkpt><trkpt lat="46.02215797609343" lon="11.90930105864099"><ele>274.5</ele><time>2026-04-03T14:48:02Z</time></trkpt><trkpt lat="46.0221997716894" lon="11.909475459339575"><ele>274.75</ele><time>2026-04-03T14:48:03Z</time></trkpt><trkpt lat="46.02223841333377" lon="11.909650171950055"><ele>275.0</ele><time>2026-04-03T14:48:04Z</time></trkpt><trkpt lat="46.02227770296341" lon="11.909820369112383"><ele>275.0</ele><time>2026-04-03T14:48:05Z</time></trkpt><trkpt lat="46.02231818325426" lon="11.909990307997974"><ele>275.0</ele><time>2026-04-03T14:48:06Z</time></trkpt><trkpt lat="46.022354496954684" lon="11.910158618440217"><ele>275.0</ele><time>2026-04-03T14:48:07Z</time></trkpt><trkpt lat="46.02238706311036" lon="11.910320237181812"><ele>275.0</ele><time>2026-04-03T14:48:08Z</time></trkpt><trkpt lat="46.02242400345224" lon="11.91047581095382"><ele>275.2</ele><time>2026-04-03T14:48:09Z</time></trkpt><trkpt lat="46.022452834252874" lon="11.91062700078637"><ele>275.4</ele><time>2026-04-03T14:48:09.999Z</time></trkpt><trkpt lat="46.022477227618566" lon="11.910764453997412"><ele>275.6</ele><time>2026-04-03T14:48:10.999Z</time></trkpt><trkpt lat="46.022500765688925" lon="11.91090492758218"><ele>275.8</ele><time>2026-04-03T14:48:11.999Z</time></trkpt><trkpt lat="46.02251968898774" lon="11.911039915018767"><ele>276.0</ele><time>2026-04-03T14:48:12.999Z</time></trkpt><trkpt lat="46.0225327360118" lon="11.91117890558564"><ele>276.2</ele><time>2026-04-03T14:48:13.999Z</time></trkpt><trkpt lat="46.02255152771352" lon="11.911326325821559"><ele>276.40000000000003</ele><time>2026-04-03T14:48:14.999Z</time></trkpt><trkpt lat="46.022563788821145" lon="11.911468786835263"><ele>276.6</ele><time>2026-04-03T14:48:15.999Z</time></trkpt><trkpt lat="46.02256986053513" lon="11.911597145167974"><ele>276.8</ele><time>2026-04-03T14:48:16.999Z</time></trkpt><trkpt lat="46.0225771860235" lon="11.911704496002386"><ele>277.0</ele><time>2026-04-03T14:48:17.999Z</time></trkpt><trkpt lat="46.022579924520166" lon="11.911871193870747"><ele>277.0</ele><time>2026-04-03T14:48:19.999Z</time></trkpt><trkpt lat="46.02258971885957" lon="11.91200872787571"><ele>277.0</ele><time>2026-04-03T14:48:21.999Z</time></trkpt><trkpt lat="46.02259243525502" lon="11.912105706396206"><ele>277.0</ele><time>2026-04-03T14:48:23.999Z</time></trkpt><trkpt lat="46.02258152402914" lon="11.912198386906255"><ele>277.0</ele><time>2026-04-03T14:48:26.999Z</time></trkpt><trkpt lat="46.02254637080384" lon="11.912331965832786"><ele>277.0</ele><time>2026-04-03T14:48:32.999Z</time></trkpt><trkpt lat="46.02252990977462" lon="11.91247051385632"><ele>277.0</ele><time>2026-04-03T14:48:34.999Z</time></trkpt><trkpt lat="46.02256220012893" lon="11.912654172603428"><ele>276.6</ele><time>2026-04-03T14:48:36.999Z</time></trkpt><trkpt lat="46.022594475524805" lon="11.912762380738823"><ele>276.2</ele><time>2026-04-03T14:48:37.999Z</time></trkpt><trkpt lat="46.022626247978444" lon="11.912894877025893"><ele>275.8</ele><time>2026-04-03T14:48:38.999Z</time></trkpt><trkpt lat="46.02264598296275" lon="11.913069112990053"><ele>275.4</ele><time>2026-04-03T14:48:39.999Z</time></trkpt><trkpt lat="46.02266066910046" lon="11.913242866281761"><ele>275.0</ele><time>2026-04-03T14:48:40.999Z</time></trkpt><trkpt lat="46.02266444200711" lon="11.91342549850713"><ele>275.0</ele><time>2026-04-03T14:48:41.999Z</time></trkpt><trkpt lat="46.02267601665746" lon="11.913614229262663"><ele>275.0</ele><time>2026-04-03T14:48:42.999Z</time></trkpt><trkpt lat="46.022683665672666" lon="11.913817363662831"><ele>275.0</ele><time>2026-04-03T14:48:43.999Z</time></trkpt><trkpt lat="46.022691450141075" lon="11.914036664902792"><ele>275.0</ele><time>2026-04-03T14:48:44.999Z</time></trkpt><trkpt lat="46.02269307144896" lon="11.914265623185315"><ele>275.0</ele><time>2026-04-03T14:48:45.999Z</time></trkpt><trkpt lat="46.02270629502716" lon="11.91450266103989"><ele>275.0</ele><time>2026-04-03T14:48:46.999Z</time></trkpt><trkpt lat="46.022720222256055" lon="11.914734553350316"><ele>275.0</ele><time>2026-04-03T14:48:47.999Z</time></trkpt><trkpt lat="46.02273098275338" lon="11.914972446943372"><ele>276.0</ele><time>2026-04-03T14:48:48.999Z</time></trkpt><trkpt lat="46.022739923827636" lon="11.915206087451693"><ele>277.0</ele><time>2026-04-03T14:48:49.999Z</time></trkpt><trkpt lat="46.0227493444121" lon="11.915444835831499"><ele>278.0</ele><time>2026-04-03T14:48:50.999Z</time></trkpt><trkpt lat="46.02275643588444" lon="11.915682222504847"><ele>279.6666666666667</ele><time>2026-04-03T14:48:51.999Z</time></trkpt><trkpt lat="46.0227711140429" lon="11.915916512786811"><ele>281.3333333333333</ele><time>2026-04-03T14:48:52.999Z</time></trkpt><trkpt lat="46.02278144921827" lon="11.916145192658316"><ele>283.0</ele><time>2026-04-03T14:48:53.999Z</time></trkpt><trkpt lat="46.02278480561392" lon="11.916369059119356"><ele>283.0</ele><time>2026-04-03T14:48:55Z</time></trkpt><trkpt lat="46.022792691125" lon="11.916604667585268"><ele>283.0</ele><time>2026-04-03T14:48:56Z</time></trkpt><trkpt lat="46.02279592021585" lon="11.916842577936057"><ele>283.0</ele><time>2026-04-03T14:48:57Z</time></trkpt><trkpt lat="46.02281011290548" lon="11.917089154269949"><ele>284.0</ele><time>2026-04-03T14:48:58Z</time></trkpt><trkpt lat="46.022809591896184" lon="11.91731963119004"><ele>285.0</ele><time>2026-04-03T14:48:59Z</time></trkpt><trkpt lat="46.02282644593529" lon="11.917534516966631"><ele>286.0</ele><time>2026-04-03T14:49:00Z</time></trkpt><trkpt lat="46.02284049473287" lon="11.917764345804724"><ele>286.25</ele><time>2026-04-03T14:49:01Z</time></trkpt><trkpt lat="46.02285244193253" lon="11.917990126226076"><ele>286.5</ele><time>2026-04-03T14:49:02Z</time></trkpt><trkpt lat="46.022865011258304" lon="11.918193047068925"><ele>286.75</ele><time>2026-04-03T14:49:03Z</time></trkpt><trkpt lat="46.02286671711743" lon="11.918387852128598"><ele>287.0</ele><time>2026-04-03T14:49:04Z</time></trkpt><trkpt lat="46.022884576299155" lon="11.918589264634766"><ele>288.0</ele><time>2026-04-03T14:49:05Z</time></trkpt><trkpt lat="46.02289270696437" lon="11.91879350137984"><ele>289.0</ele><time>2026-04-03T14:49:06Z</time></trkpt><trkpt lat="46.02289978312816" lon="11.918984334530823"><ele>290.0</ele><time>2026-04-03T14:49:07Z</time></trkpt><trkpt lat="46.02291124160781" lon="11.919168130057447"><ele>291.0</ele><time>2026-04-03T14:49:08Z</time></trkpt><trkpt lat="46.02291982987976" lon="11.919339596235536"><ele>291.3333333333333</ele><time>2026-04-03T14:49:09Z</time></trkpt><trkpt lat="46.022925788513845" lon="11.919495521807027"><ele>291.6666666666667</ele><time>2026-04-03T14:49:10Z</time></trkpt><trkpt lat="46.022931023101435" lon="11.919628473981286"><ele>292.0</ele><time>2026-04-03T14:49:11Z</time></trkpt><trkpt lat="46.02293579879493" lon="11.919753315868606"><ele>292.33333333333337</ele><time>2026-04-03T14:49:12Z</time></trkpt><trkpt lat="46.02293895587941" lon="11.919869516929323"><ele>292.6666666666667</ele><time>2026-04-03T14:49:13Z</time></trkpt><trkpt lat="46.022945110819926" lon="11.919981632091336"><ele>293.0</ele><time>2026-04-03T14:49:14Z</time></trkpt><trkpt lat="46.02295120228934" lon="11.920099237820306"><ele>293.0</ele><time>2026-04-03T14:49:15Z</time></trkpt><trkpt lat="46.022955835693374" lon="11.92021159746664"><ele>293.0</ele><time>2026-04-03T14:49:16Z</time></trkpt><trkpt lat="46.02295989910833" lon="11.920310245788288"><ele>293.0</ele><time>2026-04-03T14:49:17Z</time></trkpt><trkpt lat="46.022966350916235" lon="11.92044131864105"><ele>293.0</ele><time>2026-04-03T14:49:19Z</time></trkpt><trkpt lat="46.022971665392184" lon="11.920557737493226"><ele>293.0</ele><time>2026-04-03T14:49:23Z</time></trkpt><trkpt lat="46.022979217113914" lon="11.92068116073344"><ele>293.0</ele><time>2026-04-03T14:49:26Z</time></trkpt><trkpt lat="46.02298318137872" lon="11.920832877384811"><ele>292.6666666666667</ele><time>2026-04-03T14:49:28Z</time></trkpt><trkpt lat="46.02296499557064" lon="11.920935685057296"><ele>292.33333333333337</ele><time>2026-04-03T14:49:29Z</time></trkpt><trkpt lat="46.02291968082794" lon="11.921045676972104"><ele>292.0</ele><time>2026-04-03T14:49:30Z</time></trkpt><trkpt lat="46.02286143675394" lon="11.921147718630678"><ele>291.6666666666667</ele><time>2026-04-03T14:49:31Z</time></trkpt><trkpt lat="46.022803411864935" lon="11.921263700989593"><ele>291.3333333333333</ele><time>2026-04-03T14:49:32Z</time></trkpt><trkpt lat="46.02278734749119" lon="11.921379172917101"><ele>291.0</ele><time>2026-04-03T14:49:33Z</time></trkpt><trkpt lat="46.02280849535297" lon="11.921477069998708"><ele>291.0</ele><time>2026-04-03T14:49:34Z</time></trkpt><trkpt lat="46.02284912400322" lon="11.921558313368493"><ele>291.0</ele><time>2026-04-03T14:49:35Z</time></trkpt><trkpt lat="46.02290559432954" lon="11.921626035712983"><ele>291.0</ele><time>2026-04-03T14:49:36Z</time></trkpt><trkpt lat="46.0229610128535" lon="11.921708943691513"><ele>291.0</ele><time>2026-04-03T14:49:37Z</time></trkpt><trkpt lat="46.02301387627782" lon="11.92180142289559"><ele>291.0</ele><time>2026-04-03T14:49:38Z</time></trkpt><trkpt lat="46.02305967093753" lon="11.92189987140488"><ele>291.0</ele><time>2026-04-03T14:49:39Z</time></trkpt><trkpt lat="46.023102787731446" lon="11.921981107783525"><ele>291.40000000000003</ele><time>2026-04-03T14:49:40Z</time></trkpt><trkpt lat="46.023136368255905" lon="11.92208011674561"><ele>291.8</ele><time>2026-04-03T14:49:41Z</time></trkpt><trkpt lat="46.023179206282435" lon="11.922188910952121"><ele>292.20000000000005</ele><time>2026-04-03T14:49:42Z</time></trkpt><trkpt lat="46.02320296591117" lon="11.922281042129601"><ele>292.6</ele><time>2026-04-03T14:49:43Z</time></trkpt><trkpt lat="46.02326536235962" lon="11.922426108089299"><ele>293.0</ele><time>2026-04-03T14:49:45Z</time></trkpt><trkpt lat="46.02332378311413" lon="11.922597241189765"><ele>293.33333333333337</ele><time>2026-04-03T14:49:47Z</time></trkpt><trkpt lat="46.023362889374894" lon="11.922689801246934"><ele>293.6666666666667</ele><time>2026-04-03T14:49:48Z</time></trkpt><trkpt lat="46.0234180512571" lon="11.922831902514643"><ele>294.0</ele><time>2026-04-03T14:49:50Z</time></trkpt><trkpt lat="46.02346657754452" lon="11.922944396565157"><ele>294.3333333333333</ele><time>2026-04-03T14:49:52Z</time></trkpt><trkpt lat="46.023515200194225" lon="11.923061015257765"><ele>294.66666666666663</ele><time>2026-04-03T14:49:54Z</time></trkpt><trkpt lat="46.02354790643713" lon="11.923141561354567"><ele>295.0</ele><time>2026-04-03T14:49:55Z</time></trkpt><trkpt lat="46.02360142233003" lon="11.923262394593314"><ele>295.0</ele><time>2026-04-03T14:49:56Z</time></trkpt><trkpt lat="46.02364603754903" lon="11.923365732689449"><ele>295.0</ele><time>2026-04-03T14:49:57Z</time></trkpt><trkpt lat="46.02368787858735" lon="11.923453655321488"><ele>295.0</ele><time>2026-04-03T14:49:58Z</time></trkpt><trkpt lat="46.02372904212877" lon="11.923556603819607"><ele>295.0</ele><time>2026-04-03T14:49:59Z</time></trkpt><trkpt lat="46.023794250201256" lon="11.923672377285792"><ele>295.0</ele><time>2026-04-03T14:50:00Z</time></trkpt><trkpt lat="46.02386186392749" lon="11.923791924467482"><ele>295.4</ele><time>2026-04-03T14:50:01Z</time></trkpt><trkpt lat="46.02392405215572" lon="11.923918049908604"><ele>295.8</ele><time>2026-04-03T14:50:02Z</time></trkpt><trkpt lat="46.02397296587428" lon="11.924015888670926"><ele>296.2</ele><time>2026-04-03T14:50:03Z</time></trkpt><trkpt lat="46.02402966203399" lon="11.924119427240017"><ele>296.6</ele><time>2026-04-03T14:50:04Z</time></trkpt><trkpt lat="46.024091775285555" lon="11.92422720941823"><ele>297.0</ele><time>2026-04-03T14:50:05Z</time></trkpt><trkpt lat="46.02416074511636" lon="11.924341962930146"><ele>297.0</ele><time>2026-04-03T14:50:06Z</time></trkpt><trkpt lat="46.02423196990576" lon="11.924465990874985"><ele>297.0</ele><time>2026-04-03T14:50:07Z</time></trkpt><trkpt lat="46.02431836270024" lon="11.924610138010289"><ele>297.0</ele><time>2026-04-03T14:50:08Z</time></trkpt><trkpt lat="46.024406374940014" lon="11.924756705856257"><ele>297.0</ele><time>2026-04-03T14:50:09Z</time></trkpt><trkpt lat="46.024492725320655" lon="11.924899891040432"><ele>297.0</ele><time>2026-04-03T14:50:10Z</time></trkpt><trkpt lat="46.02456584989693" lon="11.925029157017526"><ele>297.0</ele><time>2026-04-03T14:50:11Z</time></trkpt><trkpt lat="46.0246298334086" lon="11.925149692508839"><ele>297.0</ele><time>2026-04-03T14:50:12Z</time></trkpt><trkpt lat="46.02469889319242" lon="11.92526492235195"><ele>297.0</ele><time>2026-04-03T14:50:13Z</time></trkpt><trkpt lat="46.024773001952546" lon="11.925398003653816"><ele>297.0</ele><time>2026-04-03T14:50:14Z</time></trkpt><trkpt lat="46.02484331341779" lon="11.92555889136775"><ele>297.0</ele><time>2026-04-03T14:50:15Z</time></trkpt><trkpt lat="46.02491646172064" lon="11.925714221972944"><ele>297.0</ele><time>2026-04-03T14:50:16Z</time></trkpt><trkpt lat="46.02498264975476" lon="11.925860099433757"><ele>297.0</ele><time>2026-04-03T14:50:16.999Z</time></trkpt><trkpt lat="46.02503522541111" lon="11.925999150446712"><ele>297.0</ele><time>2026-04-03T14:50:17.999Z</time></trkpt><trkpt lat="46.02509699749526" lon="11.926146379072701"><ele>297.4</ele><time>2026-04-03T14:50:18.999Z</time></trkpt><trkpt lat="46.02514321927073" lon="11.926275649312723"><ele>297.79999999999995</ele><time>2026-04-03T14:50:19.999Z</time></trkpt><trkpt lat="46.0251845947838" lon="11.926388450771412"><ele>298.2</ele><time>2026-04-03T14:50:20.999Z</time></trkpt><trkpt lat="46.025228852509265" lon="11.926495416652227"><ele>298.59999999999997</ele><time>2026-04-03T14:50:21.999Z</time></trkpt><trkpt lat="46.02527427868125" lon="11.926619083829827"><ele>299.0</ele><time>2026-04-03T14:50:22.999Z</time></trkpt><trkpt lat="46.02532052828468" lon="11.926750480882538"><ele>300.0</ele><time>2026-04-03T14:50:23.999Z</time></trkpt><trkpt lat="46.02536579451845" lon="11.92688785592865"><ele>301.0</ele><time>2026-04-03T14:50:24.999Z</time></trkpt><trkpt lat="46.02541286646091" lon="11.927025827902758"><ele>302.0</ele><time>2026-04-03T14:50:25.999Z</time></trkpt><trkpt lat="46.02546449841636" lon="11.927188029550855"><ele>303.0</ele><time>2026-04-03T14:50:26.999Z</time></trkpt><trkpt lat="46.025519076259336" lon="11.927357740850477"><ele>303.0</ele><time>2026-04-03T14:50:27.999Z</time></trkpt><trkpt lat="46.02556697821266" lon="11.927513805004489"><ele>303.0</ele><time>2026-04-03T14:50:28.999Z</time></trkpt><trkpt lat="46.025620352815956" lon="11.92768256172606"><ele>303.0</ele><time>2026-04-03T14:50:29.999Z</time></trkpt><trkpt lat="46.02567126922356" lon="11.92783614058491"><ele>303.0</ele><time>2026-04-03T14:50:30.999Z</time></trkpt><trkpt lat="46.025712971716224" lon="11.92797375864416"><ele>302.5</ele><time>2026-04-03T14:50:31.999Z</time></trkpt><trkpt lat="46.0257466955941" lon="11.928112368764916"><ele>302.0</ele><time>2026-04-03T14:50:32.999Z</time></trkpt><trkpt lat="46.02579765893416" lon="11.928259566531814"><ele>301.5</ele><time>2026-04-03T14:50:33.999Z</time></trkpt><trkpt lat="46.02584967905138" lon="11.928436853490105"><ele>301.0</ele><time>2026-04-03T14:50:34.999Z</time></trkpt><trkpt lat="46.02590141363465" lon="11.92862246550941"><ele>301.0</ele><time>2026-04-03T14:50:35.999Z</time></trkpt><trkpt lat="46.02595943862796" lon="11.928820657769117"><ele>301.0</ele><time>2026-04-03T14:50:36.999Z</time></trkpt><trkpt lat="46.026024082041204" lon="11.929025923590052"><ele>301.0</ele><time>2026-04-03T14:50:37.999Z</time></trkpt><trkpt lat="46.02607257902597" lon="11.92921471379539"><ele>301.0</ele><time>2026-04-03T14:50:38.999Z</time></trkpt><trkpt lat="46.02613178639355" lon="11.929412852230751"><ele>303.3333333333333</ele><time>2026-04-03T14:50:39.999Z</time></trkpt><trkpt lat="46.02618540926436" lon="11.929616801162236"><ele>305.6666666666667</ele><time>2026-04-03T14:50:40.999Z</time></trkpt><trkpt lat="46.02624409390337" lon="11.929825076583361"><ele>308.0</ele><time>2026-04-03T14:50:41.999Z</time></trkpt><trkpt lat="46.026292980173594" lon="11.930035174845708"><ele>309.6666666666667</ele><time>2026-04-03T14:50:42.999Z</time></trkpt><trkpt lat="46.02634007988232" lon="11.930249313181319"><ele>311.3333333333333</ele><time>2026-04-03T14:50:43.999Z</time></trkpt><trkpt lat="46.02638154014294" lon="11.930460081564753"><ele>313.0</ele><time>2026-04-03T14:50:44.999Z</time></trkpt><trkpt lat="46.02642377440938" lon="11.930670196194676"><ele>313.0</ele><time>2026-04-03T14:50:45.999Z</time></trkpt><trkpt lat="46.02646090838281" lon="11.930876732815483"><ele>313.0</ele><time>2026-04-03T14:50:46.999Z</time></trkpt><trkpt lat="46.026493812550136" lon="11.93108954077461"><ele>313.0</ele><time>2026-04-03T14:50:47.999Z</time></trkpt><trkpt lat="46.02652083115639" lon="11.931310015812718"><ele>314.66666666666663</ele><time>2026-04-03T14:50:48.999Z</time></trkpt><trkpt lat="46.02654694091698" lon="11.931534215588227"><ele>316.3333333333333</ele><time>2026-04-03T14:50:49.999Z</time></trkpt><trkpt lat="46.02656706876847" lon="11.93175651224589"><ele>318.0</ele><time>2026-04-03T14:50:50.999Z</time></trkpt><trkpt lat="46.026582533044845" lon="11.93198120370658"><ele>318.3333333333333</ele><time>2026-04-03T14:50:51.999Z</time></trkpt><trkpt lat="46.026594415971765" lon="11.93220555945404"><ele>318.66666666666663</ele><time>2026-04-03T14:50:52.999Z</time></trkpt><trkpt lat="46.026607904680546" lon="11.932430915378875"><ele>319.0</ele><time>2026-04-03T14:50:53.999Z</time></trkpt><trkpt lat="46.02661981391937" lon="11.932657134404215"><ele>320.3333333333333</ele><time>2026-04-03T14:50:54.999Z</time></trkpt><trkpt lat="46.02663211774147" lon="11.93288286557451"><ele>321.6666666666667</ele><time>2026-04-03T14:50:55.999Z</time></trkpt><trkpt lat="46.02664338605567" lon="11.933105555805525"><ele>323.0</ele><time>2026-04-03T14:50:56.999Z</time></trkpt><trkpt lat="46.02665247185493" lon="11.933327557342825"><ele>318.75</ele><time>2026-04-03T14:50:57.999Z</time></trkpt><trkpt lat="46.02666488521815" lon="11.933537757794845"><ele>314.5</ele><time>2026-04-03T14:50:58.999Z</time></trkpt><trkpt lat="46.02667227768505" lon="11.933731701445396"><ele>310.25</ele><time>2026-04-03T14:50:59.999Z</time></trkpt><trkpt lat="46.02668119657841" lon="11.933906086760476"><ele>306.0</ele><time>2026-04-03T14:51:01Z</time></trkpt><trkpt lat="46.02669429252418" lon="11.934069269521698"><ele>306.5</ele><time>2026-04-03T14:51:02Z</time></trkpt><trkpt lat="46.02671314500126" lon="11.934244495865173"><ele>307.0</ele><time>2026-04-03T14:51:03Z</time></trkpt><trkpt lat="46.02672171015016" lon="11.934426982304295"><ele>307.5</ele><time>2026-04-03T14:51:04Z</time></trkpt><trkpt lat="46.026739783732424" lon="11.934617082165964"><ele>308.0</ele><time>2026-04-03T14:51:05Z</time></trkpt><trkpt lat="46.02676715001036" lon="11.934801329619598"><ele>308.0</ele><time>2026-04-03T14:51:06Z</time></trkpt><trkpt lat="46.02679795637381" lon="11.93498373376775"><ele>308.0</ele><time>2026-04-03T14:51:07Z</time></trkpt><trkpt lat="46.02682922275949" lon="11.935166251082697"><ele>308.0</ele><time>2026-04-03T14:51:08Z</time></trkpt><trkpt lat="46.02685361978621" lon="11.93532683022407"><ele>308.0</ele><time>2026-04-03T14:51:09Z</time></trkpt><trkpt lat="46.02688455290349" lon="11.935472094634264"><ele>308.0</ele><time>2026-04-03T14:51:10Z</time></trkpt><trkpt lat="46.02690914739295" lon="11.935610696938639"><ele>308.0</ele><time>2026-04-03T14:51:11Z</time></trkpt><trkpt lat="46.02693208620941" lon="11.935751685402812"><ele>308.0</ele><time>2026-04-03T14:51:12Z</time></trkpt><trkpt lat="46.02696165175241" lon="11.935881385401785"><ele>308.0</ele><time>2026-04-03T14:51:13Z</time></trkpt><trkpt lat="46.02698823738173" lon="11.936000232482552"><ele>308.0</ele><time>2026-04-03T14:51:14Z</time></trkpt><trkpt lat="46.02701148768497" lon="11.936132166851092"><ele>309.1666666666667</ele><time>2026-04-03T14:51:15Z</time></trkpt><trkpt lat="46.02703347052942" lon="11.936269082069074"><ele>310.33333333333337</ele><time>2026-04-03T14:51:16Z</time></trkpt><trkpt lat="46.02705873313094" lon="11.936388541211826"><ele>311.5</ele><time>2026-04-03T14:51:17Z</time></trkpt><trkpt lat="46.02708670305169" lon="11.936507032736097"><ele>312.6666666666667</ele><time>2026-04-03T14:51:18Z</time></trkpt><trkpt lat="46.027104367027555" lon="11.936623742301586"><ele>313.8333333333333</ele><time>2026-04-03T14:51:19Z</time></trkpt><trkpt lat="46.027132915134445" lon="11.936749497091832"><ele>315.0</ele><time>2026-04-03T14:51:20Z</time></trkpt><trkpt lat="46.02715584723244" lon="11.936868895512907"><ele>315.1666666666667</ele><time>2026-04-03T14:51:21Z</time></trkpt><trkpt lat="46.02717219736479" lon="11.936980748635204"><ele>315.3333333333333</ele><time>2026-04-03T14:51:23Z</time></trkpt><trkpt lat="46.02721209382036" lon="11.937155047769537"><ele>315.5</ele><time>2026-04-03T14:51:31Z</time></trkpt><trkpt lat="46.02723051381797" lon="11.937252482267052"><ele>315.66666666666663</ele><time>2026-04-03T14:51:32Z</time></trkpt><trkpt lat="46.02725067972407" lon="11.93735890860608"><ele>315.8333333333333</ele><time>2026-04-03T14:51:33Z</time></trkpt><trkpt lat="46.027275731611844" lon="11.937479617584971"><ele>316.0</ele><time>2026-04-03T14:51:34Z</time></trkpt><trkpt lat="46.027301967232034" lon="11.937624344365966"><ele>315.0</ele><time>2026-04-03T14:51:35Z</time></trkpt><trkpt lat="46.027335841693024" lon="11.937779778348036"><ele>314.0</ele><time>2026-04-03T14:51:36Z</time></trkpt><trkpt lat="46.027369842384765" lon="11.937935734243563"><ele>313.0</ele><time>2026-04-03T14:51:37Z</time></trkpt><trkpt lat="46.02740609409474" lon="11.938097594834645"><ele>312.0</ele><time>2026-04-03T14:51:38Z</time></trkpt><trkpt lat="46.027448740836654" lon="11.938272305002428"><ele>309.6666666666667</ele><time>2026-04-03T14:51:39Z</time></trkpt><trkpt lat="46.02749538976965" lon="11.938508522668391"><ele>307.33333333333337</ele><time>2026-04-03T14:51:40Z</time></trkpt><trkpt lat="46.027552333499" lon="11.938776210854401"><ele>305.0</ele><time>2026-04-03T14:51:41Z</time></trkpt><trkpt lat="46.02760583671206" lon="11.939005130751072"><ele>305.0</ele><time>2026-04-03T14:51:42Z</time></trkpt><trkpt lat="46.027671412173575" lon="11.939241787376606"><ele>305.0</ele><time>2026-04-03T14:51:43Z</time></trkpt><trkpt lat="46.02773387292447" lon="11.939512500012269"><ele>305.0</ele><time>2026-04-03T14:51:45Z</time></trkpt><trkpt lat="46.02779073031133" lon="11.93971292405747"><ele>305.0</ele><time>2026-04-03T14:51:46Z</time></trkpt><trkpt lat="46.02784302766782" lon="11.93989187396567"><ele>305.0</ele><time>2026-04-03T14:51:47Z</time></trkpt><trkpt lat="46.027901039234976" lon="11.940090579365622"><ele>305.0</ele><time>2026-04-03T14:51:48Z</time></trkpt><trkpt lat="46.02796376671751" lon="11.940308821125546"><ele>305.0</ele><time>2026-04-03T14:51:49Z</time></trkpt><trkpt lat="46.02802890804557" lon="11.940538443620818"><ele>306.6666666666667</ele><time>2026-04-03T14:51:50Z</time></trkpt><trkpt lat="46.028093395776" lon="11.940763935581016"><ele>308.3333333333333</ele><time>2026-04-03T14:51:51Z</time></trkpt><trkpt lat="46.02816285077669" lon="11.941004449382568"><ele>310.0</ele><time>2026-04-03T14:51:52Z</time></trkpt><trkpt lat="46.02823251391535" lon="11.9412459138182"><ele>310.3333333333333</ele><time>2026-04-03T14:51:53Z</time></trkpt><trkpt lat="46.02829599613219" lon="11.941452137049431"><ele>310.6666666666667</ele><time>2026-04-03T14:51:54Z</time></trkpt><trkpt lat="46.028356400656385" lon="11.941655804614424"><ele>311.0</ele><time>2026-04-03T14:51:55Z</time></trkpt><trkpt lat="46.02841518589899" lon="11.941861811256986"><ele>312.0</ele><time>2026-04-03T14:51:56Z</time></trkpt><trkpt lat="46.02847267924975" lon="11.942069687948313"><ele>313.0</ele><time>2026-04-03T14:51:57Z</time></trkpt><trkpt lat="46.0285291774377" lon="11.942266346613325"><ele>314.0</ele><time>2026-04-03T14:51:58Z</time></trkpt><trkpt lat="46.02858248784532" lon="11.942438616118928"><ele>315.0</ele><time>2026-04-03T14:51:59Z</time></trkpt><trkpt lat="46.028633739105906" lon="11.942621851060743"><ele>315.0</ele><time>2026-04-03T14:52:00Z</time></trkpt><trkpt lat="46.02868733502456" lon="11.942807297161446"><ele>315.0</ele><time>2026-04-03T14:52:01Z</time></trkpt><trkpt lat="46.028740539271894" lon="11.942991897851499"><ele>315.0</ele><time>2026-04-03T14:52:02Z</time></trkpt><trkpt lat="46.028795782215724" lon="11.943178341595376"><ele>315.0</ele><time>2026-04-03T14:52:03Z</time></trkpt><trkpt lat="46.02885516390678" lon="11.943379657235976"><ele>315.6666666666667</ele><time>2026-04-03T14:52:04Z</time></trkpt><trkpt lat="46.02891613413109" lon="11.943581210013946"><ele>316.33333333333337</ele><time>2026-04-03T14:52:05Z</time></trkpt><trkpt lat="46.028969623695744" lon="11.943799925534357"><ele>317.0</ele><time>2026-04-03T14:52:06Z</time></trkpt><trkpt lat="46.02903368120531" lon="11.944004458668466"><ele>317.0</ele><time>2026-04-03T14:52:07Z</time></trkpt><trkpt lat="46.02908295280876" lon="11.944186761626563"><ele>317.0</ele><time>2026-04-03T14:52:08Z</time></trkpt><trkpt lat="46.029134518675306" lon="11.944364236253287"><ele>317.0</ele><time>2026-04-03T14:52:09Z</time></trkpt><trkpt lat="46.029181713827306" lon="11.944550952861462"><ele>317.0</ele><time>2026-04-03T14:52:10Z</time></trkpt><trkpt lat="46.02922886094342" lon="11.944751331918324"><ele>316.33333333333337</ele><time>2026-04-03T14:52:11Z</time></trkpt><trkpt lat="46.02928411926623" lon="11.94496853151166"><ele>315.6666666666667</ele><time>2026-04-03T14:52:12Z</time></trkpt><trkpt lat="46.029334482443936" lon="11.945206306757257"><ele>315.0</ele><time>2026-04-03T14:52:13Z</time></trkpt><trkpt lat="46.02937416317242" lon="11.94542704506527"><ele>314.75</ele><time>2026-04-03T14:52:14Z</time></trkpt><trkpt lat="46.02941024613252" lon="11.94563104675827"><ele>314.5</ele><time>2026-04-03T14:52:15Z</time></trkpt><trkpt lat="46.029447163626884" lon="11.945838143916154"><ele>314.25</ele><time>2026-04-03T14:52:16Z</time></trkpt><trkpt lat="46.0294817861702" lon="11.946031467503806"><ele>314.0</ele><time>2026-04-03T14:52:17Z</time></trkpt><trkpt lat="46.02951848400515" lon="11.946219789873568"><ele>314.0</ele><time>2026-04-03T14:52:18Z</time></trkpt><trkpt lat="46.029562342517096" lon="11.9464236612753"><ele>314.0</ele><time>2026-04-03T14:52:19Z</time></trkpt><trkpt lat="46.02960077004688" lon="11.946648532210567"><ele>314.0</ele><time>2026-04-03T14:52:20Z</time></trkpt><trkpt lat="46.029641071364665" lon="11.946894430494423"><ele>313.6666666666667</ele><time>2026-04-03T14:52:21Z</time></trkpt><trkpt lat="46.02968786901669" lon="11.947150594996668"><ele>313.3333333333333</ele><time>2026-04-03T14:52:21.999Z</time></trkpt><trkpt lat="46.02974012927915" lon="11.947400622666278"><ele>313.0</ele><time>2026-04-03T14:52:22.999Z</time></trkpt><trkpt lat="46.02978159915273" lon="11.947637330427735"><ele>312.0</ele><time>2026-04-03T14:52:23.999Z</time></trkpt><trkpt lat="46.02983020407816" lon="11.947897243060956"><ele>311.0</ele><time>2026-04-03T14:52:24.999Z</time></trkpt><trkpt lat="46.02987898136535" lon="11.948152217398855"><ele>310.0</ele><time>2026-04-03T14:52:25.999Z</time></trkpt><trkpt lat="46.0299190959082" lon="11.948383940549283"><ele>309.3333333333333</ele><time>2026-04-03T14:52:26.999Z</time></trkpt><trkpt lat="46.029961737760225" lon="11.948595977739787"><ele>308.6666666666667</ele><time>2026-04-03T14:52:27.999Z</time></trkpt><trkpt lat="46.03000076506583" lon="11.94880968705539"><ele>308.0</ele><time>2026-04-03T14:52:28.999Z</time></trkpt><trkpt lat="46.03004132852633" lon="11.949035170726665"><ele>308.33333333333337</ele><time>2026-04-03T14:52:29.999Z</time></trkpt><trkpt lat="46.03008431301982" lon="11.949271009172621"><ele>308.6666666666667</ele><time>2026-04-03T14:52:30.999Z</time></trkpt><trkpt lat="46.030125054195985" lon="11.949498821524463"><ele>309.0</ele><time>2026-04-03T14:52:31.999Z</time></trkpt><trkpt lat="46.03016301830639" lon="11.949725271150397"><ele>309.0</ele><time>2026-04-03T14:52:32.999Z</time></trkpt><trkpt lat="46.030208239390156" lon="11.9499611513037"><ele>309.0</ele><time>2026-04-03T14:52:33.999Z</time></trkpt><trkpt lat="46.03025601189196" lon="11.950204237027373"><ele>309.0</ele><time>2026-04-03T14:52:34.999Z</time></trkpt><trkpt lat="46.03029872372116" lon="11.950435253183981"><ele>308.3333333333333</ele><time>2026-04-03T14:52:35.999Z</time></trkpt><trkpt lat="46.03034413339816" lon="11.950674819919755"><ele>307.66666666666663</ele><time>2026-04-03T14:52:36.999Z</time></trkpt><trkpt lat="46.03039014868797" lon="11.950922818247319"><ele>307.0</ele><time>2026-04-03T14:52:37.999Z</time></trkpt><trkpt lat="46.030435446187056" lon="11.951169492462766"><ele>307.0</ele><time>2026-04-03T14:52:38.999Z</time></trkpt><trkpt lat="46.03047463444501" lon="11.951397645080585"><ele>307.0</ele><time>2026-04-03T14:52:39.999Z</time></trkpt><trkpt lat="46.03051139319109" lon="11.951609101091808"><ele>307.0</ele><time>2026-04-03T14:52:40.999Z</time></trkpt><trkpt lat="46.030549748997295" lon="11.951829754195375"><ele>306.0</ele><time>2026-04-03T14:52:41.999Z</time></trkpt><trkpt lat="46.030585693285175" lon="11.952067573440234"><ele>305.0</ele><time>2026-04-03T14:52:42.999Z</time></trkpt><trkpt lat="46.03062172331928" lon="11.95230695068505"><ele>304.0</ele><time>2026-04-03T14:52:43.999Z</time></trkpt><trkpt lat="46.03065416679246" lon="11.952555832416005"><ele>303.66666666666663</ele><time>2026-04-03T14:52:44.999Z</time></trkpt><trkpt lat="46.03068348220603" lon="11.952806904248304"><ele>303.3333333333333</ele><time>2026-04-03T14:52:45.999Z</time></trkpt><trkpt lat="46.03070991310268" lon="11.953045019105868"><ele>303.0</ele><time>2026-04-03T14:52:46.999Z</time></trkpt><trkpt lat="46.03073506046406" lon="11.953294479689955"><ele>303.0</ele><time>2026-04-03T14:52:47.999Z</time></trkpt><trkpt lat="46.030752561005514" lon="11.95353250592278"><ele>303.0</ele><time>2026-04-03T14:52:48.999Z</time></trkpt><trkpt lat="46.0307731712063" lon="11.953754308568636"><ele>303.0</ele><time>2026-04-03T14:52:49.999Z</time></trkpt><trkpt lat="46.03079601789407" lon="11.953970855490807"><ele>303.0</ele><time>2026-04-03T14:52:50.999Z</time></trkpt><trkpt lat="46.03081725094961" lon="11.954200014066846"><ele>303.0</ele><time>2026-04-03T14:52:51.999Z</time></trkpt><trkpt lat="46.03084157984168" lon="11.954433340877854"><ele>303.0</ele><time>2026-04-03T14:52:52.999Z</time></trkpt><trkpt lat="46.03086301630171" lon="11.95467730264862"><ele>301.3333333333333</ele><time>2026-04-03T14:52:53.999Z</time></trkpt><trkpt lat="46.030885895264085" lon="11.954924078757525"><ele>299.66666666666663</ele><time>2026-04-03T14:52:54.999Z</time></trkpt><trkpt lat="46.03091116250959" lon="11.955167199835827"><ele>298.0</ele><time>2026-04-03T14:52:55.999Z</time></trkpt><trkpt lat="46.030933668067014" lon="11.955411676716437"><ele>297.66666666666663</ele><time>2026-04-03T14:52:56.999Z</time></trkpt><trkpt lat="46.03095646419831" lon="11.95564699487249"><ele>297.3333333333333</ele><time>2026-04-03T14:52:57.999Z</time></trkpt><trkpt lat="46.030974013258074" lon="11.955871327215965"><ele>297.0</ele><time>2026-04-03T14:52:58.999Z</time></trkpt><trkpt lat="46.0309973463989" lon="11.95610154599184"><ele>296.6666666666667</ele><time>2026-04-03T14:52:59.999Z</time></trkpt><trkpt lat="46.03101652454705" lon="11.956345338829943"><ele>296.33333333333337</ele><time>2026-04-03T14:53:00.999Z</time></trkpt><trkpt lat="46.03103907485334" lon="11.9565730871047"><ele>296.0</ele><time>2026-04-03T14:53:01.999Z</time></trkpt><trkpt lat="46.03106012700514" lon="11.956792416145415"><ele>295.25</ele><time>2026-04-03T14:53:02.999Z</time></trkpt><trkpt lat="46.03108124753734" lon="11.957010907206234"><ele>294.5</ele><time>2026-04-03T14:53:03.999Z</time></trkpt><trkpt lat="46.03110318106059" lon="11.957214506292557"><ele>293.75</ele><time>2026-04-03T14:53:04.999Z</time></trkpt><trkpt lat="46.031122720471004" lon="11.957412492658438"><ele>293.0</ele><time>2026-04-03T14:53:05.999Z</time></trkpt><trkpt lat="46.031139380457105" lon="11.957621532377654"><ele>292.5</ele><time>2026-04-03T14:53:07Z</time></trkpt><trkpt lat="46.03116124800777" lon="11.957831411998182"><ele>292.0</ele><time>2026-04-03T14:53:08Z</time></trkpt><trkpt lat="46.031177223891106" lon="11.958034479339572"><ele>291.5</ele><time>2026-04-03T14:53:09Z</time></trkpt><trkpt lat="46.03119616942329" lon="11.958234616625369"><ele>291.0</ele><time>2026-04-03T14:53:10Z</time></trkpt><trkpt lat="46.03120875330279" lon="11.958423099471208"><ele>290.8</ele><time>2026-04-03T14:53:11Z</time></trkpt><trkpt lat="46.031228635150846" lon="11.958596420704698"><ele>290.6</ele><time>2026-04-03T14:53:12Z</time></trkpt><trkpt lat="46.031245696239694" lon="11.958756901776768"><ele>290.4</ele><time>2026-04-03T14:53:13Z</time></trkpt><trkpt lat="46.03126062034243" lon="11.958910693734698"><ele>290.2</ele><time>2026-04-03T14:53:14Z</time></trkpt><trkpt lat="46.03127373658853" lon="11.959055875181342"><ele>290.0</ele><time>2026-04-03T14:53:15Z</time></trkpt><trkpt lat="46.03128677696403" lon="11.959191536062416"><ele>289.6666666666667</ele><time>2026-04-03T14:53:16Z</time></trkpt><trkpt lat="46.03130241409104" lon="11.95931804496888"><ele>289.33333333333337</ele><time>2026-04-03T14:53:17Z</time></trkpt><trkpt lat="46.031313679937476" lon="11.959444353640748"><ele>289.0</ele><time>2026-04-03T14:53:18Z</time></trkpt><trkpt lat="46.031321356179916" lon="11.95955275776831"><ele>288.6666666666667</ele><time>2026-04-03T14:53:19Z</time></trkpt><trkpt lat="46.03132365455443" lon="11.959659112549165"><ele>288.3333333333333</ele><time>2026-04-03T14:53:20Z</time></trkpt><trkpt lat="46.03132688658163" lon="11.959763095257982"><ele>288.0</ele><time>2026-04-03T14:53:21Z</time></trkpt><trkpt lat="46.03128497408726" lon="11.959933905471093"><ele>288.0</ele><time>2026-04-03T14:53:23Z</time></trkpt><trkpt lat="46.03126546943025" lon="11.96002613138644"><ele>288.0</ele><time>2026-04-03T14:53:24Z</time></trkpt><trkpt lat="46.031281003754465" lon="11.960122402773205"><ele>288.0</ele><time>2026-04-03T14:53:25Z</time></trkpt><trkpt lat="46.031318570004636" lon="11.960215173819678"><ele>288.0</ele><time>2026-04-03T14:53:26Z</time></trkpt><trkpt lat="46.03136409785182" lon="11.960314988519208"><ele>288.0</ele><time>2026-04-03T14:53:27Z</time></trkpt><trkpt lat="46.03139935347375" lon="11.960443418031467"><ele>288.0</ele><time>2026-04-03T14:53:28Z</time></trkpt><trkpt lat="46.031418304648184" lon="11.960593007394571"><ele>287.75</ele><time>2026-04-03T14:53:29Z</time></trkpt><trkpt lat="46.03142798992709" lon="11.960752785200503"><ele>287.5</ele><time>2026-04-03T14:53:30Z</time></trkpt><trkpt lat="46.03143816906422" lon="11.960927492439815"><ele>287.25</ele><time>2026-04-03T14:53:31Z</time></trkpt><trkpt lat="46.03145386549727" lon="11.961106530346306"><ele>287.0</ele><time>2026-04-03T14:53:32Z</time></trkpt><trkpt lat="46.03147332991223" lon="11.961262989624593"><ele>286.75</ele><time>2026-04-03T14:53:33Z</time></trkpt><trkpt lat="46.03148749783827" lon="11.961409490663929"><ele>286.5</ele><time>2026-04-03T14:53:34Z</time></trkpt><trkpt lat="46.03149966597046" lon="11.961572978679852"><ele>286.25</ele><time>2026-04-03T14:53:35Z</time></trkpt><trkpt lat="46.031516608489326" lon="11.961748840023795"><ele>286.0</ele><time>2026-04-03T14:53:36Z</time></trkpt><trkpt lat="46.03153638171412" lon="11.961947400944853"><ele>286.0</ele><time>2026-04-03T14:53:37Z</time></trkpt><trkpt lat="46.0315773439394" lon="11.962159886772497"><ele>286.0</ele><time>2026-04-03T14:53:38Z</time></trkpt><trkpt lat="46.03163719168896" lon="11.96237943161686"><ele>286.0</ele><time>2026-04-03T14:53:39Z</time></trkpt><trkpt lat="46.031704749201914" lon="11.96257541324055"><ele>286.3333333333333</ele><time>2026-04-03T14:53:40Z</time></trkpt><trkpt lat="46.03178396390247" lon="11.962765843501376"><ele>286.6666666666667</ele><time>2026-04-03T14:53:41Z</time></trkpt><trkpt lat="46.03188294543874" lon="11.962950301101428"><ele>287.0</ele><time>2026-04-03T14:53:42Z</time></trkpt><trkpt lat="46.031999571387544" lon="11.96313532379855"><ele>287.0</ele><time>2026-04-03T14:53:43Z</time></trkpt><trkpt lat="46.03211667825227" lon="11.963320053048419"><ele>287.0</ele><time>2026-04-03T14:53:44Z</time></trkpt><trkpt lat="46.032222139165306" lon="11.963493139398505"><ele>287.0</ele><time>2026-04-03T14:53:45Z</time></trkpt><trkpt lat="46.032320936315244" lon="11.9636575805185"><ele>286.0</ele><time>2026-04-03T14:53:46Z</time></trkpt><trkpt lat="46.03242121369293" lon="11.96382816284235"><ele>285.0</ele><time>2026-04-03T14:53:47Z</time></trkpt><trkpt lat="46.03252987482063" lon="11.964011408679227"><ele>284.0</ele><time>2026-04-03T14:53:48Z</time></trkpt><trkpt lat="46.032641892030824" lon="11.964198945843137"><ele>281.0</ele><time>2026-04-03T14:53:49Z</time></trkpt><trkpt lat="46.03274472489614" lon="11.964383646561066"><ele>278.0</ele><time>2026-04-03T14:53:50Z</time></trkpt><trkpt lat="46.03284120740775" lon="11.964587718936862"><ele>275.0</ele><time>2026-04-03T14:53:51Z</time></trkpt><trkpt lat="46.03293260788082" lon="11.964826799129295"><ele>274.33333333333337</ele><time>2026-04-03T14:53:52Z</time></trkpt><trkpt lat="46.033017652989415" lon="11.96507809572952"><ele>273.6666666666667</ele><time>2026-04-03T14:53:53Z</time></trkpt><trkpt lat="46.03309266075669" lon="11.96531144346163"><ele>273.0</ele><time>2026-04-03T14:53:54Z</time></trkpt><trkpt lat="46.033157739989676" lon="11.965534115177666"><ele>273.0</ele><time>2026-04-03T14:53:55Z</time></trkpt><trkpt lat="46.03321728843764" lon="11.96573375121113"><ele>273.0</ele><time>2026-04-03T14:53:56Z</time></trkpt><trkpt lat="46.03327948263414" lon="11.965934365508827"><ele>273.0</ele><time>2026-04-03T14:53:57Z</time></trkpt><trkpt lat="46.03333718137042" lon="11.966139754849255"><ele>273.6666666666667</ele><time>2026-04-03T14:53:58Z</time></trkpt><trkpt lat="46.03339254455632" lon="11.966355056071109"><ele>274.33333333333337</ele><time>2026-04-03T14:53:59Z</time></trkpt><trkpt lat="46.03343603405682" lon="11.966562076035283"><ele>275.0</ele><time>2026-04-03T14:54:00Z</time></trkpt><trkpt lat="46.033462944030894" lon="11.966767402526953"><ele>274.0</ele><time>2026-04-03T14:54:01Z</time></trkpt><trkpt lat="46.033477617589114" lon="11.96696868955256"><ele>273.0</ele><time>2026-04-03T14:54:02Z</time></trkpt><trkpt lat="46.033482691816495" lon="11.967173081872561"><ele>272.0</ele><time>2026-04-03T14:54:03Z</time></trkpt><trkpt lat="46.033481525737294" lon="11.967400256943955"><ele>271.0</ele><time>2026-04-03T14:54:04Z</time></trkpt><trkpt lat="46.03347771782554" lon="11.967643645609224"><ele>269.3333333333333</ele><time>2026-04-03T14:54:05Z</time></trkpt><trkpt lat="46.033474979258735" lon="11.967915909720212"><ele>267.6666666666667</ele><time>2026-04-03T14:54:06Z</time></trkpt><trkpt lat="46.03346803723876" lon="11.968210264450127"><ele>266.0</ele><time>2026-04-03T14:54:07Z</time></trkpt><trkpt lat="46.03345686759135" lon="11.96849652836228"><ele>266.0</ele><time>2026-04-03T14:54:08Z</time></trkpt><trkpt lat="46.033452429135465" lon="11.9687711652517"><ele>266.0</ele><time>2026-04-03T14:54:09Z</time></trkpt><trkpt lat="46.0334479258289" lon="11.969033203296846"><ele>266.0</ele><time>2026-04-03T14:54:10Z</time></trkpt><trkpt lat="46.03343833349761" lon="11.969273675663159"><ele>266.0</ele><time>2026-04-03T14:54:11Z</time></trkpt><trkpt lat="46.03344656216457" lon="11.969521803965256"><ele>266.0</ele><time>2026-04-03T14:54:12Z</time></trkpt><trkpt lat="46.03347394277358" lon="11.969756402694973"><ele>266.0</ele><time>2026-04-03T14:54:13Z</time></trkpt><trkpt lat="46.03351598475258" lon="11.969993548437794"><ele>265.0</ele><time>2026-04-03T14:54:14Z</time></trkpt><trkpt lat="46.033568268776605" lon="11.970213052997533"><ele>264.0</ele><time>2026-04-03T14:54:15Z</time></trkpt><trkpt lat="46.03364013577108" lon="11.970415423720278"><ele>263.0</ele><time>2026-04-03T14:54:16Z</time></trkpt><trkpt lat="46.033704521295576" lon="11.970600049863789"><ele>263.0</ele><time>2026-04-03T14:54:17Z</time></trkpt><trkpt lat="46.03377260983614" lon="11.970783847314022"><ele>263.0</ele><time>2026-04-03T14:54:18Z</time></trkpt><trkpt lat="46.03383115429634" lon="11.970965286876705"><ele>263.0</ele><time>2026-04-03T14:54:19Z</time></trkpt><trkpt lat="46.03389571880667" lon="11.971143430861682"><ele>263.0</ele><time>2026-04-03T14:54:20Z</time></trkpt><trkpt lat="46.03396678326674" lon="11.971305992864108"><ele>262.75</ele><time>2026-04-03T14:54:21Z</time></trkpt><trkpt lat="46.03403450890573" lon="11.971470833483128"><ele>262.5</ele><time>2026-04-03T14:54:22Z</time></trkpt><trkpt lat="46.03409134293341" lon="11.97164304674304"><ele>262.25</ele><time>2026-04-03T14:54:23Z</time></trkpt><trkpt lat="46.03415203708299" lon="11.971802790819655"><ele>262.0</ele><time>2026-04-03T14:54:23.999Z</time></trkpt><trkpt lat="46.034220901651864" lon="11.971980451818848"><ele>262.66666666666663</ele><time>2026-04-03T14:54:24.999Z</time></trkpt><trkpt lat="46.03428811012886" lon="11.972165230883954"><ele>263.3333333333333</ele><time>2026-04-03T14:54:25.999Z</time></trkpt><trkpt lat="46.03435871520513" lon="11.972354693179165"><ele>264.0</ele><time>2026-04-03T14:54:26.999Z</time></trkpt><trkpt lat="46.034432094421746" lon="11.972560967737074"><ele>264.0</ele><time>2026-04-03T14:54:27.999Z</time></trkpt><trkpt lat="46.03451119943497" lon="11.97278225437196"><ele>264.0</ele><time>2026-04-03T14:54:28.999Z</time></trkpt><trkpt lat="46.03459245086177" lon="11.972999086800014"><ele>264.0</ele><time>2026-04-03T14:54:29.999Z</time></trkpt><trkpt lat="46.03466467977043" lon="11.973182088993108"><ele>265.0</ele><time>2026-04-03T14:54:30.999Z</time></trkpt><trkpt lat="46.03474222909822" lon="11.973369122522074"><ele>266.0</ele><time>2026-04-03T14:54:31.999Z</time></trkpt><trkpt lat="46.034819857409516" lon="11.973564400279788"><ele>267.0</ele><time>2026-04-03T14:54:32.999Z</time></trkpt><trkpt lat="46.034899134991754" lon="11.97375905307837"><ele>266.3333333333333</ele><time>2026-04-03T14:54:33.999Z</time></trkpt><trkpt lat="46.03497627835908" lon="11.973955703996783"><ele>265.66666666666663</ele><time>2026-04-03T14:54:34.999Z</time></trkpt><trkpt lat="46.035057996888156" lon="11.974146382293405"><ele>265.0</ele><time>2026-04-03T14:54:35.999Z</time></trkpt><trkpt lat="46.03513929584147" lon="11.974344550313527"><ele>264.0</ele><time>2026-04-03T14:54:36.999Z</time></trkpt><trkpt lat="46.03520976774298" lon="11.974526517732013"><ele>263.0</ele><time>2026-04-03T14:54:37.999Z</time></trkpt><trkpt lat="46.03528664182665" lon="11.97471286404496"><ele>262.0</ele><time>2026-04-03T14:54:38.999Z</time></trkpt><trkpt lat="46.035365284592125" lon="11.974910691547548"><ele>262.0</ele><time>2026-04-03T14:54:39.999Z</time></trkpt><trkpt lat="46.035448962532705" lon="11.975116165857527"><ele>262.0</ele><time>2026-04-03T14:54:40.999Z</time></trkpt><trkpt lat="46.03553380418098" lon="11.97532616808575"><ele>262.0</ele><time>2026-04-03T14:54:41.999Z</time></trkpt><trkpt lat="46.035616929314486" lon="11.975530508088704"><ele>262.0</ele><time>2026-04-03T14:54:42.999Z</time></trkpt><trkpt lat="46.035693118528826" lon="11.975717075965978"><ele>262.0</ele><time>2026-04-03T14:54:43.999Z</time></trkpt><trkpt lat="46.035765494194585" lon="11.97589063645306"><ele>262.0</ele><time>2026-04-03T14:54:44.999Z</time></trkpt><trkpt lat="46.035834599368876" lon="11.976039633484556"><ele>262.0</ele><time>2026-04-03T14:54:45.999Z</time></trkpt><trkpt lat="46.03590616079127" lon="11.976203870917217"><ele>261.25</ele><time>2026-04-03T14:54:46.999Z</time></trkpt><trkpt lat="46.035971459033675" lon="11.976393854120657"><ele>260.5</ele><time>2026-04-03T14:54:47.999Z</time></trkpt><trkpt lat="46.03604274010402" lon="11.976581770694796"><ele>259.75</ele><time>2026-04-03T14:54:48.999Z</time></trkpt><trkpt lat="46.03612086904448" lon="11.976768968344425"><ele>259.0</ele><time>2026-04-03T14:54:49.999Z</time></trkpt><trkpt lat="46.03620491983439" lon="11.976969954679271"><ele>259.0</ele><time>2026-04-03T14:54:50.999Z</time></trkpt><trkpt lat="46.036290103792005" lon="11.97718084883301"><ele>259.0</ele><time>2026-04-03T14:54:51.999Z</time></trkpt><trkpt lat="46.03637501684974" lon="11.977391055061354"><ele>259.0</ele><time>2026-04-03T14:54:52.999Z</time></trkpt><trkpt lat="46.036460091058004" lon="11.977598325651545"><ele>258.3333333333333</ele><time>2026-04-03T14:54:53.999Z</time></trkpt><trkpt lat="46.036539993226704" lon="11.977797862441006"><ele>257.6666666666667</ele><time>2026-04-03T14:54:54.999Z</time></trkpt><trkpt lat="46.036613732611116" lon="11.977992253871566"><ele>257.0</ele><time>2026-04-03T14:54:55.999Z</time></trkpt><trkpt lat="46.036690700365156" lon="11.97817239997393"><ele>257.0</ele><time>2026-04-03T14:54:56.999Z</time></trkpt><trkpt lat="46.03676262925384" lon="11.978346430702876"><ele>257.0</ele><time>2026-04-03T14:54:57.999Z</time></trkpt><trkpt lat="46.036832423672905" lon="11.978521586080035"><ele>257.0</ele><time>2026-04-03T14:54:58.999Z</time></trkpt><trkpt lat="46.03690221122331" lon="11.978706216468343"><ele>257.0</ele><time>2026-04-03T14:54:59.999Z</time></trkpt><trkpt lat="46.03696816597046" lon="11.978878805107595"><ele>256.5</ele><time>2026-04-03T14:55:00.999Z</time></trkpt><trkpt lat="46.03703565710095" lon="11.979045723810996"><ele>256.0</ele><time>2026-04-03T14:55:01.999Z</time></trkpt><trkpt lat="46.037109950852766" lon="11.979227095678263"><ele>255.5</ele><time>2026-04-03T14:55:02.999Z</time></trkpt><trkpt lat="46.03719000609771" lon="11.979416291017705"><ele>255.0</ele><time>2026-04-03T14:55:03.999Z</time></trkpt><trkpt lat="46.037271300079986" lon="11.979610595110728"><ele>255.0</ele><time>2026-04-03T14:55:04.999Z</time></trkpt><trkpt lat="46.03734617306216" lon="11.979792560968594"><ele>255.0</ele><time>2026-04-03T14:55:05.999Z</time></trkpt><trkpt lat="46.03741971619323" lon="11.979966322822074"><ele>255.0</ele><time>2026-04-03T14:55:06.999Z</time></trkpt><trkpt lat="46.03749353571175" lon="11.980142976684517"><ele>255.0</ele><time>2026-04-03T14:55:07.999Z</time></trkpt><trkpt lat="46.03756705221765" lon="11.980329209716032"><ele>253.0</ele><time>2026-04-03T14:55:08.999Z</time></trkpt><trkpt lat="46.03764061924782" lon="11.980510485327176"><ele>251.0</ele><time>2026-04-03T14:55:09.999Z</time></trkpt><trkpt lat="46.03770764620609" lon="11.980680428604579"><ele>249.0</ele><time>2026-04-03T14:55:10.999Z</time></trkpt><trkpt lat="46.03777673536354" lon="11.980849898393695"><ele>247.0</ele><time>2026-04-03T14:55:11.999Z</time></trkpt><trkpt lat="46.037841757064804" lon="11.981013522139227"><ele>247.0</ele><time>2026-04-03T14:55:13Z</time></trkpt><trkpt lat="46.03791250163349" lon="11.981155368598763"><ele>247.0</ele><time>2026-04-03T14:55:14Z</time></trkpt><trkpt lat="46.037978914229186" lon="11.981305994605723"><ele>247.0</ele><time>2026-04-03T14:55:15Z</time></trkpt><trkpt lat="46.03802851710829" lon="11.981447651347038"><ele>247.0</ele><time>2026-04-03T14:55:16Z</time></trkpt><trkpt lat="46.03808890622868" lon="11.98159665795524"><ele>246.75</ele><time>2026-04-03T14:55:17Z</time></trkpt><trkpt lat="46.038155283832836" lon="11.98176019006196"><ele>246.5</ele><time>2026-04-03T14:55:18Z</time></trkpt><trkpt lat="46.03822276900285" lon="11.98192396348291"><ele>246.25</ele><time>2026-04-03T14:55:19Z</time></trkpt><trkpt lat="46.03828309130403" lon="11.982068907666925"><ele>246.0</ele><time>2026-04-03T14:55:20Z</time></trkpt><trkpt lat="46.03833524833084" lon="11.982186517592506"><ele>246.0</ele><time>2026-04-03T14:55:21Z</time></trkpt><trkpt lat="46.038385523674734" lon="11.98229924077279"><ele>246.0</ele><time>2026-04-03T14:55:22Z</time></trkpt><trkpt lat="46.03842309417398" lon="11.982390696259143"><ele>246.0</ele><time>2026-04-03T14:55:23Z</time></trkpt><trkpt lat="46.03846071060108" lon="11.982480987703903"><ele>246.0</ele><time>2026-04-03T14:55:24Z</time></trkpt><trkpt lat="46.038513254528134" lon="11.982599883990604"><ele>246.0</ele><time>2026-04-03T14:55:26Z</time></trkpt><trkpt lat="46.038541687443214" lon="11.98269807191735"><ele>246.0</ele><time>2026-04-03T14:55:28Z</time></trkpt><trkpt lat="46.03855637165425" lon="11.982850154377816"><ele>246.0</ele><time>2026-04-03T14:55:30Z</time></trkpt><trkpt lat="46.03854952835069" lon="11.982955743562057"><ele>246.0</ele><time>2026-04-03T14:55:31Z</time></trkpt><trkpt lat="46.03854253479383" lon="11.983058945774756"><ele>246.0</ele><time>2026-04-03T14:55:32Z</time></trkpt><trkpt lat="46.038557815944806" lon="11.983162116046433"><ele>246.0</ele><time>2026-04-03T14:55:33Z</time></trkpt><trkpt lat="46.038602841072006" lon="11.983259409586585"><ele>246.0</ele><time>2026-04-03T14:55:34Z</time></trkpt><trkpt lat="46.03865610179098" lon="11.9833537824149"><ele>246.0</ele><time>2026-04-03T14:55:35Z</time></trkpt><trkpt lat="46.03869884657767" lon="11.983457975497904"><ele>246.0</ele><time>2026-04-03T14:55:36Z</time></trkpt><trkpt lat="46.03872292900829" lon="11.983588658311794"><ele>246.0</ele><time>2026-04-03T14:55:37Z</time></trkpt><trkpt lat="46.03872443845582" lon="11.983750719305373"><ele>246.0</ele><time>2026-04-03T14:55:38Z</time></trkpt><trkpt lat="46.038710230551835" lon="11.983922686752505"><ele>246.0</ele><time>2026-04-03T14:55:39Z</time></trkpt><trkpt lat="46.038683550862" lon="11.984101785049964"><ele>244.0</ele><time>2026-04-03T14:55:40Z</time></trkpt><trkpt lat="46.03862828561805" lon="11.984291847772294"><ele>242.0</ele><time>2026-04-03T14:55:41Z</time></trkpt><trkpt lat="46.038549640543536" lon="11.984501418784596"><ele>240.0</ele><time>2026-04-03T14:55:42Z</time></trkpt><trkpt lat="46.038464922048256" lon="11.984703822671742"><ele>240.0</ele><time>2026-04-03T14:55:43Z</time></trkpt><trkpt lat="46.03839262452312" lon="11.984880246412954"><ele>240.0</ele><time>2026-04-03T14:55:44Z</time></trkpt><trkpt lat="46.03832495363451" lon="11.98504461186258"><ele>240.0</ele><time>2026-04-03T14:55:45Z</time></trkpt><trkpt lat="46.03826365359346" lon="11.985201807980497"><ele>240.0</ele><time>2026-04-03T14:55:46Z</time></trkpt><trkpt lat="46.03820331780441" lon="11.985358222540512"><ele>240.5</ele><time>2026-04-03T14:55:47Z</time></trkpt><trkpt lat="46.038140389618896" lon="11.985517825019958"><ele>241.0</ele><time>2026-04-03T14:55:48Z</time></trkpt><trkpt lat="46.0380801352863" lon="11.985675777444541"><ele>241.5</ele><time>2026-04-03T14:55:49Z</time></trkpt><trkpt lat="46.03803489182234" lon="11.985837858934199"><ele>242.0</ele><time>2026-04-03T14:55:50Z</time></trkpt><trkpt lat="46.03801084262813" lon="11.986014482790713"><ele>239.75</ele><time>2026-04-03T14:55:51Z</time></trkpt><trkpt lat="46.03801319684762" lon="11.986205505718848"><ele>237.5</ele><time>2026-04-03T14:55:52Z</time></trkpt><trkpt lat="46.038014468137405" lon="11.986407596926906"><ele>235.25</ele><time>2026-04-03T14:55:53Z</time></trkpt><trkpt lat="46.03801574924636" lon="11.986596167708596"><ele>233.0</ele><time>2026-04-03T14:55:54Z</time></trkpt><trkpt lat="46.03801335072556" lon="11.986760301468767"><ele>232.75</ele><time>2026-04-03T14:55:55Z</time></trkpt><trkpt lat="46.03800817092283" lon="11.986923664829938"><ele>232.5</ele><time>2026-04-03T14:55:56Z</time></trkpt><trkpt lat="46.03800470498882" lon="11.987086988632926"><ele>232.25</ele><time>2026-04-03T14:55:57Z</time></trkpt><trkpt lat="46.038004073626404" lon="11.987255466896992"><ele>232.0</ele><time>2026-04-03T14:55:58Z</time></trkpt><trkpt lat="46.03799892844439" lon="11.98742855505759"><ele>232.5</ele><time>2026-04-03T14:55:59Z</time></trkpt><trkpt lat="46.03799088093085" lon="11.987607696500666"><ele>233.0</ele><time>2026-04-03T14:56:00Z</time></trkpt><trkpt lat="46.037985637546115" lon="11.987796595025378"><ele>233.5</ele><time>2026-04-03T14:56:01Z</time></trkpt><trkpt lat="46.03799057570815" lon="11.987991147949177"><ele>234.0</ele><time>2026-04-03T14:56:02Z</time></trkpt><trkpt lat="46.038005294672814" lon="11.988184247555383"><ele>234.5</ele><time>2026-04-03T14:56:03Z</time></trkpt><trkpt lat="46.03803163577774" lon="11.988389717413561"><ele>235.0</ele><time>2026-04-03T14:56:04Z</time></trkpt><trkpt lat="46.03806997269387" lon="11.988607118953627"><ele>235.5</ele><time>2026-04-03T14:56:05Z</time></trkpt><trkpt lat="46.03810557173437" lon="11.988812081223736"><ele>236.0</ele><time>2026-04-03T14:56:06Z</time></trkpt><trkpt lat="46.038135535904" lon="11.989028167895194"><ele>236.75</ele><time>2026-04-03T14:56:07Z</time></trkpt><trkpt lat="46.03816349769835" lon="11.989236776977164"><ele>237.5</ele><time>2026-04-03T14:56:08Z</time></trkpt><trkpt lat="46.03819003671113" lon="11.989425596815943"><ele>238.25</ele><time>2026-04-03T14:56:09Z</time></trkpt><trkpt lat="46.0382173786143" lon="11.98961839321941"><ele>239.0</ele><time>2026-04-03T14:56:10Z</time></trkpt><trkpt lat="46.038238574152416" lon="11.98981959227572"><ele>239.25</ele><time>2026-04-03T14:56:11Z</time></trkpt><trkpt lat="46.0382479059407" lon="11.990024030158954"><ele>239.5</ele><time>2026-04-03T14:56:12Z</time></trkpt><trkpt lat="46.03824438689534" lon="11.990239665525149"><ele>239.75</ele><time>2026-04-03T14:56:13Z</time></trkpt><trkpt lat="46.038231281512495" lon="11.990443344044563"><ele>240.0</ele><time>2026-04-03T14:56:14Z</time></trkpt><trkpt lat="46.03821376306231" lon="11.990622244780639"><ele>240.0</ele><time>2026-04-03T14:56:15Z</time></trkpt><trkpt lat="46.038193740267324" lon="11.990778590442368"><ele>240.0</ele><time>2026-04-03T14:56:16Z</time></trkpt><trkpt lat="46.03817260455702" lon="11.990938719913867"><ele>240.0</ele><time>2026-04-03T14:56:17Z</time></trkpt><trkpt lat="46.038152845571" lon="11.991109296049578"><ele>240.0</ele><time>2026-04-03T14:56:18Z</time></trkpt><trkpt lat="46.03813609677388" lon="11.991274574585134"><ele>240.0</ele><time>2026-04-03T14:56:19Z</time></trkpt><trkpt lat="46.038117602328235" lon="11.991427829510215"><ele>240.0</ele><time>2026-04-03T14:56:20Z</time></trkpt><trkpt lat="46.03810730987699" lon="11.991595534660728"><ele>240.0</ele><time>2026-04-03T14:56:20.999Z</time></trkpt><trkpt lat="46.03809696643117" lon="11.99178325642708"><ele>240.0</ele><time>2026-04-03T14:56:21.999Z</time></trkpt><trkpt lat="46.038095133047875" lon="11.99199824028834"><ele>240.0</ele><time>2026-04-03T14:56:22.999Z</time></trkpt><trkpt lat="46.038080758132985" lon="11.992235760547771"><ele>240.0</ele><time>2026-04-03T14:56:23.999Z</time></trkpt><trkpt lat="46.03805554768256" lon="11.992469908672494"><ele>240.0</ele><time>2026-04-03T14:56:24.999Z</time></trkpt><trkpt lat="46.03802814982154" lon="11.992697465553896"><ele>240.0</ele><time>2026-04-03T14:56:25.999Z</time></trkpt><trkpt lat="46.03800249063193" lon="11.992926348393448"><ele>240.0</ele><time>2026-04-03T14:56:26.999Z</time></trkpt><trkpt lat="46.03797939766477" lon="11.99313163542908"><ele>240.0</ele><time>2026-04-03T14:56:27.999Z</time></trkpt><trkpt lat="46.0379539935707" lon="11.99334451118777"><ele>240.0</ele><time>2026-04-03T14:56:28.999Z</time></trkpt><trkpt lat="46.037927086684334" lon="11.993564901180921"><ele>240.0</ele><time>2026-04-03T14:56:29.999Z</time></trkpt><trkpt lat="46.03789973241192" lon="11.993784042407245"><ele>240.0</ele><time>2026-04-03T14:56:30.999Z</time></trkpt><trkpt lat="46.03787464097946" lon="11.993996173692818"><ele>240.66666666666669</ele><time>2026-04-03T14:56:31.999Z</time></trkpt><trkpt lat="46.037861204290294" lon="11.994211406727189"><ele>241.33333333333334</ele><time>2026-04-03T14:56:32.999Z</time></trkpt><trkpt lat="46.03785757214526" lon="11.994437704476184"><ele>242.0</ele><time>2026-04-03T14:56:33.999Z</time></trkpt><trkpt lat="46.03784388683544" lon="11.994678657335577"><ele>242.0</ele><time>2026-04-03T14:56:34.999Z</time></trkpt><trkpt lat="46.03781731090578" lon="11.994931031455971"><ele>242.0</ele><time>2026-04-03T14:56:35.999Z</time></trkpt><trkpt lat="46.037791694267106" lon="11.995196286552556"><ele>242.0</ele><time>2026-04-03T14:56:36.999Z</time></trkpt><trkpt lat="46.03776972722885" lon="11.995435606106236"><ele>242.0</ele><time>2026-04-03T14:56:37.999Z</time></trkpt><trkpt lat="46.037752577553775" lon="11.995649757779827"><ele>242.0</ele><time>2026-04-03T14:56:38.999Z</time></trkpt><trkpt lat="46.03774046378913" lon="11.995862438072361"><ele>242.0</ele><time>2026-04-03T14:56:39.999Z</time></trkpt><trkpt lat="46.03773037613066" lon="11.996081728649388"><ele>242.0</ele><time>2026-04-03T14:56:40.999Z</time></trkpt><trkpt lat="46.03772294437701" lon="11.996299165706533"><ele>242.0</ele><time>2026-04-03T14:56:41.999Z</time></trkpt><trkpt lat="46.03772380807679" lon="11.996515656578833"><ele>242.0</ele><time>2026-04-03T14:56:42.999Z</time></trkpt><trkpt lat="46.03772415273423" lon="11.996741868016253"><ele>241.66666666666669</ele><time>2026-04-03T14:56:43.999Z</time></trkpt><trkpt lat="46.03772579272334" lon="11.996964511991504"><ele>241.33333333333331</ele><time>2026-04-03T14:56:44.999Z</time></trkpt><trkpt lat="46.037727053711095" lon="11.997191202935328"><ele>241.0</ele><time>2026-04-03T14:56:45.999Z</time></trkpt><trkpt lat="46.03773564768933" lon="11.997410252470889"><ele>240.33333333333331</ele><time>2026-04-03T14:56:46.999Z</time></trkpt><trkpt lat="46.03774869844032" lon="11.997633997938552"><ele>239.66666666666669</ele><time>2026-04-03T14:56:47.999Z</time></trkpt><trkpt lat="46.03776352076183" lon="11.997855928718765"><ele>239.0</ele><time>2026-04-03T14:56:48.999Z</time></trkpt><trkpt lat="46.0377825241356" lon="11.998078389221062"><ele>239.0</ele><time>2026-04-03T14:56:49.999Z</time></trkpt><trkpt lat="46.03780027781287" lon="11.998303252290661"><ele>239.0</ele><time>2026-04-03T14:56:50.999Z</time></trkpt><trkpt lat="46.03782626734229" lon="11.998530110764529"><ele>239.0</ele><time>2026-04-03T14:56:51.999Z</time></trkpt><trkpt lat="46.037854562746176" lon="11.998752383249425"><ele>239.66666666666669</ele><time>2026-04-03T14:56:52.999Z</time></trkpt><trkpt lat="46.03788010876801" lon="11.998976134754066"><ele>240.33333333333331</ele><time>2026-04-03T14:56:53.999Z</time></trkpt><trkpt lat="46.03791301936115" lon="11.99920105528768"><ele>241.0</ele><time>2026-04-03T14:56:54.999Z</time></trkpt><trkpt lat="46.03794840552825" lon="11.999411548823376"><ele>241.0</ele><time>2026-04-03T14:56:55.999Z</time></trkpt><trkpt lat="46.037985630397195" lon="11.999622917669416"><ele>241.0</ele><time>2026-04-03T14:56:56.999Z</time></trkpt><trkpt lat="46.03802386765873" lon="11.999836037557458"><ele>241.0</ele><time>2026-04-03T14:56:57.999Z</time></trkpt><trkpt lat="46.03806640434624" lon="12.000048740824065"><ele>241.0</ele><time>2026-04-03T14:56:58.999Z</time></trkpt><trkpt lat="46.03812556103252" lon="12.000258478095454"><ele>241.0</ele><time>2026-04-03T14:56:59.999Z</time></trkpt><trkpt lat="46.03818899415472" lon="12.000472654886599"><ele>241.0</ele><time>2026-04-03T14:57:00.999Z</time></trkpt><trkpt lat="46.038251348864556" lon="12.000680063921644"><ele>242.0</ele><time>2026-04-03T14:57:01.999Z</time></trkpt><trkpt lat="46.03832280821699" lon="12.000885382127928"><ele>243.0</ele><time>2026-04-03T14:57:02.999Z</time></trkpt><trkpt lat="46.038397131724025" lon="12.001083688359875"><ele>244.0</ele><time>2026-04-03T14:57:03.999Z</time></trkpt><trkpt lat="46.038477593406384" lon="12.001283796449158"><ele>244.0</ele><time>2026-04-03T14:57:04.999Z</time></trkpt><trkpt lat="46.03855595980809" lon="12.001474288187582"><ele>244.0</ele><time>2026-04-03T14:57:05.999Z</time></trkpt><trkpt lat="46.0386384432249" lon="12.001664940415207"><ele>244.0</ele><time>2026-04-03T14:57:06.999Z</time></trkpt><trkpt lat="46.03872158091774" lon="12.001859385211738"><ele>243.66666666666666</ele><time>2026-04-03T14:57:07.999Z</time></trkpt><trkpt lat="46.038818635680535" lon="12.002045557234831"><ele>243.33333333333331</ele><time>2026-04-03T14:57:08.999Z</time></trkpt><trkpt lat="46.03893119989245" lon="12.002238276110623"><ele>243.0</ele><time>2026-04-03T14:57:09.999Z</time></trkpt><trkpt lat="46.03905369494049" lon="12.002432890841966"><ele>243.0</ele><time>2026-04-03T14:57:10.999Z</time></trkpt><trkpt lat="46.039176476233074" lon="12.00263194312472"><ele>243.0</ele><time>2026-04-03T14:57:11.999Z</time></trkpt><trkpt lat="46.039291947789344" lon="12.002824053277909"><ele>243.0</ele><time>2026-04-03T14:57:12.999Z</time></trkpt><trkpt lat="46.039401054769115" lon="12.00301277141942"><ele>243.0</ele><time>2026-04-03T14:57:13.999Z</time></trkpt><trkpt lat="46.03951639600849" lon="12.003213265448325"><ele>243.0</ele><time>2026-04-03T14:57:14.999Z</time></trkpt><trkpt lat="46.039629935833155" lon="12.003409283488033"><ele>243.0</ele><time>2026-04-03T14:57:15.999Z</time></trkpt><trkpt lat="46.03973481163551" lon="12.003609309553251"><ele>243.0</ele><time>2026-04-03T14:57:16.999Z</time></trkpt><trkpt lat="46.039835900258694" lon="12.00382160120013"><ele>243.0</ele><time>2026-04-03T14:57:17.999Z</time></trkpt><trkpt lat="46.03993868918774" lon="12.004029315558734"><ele>243.0</ele><time>2026-04-03T14:57:19Z</time></trkpt><trkpt lat="46.04003193376428" lon="12.004222497502726"><ele>243.66666666666669</ele><time>2026-04-03T14:57:20Z</time></trkpt><trkpt lat="46.04012287350821" lon="12.004418537675305"><ele>244.33333333333334</ele><time>2026-04-03T14:57:21Z</time></trkpt><trkpt lat="46.04021133475769" lon="12.00461034234106"><ele>245.0</ele><time>2026-04-03T14:57:22Z</time></trkpt><trkpt lat="46.040302610496674" lon="12.00480782520585"><ele>245.33333333333334</ele><time>2026-04-03T14:57:23Z</time></trkpt><trkpt lat="46.040390161400744" lon="12.005004720385502"><ele>245.66666666666669</ele><time>2026-04-03T14:57:24Z</time></trkpt><trkpt lat="46.04047823081354" lon="12.005204406821681"><ele>246.0</ele><time>2026-04-03T14:57:25Z</time></trkpt><trkpt lat="46.04056504882228" lon="12.005400394175393"><ele>246.0</ele><time>2026-04-03T14:57:26Z</time></trkpt><trkpt lat="46.040649311205854" lon="12.005593082037876"><ele>246.0</ele><time>2026-04-03T14:57:27Z</time></trkpt><trkpt lat="46.04073504301261" lon="12.005786876194943"><ele>246.0</ele><time>2026-04-03T14:57:28Z</time></trkpt><trkpt lat="46.04082314449613" lon="12.005986210512841"><ele>246.0</ele><time>2026-04-03T14:57:29Z</time></trkpt><trkpt lat="46.04091177198398" lon="12.006187939221086"><ele>246.0</ele><time>2026-04-03T14:57:30Z</time></trkpt><trkpt lat="46.04100001320616" lon="12.006390423709268"><ele>246.0</ele><time>2026-04-03T14:57:31Z</time></trkpt><trkpt lat="46.041089308555534" lon="12.00659267370309"><ele>246.33333333333331</ele><time>2026-04-03T14:57:32Z</time></trkpt><trkpt lat="46.04117695457598" lon="12.006800690355142"><ele>246.66666666666666</ele><time>2026-04-03T14:57:33Z</time></trkpt><trkpt lat="46.041267052339535" lon="12.007006120142533"><ele>247.0</ele><time>2026-04-03T14:57:34Z</time></trkpt><trkpt lat="46.041355733429455" lon="12.007209391514534"><ele>247.0</ele><time>2026-04-03T14:57:35Z</time></trkpt><trkpt lat="46.0414462278016" lon="12.00741145607539"><ele>247.0</ele><time>2026-04-03T14:57:36Z</time></trkpt><trkpt lat="46.04153552833115" lon="12.007615354640475"><ele>247.0</ele><time>2026-04-03T14:57:37Z</time></trkpt><trkpt lat="46.04162316264545" lon="12.007815254538803"><ele>247.33333333333331</ele><time>2026-04-03T14:57:38Z</time></trkpt><trkpt lat="46.04171178681984" lon="12.008018415464955"><ele>247.66666666666669</ele><time>2026-04-03T14:57:39Z</time></trkpt><trkpt lat="46.04180160483718" lon="12.008219631523845"><ele>248.0</ele><time>2026-04-03T14:57:40Z</time></trkpt><trkpt lat="46.04189171822049" lon="12.008424249650062"><ele>248.33333333333334</ele><time>2026-04-03T14:57:41Z</time></trkpt><trkpt lat="46.04197603799461" lon="12.008625086913478"><ele>248.66666666666669</ele><time>2026-04-03T14:57:42Z</time></trkpt><trkpt lat="46.04205868479817" lon="12.008822193967847"><ele>249.0</ele><time>2026-04-03T14:57:43Z</time></trkpt><trkpt lat="46.042144132268106" lon="12.009021683324752"><ele>249.33333333333331</ele><time>2026-04-03T14:57:44Z</time></trkpt><trkpt lat="46.04223095803196" lon="12.009221593619205"><ele>249.66666666666666</ele><time>2026-04-03T14:57:45Z</time></trkpt><trkpt lat="46.04231663250571" lon="12.00942240514609"><ele>250.0</ele><time>2026-04-03T14:57:46Z</time></trkpt><trkpt lat="46.04239586238522" lon="12.009615297272942"><ele>249.75</ele><time>2026-04-03T14:57:47Z</time></trkpt><trkpt lat="46.04247127294085" lon="12.009799034810804"><ele>249.5</ele><time>2026-04-03T14:57:48Z</time></trkpt><trkpt lat="46.042536511903" lon="12.009971763453462"><ele>249.25</ele><time>2026-04-03T14:57:49Z</time></trkpt><trkpt lat="46.042602395980296" lon="12.01013654710209"><ele>249.0</ele><time>2026-04-03T14:57:50Z</time></trkpt><trkpt lat="46.04266132638917" lon="12.0102919701978"><ele>249.0</ele><time>2026-04-03T14:57:51Z</time></trkpt><trkpt lat="46.04264343043809" lon="12.010470675450922"><ele>248.99999999999997</ele><time>2026-04-03T14:57:52Z</time></trkpt><trkpt lat="46.04268353072837" lon="12.010599658242317"><ele>248.99999999999997</ele><time>2026-04-03T14:57:53Z</time></trkpt><trkpt lat="46.04276563886574" lon="12.010663237221113"><ele>249.0</ele><time>2026-04-03T14:57:54Z</time></trkpt><trkpt lat="46.04279302244918" lon="12.010814868109511"><ele>249.0</ele><time>2026-04-03T14:57:56Z</time></trkpt><trkpt lat="46.0428015463099" lon="12.010919188222204"><ele>249.2</ele><time>2026-04-03T14:57:57Z</time></trkpt><trkpt lat="46.042817077852" lon="12.011035453425134"><ele>249.39999999999998</ele><time>2026-04-03T14:57:58Z</time></trkpt><trkpt lat="46.042892767364975" lon="12.011139966016515"><ele>249.6</ele><time>2026-04-03T14:57:59Z</time></trkpt><trkpt lat="46.04295218808351" lon="12.01127565316375"><ele>249.8</ele><time>2026-04-03T14:58:00Z</time></trkpt><trkpt lat="46.042999330351414" lon="12.011436124117271"><ele>250.0</ele><time>2026-04-03T14:58:01Z</time></trkpt><trkpt lat="46.04306178063445" lon="12.01162558664528"><ele>250.33333333333331</ele><time>2026-04-03T14:58:02Z</time></trkpt><trkpt lat="46.043130153119726" lon="12.011849174959938"><ele>250.66666666666669</ele><time>2026-04-03T14:58:03Z</time></trkpt><trkpt lat="46.04318529983099" lon="12.012056888440432"><ele>251.0</ele><time>2026-04-03T14:58:04Z</time></trkpt><trkpt lat="46.0432379524101" lon="12.012237268425634"><ele>251.0</ele><time>2026-04-03T14:58:05Z</time></trkpt><trkpt lat="46.04329124411899" lon="12.012428603952676"><ele>251.0</ele><time>2026-04-03T14:58:06Z</time></trkpt><trkpt lat="46.0433474129985" lon="12.012620712758283"><ele>251.0</ele><time>2026-04-03T14:58:07Z</time></trkpt><trkpt lat="46.04340114126113" lon="12.012811856943575"><ele>251.0</ele><time>2026-04-03T14:58:08Z</time></trkpt><trkpt lat="46.043454725873296" lon="12.012998553190448"><ele>250.75</ele><time>2026-04-03T14:58:09Z</time></trkpt><trkpt lat="46.04350461891602" lon="12.013183517449978"><ele>250.5</ele><time>2026-04-03T14:58:10Z</time></trkpt><trkpt lat="46.04355819965639" lon="12.013364783371543"><ele>250.25</ele><time>2026-04-03T14:58:11Z</time></trkpt><trkpt lat="46.043614128113184" lon="12.013549076976444"><ele>250.0</ele><time>2026-04-03T14:58:12Z</time></trkpt><trkpt lat="46.04366626726971" lon="12.013734930103581"><ele>250.5</ele><time>2026-04-03T14:58:13Z</time></trkpt><trkpt lat="46.043722542364605" lon="12.013916630512373"><ele>251.0</ele><time>2026-04-03T14:58:14Z</time></trkpt><trkpt lat="46.043776409877864" lon="12.014102096115156"><ele>251.5</ele><time>2026-04-03T14:58:15Z</time></trkpt><trkpt lat="46.043827251038714" lon="12.014289457719558"><ele>252.0</ele><time>2026-04-03T14:58:16Z</time></trkpt><trkpt lat="46.04387731793917" lon="12.014474474761608"><ele>253.0</ele><time>2026-04-03T14:58:17Z</time></trkpt><trkpt lat="46.04393260651047" lon="12.01465604903224"><ele>254.0</ele><time>2026-04-03T14:58:18Z</time></trkpt><trkpt lat="46.04398869036955" lon="12.014840925307935"><ele>255.0</ele><time>2026-04-03T14:58:19Z</time></trkpt><trkpt lat="46.04404179747513" lon="12.015026248003736"><ele>256.0</ele><time>2026-04-03T14:58:20Z</time></trkpt><trkpt lat="46.04409333973505" lon="12.015201126942863"><ele>255.75</ele><time>2026-04-03T14:58:21Z</time></trkpt><trkpt lat="46.04414111208882" lon="12.015356403863562"><ele>255.5</ele><time>2026-04-03T14:58:22Z</time></trkpt><trkpt lat="46.04418624287981" lon="12.01550749244865"><ele>255.25</ele><time>2026-04-03T14:58:23Z</time></trkpt><trkpt lat="46.04422801583155" lon="12.015661861222908"><ele>255.0</ele><time>2026-04-03T14:58:24Z</time></trkpt><trkpt lat="46.04427521143525" lon="12.015820564194849"><ele>255.4</ele><time>2026-04-03T14:58:25Z</time></trkpt><trkpt lat="46.04432060066581" lon="12.015983199363017"><ele>255.8</ele><time>2026-04-03T14:58:26Z</time></trkpt><trkpt lat="46.04436004211242" lon="12.016131455600235"><ele>256.2</ele><time>2026-04-03T14:58:27Z</time></trkpt><trkpt lat="46.04440168487444" lon="12.016272390795827"><ele>256.6</ele><time>2026-04-03T14:58:27.999Z</time></trkpt><trkpt lat="46.04442584144188" lon="12.016424035228958"><ele>257.0</ele><time>2026-04-03T14:58:28.999Z</time></trkpt><trkpt lat="46.04446094865493" lon="12.01658157790565"><ele>257.0</ele><time>2026-04-03T14:58:29.999Z</time></trkpt><trkpt lat="46.044490996490715" lon="12.01674147543005"><ele>257.0</ele><time>2026-04-03T14:58:30.999Z</time></trkpt><trkpt lat="46.044508664741" lon="12.01690851709784"><ele>257.0</ele><time>2026-04-03T14:58:31.999Z</time></trkpt><trkpt lat="46.04451734388387" lon="12.017083035736414"><ele>257.0</ele><time>2026-04-03T14:58:32.999Z</time></trkpt><trkpt lat="46.04452375701445" lon="12.017256379792112"><ele>257.0</ele><time>2026-04-03T14:58:33.999Z</time></trkpt><trkpt lat="46.0445271405146" lon="12.017433786926482"><ele>257.0</ele><time>2026-04-03T14:58:34.999Z</time></trkpt><trkpt lat="46.04452581749577" lon="12.017622325306618"><ele>257.0</ele><time>2026-04-03T14:58:35.999Z</time></trkpt><trkpt lat="46.04452268822247" lon="12.01781509564486"><ele>257.0</ele><time>2026-04-03T14:58:36.999Z</time></trkpt><trkpt lat="46.04452854868566" lon="12.018013113560416"><ele>257.0</ele><time>2026-04-03T14:58:37.999Z</time></trkpt><trkpt lat="46.04452992717992" lon="12.018201621988926"><ele>257.0</ele><time>2026-04-03T14:58:38.999Z</time></trkpt><trkpt lat="46.044533640215846" lon="12.018378971142191"><ele>257.0</ele><time>2026-04-03T14:58:39.999Z</time></trkpt><trkpt lat="46.044532822913936" lon="12.018560844240902"><ele>257.0</ele><time>2026-04-03T14:58:40.999Z</time></trkpt><trkpt lat="46.04453303793933" lon="12.018750699414447"><ele>257.25</ele><time>2026-04-03T14:58:41.999Z</time></trkpt><trkpt lat="46.04453394376908" lon="12.018944044710475"><ele>257.5</ele><time>2026-04-03T14:58:42.999Z</time></trkpt><trkpt lat="46.04453561211658" lon="12.019137357751148"><ele>257.75</ele><time>2026-04-03T14:58:43.999Z</time></trkpt><trkpt lat="46.044540615927616" lon="12.019329718964103"><ele>258.0</ele><time>2026-04-03T14:58:44.999Z</time></trkpt><trkpt lat="46.0445388208915" lon="12.019514921888108"><ele>258.25</ele><time>2026-04-03T14:58:45.999Z</time></trkpt><trkpt lat="46.04453724733358" lon="12.019690325411757"><ele>258.5</ele><time>2026-04-03T14:58:46.999Z</time></trkpt><trkpt lat="46.044537823135414" lon="12.019862141907797"><ele>258.75</ele><time>2026-04-03T14:58:47.999Z</time></trkpt><trkpt lat="46.044544895497665" lon="12.020040520075172"><ele>259.0</ele><time>2026-04-03T14:58:48.999Z</time></trkpt><trkpt lat="46.04455849716344" lon="12.020222452513032"><ele>259.5</ele><time>2026-04-03T14:58:49.999Z</time></trkpt><trkpt lat="46.04458705248644" lon="12.020405828936454"><ele>260.0</ele><time>2026-04-03T14:58:50.999Z</time></trkpt><trkpt lat="46.044620482791494" lon="12.020590984091834"><ele>260.5</ele><time>2026-04-03T14:58:51.999Z</time></trkpt><trkpt lat="46.04465480672532" lon="12.020778627601047"><ele>261.0</ele><time>2026-04-03T14:58:52.999Z</time></trkpt><trkpt lat="46.04469776028593" lon="12.020960211801574"><ele>261.5</ele><time>2026-04-03T14:58:53.999Z</time></trkpt><trkpt lat="46.04473589327935" lon="12.02112835857846"><ele>262.0</ele><time>2026-04-03T14:58:54.999Z</time></trkpt><trkpt lat="46.044773682000425" lon="12.021284307723473"><ele>262.5</ele><time>2026-04-03T14:58:55.999Z</time></trkpt><trkpt lat="46.04482405812386" lon="12.021436226857768"><ele>263.0</ele><time>2026-04-03T14:58:56.999Z</time></trkpt><trkpt lat="46.04487563871787" lon="12.021601258441077"><ele>263.25</ele><time>2026-04-03T14:58:57.999Z</time></trkpt><trkpt lat="46.044930031033026" lon="12.021763460441896"><ele>263.5</ele><time>2026-04-03T14:58:58.999Z</time></trkpt><trkpt lat="46.04497172140729" lon="12.021921075233061"><ele>263.75</ele><time>2026-04-03T14:58:59.999Z</time></trkpt><trkpt lat="46.044997787092626" lon="12.022094245065192"><ele>264.0</ele><time>2026-04-03T14:59:00.999Z</time></trkpt><trkpt lat="46.045022517201936" lon="12.022265997003139"><ele>263.59999999999997</ele><time>2026-04-03T14:59:01.999Z</time></trkpt><trkpt lat="46.04505758397798" lon="12.022442236665494"><ele>263.2</ele><time>2026-04-03T14:59:02.999Z</time></trkpt><trkpt lat="46.0450850689934" lon="12.022599694854831"><ele>262.79999999999995</ele><time>2026-04-03T14:59:03.999Z</time></trkpt><trkpt lat="46.045113584954755" lon="12.022743750185516"><ele>262.4</ele><time>2026-04-03T14:59:04.999Z</time></trkpt><trkpt lat="46.045131825516584" lon="12.02288095588724"><ele>262.0</ele><time>2026-04-03T14:59:05.999Z</time></trkpt><trkpt lat="46.04515551453263" lon="12.02301387864143"><ele>262.0</ele><time>2026-04-03T14:59:06.999Z</time></trkpt><trkpt lat="46.045177222572526" lon="12.023151681699575"><ele>262.0</ele><time>2026-04-03T14:59:07.999Z</time></trkpt><trkpt lat="46.04520394773713" lon="12.02329348605904"><ele>262.0</ele><time>2026-04-03T14:59:08.999Z</time></trkpt><trkpt lat="46.04523324947579" lon="12.023429947241873"><ele>262.0</ele><time>2026-04-03T14:59:09.999Z</time></trkpt><trkpt lat="46.045250359065435" lon="12.023568027719714"><ele>262.0</ele><time>2026-04-03T14:59:10.999Z</time></trkpt><trkpt lat="46.04527051361066" lon="12.02371166826753"><ele>262.2</ele><time>2026-04-03T14:59:11.999Z</time></trkpt><trkpt lat="46.04528832813259" lon="12.0238581170659"><ele>262.4</ele><time>2026-04-03T14:59:12.999Z</time></trkpt><trkpt lat="46.045294293992015" lon="12.024008153025939"><ele>262.6</ele><time>2026-04-03T14:59:13.999Z</time></trkpt><trkpt lat="46.045307223736565" lon="12.024180104505822"><ele>262.8</ele><time>2026-04-03T14:59:14.999Z</time></trkpt><trkpt lat="46.04529812629597" lon="12.0243423434401"><ele>263.0</ele><time>2026-04-03T14:59:15.999Z</time></trkpt><trkpt lat="46.045289935129645" lon="12.024498060810812"><ele>263.1666666666667</ele><time>2026-04-03T14:59:16.999Z</time></trkpt><trkpt lat="46.04527919933746" lon="12.024630094868522"><ele>263.33333333333337</ele><time>2026-04-03T14:59:17.999Z</time></trkpt><trkpt lat="46.04527141388942" lon="12.024747341995218"><ele>263.5</ele><time>2026-04-03T14:59:18.999Z</time></trkpt><trkpt lat="46.04525786254903" lon="12.024843734040363"><ele>263.6666666666667</ele><time>2026-04-03T14:59:19.999Z</time></trkpt><trkpt lat="46.04524204549174" lon="12.024996097916445"><ele>263.8333333333333</ele><time>2026-04-03T14:59:21.999Z</time></trkpt><trkpt lat="46.04520730525861" lon="12.025079487991098"><ele>264.0</ele><time>2026-04-03T14:59:22.999Z</time></trkpt><trkpt lat="46.045083715720814" lon="12.02510449944252"><ele>264.0</ele><time>2026-04-03T14:59:25Z</time></trkpt><trkpt lat="46.04501061784828" lon="12.025147748050127"><ele>264.0</ele><time>2026-04-03T14:59:26Z</time></trkpt><trkpt lat="46.04494332727873" lon="12.025136887760011"><ele>264.0</ele><time>2026-04-03T14:59:27Z</time></trkpt><trkpt lat="46.044867424419834" lon="12.02512957411698"><ele>264.0</ele><time>2026-04-03T14:59:28Z</time></trkpt><trkpt lat="46.04478296023264" lon="12.025120222940377"><ele>264.0</ele><time>2026-04-03T14:59:29Z</time></trkpt><trkpt lat="46.04469005218856" lon="12.025118950774454"><ele>264.0</ele><time>2026-04-03T14:59:30Z</time></trkpt><trkpt lat="46.044591432643756" lon="12.025117476791813"><ele>264.5</ele><time>2026-04-03T14:59:31Z</time></trkpt><trkpt lat="46.04451820288453" lon="12.025119506858202"><ele>265.0</ele><time>2026-04-03T14:59:32Z</time></trkpt><trkpt lat="46.04444005488935" lon="12.025119960192535"><ele>265.5</ele><time>2026-04-03T14:59:33Z</time></trkpt><trkpt lat="46.04435615379533" lon="12.02511134892352"><ele>266.0</ele><time>2026-04-03T14:59:34Z</time></trkpt><trkpt lat="46.04427639969197" lon="12.025107703828327"><ele>266.5</ele><time>2026-04-03T14:59:35Z</time></trkpt><trkpt lat="46.04419397508407" lon="12.025132687687295"><ele>267.0</ele><time>2026-04-03T14:59:36Z</time></trkpt><trkpt lat="46.04411607952844" lon="12.025172314475427"><ele>268.3333333333333</ele><time>2026-04-03T14:59:37Z</time></trkpt><trkpt lat="46.04404009827951" lon="12.02526007083864"><ele>269.6666666666667</ele><time>2026-04-03T14:59:38Z</time></trkpt><trkpt lat="46.04396310133591" lon="12.025334517228528"><ele>271.0</ele><time>2026-04-03T14:59:39Z</time></trkpt><trkpt lat="46.0438837509728" lon="12.02536768612092"><ele>272.33333333333337</ele><time>2026-04-03T14:59:40Z</time></trkpt><trkpt lat="46.0438131208997" lon="12.025413282351483"><ele>273.6666666666667</ele><time>2026-04-03T14:59:41Z</time></trkpt><trkpt lat="46.04374508905695" lon="12.025454180228536"><ele>275.0</ele><time>2026-04-03T14:59:42Z</time></trkpt><trkpt lat="46.043665750819905" lon="12.025498505921112"><ele>275.0</ele><time>2026-04-03T14:59:43Z</time></trkpt><trkpt lat="46.043583690563544" lon="12.025539634003499"><ele>275.0</ele><time>2026-04-03T14:59:44Z</time></trkpt><trkpt lat="46.043503329775795" lon="12.025568412793824"><ele>275.0</ele><time>2026-04-03T14:59:45Z</time></trkpt><trkpt lat="46.04343033218918" lon="12.025562777270043"><ele>275.0</ele><time>2026-04-03T14:59:46Z</time></trkpt><trkpt lat="46.043366298893176" lon="12.025533350285542"><ele>275.0</ele><time>2026-04-03T14:59:47Z</time></trkpt><trkpt lat="46.043309851686615" lon="12.025467921037995"><ele>275.0</ele><time>2026-04-03T14:59:48Z</time></trkpt><trkpt lat="46.04327726444747" lon="12.025371159905346"><ele>278.0</ele><time>2026-04-03T14:59:49Z</time></trkpt><trkpt lat="46.04322565131145" lon="12.025277918958626"><ele>281.0</ele><time>2026-04-03T14:59:50Z</time></trkpt><trkpt lat="46.04317583076731" lon="12.025185584219761"><ele>284.0</ele><time>2026-04-03T14:59:51Z</time></trkpt><trkpt lat="46.0431324968866" lon="12.025101750865646"><ele>287.0</ele><time>2026-04-03T14:59:52Z</time></trkpt><trkpt lat="46.04308909156764" lon="12.025015002418238"><ele>290.0</ele><time>2026-04-03T14:59:53Z</time></trkpt><trkpt lat="46.04304551338126" lon="12.024922864543026"><ele>293.0</ele><time>2026-04-03T14:59:54Z</time></trkpt><trkpt lat="46.04300065153691" lon="12.024826924701259"><ele>293.0</ele><time>2026-04-03T14:59:55Z</time></trkpt><trkpt lat="46.04296025502297" lon="12.024731555581075"><ele>293.0</ele><time>2026-04-03T14:59:56Z</time></trkpt><trkpt lat="46.04292211203778" lon="12.024634893587445"><ele>293.0</ele><time>2026-04-03T14:59:57Z</time></trkpt><trkpt lat="46.04288641426742" lon="12.024548189588346"><ele>293.0</ele><time>2026-04-03T14:59:58Z</time></trkpt><trkpt lat="46.04284087542752" lon="12.024464497783304"><ele>293.0</ele><time>2026-04-03T14:59:59Z</time></trkpt><trkpt lat="46.04278085390933" lon="12.024384814917848"><ele>293.0</ele><time>2026-04-03T15:00:00Z</time></trkpt><trkpt lat="46.042719674252304" lon="12.024312317130056"><ele>293.0</ele><time>2026-04-03T15:00:01Z</time></trkpt><trkpt lat="46.042647941658714" lon="12.024263465805282"><ele>293.0</ele><time>2026-04-03T15:00:02Z</time></trkpt><trkpt lat="46.04258051103539" lon="12.02420955980983"><ele>293.0</ele><time>2026-04-03T15:00:03Z</time></trkpt><trkpt lat="46.04251553112984" lon="12.024157613018845"><ele>293.0</ele><time>2026-04-03T15:00:04Z</time></trkpt><trkpt lat="46.04245554880227" lon="12.024109726751254"><ele>293.0</ele><time>2026-04-03T15:00:05Z</time></trkpt><trkpt lat="46.04238622897367" lon="12.024059254544424"><ele>293.0</ele><time>2026-04-03T15:00:06Z</time></trkpt><trkpt lat="46.04230862602395" lon="12.02403982208915"><ele>292.83333333333337</ele><time>2026-04-03T15:00:07Z</time></trkpt><trkpt lat="46.04223405551686" lon="12.02399039655383"><ele>292.6666666666667</ele><time>2026-04-03T15:00:08Z</time></trkpt><trkpt lat="46.04214900947282" lon="12.023978711229816"><ele>292.5</ele><time>2026-04-03T15:00:09Z</time></trkpt><trkpt lat="46.04207118290713" lon="12.023980399984614"><ele>292.3333333333333</ele><time>2026-04-03T15:00:10Z</time></trkpt><trkpt lat="46.041997174052824" lon="12.02400017254301"><ele>292.16666666666663</ele><time>2026-04-03T15:00:11Z</time></trkpt><trkpt lat="46.04193214378647" lon="12.024084805957402"><ele>292.0</ele><time>2026-04-03T15:00:12Z</time></trkpt><trkpt lat="46.04186440868995" lon="12.024151650208747"><ele>293.8</ele><time>2026-04-03T15:00:13Z</time></trkpt><trkpt lat="46.041803899336905" lon="12.024255612836276"><ele>295.6</ele><time>2026-04-03T15:00:14Z</time></trkpt><trkpt lat="46.04175026627857" lon="12.024366175225104"><ele>297.40000000000003</ele><time>2026-04-03T15:00:15Z</time></trkpt><trkpt lat="46.04169487171132" lon="12.024480794791211"><ele>299.2</ele><time>2026-04-03T15:00:16Z</time></trkpt><trkpt lat="46.041630116044914" lon="12.024596635502048"><ele>301.0</ele><time>2026-04-03T15:00:17Z</time></trkpt><trkpt lat="46.04155547750094" lon="12.024721243259055"><ele>303.5</ele><time>2026-04-03T15:00:18Z</time></trkpt><trkpt lat="46.04148346917254" lon="12.02484506067208"><ele>306.0</ele><time>2026-04-03T15:00:19Z</time></trkpt><trkpt lat="46.04140911829938" lon="12.024956240098083"><ele>308.5</ele><time>2026-04-03T15:00:20Z</time></trkpt><trkpt lat="46.04130986984452" lon="12.025063710633052"><ele>311.0</ele><time>2026-04-03T15:00:21Z</time></trkpt><trkpt lat="46.041221275754715" lon="12.025150901117206"><ele>311.0</ele><time>2026-04-03T15:00:22Z</time></trkpt><trkpt lat="46.04113400175728" lon="12.025212646202046"><ele>311.0</ele><time>2026-04-03T15:00:23Z</time></trkpt><trkpt lat="46.04105405778712" lon="12.02529864366747"><ele>311.0</ele><time>2026-04-03T15:00:24Z</time></trkpt><trkpt lat="46.0409917087844" lon="12.025372845321865"><ele>311.0</ele><time>2026-04-03T15:00:25Z</time></trkpt><trkpt lat="46.0409501918461" lon="12.025465675120747"><ele>311.0</ele><time>2026-04-03T15:00:26Z</time></trkpt><trkpt lat="46.04091672157411" lon="12.025558992984552"><ele>311.0</ele><time>2026-04-03T15:00:27Z</time></trkpt><trkpt lat="46.04090783221691" lon="12.02566378250487"><ele>311.0</ele><time>2026-04-03T15:00:28Z</time></trkpt><trkpt lat="46.04093012316614" lon="12.025802671607538"><ele>311.0</ele><time>2026-04-03T15:00:29Z</time></trkpt><trkpt lat="46.04097100477139" lon="12.025943608667092"><ele>311.0</ele><time>2026-04-03T15:00:30Z</time></trkpt><trkpt lat="46.04097299176275" lon="12.026035347080162"><ele>311.0</ele><time>2026-04-03T15:00:31Z</time></trkpt><trkpt lat="46.04101762920461" lon="12.026173445317932"><ele>311.0</ele><time>2026-04-03T15:00:31.999Z</time></trkpt><trkpt lat="46.04104798404613" lon="12.0263134898329"><ele>312.2</ele><time>2026-04-03T15:00:32.999Z</time></trkpt><trkpt lat="46.04105797483446" lon="12.02645562074991"><ele>313.40000000000003</ele><time>2026-04-03T15:00:33.999Z</time></trkpt><trkpt lat="46.041056124216595" lon="12.026603045151033"><ele>314.6</ele><time>2026-04-03T15:00:34.999Z</time></trkpt><trkpt lat="46.041057846215665" lon="12.026734391815133"><ele>315.8</ele><time>2026-04-03T15:00:35.999Z</time></trkpt><trkpt lat="46.04105626399509" lon="12.026854362001938"><ele>317.0</ele><time>2026-04-03T15:00:36.999Z</time></trkpt><trkpt lat="46.04105658197226" lon="12.026969297294508"><ele>319.33333333333337</ele><time>2026-04-03T15:00:37.999Z</time></trkpt><trkpt lat="46.0410575429811" lon="12.02707361442926"><ele>321.6666666666667</ele><time>2026-04-03T15:00:38.999Z</time></trkpt><trkpt lat="46.04105820715266" lon="12.027175165818575"><ele>324.0</ele><time>2026-04-03T15:00:39.999Z</time></trkpt><trkpt lat="46.0410576253149" lon="12.027266787679341"><ele>326.3333333333333</ele><time>2026-04-03T15:00:40.999Z</time></trkpt><trkpt lat="46.04105890556005" lon="12.027357982192802"><ele>328.66666666666663</ele><time>2026-04-03T15:00:41.999Z</time></trkpt><trkpt lat="46.04101792967835" lon="12.02752775674539"><ele>331.0</ele><time>2026-04-03T15:00:43.999Z</time></trkpt><trkpt lat="46.04092560950743" lon="12.027636923671633"><ele>332.20000000000005</ele><time>2026-04-03T15:00:45.999Z</time></trkpt><trkpt lat="46.04086356421128" lon="12.027696513945132"><ele>333.40000000000003</ele><time>2026-04-03T15:00:46.999Z</time></trkpt><trkpt lat="46.040789799771225" lon="12.027741005385353"><ele>334.6</ele><time>2026-04-03T15:00:47.999Z</time></trkpt><trkpt lat="46.04069664156619" lon="12.0278093039793"><ele>335.8</ele><time>2026-04-03T15:00:48.999Z</time></trkpt><trkpt lat="46.04059588967749" lon="12.027885325886732"><ele>337.0</ele><time>2026-04-03T15:00:49.999Z</time></trkpt><trkpt lat="46.04049684433938" lon="12.027960059086121"><ele>338.6</ele><time>2026-04-03T15:00:50.999Z</time></trkpt><trkpt lat="46.04040923239083" lon="12.028025794905941"><ele>340.20000000000005</ele><time>2026-04-03T15:00:51.999Z</time></trkpt><trkpt lat="46.04032383801853" lon="12.028090030727503"><ele>341.8</ele><time>2026-04-03T15:00:52.999Z</time></trkpt><trkpt lat="46.04024527512486" lon="12.02814912770191"><ele>343.4</ele><time>2026-04-03T15:00:53.999Z</time></trkpt><trkpt lat="46.04016865749107" lon="12.028206765077567"><ele>345.0</ele><time>2026-04-03T15:00:54.999Z</time></trkpt><trkpt lat="46.040089603948836" lon="12.02826670693813"><ele>345.1666666666667</ele><time>2026-04-03T15:00:55.999Z</time></trkpt><trkpt lat="46.040018906801706" lon="12.028320123875815"><ele>345.3333333333333</ele><time>2026-04-03T15:00:56.999Z</time></trkpt><trkpt lat="46.03994740938719" lon="12.028372062635038"><ele>345.5</ele><time>2026-04-03T15:00:57.999Z</time></trkpt><trkpt lat="46.03987869213739" lon="12.028415969551155"><ele>345.66666666666663</ele><time>2026-04-03T15:00:58.999Z</time></trkpt><trkpt lat="46.03980661486882" lon="12.028451278556583"><ele>345.8333333333333</ele><time>2026-04-03T15:00:59.999Z</time></trkpt><trkpt lat="46.0397296343155" lon="12.02847548583858"><ele>346.0</ele><time>2026-04-03T15:01:00.999Z</time></trkpt><trkpt lat="46.0396473817636" lon="12.028487960289223"><ele>347.0</ele><time>2026-04-03T15:01:01.999Z</time></trkpt><trkpt lat="46.03956965798258" lon="12.028484692098539"><ele>348.0</ele><time>2026-04-03T15:01:02.999Z</time></trkpt><trkpt lat="46.0394861735847" lon="12.028471995238478"><ele>349.0</ele><time>2026-04-03T15:01:03.999Z</time></trkpt><trkpt lat="46.03940181623304" lon="12.028447332911963"><ele>350.0</ele><time>2026-04-03T15:01:04.999Z</time></trkpt><trkpt lat="46.03932134226205" lon="12.028406165111825"><ele>351.0</ele><time>2026-04-03T15:01:05.999Z</time></trkpt><trkpt lat="46.03924263561427" lon="12.028355785650358"><ele>352.0</ele><time>2026-04-03T15:01:06.999Z</time></trkpt><trkpt lat="46.03916381446752" lon="12.028288901356367"><ele>355.40000000000003</ele><time>2026-04-03T15:01:07.999Z</time></trkpt><trkpt lat="46.03909712982222" lon="12.028203115114655"><ele>358.8</ele><time>2026-04-03T15:01:08.999Z</time></trkpt><trkpt lat="46.039032031402954" lon="12.0281120968773"><ele>362.2</ele><time>2026-04-03T15:01:09.999Z</time></trkpt><trkpt lat="46.038965370485215" lon="12.028005996430087"><ele>365.6</ele><time>2026-04-03T15:01:10.999Z</time></trkpt><trkpt lat="46.038896185917665" lon="12.027891193760397"><ele>369.0</ele><time>2026-04-03T15:01:11.999Z</time></trkpt><trkpt lat="46.03882489531602" lon="12.027772896328077"><ele>369.0</ele><time>2026-04-03T15:01:12.999Z</time></trkpt><trkpt lat="46.03875125178967" lon="12.02764977867449"><ele>369.0</ele><time>2026-04-03T15:01:13.999Z</time></trkpt><trkpt lat="46.03869020060154" lon="12.027547420767142"><ele>369.0</ele><time>2026-04-03T15:01:14.999Z</time></trkpt><trkpt lat="46.03862238950514" lon="12.027433729155032"><ele>369.0</ele><time>2026-04-03T15:01:15.999Z</time></trkpt><trkpt lat="46.03855610027389" lon="12.027322499834774"><ele>369.0</ele><time>2026-04-03T15:01:16.999Z</time></trkpt><trkpt lat="46.03847802843098" lon="12.027227405218458"><ele>369.0</ele><time>2026-04-03T15:01:17.999Z</time></trkpt><trkpt lat="46.038418920924926" lon="12.02710786989117"><ele>369.0</ele><time>2026-04-03T15:01:18.999Z</time></trkpt><trkpt lat="46.03834650883767" lon="12.027000642151078"><ele>369.0</ele><time>2026-04-03T15:01:19.999Z</time></trkpt><trkpt lat="46.03828419252419" lon="12.026887208793307"><ele>369.0</ele><time>2026-04-03T15:01:20.999Z</time></trkpt><trkpt lat="46.03821310257862" lon="12.02677761002935"><ele>369.0</ele><time>2026-04-03T15:01:21.999Z</time></trkpt><trkpt lat="46.03815467949703" lon="12.026662767143016"><ele>372.4</ele><time>2026-04-03T15:01:22.999Z</time></trkpt><trkpt lat="46.038111933874255" lon="12.02656160204934"><ele>375.79999999999995</ele><time>2026-04-03T15:01:23.999Z</time></trkpt><trkpt lat="46.03806548418622" lon="12.0264870689965"><ele>379.20000000000005</ele><time>2026-04-03T15:01:24.999Z</time></trkpt><trkpt lat="46.038008928442636" lon="12.026431504568372"><ele>382.6</ele><time>2026-04-03T15:01:25.999Z</time></trkpt><trkpt lat="46.03796970651119" lon="12.02634432161567"><ele>386.0</ele><time>2026-04-03T15:01:26.999Z</time></trkpt><trkpt lat="46.037812707329024" lon="12.026328013304342"><ele>385.99999999999994</ele><time>2026-04-03T15:01:28.999Z</time></trkpt><trkpt lat="46.03774171233331" lon="12.02638176771114"><ele>386.0</ele><time>2026-04-03T15:01:29.999Z</time></trkpt><trkpt lat="46.0376676701665" lon="12.026424080107954"><ele>386.0</ele><time>2026-04-03T15:01:31Z</time></trkpt><trkpt lat="46.037609958727906" lon="12.026506658737377"><ele>386.0</ele><time>2026-04-03T15:01:32Z</time></trkpt><trkpt lat="46.03758123741014" lon="12.026634801803013"><ele>385.99999999999994</ele><time>2026-04-03T15:01:33Z</time></trkpt><trkpt lat="46.037566506979054" lon="12.026764425258046"><ele>386.0</ele><time>2026-04-03T15:01:34Z</time></trkpt><trkpt lat="46.03757297356362" lon="12.026886116786539"><ele>385.8333333333333</ele><time>2026-04-03T15:01:35Z</time></trkpt><trkpt lat="46.03758731181729" lon="12.027005747669284"><ele>385.66666666666663</ele><time>2026-04-03T15:01:36Z</time></trkpt><trkpt lat="46.037588199909365" lon="12.027120301851015"><ele>385.5</ele><time>2026-04-03T15:01:37Z</time></trkpt><trkpt lat="46.03758876442024" lon="12.02721845959313"><ele>385.33333333333337</ele><time>2026-04-03T15:01:38Z</time></trkpt><trkpt lat="46.03757873511625" lon="12.027328676956568"><ele>385.1666666666667</ele><time>2026-04-03T15:01:39Z</time></trkpt><trkpt lat="46.03755173328084" lon="12.027438183638854"><ele>385.0</ele><time>2026-04-03T15:01:40Z</time></trkpt><trkpt lat="46.037527649211384" lon="12.027551181527315"><ele>385.00000000000006</ele><time>2026-04-03T15:01:41Z</time></trkpt><trkpt lat="46.03748387758132" lon="12.027644701832973"><ele>385.0</ele><time>2026-04-03T15:01:42Z</time></trkpt><trkpt lat="46.03743222578722" lon="12.02774638438301"><ele>385.0</ele><time>2026-04-03T15:01:43Z</time></trkpt><trkpt lat="46.03737642685308" lon="12.027832058369494"><ele>385.0</ele><time>2026-04-03T15:01:44Z</time></trkpt><trkpt lat="46.03731273212046" lon="12.027916608594108"><ele>385.00000000000006</ele><time>2026-04-03T15:01:45Z</time></trkpt><trkpt lat="46.03723581650638" lon="12.027973556316738"><ele>385.0</ele><time>2026-04-03T15:01:46Z</time></trkpt><trkpt lat="46.03716829221217" lon="12.028058378450933"><ele>387.00000000000006</ele><time>2026-04-03T15:01:47Z</time></trkpt><trkpt lat="46.037082609115714" lon="12.028095603346843"><ele>389.0</ele><time>2026-04-03T15:01:48Z</time></trkpt><trkpt lat="46.03700346705032" lon="12.028137806719087"><ele>391.0</ele><time>2026-04-03T15:01:49Z</time></trkpt><trkpt lat="46.03692435366291" lon="12.028174698491567"><ele>393.0</ele><time>2026-04-03T15:01:50Z</time></trkpt><trkpt lat="46.03683883624824" lon="12.028208840832699"><ele>395.00000000000006</ele><time>2026-04-03T15:01:51Z</time></trkpt><trkpt lat="46.03675360467667" lon="12.028238356968124"><ele>397.0</ele><time>2026-04-03T15:01:52Z</time></trkpt><trkpt lat="46.036665703485454" lon="12.028266564064177"><ele>399.33333333333337</ele><time>2026-04-03T15:01:53Z</time></trkpt><trkpt lat="46.03657784977985" lon="12.028292674446591"><ele>401.6666666666667</ele><time>2026-04-03T15:01:54Z</time></trkpt><trkpt lat="46.03649275920224" lon="12.028317770149457"><ele>404.0</ele><time>2026-04-03T15:01:55Z</time></trkpt><trkpt lat="46.03640528580475" lon="12.028343568609197"><ele>406.33333333333337</ele><time>2026-04-03T15:01:56Z</time></trkpt><trkpt lat="46.03632317144996" lon="12.02836835503548"><ele>408.6666666666667</ele><time>2026-04-03T15:01:57Z</time></trkpt><trkpt lat="46.03623461931179" lon="12.028390321991447"><ele>411.0</ele><time>2026-04-03T15:01:58Z</time></trkpt><trkpt lat="46.03614859529958" lon="12.02840734363516"><ele>411.5</ele><time>2026-04-03T15:01:59Z</time></trkpt><trkpt lat="46.0360659595841" lon="12.028415892078415"><ele>412.0</ele><time>2026-04-03T15:02:00Z</time></trkpt><trkpt lat="46.03598453884512" lon="12.028401638178488"><ele>412.5</ele><time>2026-04-03T15:02:01Z</time></trkpt><trkpt lat="46.03590069468366" lon="12.028369095613325"><ele>413.0</ele><time>2026-04-03T15:02:02Z</time></trkpt><trkpt lat="46.03583026826034" lon="12.028310321199019"><ele>413.5</ele><time>2026-04-03T15:02:03Z</time></trkpt><trkpt lat="46.03576984158279" lon="12.028237246875392"><ele>414.0</ele><time>2026-04-03T15:02:04Z</time></trkpt><trkpt lat="46.03571176695506" lon="12.028151485286953"><ele>416.5</ele><time>2026-04-03T15:02:05Z</time></trkpt><trkpt lat="46.0356518424508" lon="12.028067620143293"><ele>419.0</ele><time>2026-04-03T15:02:06Z</time></trkpt><trkpt lat="46.03559289653103" lon="12.027982421929972"><ele>421.5</ele><time>2026-04-03T15:02:07Z</time></trkpt><trkpt lat="46.035529905181235" lon="12.027891376626918"><ele>424.0</ele><time>2026-04-03T15:02:08Z</time></trkpt><trkpt lat="46.03546748150376" lon="12.027801151791081"><ele>426.5</ele><time>2026-04-03T15:02:09Z</time></trkpt><trkpt lat="46.035403211311404" lon="12.02770825807611"><ele>429.0</ele><time>2026-04-03T15:02:10Z</time></trkpt><trkpt lat="46.03533817116271" lon="12.02761490928791"><ele>429.0</ele><time>2026-04-03T15:02:11Z</time></trkpt><trkpt lat="46.0352724974835" lon="12.027520714091546"><ele>429.0</ele><time>2026-04-03T15:02:12Z</time></trkpt><trkpt lat="46.03520363286256" lon="12.027421942213884"><ele>429.0</ele><time>2026-04-03T15:02:13Z</time></trkpt><trkpt lat="46.03513792849644" lon="12.0273273206051"><ele>429.0</ele><time>2026-04-03T15:02:14Z</time></trkpt><trkpt lat="46.03507412645937" lon="12.027235451737845"><ele>429.0</ele><time>2026-04-03T15:02:15Z</time></trkpt><trkpt lat="46.03502306821103" lon="12.027154160222217"><ele>429.0</ele><time>2026-04-03T15:02:16Z</time></trkpt><trkpt lat="46.03497357612224" lon="12.02707083723593"><ele>433.1666666666667</ele><time>2026-04-03T15:02:17Z</time></trkpt><trkpt lat="46.03492897352417" lon="12.026980449926574"><ele>437.33333333333337</ele><time>2026-04-03T15:02:18Z</time></trkpt><trkpt lat="46.0348867539657" lon="12.026876569144418"><ele>441.5</ele><time>2026-04-03T15:02:19Z</time></trkpt><trkpt lat="46.034840986324085" lon="12.026767404820095"><ele>445.6666666666667</ele><time>2026-04-03T15:02:20Z</time></trkpt><trkpt lat="46.03482220388984" lon="12.026640260264832"><ele>449.83333333333337</ele><time>2026-04-03T15:02:21Z</time></trkpt><trkpt lat="46.034804099769964" lon="12.026500956103511"><ele>454.0</ele><time>2026-04-03T15:02:22Z</time></trkpt><trkpt lat="46.0348008405344" lon="12.02635179515304"><ele>454.0</ele><time>2026-04-03T15:02:23Z</time></trkpt><trkpt lat="46.034769018475465" lon="12.026197045566134"><ele>454.0</ele><time>2026-04-03T15:02:24Z</time></trkpt><trkpt lat="46.03472481678464" lon="12.026049205317047"><ele>454.0</ele><time>2026-04-03T15:02:25Z</time></trkpt><trkpt lat="46.034679390654595" lon="12.025904532445576"><ele>454.0</ele><time>2026-04-03T15:02:26Z</time></trkpt><trkpt lat="46.03461886503189" lon="12.025764087122823"><ele>454.0</ele><time>2026-04-03T15:02:27Z</time></trkpt><trkpt lat="46.034590153494946" lon="12.025571311821418"><ele>453.79999999999995</ele><time>2026-04-03T15:02:28Z</time></trkpt><trkpt lat="46.034558593321925" lon="12.025382009764757"><ele>453.59999999999997</ele><time>2026-04-03T15:02:29Z</time></trkpt><trkpt lat="46.03452078219459" lon="12.025248827804335"><ele>453.4</ele><time>2026-04-03T15:02:30Z</time></trkpt><trkpt lat="46.0345182970977" lon="12.025119864720752"><ele>453.2</ele><time>2026-04-03T15:02:31Z</time></trkpt><trkpt lat="46.03449853002058" lon="12.024999035997375"><ele>453.0</ele><time>2026-04-03T15:02:32Z</time></trkpt><trkpt lat="46.034459237849916" lon="12.024877343230765"><ele>452.4</ele><time>2026-04-03T15:02:33Z</time></trkpt><trkpt lat="46.034419661454805" lon="12.024747083806126"><ele>451.79999999999995</ele><time>2026-04-03T15:02:34Z</time></trkpt><trkpt lat="46.034372325277815" lon="12.02462446679968"><ele>451.2</ele><time>2026-04-03T15:02:35Z</time></trkpt><trkpt lat="46.0343389836887" lon="12.024496798921673"><ele>450.6</ele><time>2026-04-03T15:02:36Z</time></trkpt><trkpt lat="46.034288541323505" lon="12.024392254163828"><ele>450.0</ele><time>2026-04-03T15:02:37Z</time></trkpt><trkpt lat="46.03423313686714" lon="12.024299127735453"><ele>450.0</ele><time>2026-04-03T15:02:38Z</time></trkpt><trkpt lat="46.0341812059714" lon="12.024214704926292"><ele>450.0</ele><time>2026-04-03T15:02:39Z</time></trkpt><trkpt lat="46.034129700060255" lon="12.024123739133243"><ele>450.0</ele><time>2026-04-03T15:02:40Z</time></trkpt><trkpt lat="46.03407438689256" lon="12.024032864861953"><ele>450.0</ele><time>2026-04-03T15:02:41Z</time></trkpt><trkpt lat="46.03401589000409" lon="12.02396223288255"><ele>450.0</ele><time>2026-04-03T15:02:42Z</time></trkpt><trkpt lat="46.03395974551022" lon="12.02390608752603"><ele>450.0</ele><time>2026-04-03T15:02:43Z</time></trkpt><trkpt lat="46.03383610003426" lon="12.023847575638836"><ele>449.6</ele><time>2026-04-03T15:02:44.999Z</time></trkpt><trkpt lat="46.03375426520671" lon="12.023904750855872"><ele>449.2</ele><time>2026-04-03T15:02:45.999Z</time></trkpt><trkpt lat="46.03366984620822" lon="12.02394222618295"><ele>448.79999999999995</ele><time>2026-04-03T15:02:46.999Z</time></trkpt><trkpt lat="46.033590934926494" lon="12.02400267458163"><ele>448.4</ele><time>2026-04-03T15:02:47.999Z</time></trkpt><trkpt lat="46.03348356674534" lon="12.024041596438568"><ele>448.0</ele><time>2026-04-03T15:02:48.999Z</time></trkpt><trkpt lat="46.03337571343437" lon="12.024129042321743"><ele>447.59999999999997</ele><time>2026-04-03T15:02:49.999Z</time></trkpt><trkpt lat="46.03328356394608" lon="12.02414231486626"><ele>447.19999999999993</ele><time>2026-04-03T15:02:50.999Z</time></trkpt><trkpt lat="46.03320629109187" lon="12.024171104190586"><ele>446.8</ele><time>2026-04-03T15:02:51.999Z</time></trkpt><trkpt lat="46.03310286270258" lon="12.024295401658621"><ele>446.4</ele><time>2026-04-03T15:02:53.999Z</time></trkpt><trkpt lat="46.03306362327838" lon="12.024394733513052"><ele>446.0</ele><time>2026-04-03T15:02:54.999Z</time></trkpt><trkpt lat="46.03302499436443" lon="12.024532056571877"><ele>449.0</ele><time>2026-04-03T15:02:55.999Z</time></trkpt><trkpt lat="46.03299166764802" lon="12.02469958712411"><ele>452.0</ele><time>2026-04-03T15:02:56.999Z</time></trkpt><trkpt lat="46.032973733887424" lon="12.024882535529768"><ele>455.0</ele><time>2026-04-03T15:02:57.999Z</time></trkpt><trkpt lat="46.03295202739115" lon="12.025071828907365"><ele>458.0</ele><time>2026-04-03T15:02:58.999Z</time></trkpt><trkpt lat="46.03293385754568" lon="12.025259383988125"><ele>461.5</ele><time>2026-04-03T15:02:59.999Z</time></trkpt><trkpt lat="46.032908141423164" lon="12.025454250398765"><ele>465.0</ele><time>2026-04-03T15:03:00.999Z</time></trkpt><trkpt lat="46.03287509384546" lon="12.025646330924891"><ele>468.5</ele><time>2026-04-03T15:03:01.999Z</time></trkpt><trkpt lat="46.03282793931048" lon="12.025812694100026"><ele>472.0</ele><time>2026-04-03T15:03:02.999Z</time></trkpt><trkpt lat="46.03279992605834" lon="12.02597860859608"><ele>474.0</ele><time>2026-04-03T15:03:03.999Z</time></trkpt><trkpt lat="46.03277126633999" lon="12.026150329574662"><ele>476.0</ele><time>2026-04-03T15:03:04.999Z</time></trkpt><trkpt lat="46.03275861173022" lon="12.026327796481759"><ele>478.0</ele><time>2026-04-03T15:03:05.999Z</time></trkpt><trkpt lat="46.032718776512354" lon="12.026486832889129"><ele>480.0</ele><time>2026-04-03T15:03:06.999Z</time></trkpt><trkpt lat="46.03269392782162" lon="12.026646358240466"><ele>481.8333333333333</ele><time>2026-04-03T15:03:07.999Z</time></trkpt><trkpt lat="46.03266509415441" lon="12.026779981329884"><ele>483.66666666666663</ele><time>2026-04-03T15:03:08.999Z</time></trkpt><trkpt lat="46.03264897929884" lon="12.026890699959523"><ele>485.5</ele><time>2026-04-03T15:03:09.999Z</time></trkpt><trkpt lat="46.032633229199" lon="12.027011892370346"><ele>487.3333333333333</ele><time>2026-04-03T15:03:10.999Z</time></trkpt><trkpt lat="46.0326111571459" lon="12.027132527376716"><ele>489.16666666666663</ele><time>2026-04-03T15:03:11.999Z</time></trkpt><trkpt lat="46.03260446986813" lon="12.0272531464228"><ele>491.0</ele><time>2026-04-03T15:03:12.999Z</time></trkpt><trkpt lat="46.03259958232116" lon="12.027374285169124"><ele>493.4</ele><time>2026-04-03T15:03:13.999Z</time></trkpt><trkpt lat="46.03262353999911" lon="12.02750820827871"><ele>495.8</ele><time>2026-04-03T15:03:14.999Z</time></trkpt><trkpt lat="46.03266067195028" lon="12.027642915178827"><ele>498.19999999999993</ele><time>2026-04-03T15:03:15.999Z</time></trkpt><trkpt lat="46.03270253714826" lon="12.027787954072453"><ele>500.59999999999997</ele><time>2026-04-03T15:03:16.999Z</time></trkpt><trkpt lat="46.03274557704748" lon="12.02793158353603"><ele>503.0</ele><time>2026-04-03T15:03:17.999Z</time></trkpt><trkpt lat="46.03279051071377" lon="12.028073884374662"><ele>503.0</ele><time>2026-04-03T15:03:18.999Z</time></trkpt><trkpt lat="46.03282430206447" lon="12.028224280215136"><ele>502.99999999999994</ele><time>2026-04-03T15:03:19.999Z</time></trkpt><trkpt lat="46.032860131421494" lon="12.028365751887263"><ele>502.99999999999994</ele><time>2026-04-03T15:03:20.999Z</time></trkpt><trkpt lat="46.0329004734065" lon="12.028505433205874"><ele>503.0</ele><time>2026-04-03T15:03:21.999Z</time></trkpt><trkpt lat="46.03293611184868" lon="12.028644555458099"><ele>503.0</ele><time>2026-04-03T15:03:22.999Z</time></trkpt><trkpt lat="46.03295484358023" lon="12.028786441324856"><ele>506.2</ele><time>2026-04-03T15:03:23.999Z</time></trkpt><trkpt lat="46.032961009885" lon="12.028933468284215"><ele>509.4</ele><time>2026-04-03T15:03:24.999Z</time></trkpt><trkpt lat="46.032965726490836" lon="12.02908020726788"><ele>512.5999999999999</ele><time>2026-04-03T15:03:25.999Z</time></trkpt><trkpt lat="46.032961614899726" lon="12.029221096544427"><ele>515.8</ele><time>2026-04-03T15:03:26.999Z</time></trkpt><trkpt lat="46.03297165172293" lon="12.029370484946641"><ele>519.0</ele><time>2026-04-03T15:03:27.999Z</time></trkpt><trkpt lat="46.0329659288443" lon="12.029500630205977"><ele>520.3333333333334</ele><time>2026-04-03T15:03:28.999Z</time></trkpt><trkpt lat="46.03295051785789" lon="12.029616113212215"><ele>521.6666666666666</ele><time>2026-04-03T15:03:29.999Z</time></trkpt><trkpt lat="46.032933664772514" lon="12.02973461395049"><ele>523.0</ele><time>2026-04-03T15:03:30.999Z</time></trkpt><trkpt lat="46.03290535563153" lon="12.029857440767634"><ele>524.3333333333333</ele><time>2026-04-03T15:03:31.999Z</time></trkpt><trkpt lat="46.03286238894026" lon="12.029971551200905"><ele>525.6666666666666</ele><time>2026-04-03T15:03:32.999Z</time></trkpt><trkpt lat="46.03282795353417" lon="12.030085905664547"><ele>527.0</ele><time>2026-04-03T15:03:33.999Z</time></trkpt><trkpt lat="46.03278935166644" lon="12.030197426147758"><ele>527.0</ele><time>2026-04-03T15:03:34.999Z</time></trkpt><trkpt lat="46.03276606023937" lon="12.030305989219636"><ele>527.0</ele><time>2026-04-03T15:03:35.999Z</time></trkpt><trkpt lat="46.03275585889566" lon="12.0304108058866"><ele>527.0</ele><time>2026-04-03T15:03:37Z</time></trkpt><trkpt lat="46.032739421069145" lon="12.030531320890955"><ele>527.0</ele><time>2026-04-03T15:03:38Z</time></trkpt><trkpt lat="46.03274609442827" lon="12.03064679095901"><ele>527.0</ele><time>2026-04-03T15:03:39Z</time></trkpt><trkpt lat="46.03276160007676" lon="12.030759011592576"><ele>527.0</ele><time>2026-04-03T15:03:40Z</time></trkpt><trkpt lat="46.03279169763427" lon="12.030872339522729"><ele>527.3333333333333</ele><time>2026-04-03T15:03:41Z</time></trkpt><trkpt lat="46.03280553008401" lon="12.030988478345083"><ele>527.6666666666666</ele><time>2026-04-03T15:03:42Z</time></trkpt><trkpt lat="46.03282301517176" lon="12.03109376672096"><ele>528.0</ele><time>2026-04-03T15:03:43Z</time></trkpt><trkpt lat="46.03284052457183" lon="12.031201348713388"><ele>528.3333333333334</ele><time>2026-04-03T15:03:44Z</time></trkpt><trkpt lat="46.03283501454379" lon="12.03129203072955"><ele>528.6666666666667</ele><time>2026-04-03T15:03:45Z</time></trkpt><trkpt lat="46.03281487683426" lon="12.031479457898238"><ele>529.0</ele><time>2026-04-03T15:03:47Z</time></trkpt><trkpt lat="46.03279544455918" lon="12.03158946112352"><ele>529.6666666666667</ele><time>2026-04-03T15:03:48Z</time></trkpt><trkpt lat="46.03276423692173" lon="12.031692646597138"><ele>530.3333333333334</ele><time>2026-04-03T15:03:49Z</time></trkpt><trkpt lat="46.032726502680454" lon="12.031790926913802"><ele>531.0</ele><time>2026-04-03T15:03:50Z</time></trkpt><trkpt lat="46.032680290198705" lon="12.031873947972896"><ele>531.6666666666666</ele><time>2026-04-03T15:03:51Z</time></trkpt><trkpt lat="46.032624739761154" lon="12.031948006763095"><ele>532.3333333333333</ele><time>2026-04-03T15:03:52Z</time></trkpt><trkpt lat="46.03256210302232" lon="12.032032017682747"><ele>533.0</ele><time>2026-04-03T15:03:53Z</time></trkpt><trkpt lat="46.0324947050674" lon="12.03210706107239"><ele>538.25</ele><time>2026-04-03T15:03:54Z</time></trkpt><trkpt lat="46.03241954455713" lon="12.032196171933"><ele>543.5</ele><time>2026-04-03T15:03:55Z</time></trkpt><trkpt lat="46.032360946280264" lon="12.032335897239783"><ele>548.75</ele><time>2026-04-03T15:03:56Z</time></trkpt><trkpt lat="46.03231071494068" lon="12.032538925967783"><ele>554.0</ele><time>2026-04-03T15:03:57Z</time></trkpt><trkpt lat="46.032264677753425" lon="12.032780131391087"><ele>554.0</ele><time>2026-04-03T15:03:58Z</time></trkpt><trkpt lat="46.03222421784699" lon="12.033023544325056"><ele>554.0</ele><time>2026-04-03T15:03:59Z</time></trkpt><trkpt lat="46.03218486357878" lon="12.033262908433278"><ele>554.0</ele><time>2026-04-03T15:04:00Z</time></trkpt><trkpt lat="46.03214682935414" lon="12.033494243628823"><ele>554.75</ele><time>2026-04-03T15:04:01Z</time></trkpt><trkpt lat="46.03211194589789" lon="12.033704018650269"><ele>555.5</ele><time>2026-04-03T15:04:02Z</time></trkpt><trkpt lat="46.0320780097621" lon="12.033905136511152"><ele>556.25</ele><time>2026-04-03T15:04:03Z</time></trkpt><trkpt lat="46.03204597189103" lon="12.034086092500278"><ele>557.0</ele><time>2026-04-03T15:04:04Z</time></trkpt><trkpt lat="46.03201649350048" lon="12.034232969397895"><ele>557.6</ele><time>2026-04-03T15:04:05Z</time></trkpt><trkpt lat="46.03198113378468" lon="12.034386362796065"><ele>558.2</ele><time>2026-04-03T15:04:06Z</time></trkpt><trkpt lat="46.031936816769765" lon="12.034538974381068"><ele>558.8</ele><time>2026-04-03T15:04:07Z</time></trkpt><trkpt lat="46.031884014884625" lon="12.034669077446164"><ele>559.4</ele><time>2026-04-03T15:04:08Z</time></trkpt><trkpt lat="46.031828790617006" lon="12.034770039181163"><ele>560.0</ele><time>2026-04-03T15:04:09Z</time></trkpt><trkpt lat="46.03176237160595" lon="12.03485466479514"><ele>560.0</ele><time>2026-04-03T15:04:10Z</time></trkpt><trkpt lat="46.03166553409581" lon="12.034885688841337"><ele>560.0</ele><time>2026-04-03T15:04:11Z</time></trkpt><trkpt lat="46.03155947394822" lon="12.034896289125918"><ele>560.0</ele><time>2026-04-03T15:04:12Z</time></trkpt><trkpt lat="46.03142856613295" lon="12.034916638871472"><ele>560.0</ele><time>2026-04-03T15:04:13Z</time></trkpt><trkpt lat="46.031276946320226" lon="12.034937429623728"><ele>562.3333333333333</ele><time>2026-04-03T15:04:14Z</time></trkpt><trkpt lat="46.03112393417369" lon="12.034958411310093"><ele>564.6666666666666</ele><time>2026-04-03T15:04:15Z</time></trkpt><trkpt lat="46.03096287969638" lon="12.034980495791594"><ele>567.0</ele><time>2026-04-03T15:04:16Z</time></trkpt><trkpt lat="46.03078454973616" lon="12.035004212152169"><ele>569.6666666666666</ele><time>2026-04-03T15:04:17Z</time></trkpt><trkpt lat="46.030600292538224" lon="12.035026908642065"><ele>572.3333333333333</ele><time>2026-04-03T15:04:18Z</time></trkpt><trkpt lat="46.0304173634237" lon="12.035049441543789"><ele>575.0</ele><time>2026-04-03T15:04:19Z</time></trkpt><trkpt lat="46.030229859131815" lon="12.03507188666978"><ele>575.0</ele><time>2026-04-03T15:04:20Z</time></trkpt><trkpt lat="46.03006010610858" lon="12.035091760846301"><ele>575.0</ele><time>2026-04-03T15:04:21Z</time></trkpt><trkpt lat="46.02991653454982" lon="12.035108569773168"><ele>575.0</ele><time>2026-04-03T15:04:22Z</time></trkpt><trkpt lat="46.02978329929478" lon="12.035119705196987"><ele>575.0</ele><time>2026-04-03T15:04:23Z</time></trkpt><trkpt lat="46.02966179306949" lon="12.03514149409382"><ele>574.3333333333333</ele><time>2026-04-03T15:04:24Z</time></trkpt><trkpt lat="46.02951189809615" lon="12.035121046246525"><ele>573.6666666666666</ele><time>2026-04-03T15:04:25Z</time></trkpt><trkpt lat="46.02937902554785" lon="12.035044315782045"><ele>573.0</ele><time>2026-04-03T15:04:26Z</time></trkpt><trkpt lat="46.02923436311801" lon="12.034952515421747"><ele>579.0</ele><time>2026-04-03T15:04:27Z</time></trkpt><trkpt lat="46.02907761654159" lon="12.034846096717892"><ele>585.0</ele><time>2026-04-03T15:04:28Z</time></trkpt><trkpt lat="46.028904699037184" lon="12.034734976426932"><ele>591.0</ele><time>2026-04-03T15:04:29Z</time></trkpt><trkpt lat="46.02875355962076" lon="12.034637566648176"><ele>591.0</ele><time>2026-04-03T15:04:30Z</time></trkpt><trkpt lat="46.02861448538146" lon="12.034545512299198"><ele>591.0</ele><time>2026-04-03T15:04:31Z</time></trkpt><trkpt lat="46.02849103844135" lon="12.034450671753287"><ele>591.0</ele><time>2026-04-03T15:04:32Z</time></trkpt><trkpt lat="46.028364857353466" lon="12.03434091567283"><ele>591.0</ele><time>2026-04-03T15:04:33Z</time></trkpt><trkpt lat="46.02825150742662" lon="12.03420028951755"><ele>597.6666666666666</ele><time>2026-04-03T15:04:34Z</time></trkpt><trkpt lat="46.028136627817034" lon="12.034055255728433"><ele>604.3333333333333</ele><time>2026-04-03T15:04:35Z</time></trkpt><trkpt lat="46.0280156631675" lon="12.033914243641666"><ele>611.0</ele><time>2026-04-03T15:04:36Z</time></trkpt><trkpt lat="46.02788616703999" lon="12.033765820340713"><ele>611.0</ele><time>2026-04-03T15:04:37Z</time></trkpt><trkpt lat="46.02776042469246" lon="12.033616237844921"><ele>611.0</ele><time>2026-04-03T15:04:38Z</time></trkpt><trkpt lat="46.02765382819228" lon="12.033477295488993"><ele>611.0</ele><time>2026-04-03T15:04:39Z</time></trkpt><trkpt lat="46.027563001585364" lon="12.033348078582028"><ele>611.0</ele><time>2026-04-03T15:04:40Z</time></trkpt><trkpt lat="46.02747913875645" lon="12.03322629595403"><ele>617.5</ele><time>2026-04-03T15:04:41Z</time></trkpt><trkpt lat="46.02741300395056" lon="12.03306780178038"><ele>624.0</ele><time>2026-04-03T15:04:42Z</time></trkpt><trkpt lat="46.02734082414032" lon="12.032879511797846"><ele>630.5</ele><time>2026-04-03T15:04:43Z</time></trkpt><trkpt lat="46.027269933022204" lon="12.032687528931477"><ele>637.0</ele><time>2026-04-03T15:04:44Z</time></trkpt><trkpt lat="46.02719956743476" lon="12.032495039691437"><ele>635.5</ele><time>2026-04-03T15:04:44.999Z</time></trkpt><trkpt lat="46.02711728852461" lon="12.03230676377527"><ele>634.0</ele><time>2026-04-03T15:04:45.999Z</time></trkpt><trkpt lat="46.02705266604359" lon="12.032116179176763"><ele>632.5</ele><time>2026-04-03T15:04:46.999Z</time></trkpt><trkpt lat="46.026989875817065" lon="12.031928939111884"><ele>631.0</ele><time>2026-04-03T15:04:47.999Z</time></trkpt><trkpt lat="46.02693122272025" lon="12.031731882579429"><ele>630.6666666666667</ele><time>2026-04-03T15:04:48.999Z</time></trkpt><trkpt lat="46.02686950884923" lon="12.031526066839506"><ele>630.3333333333334</ele><time>2026-04-03T15:04:49.999Z</time></trkpt><trkpt lat="46.026816474703864" lon="12.031316723502808"><ele>630.0</ele><time>2026-04-03T15:04:50.999Z</time></trkpt><trkpt lat="46.02674787248743" lon="12.0310967469317"><ele>630.0</ele><time>2026-04-03T15:04:51.999Z</time></trkpt><trkpt lat="46.0266761992285" lon="12.03086985745488"><ele>630.0</ele><time>2026-04-03T15:04:52.999Z</time></trkpt><trkpt lat="46.02660697648378" lon="12.030650725346806"><ele>630.0</ele><time>2026-04-03T15:04:53.999Z</time></trkpt><trkpt lat="46.02653750720538" lon="12.030427553108234"><ele>637.3333333333334</ele><time>2026-04-03T15:04:54.999Z</time></trkpt><trkpt lat="46.02647370924904" lon="12.030214648157287"><ele>644.6666666666667</ele><time>2026-04-03T15:04:55.999Z</time></trkpt><trkpt lat="46.02640911825271" lon="12.029995785695293"><ele>652.0</ele><time>2026-04-03T15:04:56.999Z</time></trkpt><trkpt lat="46.026346942055056" lon="12.02977482730508"><ele>652.3333333333334</ele><time>2026-04-03T15:04:57.999Z</time></trkpt><trkpt lat="46.0262892612726" lon="12.029561005638229"><ele>652.6666666666666</ele><time>2026-04-03T15:04:58.999Z</time></trkpt><trkpt lat="46.02622478881874" lon="12.029358994463337"><ele>653.0</ele><time>2026-04-03T15:04:59.999Z</time></trkpt><trkpt lat="46.026183243982956" lon="12.029168361849083"><ele>653.0</ele><time>2026-04-03T15:05:00.999Z</time></trkpt><trkpt lat="46.026157832988225" lon="12.029009887913766"><ele>653.0</ele><time>2026-04-03T15:05:01.999Z</time></trkpt><trkpt lat="46.02613381832437" lon="12.028874737393684"><ele>653.0</ele><time>2026-04-03T15:05:02.999Z</time></trkpt><trkpt lat="46.02609891212182" lon="12.028777585502935"><ele>653.0</ele><time>2026-04-03T15:05:03.999Z</time></trkpt><trkpt lat="46.02606157854832" lon="12.028685377814867"><ele>653.0</ele><time>2026-04-03T15:05:04.999Z</time></trkpt><trkpt lat="46.02600541331548" lon="12.028607746875368"><ele>653.0</ele><time>2026-04-03T15:05:05.999Z</time></trkpt><trkpt lat="46.02593198669661" lon="12.028515569314564"><ele>653.0</ele><time>2026-04-03T15:05:06.999Z</time></trkpt><trkpt lat="46.02581612421771" lon="12.02844023109567"><ele>653.0</ele><time>2026-04-03T15:05:07.999Z</time></trkpt><trkpt lat="46.0256956811749" lon="12.028382206888763"><ele>653.0</ele><time>2026-04-03T15:05:08.999Z</time></trkpt><trkpt lat="46.02560763026898" lon="12.028289980851541"><ele>653.0</ele><time>2026-04-03T15:05:09.999Z</time></trkpt><trkpt lat="46.02553855154332" lon="12.028224840827008"><ele>653.0</ele><time>2026-04-03T15:05:10.999Z</time></trkpt><trkpt lat="46.025477525777035" lon="12.02816161440439"><ele>655.5999999999999</ele><time>2026-04-03T15:05:11.999Z</time></trkpt><trkpt lat="46.025420686754465" lon="12.028079686314442"><ele>658.1999999999999</ele><time>2026-04-03T15:05:12.999Z</time></trkpt><trkpt lat="46.02538737673395" lon="12.02794904073422"><ele>660.8</ele><time>2026-04-03T15:05:13.999Z</time></trkpt><trkpt lat="46.025361223577555" lon="12.027778470881824"><ele>663.4</ele><time>2026-04-03T15:05:14.999Z</time></trkpt><trkpt lat="46.02533415388396" lon="12.027600373500723"><ele>666.0</ele><time>2026-04-03T15:05:15.999Z</time></trkpt><trkpt lat="46.0253071228558" lon="12.027414456951393"><ele>666.0</ele><time>2026-04-03T15:05:16.999Z</time></trkpt><trkpt lat="46.02527921600015" lon="12.027211587679583"><ele>666.0</ele><time>2026-04-03T15:05:17.999Z</time></trkpt><trkpt lat="46.025244528209576" lon="12.027010776149062"><ele>666.0</ele><time>2026-04-03T15:05:18.999Z</time></trkpt><trkpt lat="46.02519748996669" lon="12.026824279594898"><ele>666.0</ele><time>2026-04-03T15:05:19.999Z</time></trkpt><trkpt lat="46.02516649709961" lon="12.026634631419633"><ele>665.6666666666666</ele><time>2026-04-03T15:05:20.999Z</time></trkpt><trkpt lat="46.025118562665355" lon="12.026440730809385"><ele>665.3333333333333</ele><time>2026-04-03T15:05:21.999Z</time></trkpt><trkpt lat="46.02505075201867" lon="12.026239221989137"><ele>665.0</ele><time>2026-04-03T15:05:22.999Z</time></trkpt><trkpt lat="46.02498265167736" lon="12.026038466272286"><ele>671.3333333333333</ele><time>2026-04-03T15:05:23.999Z</time></trkpt><trkpt lat="46.02490803260459" lon="12.025832626946219"><ele>677.6666666666666</ele><time>2026-04-03T15:05:24.999Z</time></trkpt><trkpt lat="46.02482930815196" lon="12.025625024540918"><ele>684.0</ele><time>2026-04-03T15:05:25.999Z</time></trkpt><trkpt lat="46.024755103624216" lon="12.025406773191918"><ele>684.0</ele><time>2026-04-03T15:05:26.999Z</time></trkpt><trkpt lat="46.02467082351144" lon="12.02520013671516"><ele>684.0</ele><time>2026-04-03T15:05:27.999Z</time></trkpt><trkpt lat="46.02458808708096" lon="12.024999187108145"><ele>684.0</ele><time>2026-04-03T15:05:28.999Z</time></trkpt><trkpt lat="46.0244990933946" lon="12.024819884947272"><ele>683.2</ele><time>2026-04-03T15:05:29.999Z</time></trkpt><trkpt lat="46.02443603449473" lon="12.024658190464054"><ele>682.4000000000001</ele><time>2026-04-03T15:05:30.999Z</time></trkpt><trkpt lat="46.024383253519375" lon="12.024528364857446"><ele>681.6</ele><time>2026-04-03T15:05:31.999Z</time></trkpt><trkpt lat="46.024333132681924" lon="12.024423126323743"><ele>680.8</ele><time>2026-04-03T15:05:32.999Z</time></trkpt><trkpt lat="46.02429560029143" lon="12.024345389793767"><ele>680.0</ele><time>2026-04-03T15:05:33.999Z</time></trkpt><trkpt lat="46.02422629748494" lon="12.024220745848993"><ele>686.8</ele><time>2026-04-03T15:05:35.999Z</time></trkpt><trkpt lat="46.02413334377534" lon="12.024177747499058"><ele>693.6</ele><time>2026-04-03T15:05:37.999Z</time></trkpt><trkpt lat="46.02403729295366" lon="12.024180271191817"><ele>700.4000000000001</ele><time>2026-04-03T15:05:39.999Z</time></trkpt><trkpt lat="46.024005578193176" lon="12.024404043261043"><ele>707.2</ele><time>2026-04-03T15:05:40.999Z</time></trkpt><trkpt lat="46.02399867615852" lon="12.02451509538253"><ele>714.0</ele><time>2026-04-03T15:05:41.999Z</time></trkpt><trkpt lat="46.02400300088343" lon="12.024631036126559"><ele>714.0</ele><time>2026-04-03T15:05:43Z</time></trkpt><trkpt lat="46.024053450747346" lon="12.02474106026903"><ele>714.0</ele><time>2026-04-03T15:05:44Z</time></trkpt><trkpt lat="46.02409739675518" lon="12.024878469285118"><ele>714.0</ele><time>2026-04-03T15:05:45Z</time></trkpt><trkpt lat="46.02413481286813" lon="12.025043949817041"><ele>714.0</ele><time>2026-04-03T15:05:46Z</time></trkpt><trkpt lat="46.02416778486511" lon="12.025191975047449"><ele>714.0</ele><time>2026-04-03T15:05:47Z</time></trkpt><trkpt lat="46.0242003578309" lon="12.025288873590112"><ele>714.4000000000001</ele><time>2026-04-03T15:05:48Z</time></trkpt><trkpt lat="46.02420524678783" lon="12.025405733793388"><ele>714.8</ele><time>2026-04-03T15:05:49Z</time></trkpt><trkpt lat="46.02419886396803" lon="12.025539645054158"><ele>715.2</ele><time>2026-04-03T15:05:50Z</time></trkpt><trkpt lat="46.02415224063531" lon="12.0256813306224"><ele>715.5999999999999</ele><time>2026-04-03T15:05:51Z</time></trkpt><trkpt lat="46.024096573806226" lon="12.025847319150413"><ele>716.0</ele><time>2026-04-03T15:05:52Z</time></trkpt><trkpt lat="46.0240638592545" lon="12.026022330994339"><ele>716.0</ele><time>2026-04-03T15:05:53Z</time></trkpt><trkpt lat="46.02401364413526" lon="12.026185478026743"><ele>716.0</ele><time>2026-04-03T15:05:54Z</time></trkpt><trkpt lat="46.02393490005436" lon="12.026334073439864"><ele>716.0</ele><time>2026-04-03T15:05:55Z</time></trkpt><trkpt lat="46.023860335115145" lon="12.02648131667197"><ele>716.0</ele><time>2026-04-03T15:05:56Z</time></trkpt><trkpt lat="46.023780020853934" lon="12.026617210794226"><ele>715.0</ele><time>2026-04-03T15:05:57Z</time></trkpt><trkpt lat="46.02368713976609" lon="12.026751822309024"><ele>714.0</ele><time>2026-04-03T15:05:58Z</time></trkpt><trkpt lat="46.02360232558315" lon="12.026888386849226"><ele>713.0</ele><time>2026-04-03T15:05:59Z</time></trkpt><trkpt lat="46.02351539512793" lon="12.02698048692831"><ele>712.0</ele><time>2026-04-03T15:06:00Z</time></trkpt><trkpt lat="46.02343418171689" lon="12.027024479857484"><ele>712.0</ele><time>2026-04-03T15:06:01Z</time></trkpt><trkpt lat="46.02336505190406" lon="12.027068917197353"><ele>712.0</ele><time>2026-04-03T15:06:02Z</time></trkpt><trkpt lat="46.02328721976144" lon="12.027076577513364"><ele>712.0</ele><time>2026-04-03T15:06:03Z</time></trkpt><trkpt lat="46.023217030349066" lon="12.027058017370408"><ele>712.0</ele><time>2026-04-03T15:06:04Z</time></trkpt><trkpt lat="46.02315613548832" lon="12.027021968466391"><ele>712.0</ele><time>2026-04-03T15:06:05Z</time></trkpt><trkpt lat="46.02312821683278" lon="12.026901985628388"><ele>712.0</ele><time>2026-04-03T15:06:06Z</time></trkpt><trkpt lat="46.023086377709625" lon="12.026792187364345"><ele>717.0</ele><time>2026-04-03T15:06:07Z</time></trkpt><trkpt lat="46.023071396049566" lon="12.026637428803493"><ele>722.0</ele><time>2026-04-03T15:06:08Z</time></trkpt><trkpt lat="46.023058753863104" lon="12.026453349839919"><ele>727.0</ele><time>2026-04-03T15:06:09Z</time></trkpt><trkpt lat="46.0230212808581" lon="12.026287519346063"><ele>732.0</ele><time>2026-04-03T15:06:10Z</time></trkpt><trkpt lat="46.02297553042167" lon="12.026113426657867"><ele>732.0</ele><time>2026-04-03T15:06:11Z</time></trkpt><trkpt lat="46.02292352851095" lon="12.025924927484638"><ele>732.0</ele><time>2026-04-03T15:06:12Z</time></trkpt><trkpt lat="46.02287199392914" lon="12.025722652390478"><ele>732.0</ele><time>2026-04-03T15:06:13Z</time></trkpt><trkpt lat="46.02282353117771" lon="12.025552493510062"><ele>732.0</ele><time>2026-04-03T15:06:14Z</time></trkpt><trkpt lat="46.022782657483944" lon="12.025412476277802"><ele>731.8</ele><time>2026-04-03T15:06:15Z</time></trkpt><trkpt lat="46.02275713112805" lon="12.025287056755184"><ele>731.6</ele><time>2026-04-03T15:06:16Z</time></trkpt><trkpt lat="46.02271831765044" lon="12.025204085353051"><ele>731.4</ele><time>2026-04-03T15:06:17Z</time></trkpt><trkpt lat="46.022634644431676" lon="12.02507485399205"><ele>731.1999999999999</ele><time>2026-04-03T15:06:19Z</time></trkpt><trkpt lat="46.02254903442466" lon="12.025049220847212"><ele>731.0</ele><time>2026-04-03T15:06:20Z</time></trkpt><trkpt lat="46.022447079380946" lon="12.025054504227317"><ele>732.5</ele><time>2026-04-03T15:06:21Z</time></trkpt><trkpt lat="46.02234339761746" lon="12.025028975444712"><ele>734.0</ele><time>2026-04-03T15:06:22Z</time></trkpt><trkpt lat="46.0222660396491" lon="12.025023527701865"><ele>735.5</ele><time>2026-04-03T15:06:23Z</time></trkpt><trkpt lat="46.02220176395034" lon="12.025009383942951"><ele>737.0</ele><time>2026-04-03T15:06:24Z</time></trkpt><trkpt lat="46.02212908198221" lon="12.024961590388012"><ele>738.5</ele><time>2026-04-03T15:06:25Z</time></trkpt><trkpt lat="46.02207810153288" lon="12.024868785325907"><ele>740.0</ele><time>2026-04-03T15:06:26Z</time></trkpt><trkpt lat="46.02200385545334" lon="12.024724673461714"><ele>740.25</ele><time>2026-04-03T15:06:27Z</time></trkpt><trkpt lat="46.021912653069876" lon="12.024586899342012"><ele>740.5</ele><time>2026-04-03T15:06:28Z</time></trkpt><trkpt lat="46.0218554548174" lon="12.024439069180108"><ele>740.75</ele><time>2026-04-03T15:06:29Z</time></trkpt><trkpt lat="46.02179410541549" lon="12.024328404895986"><ele>741.0</ele><time>2026-04-03T15:06:30Z</time></trkpt><trkpt lat="46.021710252513394" lon="12.02423981436567"><ele>744.0</ele><time>2026-04-03T15:06:31Z</time></trkpt><trkpt lat="46.02161412919791" lon="12.02415714031404"><ele>747.0</ele><time>2026-04-03T15:06:32Z</time></trkpt><trkpt lat="46.02150231420557" lon="12.024052771400724"><ele>750.0</ele><time>2026-04-03T15:06:33Z</time></trkpt><trkpt lat="46.02137821007668" lon="12.02398726150285"><ele>753.0</ele><time>2026-04-03T15:06:34Z</time></trkpt><trkpt lat="46.02124907287253" lon="12.023917887291573"><ele>753.0</ele><time>2026-04-03T15:06:35Z</time></trkpt><trkpt lat="46.02112451423664" lon="12.02385017855981"><ele>753.0</ele><time>2026-04-03T15:06:36Z</time></trkpt><trkpt lat="46.02100912222798" lon="12.02377641984874"><ele>753.0</ele><time>2026-04-03T15:06:37Z</time></trkpt><trkpt lat="46.020898224392994" lon="12.023692804278351"><ele>753.0</ele><time>2026-04-03T15:06:38Z</time></trkpt><trkpt lat="46.0207863358985" lon="12.023597367845985"><ele>757.2</ele><time>2026-04-03T15:06:39Z</time></trkpt><trkpt lat="46.02068342662915" lon="12.023498813128771"><ele>761.4</ele><time>2026-04-03T15:06:40Z</time></trkpt><trkpt lat="46.02058722329119" lon="12.023429904244987"><ele>765.6</ele><time>2026-04-03T15:06:41Z</time></trkpt><trkpt lat="46.02050552471053" lon="12.023353023885111"><ele>769.8000000000001</ele><time>2026-04-03T15:06:42Z</time></trkpt><trkpt lat="46.02040944801201" lon="12.023287133388582"><ele>774.0</ele><time>2026-04-03T15:06:43Z</time></trkpt><trkpt lat="46.02030767114495" lon="12.02321958494707"><ele>774.0</ele><time>2026-04-03T15:06:44Z</time></trkpt><trkpt lat="46.02019640326552" lon="12.023209258582002"><ele>774.0</ele><time>2026-04-03T15:06:45Z</time></trkpt><trkpt lat="46.02006938205034" lon="12.023219855266792"><ele>774.0</ele><time>2026-04-03T15:06:46Z</time></trkpt><trkpt lat="46.01993061743662" lon="12.023238861123868"><ele>774.0</ele><time>2026-04-03T15:06:47Z</time></trkpt><trkpt lat="46.01979887530214" lon="12.02326191219176"><ele>777.25</ele><time>2026-04-03T15:06:48Z</time></trkpt><trkpt lat="46.019661092511164" lon="12.02328551678801"><ele>780.5</ele><time>2026-04-03T15:06:48.999Z</time></trkpt><trkpt lat="46.01952383239158" lon="12.023280484317658"><ele>783.75</ele><time>2026-04-03T15:06:49.999Z</time></trkpt><trkpt lat="46.019402056472344" lon="12.023315116912228"><ele>787.0</ele><time>2026-04-03T15:06:50.999Z</time></trkpt><trkpt lat="46.0192948031726" lon="12.023329996444225"><ele>787.9999999999999</ele><time>2026-04-03T15:06:51.999Z</time></trkpt><trkpt lat="46.01920882977129" lon="12.02332472141951"><ele>789.0</ele><time>2026-04-03T15:06:52.999Z</time></trkpt><trkpt lat="46.01913779163283" lon="12.02332175209003"><ele>790.0</ele><time>2026-04-03T15:06:53.999Z</time></trkpt><trkpt lat="46.019061058005285" lon="12.023307020454356"><ele>791.0</ele><time>2026-04-03T15:06:54.999Z</time></trkpt><trkpt lat="46.01899293209076" lon="12.023251710620608"><ele>791.9999999999999</ele><time>2026-04-03T15:06:55.999Z</time></trkpt><trkpt lat="46.018950173499256" lon="12.023167671792784"><ele>793.0</ele><time>2026-04-03T15:06:56.999Z</time></trkpt><trkpt lat="46.01889263365984" lon="12.023063495262996"><ele>794.1666666666666</ele><time>2026-04-03T15:06:57.999Z</time></trkpt><trkpt lat="46.01884975749661" lon="12.022995992787676"><ele>795.3333333333333</ele><time>2026-04-03T15:06:58.999Z</time></trkpt><trkpt lat="46.018760017429884" lon="12.022894760611507"><ele>796.5</ele><time>2026-04-03T15:07:00.999Z</time></trkpt><trkpt lat="46.01869308286869" lon="12.022899913975973"><ele>797.6666666666667</ele><time>2026-04-03T15:07:01.999Z</time></trkpt><trkpt lat="46.018620559198354" lon="12.022926709032536"><ele>798.8333333333334</ele><time>2026-04-03T15:07:02.999Z</time></trkpt><trkpt lat="46.018554052646664" lon="12.022977403732996"><ele>800.0</ele><time>2026-04-03T15:07:03.999Z</time></trkpt><trkpt lat="46.01850905606492" lon="12.023060347641158"><ele>800.0</ele><time>2026-04-03T15:07:04.999Z</time></trkpt><trkpt lat="46.01846773352302" lon="12.023178230263722"><ele>800.0</ele><time>2026-04-03T15:07:05.999Z</time></trkpt><trkpt lat="46.01845049233625" lon="12.023338490985163"><ele>800.0</ele><time>2026-04-03T15:07:06.999Z</time></trkpt><trkpt lat="46.01845082616604" lon="12.023521526249551"><ele>800.0</ele><time>2026-04-03T15:07:07.999Z</time></trkpt><trkpt lat="46.01844664527515" lon="12.023723105326987"><ele>801.5</ele><time>2026-04-03T15:07:08.999Z</time></trkpt><trkpt lat="46.01844138740234" lon="12.023916455281247"><ele>803.0</ele><time>2026-04-03T15:07:09.999Z</time></trkpt><trkpt lat="46.01842943380624" lon="12.024124378411875"><ele>804.5</ele><time>2026-04-03T15:07:10.999Z</time></trkpt><trkpt lat="46.01842516264323" lon="12.024330600160884"><ele>806.0</ele><time>2026-04-03T15:07:11.999Z</time></trkpt><trkpt lat="46.01841469128949" lon="12.024552775492955"><ele>810.3333333333334</ele><time>2026-04-03T15:07:12.999Z</time></trkpt><trkpt lat="46.01841171978888" lon="12.024783837617186"><ele>814.6666666666667</ele><time>2026-04-03T15:07:13.999Z</time></trkpt><trkpt lat="46.018404496984544" lon="12.02503207001023"><ele>819.0</ele><time>2026-04-03T15:07:14.999Z</time></trkpt><trkpt lat="46.01840643727875" lon="12.025263934144991"><ele>822.0</ele><time>2026-04-03T15:07:15.999Z</time></trkpt><trkpt lat="46.018409676821136" lon="12.02548568052666"><ele>825.0</ele><time>2026-04-03T15:07:16.999Z</time></trkpt><trkpt lat="46.01839806584751" lon="12.025736691148676"><ele>828.0</ele><time>2026-04-03T15:07:17.999Z</time></trkpt><trkpt lat="46.01841695642431" lon="12.02595294975005"><ele>829.0</ele><time>2026-04-03T15:07:18.999Z</time></trkpt><trkpt lat="46.018418853857575" lon="12.026147749455575"><ele>830.0</ele><time>2026-04-03T15:07:19.999Z</time></trkpt><trkpt lat="46.01841825498807" lon="12.026336818199356"><ele>831.0</ele><time>2026-04-03T15:07:20.999Z</time></trkpt><trkpt lat="46.01842532062228" lon="12.02649228017466"><ele>832.0</ele><time>2026-04-03T15:07:21.999Z</time></trkpt><trkpt lat="46.01843020579042" lon="12.026616431995892"><ele>833.3333333333333</ele><time>2026-04-03T15:07:22.999Z</time></trkpt><trkpt lat="46.018432409364614" lon="12.026714365071046"><ele>834.6666666666666</ele><time>2026-04-03T15:07:23.999Z</time></trkpt><trkpt lat="46.01841583504256" lon="12.026822051407295"><ele>836.0</ele><time>2026-04-03T15:07:24.999Z</time></trkpt><trkpt lat="46.018386644887215" lon="12.026908935368363"><ele>837.3333333333333</ele><time>2026-04-03T15:07:25.999Z</time></trkpt><trkpt lat="46.01831823570751" lon="12.026955246938064"><ele>838.6666666666666</ele><time>2026-04-03T15:07:26.999Z</time></trkpt><trkpt lat="46.0181860140854" lon="12.026920512475469"><ele>840.0</ele><time>2026-04-03T15:07:28.999Z</time></trkpt><trkpt lat="46.01813270111232" lon="12.026836465003614"><ele>842.4</ele><time>2026-04-03T15:07:29.999Z</time></trkpt><trkpt lat="46.01806156860237" lon="12.026745541557979"><ele>844.8</ele><time>2026-04-03T15:07:30.999Z</time></trkpt><trkpt lat="46.01797999662158" lon="12.026669312042017"><ele>847.2</ele><time>2026-04-03T15:07:31.999Z</time></trkpt><trkpt lat="46.017923912726616" lon="12.026610443176976"><ele>849.6</ele><time>2026-04-03T15:07:32.999Z</time></trkpt><trkpt lat="46.01778809875412" lon="12.026570341694553"><ele>852.0</ele><time>2026-04-03T15:07:34.999Z</time></trkpt><trkpt lat="46.01771117673151" lon="12.02664911556089"><ele>853.0</ele><time>2026-04-03T15:07:35.999Z</time></trkpt><trkpt lat="46.01768041213475" lon="12.026776617058992"><ele>854.0</ele><time>2026-04-03T15:07:36.999Z</time></trkpt><trkpt lat="46.017656490899846" lon="12.026904453126814"><ele>855.0</ele><time>2026-04-03T15:07:37.999Z</time></trkpt><trkpt lat="46.01765739793488" lon="12.027052267472381"><ele>856.0</ele><time>2026-04-03T15:07:38.999Z</time></trkpt><trkpt lat="46.01764665856168" lon="12.027213137596329"><ele>857.0</ele><time>2026-04-03T15:07:39.999Z</time></trkpt><trkpt lat="46.01766099583931" lon="12.027421298638826"><ele>858.25</ele><time>2026-04-03T15:07:40.999Z</time></trkpt><trkpt lat="46.0176612621606" lon="12.027614833057287"><ele>859.5</ele><time>2026-04-03T15:07:41.999Z</time></trkpt><trkpt lat="46.01766019106146" lon="12.027819746114"><ele>860.75</ele><time>2026-04-03T15:07:42.999Z</time></trkpt><trkpt lat="46.01765279693527" lon="12.027997386504882"><ele>862.0</ele><time>2026-04-03T15:07:43.999Z</time></trkpt><trkpt lat="46.01764794149818" lon="12.02814753168595"><ele>861.9999999999999</ele><time>2026-04-03T15:07:44.999Z</time></trkpt><trkpt lat="46.01764517941958" lon="12.02827151499856"><ele>862.0</ele><time>2026-04-03T15:07:45.999Z</time></trkpt><trkpt lat="46.017621273119204" lon="12.028392230046627"><ele>862.0</ele><time>2026-04-03T15:07:46.999Z</time></trkpt><trkpt lat="46.01759446625761" lon="12.02850229155275"><ele>862.0</ele><time>2026-04-03T15:07:47.999Z</time></trkpt><trkpt lat="46.017526800157476" lon="12.028557072601137"><ele>861.9999999999999</ele><time>2026-04-03T15:07:49Z</time></trkpt><trkpt lat="46.01744435575569" lon="12.028593161386775"><ele>862.0</ele><time>2026-04-03T15:07:50Z</time></trkpt><trkpt lat="46.017352455294116" lon="12.028620649224917"><ele>864.4000000000001</ele><time>2026-04-03T15:07:51Z</time></trkpt><trkpt lat="46.017237553523394" lon="12.02864346321489"><ele>866.8000000000001</ele><time>2026-04-03T15:07:52Z</time></trkpt><trkpt lat="46.01711647723805" lon="12.028668819997772"><ele>869.2</ele><time>2026-04-03T15:07:53Z</time></trkpt><trkpt lat="46.01702349915763" lon="12.028689338910397"><ele>871.6</ele><time>2026-04-03T15:07:54Z</time></trkpt><trkpt lat="46.01695583122427" lon="12.028713585819231"><ele>874.0</ele><time>2026-04-03T15:07:55Z</time></trkpt><trkpt lat="46.01688814149324" lon="12.028758332869257"><ele>873.9999999999999</ele><time>2026-04-03T15:07:56Z</time></trkpt><trkpt lat="46.01683428944549" lon="12.028817680804915"><ele>874.0</ele><time>2026-04-03T15:07:57Z</time></trkpt><trkpt lat="46.01679246818793" lon="12.028902226483199"><ele>874.0</ele><time>2026-04-03T15:07:58Z</time></trkpt><trkpt lat="46.01679923877024" lon="12.02901527077109"><ele>874.0</ele><time>2026-04-03T15:07:59Z</time></trkpt><trkpt lat="46.01680651099754" lon="12.029127964656473"><ele>873.9999999999999</ele><time>2026-04-03T15:08:00Z</time></trkpt><trkpt lat="46.01684167877842" lon="12.029247850885438"><ele>874.0</ele><time>2026-04-03T15:08:01Z</time></trkpt><trkpt lat="46.016880668847946" lon="12.029367259699486"><ele>875.0</ele><time>2026-04-03T15:08:02Z</time></trkpt><trkpt lat="46.01692130497435" lon="12.029490721269816"><ele>876.0000000000001</ele><time>2026-04-03T15:08:03Z</time></trkpt><trkpt lat="46.016952094155066" lon="12.02962073837943"><ele>877.0000000000001</ele><time>2026-04-03T15:08:04Z</time></trkpt><trkpt lat="46.01694826918986" lon="12.029773789643853"><ele>878.0</ele><time>2026-04-03T15:08:05Z</time></trkpt><trkpt lat="46.01693016030149" lon="12.029920911570407"><ele>879.0</ele><time>2026-04-03T15:08:06Z</time></trkpt><trkpt lat="46.01690199524933" lon="12.030084510669212"><ele>879.2</ele><time>2026-04-03T15:08:07Z</time></trkpt><trkpt lat="46.01687494167985" lon="12.03025975257158"><ele>879.4000000000001</ele><time>2026-04-03T15:08:08Z</time></trkpt><trkpt lat="46.01686109822071" lon="12.030389333276258"><ele>879.6</ele><time>2026-04-03T15:08:09Z</time></trkpt><trkpt lat="46.01684428893523" lon="12.030497417152088"><ele>879.8</ele><time>2026-04-03T15:08:10Z</time></trkpt><trkpt lat="46.01678567964824" lon="12.030564007295009"><ele>880.0</ele><time>2026-04-03T15:08:11Z</time></trkpt><trkpt lat="46.01667486815536" lon="12.030592641178625"><ele>883.8333333333333</ele><time>2026-04-03T15:08:13Z</time></trkpt><trkpt lat="46.01661418019947" lon="12.030566364220642"><ele>887.6666666666666</ele><time>2026-04-03T15:08:14Z</time></trkpt><trkpt lat="46.01655854628261" lon="12.030503581335944"><ele>891.5</ele><time>2026-04-03T15:08:15Z</time></trkpt><trkpt lat="46.01649989981152" lon="12.030412649222196"><ele>895.3333333333333</ele><time>2026-04-03T15:08:16Z</time></trkpt><trkpt lat="46.0164346650583" lon="12.030303514384588"><ele>899.1666666666666</ele><time>2026-04-03T15:08:17Z</time></trkpt><trkpt lat="46.01635832833856" lon="12.03017292794616"><ele>903.0</ele><time>2026-04-03T15:08:18Z</time></trkpt><trkpt lat="46.01626532633556" lon="12.030019924754647"><ele>903.0</ele><time>2026-04-03T15:08:19Z</time></trkpt><trkpt lat="46.01616953827688" lon="12.029895396861402"><ele>903.0</ele><time>2026-04-03T15:08:20Z</time></trkpt><trkpt lat="46.01611745055298" lon="12.029749046641943"><ele>903.0</ele><time>2026-04-03T15:08:21Z</time></trkpt><trkpt lat="46.016071512404885" lon="12.029606670891273"><ele>903.0</ele><time>2026-04-03T15:08:22Z</time></trkpt><trkpt lat="46.01602677395431" lon="12.029446634952047"><ele>903.0</ele><time>2026-04-03T15:08:23Z</time></trkpt><trkpt lat="46.01597376831273" lon="12.029292539219467"><ele>903.0</ele><time>2026-04-03T15:08:24Z</time></trkpt><trkpt lat="46.015945494391474" lon="12.029157052877563"><ele>903.0</ele><time>2026-04-03T15:08:25Z</time></trkpt><trkpt lat="46.01592155388742" lon="12.029050468148467"><ele>903.0</ele><time>2026-04-03T15:08:26Z</time></trkpt><trkpt lat="46.01585991547472" lon="12.02891212432292"><ele>903.0</ele><time>2026-04-03T15:08:28Z</time></trkpt><trkpt lat="46.015784373366564" lon="12.028833144214715"><ele>906.3333333333334</ele><time>2026-04-03T15:08:30Z</time></trkpt><trkpt lat="46.01570622340452" lon="12.028839812708961"><ele>909.6666666666667</ele><time>2026-04-03T15:08:31Z</time></trkpt><trkpt lat="46.01564329830185" lon="12.028921749893414"><ele>913.0</ele><time>2026-04-03T15:08:32Z</time></trkpt><trkpt lat="46.0156118102028" lon="12.029020120039299"><ele>916.3333333333334</ele><time>2026-04-03T15:08:33Z</time></trkpt><trkpt lat="46.01559959478255" lon="12.0291151240441"><ele>919.6666666666667</ele><time>2026-04-03T15:08:34Z</time></trkpt><trkpt lat="46.01561766224732" lon="12.029223413948534"><ele>923.0</ele><time>2026-04-03T15:08:35Z</time></trkpt><trkpt lat="46.0156455851385" lon="12.029317634975346"><ele>923.0</ele><time>2026-04-03T15:08:36Z</time></trkpt><trkpt lat="46.01570346682803" lon="12.029458314243787"><ele>923.0</ele><time>2026-04-03T15:08:37Z</time></trkpt><trkpt lat="46.0157507205428" lon="12.029597347161001"><ele>923.0</ele><time>2026-04-03T15:08:38Z</time></trkpt><trkpt lat="46.015789919998504" lon="12.029714666821315"><ele>923.0</ele><time>2026-04-03T15:08:39Z</time></trkpt><trkpt lat="46.01578678054073" lon="12.029839572056298"><ele>923.0</ele><time>2026-04-03T15:08:40Z</time></trkpt><trkpt lat="46.01579789494302" lon="12.029949437383886"><ele>921.8333333333334</ele><time>2026-04-03T15:08:41Z</time></trkpt><trkpt lat="46.015753137605635" lon="12.030044368064182"><ele>920.6666666666667</ele><time>2026-04-03T15:08:42Z</time></trkpt><trkpt lat="46.015706868256856" lon="12.030132614801634"><ele>919.5</ele><time>2026-04-03T15:08:43Z</time></trkpt><trkpt lat="46.01563578457616" lon="12.030168124585476"><ele>918.3333333333333</ele><time>2026-04-03T15:08:44Z</time></trkpt><trkpt lat="46.01555582826256" lon="12.03021443199279"><ele>917.1666666666666</ele><time>2026-04-03T15:08:45Z</time></trkpt><trkpt lat="46.01547285837157" lon="12.030224428462851"><ele>916.0</ele><time>2026-04-03T15:08:46Z</time></trkpt><trkpt lat="46.01539012271026" lon="12.030185449459877"><ele>916.0</ele><time>2026-04-03T15:08:47Z</time></trkpt><trkpt lat="46.01530352646383" lon="12.030144453383423"><ele>915.9999999999999</ele><time>2026-04-03T15:08:48Z</time></trkpt><trkpt lat="46.01521761695738" lon="12.03008013367118"><ele>915.9999999999999</ele><time>2026-04-03T15:08:49Z</time></trkpt><trkpt lat="46.01513140865547" lon="12.029998640917881"><ele>916.0</ele><time>2026-04-03T15:08:50Z</time></trkpt><trkpt lat="46.015054182753644" lon="12.029904824165678"><ele>916.0</ele><time>2026-04-03T15:08:51Z</time></trkpt><trkpt lat="46.01498034144681" lon="12.02980039111441"><ele>919.0</ele><time>2026-04-03T15:08:52Z</time></trkpt><trkpt lat="46.01491164269652" lon="12.029691592017835"><ele>921.9999999999999</ele><time>2026-04-03T15:08:53Z</time></trkpt><trkpt lat="46.01485443140708" lon="12.029575605648114"><ele>924.9999999999999</ele><time>2026-04-03T15:08:54Z</time></trkpt><trkpt lat="46.01480291035032" lon="12.029447357892318"><ele>928.0</ele><time>2026-04-03T15:08:55Z</time></trkpt><trkpt lat="46.014757973730745" lon="12.029317220627926"><ele>931.0</ele><time>2026-04-03T15:08:56Z</time></trkpt><trkpt lat="46.01471891747932" lon="12.029228008556553"><ele>932.8333333333333</ele><time>2026-04-03T15:08:57Z</time></trkpt><trkpt lat="46.01472741527792" lon="12.029117410197756"><ele>934.6666666666666</ele><time>2026-04-03T15:08:57.999Z</time></trkpt><trkpt lat="46.01473440106267" lon="12.028988542072561"><ele>936.5</ele><time>2026-04-03T15:08:58.999Z</time></trkpt><trkpt lat="46.014730582967694" lon="12.028856225882134"><ele>938.3333333333333</ele><time>2026-04-03T15:08:59.999Z</time></trkpt><trkpt lat="46.01472462879027" lon="12.028729139454953"><ele>940.1666666666666</ele><time>2026-04-03T15:09:00.999Z</time></trkpt><trkpt lat="46.014708092451414" lon="12.028590320491565"><ele>942.0</ele><time>2026-04-03T15:09:01.999Z</time></trkpt><trkpt lat="46.01465188233714" lon="12.028452639038054"><ele>942.0</ele><time>2026-04-03T15:09:02.999Z</time></trkpt><trkpt lat="46.014590803932336" lon="12.028324983501522"><ele>942.0</ele><time>2026-04-03T15:09:03.999Z</time></trkpt><trkpt lat="46.014513651333075" lon="12.02816861467211"><ele>942.0</ele><time>2026-04-03T15:09:04.999Z</time></trkpt><trkpt lat="46.01444284678491" lon="12.028026417861813"><ele>942.0</ele><time>2026-04-03T15:09:05.999Z</time></trkpt><trkpt lat="46.01436807299422" lon="12.02787633013211"><ele>943.25</ele><time>2026-04-03T15:09:06.999Z</time></trkpt><trkpt lat="46.01428888157615" lon="12.027711348852755"><ele>944.5</ele><time>2026-04-03T15:09:07.999Z</time></trkpt><trkpt lat="46.01421408238412" lon="12.027554492798993"><ele>945.75</ele><time>2026-04-03T15:09:08.999Z</time></trkpt><trkpt lat="46.01414011084816" lon="12.02740355171071"><ele>947.0</ele><time>2026-04-03T15:09:09.999Z</time></trkpt><trkpt lat="46.01404976711322" lon="12.027265060375793"><ele>956.5</ele><time>2026-04-03T15:09:10.999Z</time></trkpt><trkpt lat="46.01396681735998" lon="12.02711215659395"><ele>966.0</ele><time>2026-04-03T15:09:11.999Z</time></trkpt><trkpt lat="46.01388452301566" lon="12.026962110205885"><ele>975.5</ele><time>2026-04-03T15:09:12.999Z</time></trkpt><trkpt lat="46.01379963849859" lon="12.026825761593889"><ele>985.0</ele><time>2026-04-03T15:09:13.999Z</time></trkpt><trkpt lat="46.013749799946375" lon="12.026702439389563"><ele>984.2</ele><time>2026-04-03T15:09:14.999Z</time></trkpt><trkpt lat="46.01368775824468" lon="12.026596675466566"><ele>983.4</ele><time>2026-04-03T15:09:15.999Z</time></trkpt><trkpt lat="46.01366629807857" lon="12.026443991953226"><ele>982.5999999999999</ele><time>2026-04-03T15:09:16.999Z</time></trkpt><trkpt lat="46.01362931896379" lon="12.026291632003801"><ele>981.8</ele><time>2026-04-03T15:09:17.999Z</time></trkpt><trkpt lat="46.01359192331758" lon="12.026150925566725"><ele>981.0</ele><time>2026-04-03T15:09:18.999Z</time></trkpt><trkpt lat="46.01354356418946" lon="12.026011615557936"><ele>981.0</ele><time>2026-04-03T15:09:19.999Z</time></trkpt><trkpt lat="46.01347881607956" lon="12.02586992565764"><ele>980.9999999999999</ele><time>2026-04-03T15:09:20.999Z</time></trkpt><trkpt lat="46.013420768758785" lon="12.025769781131869"><ele>980.9999999999999</ele><time>2026-04-03T15:09:21.999Z</time></trkpt><trkpt lat="46.01335791008617" lon="12.025675266972147"><ele>981.0</ele><time>2026-04-03T15:09:22.999Z</time></trkpt><trkpt lat="46.01328312519946" lon="12.02556089519294"><ele>981.0</ele><time>2026-04-03T15:09:23.999Z</time></trkpt><trkpt lat="46.01315965009468" lon="12.025505339675963"><ele>984.25</ele><time>2026-04-03T15:09:24.999Z</time></trkpt><trkpt lat="46.01303270894191" lon="12.025413016578087"><ele>987.5</ele><time>2026-04-03T15:09:25.999Z</time></trkpt><trkpt lat="46.01290610973632" lon="12.02535472949467"><ele>990.75</ele><time>2026-04-03T15:09:26.999Z</time></trkpt><trkpt lat="46.01281325465774" lon="12.025302991730197"><ele>994.0</ele><time>2026-04-03T15:09:27.999Z</time></trkpt><trkpt lat="46.012727600203306" lon="12.025238756284828"><ele>994.0</ele><time>2026-04-03T15:09:28.999Z</time></trkpt><trkpt lat="46.012665884268294" lon="12.02515420287549"><ele>994.0000000000001</ele><time>2026-04-03T15:09:29.999Z</time></trkpt><trkpt lat="46.01259063941608" lon="12.025038318477476"><ele>994.0000000000001</ele><time>2026-04-03T15:09:30.999Z</time></trkpt><trkpt lat="46.012524495640676" lon="12.02490260106564"><ele>994.0</ele><time>2026-04-03T15:09:31.999Z</time></trkpt><trkpt lat="46.012482925034476" lon="12.024810602103749"><ele>994.0</ele><time>2026-04-03T15:09:32.999Z</time></trkpt><trkpt lat="46.012420623768755" lon="12.02473664774267"><ele>995.0</ele><time>2026-04-03T15:09:33.999Z</time></trkpt><trkpt lat="46.01233541417316" lon="12.024689377657225"><ele>996.0000000000001</ele><time>2026-04-03T15:09:34.999Z</time></trkpt><trkpt lat="46.012219852348835" lon="12.024658210160174"><ele>997.0000000000001</ele><time>2026-04-03T15:09:35.999Z</time></trkpt><trkpt lat="46.0121087610206" lon="12.02460250864118"><ele>998.0</ele><time>2026-04-03T15:09:36.999Z</time></trkpt><trkpt lat="46.012001008395515" lon="12.024566852901279"><ele>999.0</ele><time>2026-04-03T15:09:37.999Z</time></trkpt><trkpt lat="46.011873292575714" lon="12.024522567537508"><ele>999.0</ele><time>2026-04-03T15:09:38.999Z</time></trkpt><trkpt lat="46.011740672083036" lon="12.024467252950748"><ele>999.0000000000001</ele><time>2026-04-03T15:09:39.999Z</time></trkpt><trkpt lat="46.011629956031776" lon="12.024420403242278"><ele>999.0000000000001</ele><time>2026-04-03T15:09:40.999Z</time></trkpt><trkpt lat="46.01154357107304" lon="12.024390152098173"><ele>999.0</ele><time>2026-04-03T15:09:41.999Z</time></trkpt><trkpt lat="46.01145749555807" lon="12.024360022151816"><ele>999.0</ele><time>2026-04-03T15:09:42.999Z</time></trkpt><trkpt lat="46.011357500903124" lon="12.02435436760877"><ele>1001.5</ele><time>2026-04-03T15:09:43.999Z</time></trkpt><trkpt lat="46.01126781217863" lon="12.024378438964902"><ele>1004.0</ele><time>2026-04-03T15:09:44.999Z</time></trkpt><trkpt lat="46.01115009449063" lon="12.024402454890264"><ele>1006.5</ele><time>2026-04-03T15:09:45.999Z</time></trkpt><trkpt lat="46.010999497417956" lon="12.024465658559059"><ele>1009.0</ele><time>2026-04-03T15:09:46.999Z</time></trkpt><trkpt lat="46.010874840447315" lon="12.024516563514014"><ele>1014.0</ele><time>2026-04-03T15:09:47.999Z</time></trkpt><trkpt lat="46.010774059657194" lon="12.024550577658529"><ele>1019.0000000000001</ele><time>2026-04-03T15:09:48.999Z</time></trkpt><trkpt lat="46.01067262775218" lon="12.024579010649989"><ele>1024.0</ele><time>2026-04-03T15:09:49.999Z</time></trkpt><trkpt lat="46.01057517659168" lon="12.02460823407864"><ele>1029.0</ele><time>2026-04-03T15:09:50.999Z</time></trkpt><trkpt lat="46.01044932441021" lon="12.024565225875048"><ele>1034.0</ele><time>2026-04-03T15:09:51.999Z</time></trkpt><trkpt lat="46.01029793002603" lon="12.02451872840959"><ele>1034.0</ele><time>2026-04-03T15:09:52.999Z</time></trkpt><trkpt lat="46.01016625265594" lon="12.02446526142186"><ele>1034.0</ele><time>2026-04-03T15:09:53.999Z</time></trkpt><trkpt lat="46.01001645252697" lon="12.024399444115604"><ele>1034.0</ele><time>2026-04-03T15:09:55Z</time></trkpt><trkpt lat="46.00985407304068" lon="12.024331134224958"><ele>1036.75</ele><time>2026-04-03T15:09:56Z</time></trkpt><trkpt lat="46.00970128936507" lon="12.024267881735065"><ele>1039.5</ele><time>2026-04-03T15:09:57Z</time></trkpt><trkpt lat="46.00958552816976" lon="12.02420455492471"><ele>1042.25</ele><time>2026-04-03T15:09:58Z</time></trkpt><trkpt lat="46.00947977637063" lon="12.024121115350466"><ele>1045.0</ele><time>2026-04-03T15:09:59Z</time></trkpt><trkpt lat="46.00937941520427" lon="12.024005091111238"><ele>1045.0</ele><time>2026-04-03T15:10:00Z</time></trkpt><trkpt lat="46.00926582868157" lon="12.02386377706866"><ele>1045.0</ele><time>2026-04-03T15:10:01Z</time></trkpt><trkpt lat="46.00913570476383" lon="12.023727304634457"><ele>1045.0</ele><time>2026-04-03T15:10:02Z</time></trkpt><trkpt lat="46.00904679325772" lon="12.023610737567905"><ele>1045.0</ele><time>2026-04-03T15:10:03Z</time></trkpt><trkpt lat="46.0089465968994" lon="12.023445731700926"><ele>1047.4</ele><time>2026-04-03T15:10:04Z</time></trkpt><trkpt lat="46.008856921224115" lon="12.02332610492581"><ele>1049.8</ele><time>2026-04-03T15:10:05Z</time></trkpt><trkpt lat="46.0087822270388" lon="12.02323206057108"><ele>1052.2</ele><time>2026-04-03T15:10:06Z</time></trkpt><trkpt lat="46.00872412820619" lon="12.023163304167156"><ele>1054.6</ele><time>2026-04-03T15:10:07Z</time></trkpt><trkpt lat="46.008594634365494" lon="12.023052728446878"><ele>1057.0</ele><time>2026-04-03T15:10:09Z</time></trkpt><trkpt lat="46.00849970010268" lon="12.023021220617894"><ele>1057.0</ele><time>2026-04-03T15:10:10Z</time></trkpt><trkpt lat="46.00840360205599" lon="12.023021417571378"><ele>1057.0</ele><time>2026-04-03T15:10:11Z</time></trkpt><trkpt lat="46.00829982182732" lon="12.023072115092349"><ele>1057.0</ele><time>2026-04-03T15:10:12Z</time></trkpt><trkpt lat="46.00819032885852" lon="12.023085557594907"><ele>1057.0</ele><time>2026-04-03T15:10:13Z</time></trkpt><trkpt lat="46.00808547304797" lon="12.02310812050572"><ele>1057.0</ele><time>2026-04-03T15:10:14Z</time></trkpt><trkpt lat="46.00800310041625" lon="12.023112617584855"><ele>1059.8</ele><time>2026-04-03T15:10:15Z</time></trkpt><trkpt lat="46.00789147618727" lon="12.023098108911201"><ele>1062.6</ele><time>2026-04-03T15:10:16Z</time></trkpt><trkpt lat="46.00779895337612" lon="12.023038813813226"><ele>1065.3999999999999</ele><time>2026-04-03T15:10:17Z</time></trkpt><trkpt lat="46.00768783653374" lon="12.02298202511783"><ele>1068.2</ele><time>2026-04-03T15:10:18Z</time></trkpt><trkpt lat="46.007597085627616" lon="12.0229330899676"><ele>1071.0</ele><time>2026-04-03T15:10:19Z</time></trkpt><trkpt lat="46.00752096704656" lon="12.022879996510003"><ele>1073.6</ele><time>2026-04-03T15:10:20Z</time></trkpt><trkpt lat="46.00744849348539" lon="12.02280124080819"><ele>1076.1999999999998</ele><time>2026-04-03T15:10:21Z</time></trkpt><trkpt lat="46.00736744365834" lon="12.022710784838363"><ele>1078.8000000000002</ele><time>2026-04-03T15:10:22Z</time></trkpt><trkpt lat="46.007283500695124" lon="12.022611306390978"><ele>1081.4</ele><time>2026-04-03T15:10:23Z</time></trkpt><trkpt lat="46.007192006345015" lon="12.022510251533173"><ele>1084.0</ele><time>2026-04-03T15:10:24Z</time></trkpt><trkpt lat="46.007088646178566" lon="12.022422873823709"><ele>1086.5</ele><time>2026-04-03T15:10:25Z</time></trkpt><trkpt lat="46.00697935625993" lon="12.022361914284934"><ele>1089.0</ele><time>2026-04-03T15:10:26Z</time></trkpt><trkpt lat="46.00686489520014" lon="12.022307531354944"><ele>1091.5</ele><time>2026-04-03T15:10:27Z</time></trkpt><trkpt lat="46.00674260997356" lon="12.022253810334632"><ele>1094.0</ele><time>2026-04-03T15:10:28Z</time></trkpt><trkpt lat="46.006615002003635" lon="12.022197750925338"><ele>1097.25</ele><time>2026-04-03T15:10:29Z</time></trkpt><trkpt lat="46.006471906768915" lon="12.02213815471582"><ele>1100.5</ele><time>2026-04-03T15:10:30Z</time></trkpt><trkpt lat="46.00634680827491" lon="12.022089897590234"><ele>1103.75</ele><time>2026-04-03T15:10:31Z</time></trkpt><trkpt lat="46.00624343580501" lon="12.022050937698994"><ele>1107.0</ele><time>2026-04-03T15:10:32Z</time></trkpt><trkpt lat="46.00615253822709" lon="12.021983421094687"><ele>1107.0</ele><time>2026-04-03T15:10:33Z</time></trkpt><trkpt lat="46.00605483125763" lon="12.021912871667677"><ele>1107.0</ele><time>2026-04-03T15:10:34Z</time></trkpt><trkpt lat="46.005956605746306" lon="12.021825837701037"><ele>1107.0</ele><time>2026-04-03T15:10:35Z</time></trkpt><trkpt lat="46.005845991118754" lon="12.021740431029475"><ele>1107.0</ele><time>2026-04-03T15:10:36Z</time></trkpt><trkpt lat="46.005753424391564" lon="12.021611693151508"><ele>1109.6</ele><time>2026-04-03T15:10:37Z</time></trkpt><trkpt lat="46.005654534068846" lon="12.021507162503852"><ele>1112.2</ele><time>2026-04-03T15:10:38Z</time></trkpt><trkpt lat="46.00557092893787" lon="12.021455151051263"><ele>1114.8</ele><time>2026-04-03T15:10:39Z</time></trkpt><trkpt lat="46.00548392257787" lon="12.021401913233817"><ele>1117.4</ele><time>2026-04-03T15:10:40Z</time></trkpt><trkpt lat="46.0053715450435" lon="12.021360389955728"><ele>1120.0</ele><time>2026-04-03T15:10:41Z</time></trkpt><trkpt lat="46.00527111957262" lon="12.021270357140333"><ele>1120.0</ele><time>2026-04-03T15:10:42Z</time></trkpt><trkpt lat="46.005164762708176" lon="12.021172129200314"><ele>1120.0</ele><time>2026-04-03T15:10:43Z</time></trkpt><trkpt lat="46.00504496726763" lon="12.021094970739242"><ele>1120.0</ele><time>2026-04-03T15:10:44Z</time></trkpt><trkpt lat="46.00494231395155" lon="12.021015851128913"><ele>1120.0</ele><time>2026-04-03T15:10:45Z</time></trkpt><trkpt lat="46.00482131223732" lon="12.020971035216602"><ele>1119.8</ele><time>2026-04-03T15:10:46Z</time></trkpt><trkpt lat="46.00470623179762" lon="12.020952643825737"><ele>1119.6</ele><time>2026-04-03T15:10:47Z</time></trkpt><trkpt lat="46.00462023074911" lon="12.020951885779631"><ele>1119.4</ele><time>2026-04-03T15:10:48Z</time></trkpt><trkpt lat="46.00453783303794" lon="12.020916101280799"><ele>1119.2</ele><time>2026-04-03T15:10:49Z</time></trkpt><trkpt lat="46.00444981203413" lon="12.020895897859393"><ele>1119.0</ele><time>2026-04-03T15:10:50Z</time></trkpt><trkpt lat="46.00436207532695" lon="12.020872156146464"><ele>1121.8</ele><time>2026-04-03T15:10:51Z</time></trkpt><trkpt lat="46.004274024355915" lon="12.02080614571674"><ele>1124.6000000000001</ele><time>2026-04-03T15:10:52Z</time></trkpt><trkpt lat="46.004204645338824" lon="12.020705649297815"><ele>1127.4</ele><time>2026-04-03T15:10:53Z</time></trkpt><trkpt lat="46.004108895532724" lon="12.02059384048503"><ele>1130.2</ele><time>2026-04-03T15:10:54Z</time></trkpt><trkpt lat="46.00401310772901" lon="12.020474787360918"><ele>1133.0</ele><time>2026-04-03T15:10:55Z</time></trkpt><trkpt lat="46.0039107380252" lon="12.020359553731277"><ele>1133.3333333333335</ele><time>2026-04-03T15:10:56Z</time></trkpt><trkpt lat="46.003782128943804" lon="12.020250433699346"><ele>1133.6666666666667</ele><time>2026-04-03T15:10:57Z</time></trkpt><trkpt lat="46.003659318262095" lon="12.020125834532621"><ele>1134.0</ele><time>2026-04-03T15:10:58Z</time></trkpt><trkpt lat="46.003530547343516" lon="12.020000378070488"><ele>1135.75</ele><time>2026-04-03T15:10:59Z</time></trkpt><trkpt lat="46.003401214034646" lon="12.019884039375908"><ele>1137.5</ele><time>2026-04-03T15:11:00Z</time></trkpt><trkpt lat="46.00327028674576" lon="12.019767334065312"><ele>1139.25</ele><time>2026-04-03T15:11:01Z</time></trkpt><trkpt lat="46.00314281410722" lon="12.019706360425749"><ele>1141.0</ele><time>2026-04-03T15:11:02Z</time></trkpt><trkpt lat="46.0030144137536" lon="12.019619735216924"><ele>1142.75</ele><time>2026-04-03T15:11:02.999Z</time></trkpt><trkpt lat="46.00288518069721" lon="12.019548453886182"><ele>1144.5</ele><time>2026-04-03T15:11:03.999Z</time></trkpt><trkpt lat="46.00278045822204" lon="12.019492337255707"><ele>1146.25</ele><time>2026-04-03T15:11:04.999Z</time></trkpt><trkpt lat="46.00269369061055" lon="12.019414408740856"><ele>1148.0</ele><time>2026-04-03T15:11:05.999Z</time></trkpt><trkpt lat="46.002605636547756" lon="12.019341767501274"><ele>1148.0</ele><time>2026-04-03T15:11:06.999Z</time></trkpt><trkpt lat="46.002517390136" lon="12.019246364975105"><ele>1148.0</ele><time>2026-04-03T15:11:07.999Z</time></trkpt><trkpt lat="46.00242254513839" lon="12.019149654836058"><ele>1148.0</ele><time>2026-04-03T15:11:08.999Z</time></trkpt><trkpt lat="46.00231671893939" lon="12.019049576695867"><ele>1148.0</ele><time>2026-04-03T15:11:09.999Z</time></trkpt><trkpt lat="46.002205362325974" lon="12.018955911301566"><ele>1152.0</ele><time>2026-04-03T15:11:10.999Z</time></trkpt><trkpt lat="46.00210044383387" lon="12.018846953399757"><ele>1156.0</ele><time>2026-04-03T15:11:11.999Z</time></trkpt><trkpt lat="46.00199762031181" lon="12.018721597799924"><ele>1160.0</ele><time>2026-04-03T15:11:12.999Z</time></trkpt><trkpt lat="46.001871986889846" lon="12.018647981158951"><ele>1164.0</ele><time>2026-04-03T15:11:13.999Z</time></trkpt><trkpt lat="46.001744827545984" lon="12.018572048342193"><ele>1164.5</ele><time>2026-04-03T15:11:14.999Z</time></trkpt><trkpt lat="46.00159804959723" lon="12.018509070140997"><ele>1165.0</ele><time>2026-04-03T15:11:15.999Z</time></trkpt><trkpt lat="46.00145402079536" lon="12.018445650964985"><ele>1165.5</ele><time>2026-04-03T15:11:16.999Z</time></trkpt><trkpt lat="46.00131528808245" lon="12.0183827576038"><ele>1166.0</ele><time>2026-04-03T15:11:17.999Z</time></trkpt><trkpt lat="46.001188218191125" lon="12.018332295787577"><ele>1167.5</ele><time>2026-04-03T15:11:18.999Z</time></trkpt><trkpt lat="46.001086846569315" lon="12.01828912708519"><ele>1169.0</ele><time>2026-04-03T15:11:19.999Z</time></trkpt><trkpt lat="46.001009005185026" lon="12.01825804618242"><ele>1170.5</ele><time>2026-04-03T15:11:20.999Z</time></trkpt><trkpt lat="46.00093653383482" lon="12.018230391199763"><ele>1172.0</ele><time>2026-04-03T15:11:21.999Z</time></trkpt><trkpt lat="46.00085888193613" lon="12.018182218769246"><ele>1173.5</ele><time>2026-04-03T15:11:22.999Z</time></trkpt><trkpt lat="46.000798926237266" lon="12.018097338278984"><ele>1175.0</ele><time>2026-04-03T15:11:23.999Z</time></trkpt><trkpt lat="46.00073154165763" lon="12.01799569300649"><ele>1175.0</ele><time>2026-04-03T15:11:24.999Z</time></trkpt><trkpt lat="46.00065235286662" lon="12.017884203850462"><ele>1175.0</ele><time>2026-04-03T15:11:25.999Z</time></trkpt><trkpt lat="46.00058476617214" lon="12.017806383659323"><ele>1175.0</ele><time>2026-04-03T15:11:26.999Z</time></trkpt><trkpt lat="46.000511626547905" lon="12.01770609696881"><ele>1175.0</ele><time>2026-04-03T15:11:28.999Z</time></trkpt><trkpt lat="46.00046664958447" lon="12.017642122181153"><ele>1175.0</ele><time>2026-04-03T15:11:30.999Z</time></trkpt><trkpt lat="46.00045783520599" lon="12.01754987259242"><ele>1175.0</ele><time>2026-04-03T15:11:32.999Z</time></trkpt><trkpt lat="46.00044625675555" lon="12.017458111197765"><ele>1174.8333333333335</ele><time>2026-04-03T15:11:34.999Z</time></trkpt><trkpt lat="46.000430717283386" lon="12.017343697537978"><ele>1174.6666666666667</ele><time>2026-04-03T15:11:38.999Z</time></trkpt><trkpt lat="46.00041675581956" lon="12.017230481643567"><ele>1174.5</ele><time>2026-04-03T15:11:42.999Z</time></trkpt><trkpt lat="46.000430415671275" lon="12.017341476804175"><ele>1174.3333333333333</ele><time>2026-04-03T15:13:38.999Z</time></trkpt><trkpt lat="46.00041805428169" lon="12.017241793730427"><ele>1174.1666666666665</ele><time>2026-04-03T15:13:40.999Z</time></trkpt><trkpt lat="46.00040311578997" lon="12.01712221288715"><ele>1174.0</ele><time>2026-04-03T15:13:42.999Z</time></trkpt><trkpt lat="46.000370207870716" lon="12.016972384991192"><ele>1174.0</ele><time>2026-04-03T15:13:44.999Z</time></trkpt><trkpt lat="46.00033774291591" lon="12.016852812134738"><ele>1174.0</ele><time>2026-04-03T15:13:46.999Z</time></trkpt><trkpt lat="46.00029441715394" lon="12.016740891355019"><ele>1174.0</ele><time>2026-04-03T15:13:49.999Z</time></trkpt><trkpt lat="46.00023528152343" lon="12.016652243185515"><ele>1174.0</ele><time>2026-04-03T15:13:51.999Z</time></trkpt><trkpt lat="46.00017754415823" lon="12.01659577351978"><ele>1174.0</ele><time>2026-04-03T15:13:53.999Z</time></trkpt><trkpt lat="46.000101633414594" lon="12.016539009180239"><ele>1174.0</ele><time>2026-04-03T15:13:55.999Z</time></trkpt><trkpt lat="46.000020261562845" lon="12.016498329220042"><ele>1170.1666666666665</ele><time>2026-04-03T15:13:57.999Z</time></trkpt><trkpt lat="45.99995718624065" lon="12.01647254970865"><ele>1166.3333333333333</ele><time>2026-04-03T15:13:59.999Z</time></trkpt><trkpt lat="45.999871256925246" lon="12.01643769714481"><ele>1162.5</ele><time>2026-04-03T15:14:01.999Z</time></trkpt><trkpt lat="45.999780851722846" lon="12.016398424034726"><ele>1158.6666666666667</ele><time>2026-04-03T15:14:03.999Z</time></trkpt><trkpt lat="45.99969225352476" lon="12.016359936449236"><ele>1154.8333333333335</ele><time>2026-04-03T15:14:05.999Z</time></trkpt><trkpt lat="45.99963123229372" lon="12.016336798504193"><ele>1151.0</ele><time>2026-04-03T15:14:07Z</time></trkpt><trkpt lat="45.99954078706145" lon="12.016308694485309"><ele>1151.0</ele><time>2026-04-03T15:14:09Z</time></trkpt><trkpt lat="45.99943161124138" lon="12.016287325627422"><ele>1151.0</ele><time>2026-04-03T15:14:11Z</time></trkpt><trkpt lat="45.999342898381855" lon="12.016281381734512"><ele>1151.0</ele><time>2026-04-03T15:14:13Z</time></trkpt><trkpt lat="45.9992573759354" lon="12.016287376344675"><ele>1151.0</ele><time>2026-04-03T15:14:15Z</time></trkpt><trkpt lat="45.99914625335379" lon="12.016322819843934"><ele>1151.0</ele><time>2026-04-03T15:14:17Z</time></trkpt><trkpt lat="45.9990464156366" lon="12.016381627982016"><ele>1152.0</ele><time>2026-04-03T15:14:19Z</time></trkpt><trkpt lat="45.998945883609096" lon="12.016434541862209"><ele>1153.0</ele><time>2026-04-03T15:14:21Z</time></trkpt><trkpt lat="45.99885699741471" lon="12.016439975918361"><ele>1154.0</ele><time>2026-04-03T15:14:23Z</time></trkpt><trkpt lat="45.99875350499173" lon="12.016382498141983"><ele>1155.0</ele><time>2026-04-03T15:14:25Z</time></trkpt><trkpt lat="45.99866618585236" lon="12.016255587494996"><ele>1156.0</ele><time>2026-04-03T15:14:27Z</time></trkpt><trkpt lat="45.998602305091154" lon="12.016183890040669"><ele>1156.0</ele><time>2026-04-03T15:14:28Z</time></trkpt><trkpt lat="45.99853964577496" lon="12.016124170030672"><ele>1156.0</ele><time>2026-04-03T15:14:29Z</time></trkpt><trkpt lat="45.99846397547152" lon="12.016067142128612"><ele>1156.0</ele><time>2026-04-03T15:14:30Z</time></trkpt><trkpt lat="45.998383690699384" lon="12.016024681894919"><ele>1156.0</ele><time>2026-04-03T15:14:31Z</time></trkpt><trkpt lat="45.99830616516638" lon="12.015992537553386"><ele>1156.0</ele><time>2026-04-03T15:14:32Z</time></trkpt><trkpt lat="45.99822247025525" lon="12.015967872447154"><ele>1156.0</ele><time>2026-04-03T15:14:33Z</time></trkpt><trkpt lat="45.99813949139884" lon="12.015945844249293"><ele>1155.8333333333333</ele><time>2026-04-03T15:14:34Z</time></trkpt><trkpt lat="45.99807636113535" lon="12.01593263759327"><ele>1155.6666666666665</ele><time>2026-04-03T15:14:35Z</time></trkpt><trkpt lat="45.99800002277922" lon="12.015918803169523"><ele>1155.5</ele><time>2026-04-03T15:14:36Z</time></trkpt><trkpt lat="45.99792190650931" lon="12.015905395975338"><ele>1155.3333333333333</ele><time>2026-04-03T15:14:37Z</time></trkpt><trkpt lat="45.9978302035551" lon="12.015889656891096"><ele>1155.1666666666667</ele><time>2026-04-03T15:14:38Z</time></trkpt><trkpt lat="45.99773091968135" lon="12.015869092567094"><ele>1155.0</ele><time>2026-04-03T15:14:39Z</time></trkpt><trkpt lat="45.99762992308463" lon="12.015842528952174"><ele>1154.0</ele><time>2026-04-03T15:14:40Z</time></trkpt><trkpt lat="45.99753603437491" lon="12.015815559637412"><ele>1153.0</ele><time>2026-04-03T15:14:41Z</time></trkpt><trkpt lat="45.99744962670499" lon="12.015788835584068"><ele>1152.0</ele><time>2026-04-03T15:14:42Z</time></trkpt><trkpt lat="45.9973697271691" lon="12.015762198565126"><ele>1151.0</ele><time>2026-04-03T15:14:43Z</time></trkpt><trkpt lat="45.99729567185076" lon="12.015735741784527"><ele>1150.0</ele><time>2026-04-03T15:14:44Z</time></trkpt><trkpt lat="45.99722108072738" lon="12.015703024249365"><ele>1149.0</ele><time>2026-04-03T15:14:45Z</time></trkpt><trkpt lat="45.99715761134717" lon="12.015672008672308"><ele>1149.0</ele><time>2026-04-03T15:14:46Z</time></trkpt><trkpt lat="45.99709098001205" lon="12.015638142459512"><ele>1149.0</ele><time>2026-04-03T15:14:47Z</time></trkpt><trkpt lat="45.99702039726716" lon="12.015602031250404"><ele>1149.0</ele><time>2026-04-03T15:14:48Z</time></trkpt><trkpt lat="45.99694779283639" lon="12.015565101603492"><ele>1149.0</ele><time>2026-04-03T15:14:49Z</time></trkpt><trkpt lat="45.99687000409683" lon="12.015526171834473"><ele>1149.0</ele><time>2026-04-03T15:14:50Z</time></trkpt><trkpt lat="45.996798028116054" lon="12.015488631760592"><ele>1149.0</ele><time>2026-04-03T15:14:51Z</time></trkpt><trkpt lat="45.99673837923598" lon="12.015454732633033"><ele>1149.0</ele><time>2026-04-03T15:14:52Z</time></trkpt><trkpt lat="45.99666866414556" lon="12.01541059471166"><ele>1149.0</ele><time>2026-04-03T15:14:54Z</time></trkpt><trkpt lat="45.99673373397142" lon="12.015451813926715"><ele>1149.0</ele><time>2026-04-03T15:16:17Z</time></trkpt><trkpt lat="45.996812377252965" lon="12.01549618068011"><ele>1149.0</ele><time>2026-04-03T15:16:21Z</time></trkpt><trkpt lat="45.99689175784134" lon="12.015553503457582"><ele>1149.0</ele><time>2026-04-03T15:16:24Z</time></trkpt><trkpt lat="45.997078614781294" lon="12.015655445459506"><ele>1149.0</ele><time>2026-04-03T15:16:30Z</time></trkpt><trkpt lat="45.99722003731623" lon="12.01571926706101"><ele>1149.0</ele><time>2026-04-03T15:16:32Z</time></trkpt><trkpt lat="45.99730290926794" lon="12.015762521866465"><ele>1149.0</ele><time>2026-04-03T15:16:34Z</time></trkpt><trkpt lat="45.99740492017648" lon="12.015801166097052"><ele>1149.0</ele><time>2026-04-03T15:16:36Z</time></trkpt><trkpt lat="45.99746914206923" lon="12.015797716659032"><ele>1149.0</ele><time>2026-04-03T15:16:37Z</time></trkpt><trkpt lat="45.99752641283478" lon="12.015842363732242"><ele>1149.0</ele><time>2026-04-03T15:16:38Z</time></trkpt><trkpt lat="45.997643783734745" lon="12.015868780764727"><ele>1149.0</ele><time>2026-04-03T15:16:40Z</time></trkpt><trkpt lat="45.99775635478006" lon="12.015898853487963"><ele>1150.2</ele><time>2026-04-03T15:16:42Z</time></trkpt><trkpt lat="45.99788373870677" lon="12.01592453464078"><ele>1151.4</ele><time>2026-04-03T15:16:44Z</time></trkpt><trkpt lat="45.99796207568399" lon="12.015917445153269"><ele>1152.6</ele><time>2026-04-03T15:16:45Z</time></trkpt><trkpt lat="45.99803554689154" lon="12.01593281364296"><ele>1153.8</ele><time>2026-04-03T15:16:46Z</time></trkpt><trkpt lat="45.99812143018556" lon="12.0159396411463"><ele>1155.0</ele><time>2026-04-03T15:16:47Z</time></trkpt><trkpt lat="45.9982112988553" lon="12.015955065515216"><ele>1155.0</ele><time>2026-04-03T15:16:48Z</time></trkpt><trkpt lat="45.99829346869734" lon="12.015969168543457"><ele>1155.0</ele><time>2026-04-03T15:16:49Z</time></trkpt><trkpt lat="45.998371172801306" lon="12.015988611154611"><ele>1155.0</ele><time>2026-04-03T15:16:50Z</time></trkpt><trkpt lat="45.99844044355465" lon="12.016044233015911"><ele>1155.0</ele><time>2026-04-03T15:16:51Z</time></trkpt><trkpt lat="45.99850609986209" lon="12.016061983562974"><ele>1155.0</ele><time>2026-04-03T15:16:52Z</time></trkpt><trkpt lat="45.9985780762076" lon="12.016067815897038"><ele>1155.0</ele><time>2026-04-03T15:16:53Z</time></trkpt><trkpt lat="45.99863920830316" lon="12.016240856923705"><ele>1155.1666666666667</ele><time>2026-04-03T15:16:54Z</time></trkpt><trkpt lat="45.9987194562448" lon="12.016356371129984"><ele>1155.3333333333333</ele><time>2026-04-03T15:16:55Z</time></trkpt><trkpt lat="45.99878452440298" lon="12.016436982288516"><ele>1155.5</ele><time>2026-04-03T15:16:56Z</time></trkpt><trkpt lat="45.99883887536347" lon="12.016483728962172"><ele>1155.6666666666665</ele><time>2026-04-03T15:16:57Z</time></trkpt><trkpt lat="45.99890194518126" lon="12.016493728071424"><ele>1155.8333333333333</ele><time>2026-04-03T15:16:58Z</time></trkpt><trkpt lat="45.998978240271825" lon="12.0164843750091"><ele>1156.0</ele><time>2026-04-03T15:16:59Z</time></trkpt><trkpt lat="45.99906628591028" lon="12.016425184603955"><ele>1156.0</ele><time>2026-04-03T15:17:00Z</time></trkpt><trkpt lat="45.99914708207783" lon="12.016361669069061"><ele>1156.0</ele><time>2026-04-03T15:17:01Z</time></trkpt><trkpt lat="45.999222765725015" lon="12.016318657844927"><ele>1156.0</ele><time>2026-04-03T15:17:02Z</time></trkpt><trkpt lat="45.999292699338724" lon="12.016328952962567"><ele>1156.0</ele><time>2026-04-03T15:17:03Z</time></trkpt><trkpt lat="45.999380309151775" lon="12.016314919045065"><ele>1156.0</ele><time>2026-04-03T15:17:04Z</time></trkpt><trkpt lat="45.99946110245957" lon="12.016326028330724"><ele>1156.0</ele><time>2026-04-03T15:17:05Z</time></trkpt><trkpt lat="45.99954469048269" lon="12.016337692559384"><ele>1155.1666666666665</ele><time>2026-04-03T15:17:06Z</time></trkpt><trkpt lat="45.99961684342665" lon="12.01638098503714"><ele>1154.3333333333333</ele><time>2026-04-03T15:17:07Z</time></trkpt><trkpt lat="45.99967939965955" lon="12.016405113399097"><ele>1153.5</ele><time>2026-04-03T15:17:08Z</time></trkpt><trkpt lat="45.999767124765945" lon="12.016437261953552"><ele>1152.6666666666667</ele><time>2026-04-03T15:17:09Z</time></trkpt><trkpt lat="45.99985790266672" lon="12.016475214173274"><ele>1151.8333333333335</ele><time>2026-04-03T15:17:10Z</time></trkpt><trkpt lat="45.99993920362032" lon="12.016504145452828"><ele>1151.0</ele><time>2026-04-03T15:17:11Z</time></trkpt><trkpt lat="46.00002359035284" lon="12.016539533762826"><ele>1151.0</ele><time>2026-04-03T15:17:12Z</time></trkpt><trkpt lat="46.00008502182989" lon="12.016577082798669"><ele>1151.0</ele><time>2026-04-03T15:17:13Z</time></trkpt><trkpt lat="46.000195613964884" lon="12.016672074244308"><ele>1151.0</ele><time>2026-04-03T15:17:15Z</time></trkpt><trkpt lat="46.00023908099261" lon="12.016739006597073"><ele>1151.0</ele><time>2026-04-03T15:17:16Z</time></trkpt><trkpt lat="46.00028992586218" lon="12.016809987431524"><ele>1151.0</ele><time>2026-04-03T15:17:17Z</time></trkpt><trkpt lat="46.000317004337575" lon="12.016899695989748"><ele>1151.0</ele><time>2026-04-03T15:17:18Z</time></trkpt><trkpt lat="46.0003475163001" lon="12.017017066873494"><ele>1154.8333333333335</ele><time>2026-04-03T15:17:19Z</time></trkpt><trkpt lat="46.000376354360995" lon="12.017129151947023"><ele>1158.6666666666667</ele><time>2026-04-03T15:17:20Z</time></trkpt><trkpt lat="46.000386391655816" lon="12.017259806387347"><ele>1162.5</ele><time>2026-04-03T15:17:21Z</time></trkpt><trkpt lat="46.00040345369338" lon="12.01739261852254"><ele>1166.3333333333333</ele><time>2026-04-03T15:17:21.999Z</time></trkpt><trkpt lat="46.0004292040028" lon="12.017502765828372"><ele>1170.1666666666665</ele><time>2026-04-03T15:17:22.999Z</time></trkpt><trkpt lat="46.000439165915765" lon="12.017599285039136"><ele>1174.0</ele><time>2026-04-03T15:17:23.999Z</time></trkpt><trkpt lat="46.000495240274475" lon="12.017765051970692"><ele>1174.142857142857</ele><time>2026-04-03T15:17:25.999Z</time></trkpt><trkpt lat="46.000536722118106" lon="12.017838096720137"><ele>1174.2857142857144</ele><time>2026-04-03T15:17:26.999Z</time></trkpt><trkpt lat="46.0005905222451" lon="12.017887115675018"><ele>1174.4285714285716</ele><time>2026-04-03T15:17:27.999Z</time></trkpt><trkpt lat="46.0006548283505" lon="12.01795393750624"><ele>1174.5714285714287</ele><time>2026-04-03T15:17:28.999Z</time></trkpt><trkpt lat="46.00071702508546" lon="12.01803083937772"><ele>1174.7142857142858</ele><time>2026-04-03T15:17:29.999Z</time></trkpt><trkpt lat="46.00077443666971" lon="12.018108657890739"><ele>1174.857142857143</ele><time>2026-04-03T15:17:30.999Z</time></trkpt><trkpt lat="46.000825384157594" lon="12.018164749724038"><ele>1175.0</ele><time>2026-04-03T15:17:31.999Z</time></trkpt><trkpt lat="46.00088904902393" lon="12.01821893241583"><ele>1175.5</ele><time>2026-04-03T15:17:32.999Z</time></trkpt><trkpt lat="46.00096729153631" lon="12.018253821796646"><ele>1176.0</ele><time>2026-04-03T15:17:33.999Z</time></trkpt><trkpt lat="46.001038592700155" lon="12.018281160688591"><ele>1176.5</ele><time>2026-04-03T15:17:34.999Z</time></trkpt><trkpt lat="46.001121520728354" lon="12.018312172722531"><ele>1177.0</ele><time>2026-04-03T15:17:35.999Z</time></trkpt><trkpt lat="46.00119620778318" lon="12.018348790663003"><ele>1177.5</ele><time>2026-04-03T15:17:36.999Z</time></trkpt><trkpt lat="46.001274419203305" lon="12.018393562459016"><ele>1178.0</ele><time>2026-04-03T15:17:37.999Z</time></trkpt><trkpt lat="46.00135391429157" lon="12.018427838409055"><ele>1175.6</ele><time>2026-04-03T15:17:38.999Z</time></trkpt><trkpt lat="46.001437260082966" lon="12.018464608749007"><ele>1173.1999999999998</ele><time>2026-04-03T15:17:39.999Z</time></trkpt><trkpt lat="46.001519316556305" lon="12.018503066430807"><ele>1170.8</ele><time>2026-04-03T15:17:40.999Z</time></trkpt><trkpt lat="46.001604228741854" lon="12.01854286256447"><ele>1168.3999999999999</ele><time>2026-04-03T15:17:41.999Z</time></trkpt><trkpt lat="46.001681640484755" lon="12.018581428116232"><ele>1166.0</ele><time>2026-04-03T15:17:42.999Z</time></trkpt><trkpt lat="46.001784059025205" lon="12.018633555491085"><ele>1165.5</ele><time>2026-04-03T15:17:43.999Z</time></trkpt><trkpt lat="46.001898616203604" lon="12.018699172889216"><ele>1165.0</ele><time>2026-04-03T15:17:44.999Z</time></trkpt><trkpt lat="46.002002375806605" lon="12.018778037893025"><ele>1164.5</ele><time>2026-04-03T15:17:45.999Z</time></trkpt><trkpt lat="46.00210181738171" lon="12.018886704492761"><ele>1164.0</ele><time>2026-04-03T15:17:46.999Z</time></trkpt><trkpt lat="46.00219536373171" lon="12.018985145674899"><ele>1164.0</ele><time>2026-04-03T15:17:47.999Z</time></trkpt><trkpt lat="46.00228477317983" lon="12.01906045879635"><ele>1164.0</ele><time>2026-04-03T15:17:48.999Z</time></trkpt><trkpt lat="46.0023641835041" lon="12.019139041708103"><ele>1164.0</ele><time>2026-04-03T15:17:49.999Z</time></trkpt><trkpt lat="46.00243855346506" lon="12.019209204712404"><ele>1164.0</ele><time>2026-04-03T15:17:50.999Z</time></trkpt><trkpt lat="46.00250324866504" lon="12.019271633111178"><ele>1164.0</ele><time>2026-04-03T15:17:51.999Z</time></trkpt><trkpt lat="46.002561145353" lon="12.019351149966878"><ele>1164.0</ele><time>2026-04-03T15:17:52.999Z</time></trkpt><trkpt lat="46.00264229832056" lon="12.019432107084986"><ele>1160.8</ele><time>2026-04-03T15:17:53.999Z</time></trkpt><trkpt lat="46.002731320462345" lon="12.019492185174563"><ele>1157.6000000000001</ele><time>2026-04-03T15:17:54.999Z</time></trkpt><trkpt lat="46.002798364385576" lon="12.019535049693205"><ele>1154.4</ele><time>2026-04-03T15:17:55.999Z</time></trkpt><trkpt lat="46.002898382106245" lon="12.019589760008085"><ele>1151.2</ele><time>2026-04-03T15:17:56.999Z</time></trkpt><trkpt lat="46.00300455117107" lon="12.01963005481515"><ele>1148.0</ele><time>2026-04-03T15:17:57.999Z</time></trkpt><trkpt lat="46.00311886185995" lon="12.019720914327799"><ele>1148.0</ele><time>2026-04-03T15:17:58.999Z</time></trkpt><trkpt lat="46.003232943906674" lon="12.019771378948901"><ele>1148.0</ele><time>2026-04-03T15:17:59.999Z</time></trkpt><trkpt lat="46.00332593367973" lon="12.019863324036903"><ele>1148.0</ele><time>2026-04-03T15:18:00.999Z</time></trkpt><trkpt lat="46.00342322575125" lon="12.019928534652365"><ele>1148.0</ele><time>2026-04-03T15:18:01.999Z</time></trkpt><trkpt lat="46.00351714824215" lon="12.019998854446696"><ele>1148.0</ele><time>2026-04-03T15:18:02.999Z</time></trkpt><trkpt lat="46.00359994674845" lon="12.02010234580595"><ele>1145.2</ele><time>2026-04-03T15:18:03.999Z</time></trkpt><trkpt lat="46.00369320346297" lon="12.020192046795392"><ele>1142.4</ele><time>2026-04-03T15:18:04.999Z</time></trkpt><trkpt lat="46.003781945543416" lon="12.020270907768216"><ele>1139.6000000000001</ele><time>2026-04-03T15:18:05.999Z</time></trkpt><trkpt lat="46.003862626115975" lon="12.0203547636966"><ele>1136.8</ele><time>2026-04-03T15:18:06.999Z</time></trkpt><trkpt lat="46.003940694910604" lon="12.02043951882137"><ele>1134.0</ele><time>2026-04-03T15:18:07.999Z</time></trkpt><trkpt lat="46.004020867574994" lon="12.020524209263012"><ele>1134.0</ele><time>2026-04-03T15:18:08.999Z</time></trkpt><trkpt lat="46.0040829449862" lon="12.020624666776754"><ele>1134.0</ele><time>2026-04-03T15:18:09.999Z</time></trkpt><trkpt lat="46.00415657387252" lon="12.020685497345614"><ele>1134.0</ele><time>2026-04-03T15:18:10.999Z</time></trkpt><trkpt lat="46.00421175264183" lon="12.020748386510759"><ele>1134.0</ele><time>2026-04-03T15:18:11.999Z</time></trkpt><trkpt lat="46.004268139929884" lon="12.020805834167351"><ele>1134.0</ele><time>2026-04-03T15:18:12.999Z</time></trkpt><trkpt lat="46.00432756468407" lon="12.020857317192997"><ele>1134.0</ele><time>2026-04-03T15:18:13.999Z</time></trkpt><trkpt lat="46.00439381955734" lon="12.02090116836047"><ele>1131.0</ele><time>2026-04-03T15:18:14.999Z</time></trkpt><trkpt lat="46.004463550767696" lon="12.02095160792841"><ele>1128.0</ele><time>2026-04-03T15:18:15.999Z</time></trkpt><trkpt lat="46.004535488156975" lon="12.020949600032075"><ele>1125.0</ele><time>2026-04-03T15:18:16.999Z</time></trkpt><trkpt lat="46.00462684269362" lon="12.02097595900278"><ele>1122.0</ele><time>2026-04-03T15:18:17.999Z</time></trkpt><trkpt lat="46.00473213214752" lon="12.020994127597795"><ele>1119.0</ele><time>2026-04-03T15:18:19Z</time></trkpt><trkpt lat="46.00483330507989" lon="12.021006343322933"><ele>1119.0</ele><time>2026-04-03T15:18:20Z</time></trkpt><trkpt lat="46.00494027565959" lon="12.02103179739438"><ele>1119.0</ele><time>2026-04-03T15:18:21Z</time></trkpt><trkpt lat="46.005020780868946" lon="12.021106132734161"><ele>1119.0</ele><time>2026-04-03T15:18:22Z</time></trkpt><trkpt lat="46.00510737990148" lon="12.021177142635205"><ele>1119.0</ele><time>2026-04-03T15:18:23Z</time></trkpt><trkpt lat="46.005198341587054" lon="12.021235950427037"><ele>1119.0</ele><time>2026-04-03T15:18:24Z</time></trkpt><trkpt lat="46.00528333030756" lon="12.021310771044703"><ele>1119.1666666666667</ele><time>2026-04-03T15:18:25Z</time></trkpt><trkpt lat="46.00535797346421" lon="12.021362165302335"><ele>1119.3333333333333</ele><time>2026-04-03T15:18:26Z</time></trkpt><trkpt lat="46.00543388021361" lon="12.021409173404903"><ele>1119.5</ele><time>2026-04-03T15:18:27Z</time></trkpt><trkpt lat="46.005512920397635" lon="12.02143797695238"><ele>1119.6666666666665</ele><time>2026-04-03T15:18:28Z</time></trkpt><trkpt lat="46.00558976788891" lon="12.021479910376652"><ele>1119.8333333333333</ele><time>2026-04-03T15:18:29Z</time></trkpt><trkpt lat="46.00564818133882" lon="12.02155732345727"><ele>1120.0</ele><time>2026-04-03T15:18:30Z</time></trkpt><trkpt lat="46.0057337177269" lon="12.021624726154359"><ele>1117.6</ele><time>2026-04-03T15:18:31Z</time></trkpt><trkpt lat="46.005811148583916" lon="12.02172259240131"><ele>1115.2</ele><time>2026-04-03T15:18:32Z</time></trkpt><trkpt lat="46.00588440323719" lon="12.021806515424224"><ele>1112.8</ele><time>2026-04-03T15:18:33Z</time></trkpt><trkpt lat="46.00596758702515" lon="12.021882388626405"><ele>1110.4</ele><time>2026-04-03T15:18:34Z</time></trkpt><trkpt lat="46.00605035616421" lon="12.021966436073045"><ele>1108.0</ele><time>2026-04-03T15:18:35Z</time></trkpt><trkpt lat="46.00613339295249" lon="12.022018257123603"><ele>1107.8</ele><time>2026-04-03T15:18:36Z</time></trkpt><trkpt lat="46.00620954019886" lon="12.022067962149317"><ele>1107.6</ele><time>2026-04-03T15:18:37Z</time></trkpt><trkpt lat="46.00629646100974" lon="12.022116601044099"><ele>1107.4</ele><time>2026-04-03T15:18:38Z</time></trkpt><trkpt lat="46.00639446972709" lon="12.022149705918817"><ele>1107.2</ele><time>2026-04-03T15:18:39Z</time></trkpt><trkpt lat="46.006491395971636" lon="12.022182084142765"><ele>1107.0</ele><time>2026-04-03T15:18:40Z</time></trkpt><trkpt lat="46.00658966808806" lon="12.022216696467288"><ele>1104.4</ele><time>2026-04-03T15:18:41Z</time></trkpt><trkpt lat="46.006681472418244" lon="12.022254680591189"><ele>1101.8000000000002</ele><time>2026-04-03T15:18:42Z</time></trkpt><trkpt lat="46.00676648701165" lon="12.02229525055608"><ele>1099.2</ele><time>2026-04-03T15:18:43Z</time></trkpt><trkpt lat="46.006852042645555" lon="12.022338242635184"><ele>1096.6000000000001</ele><time>2026-04-03T15:18:44Z</time></trkpt><trkpt lat="46.0069390834546" lon="12.02237766072066"><ele>1094.0</ele><time>2026-04-03T15:18:45Z</time></trkpt><trkpt lat="46.00702116872975" lon="12.02241762280066"><ele>1094.0</ele><time>2026-04-03T15:18:46Z</time></trkpt><trkpt lat="46.007102113054195" lon="12.022464769332103"><ele>1094.0</ele><time>2026-04-03T15:18:47Z</time></trkpt><trkpt lat="46.007180607529534" lon="12.022526026188634"><ele>1094.0</ele><time>2026-04-03T15:18:48Z</time></trkpt><trkpt lat="46.007252808079016" lon="12.022606929204652"><ele>1094.0</ele><time>2026-04-03T15:18:49Z</time></trkpt><trkpt lat="46.00732332123703" lon="12.022695122278671"><ele>1094.0</ele><time>2026-04-03T15:18:50Z</time></trkpt><trkpt lat="46.00739253851676" lon="12.022782398137695"><ele>1092.3333333333335</ele><time>2026-04-03T15:18:51Z</time></trkpt><trkpt lat="46.007462790153625" lon="12.022858987302559"><ele>1090.6666666666667</ele><time>2026-04-03T15:18:52Z</time></trkpt><trkpt lat="46.00753129483843" lon="12.02293810483791"><ele>1089.0</ele><time>2026-04-03T15:18:53Z</time></trkpt><trkpt lat="46.0076162867347" lon="12.022980070973095"><ele>1087.3333333333333</ele><time>2026-04-03T15:18:54Z</time></trkpt><trkpt lat="46.007697205305355" lon="12.02302154114768"><ele>1085.6666666666665</ele><time>2026-04-03T15:18:55Z</time></trkpt><trkpt lat="46.00777713707477" lon="12.023078985783133"><ele>1084.0</ele><time>2026-04-03T15:18:56Z</time></trkpt><trkpt lat="46.007856728673914" lon="12.02311525098699"><ele>1081.8333333333333</ele><time>2026-04-03T15:18:57Z</time></trkpt><trkpt lat="46.00793110544369" lon="12.023122560762323"><ele>1079.6666666666665</ele><time>2026-04-03T15:18:58Z</time></trkpt><trkpt lat="46.008007357268816" lon="12.023170348385598"><ele>1077.5</ele><time>2026-04-03T15:18:59Z</time></trkpt><trkpt lat="46.00808884969305" lon="12.023142482280512"><ele>1075.3333333333333</ele><time>2026-04-03T15:19:00Z</time></trkpt><trkpt lat="46.00816481059143" lon="12.023129305087027"><ele>1073.1666666666667</ele><time>2026-04-03T15:19:01Z</time></trkpt><trkpt lat="46.00824094208392" lon="12.0231029042972"><ele>1071.0</ele><time>2026-04-03T15:19:02Z</time></trkpt><trkpt lat="46.00831659144321" lon="12.023081752918838"><ele>1069.0</ele><time>2026-04-03T15:19:03Z</time></trkpt><trkpt lat="46.00838978697242" lon="12.023063567397674"><ele>1067.0</ele><time>2026-04-03T15:19:04Z</time></trkpt><trkpt lat="46.00845919129154" lon="12.023053827272413"><ele>1065.0</ele><time>2026-04-03T15:19:05Z</time></trkpt><trkpt lat="46.00852591559175" lon="12.023054422907489"><ele>1063.0</ele><time>2026-04-03T15:19:06Z</time></trkpt><trkpt lat="46.008591873129916" lon="12.023101287746176"><ele>1061.0</ele><time>2026-04-03T15:19:07Z</time></trkpt><trkpt lat="46.00865898537284" lon="12.02315104056761"><ele>1059.0</ele><time>2026-04-03T15:19:08Z</time></trkpt><trkpt lat="46.008729867518475" lon="12.023229766047335"><ele>1057.0</ele><time>2026-04-03T15:19:09Z</time></trkpt><trkpt lat="46.00880936620142" lon="12.023328625361414"><ele>1057.0</ele><time>2026-04-03T15:19:10Z</time></trkpt><trkpt lat="46.00888269216854" lon="12.023425365228894"><ele>1057.0</ele><time>2026-04-03T15:19:11Z</time></trkpt><trkpt lat="46.00896672629486" lon="12.023523669381193"><ele>1057.0</ele><time>2026-04-03T15:19:12Z</time></trkpt><trkpt lat="46.00906030605206" lon="12.023634867996506"><ele>1057.0</ele><time>2026-04-03T15:19:13Z</time></trkpt><trkpt lat="46.00913748888165" lon="12.023753213991354"><ele>1057.0</ele><time>2026-04-03T15:19:14Z</time></trkpt><trkpt lat="46.00922329640998" lon="12.0238616148587"><ele>1055.6</ele><time>2026-04-03T15:19:15Z</time></trkpt><trkpt lat="46.00930236144998" lon="12.023966131104533"><ele>1054.2</ele><time>2026-04-03T15:19:16Z</time></trkpt><trkpt lat="46.009385048846234" lon="12.024063800033089"><ele>1052.8</ele><time>2026-04-03T15:19:17Z</time></trkpt><trkpt lat="46.009456647700254" lon="12.024141119915654"><ele>1051.4</ele><time>2026-04-03T15:19:18Z</time></trkpt><trkpt lat="46.00954783751755" lon="12.024215789092567"><ele>1050.0</ele><time>2026-04-03T15:19:19Z</time></trkpt><trkpt lat="46.00965020813748" lon="12.024291052874261"><ele>1050.0</ele><time>2026-04-03T15:19:20Z</time></trkpt><trkpt lat="46.009753084707604" lon="12.02434338572419"><ele>1050.0</ele><time>2026-04-03T15:19:21Z</time></trkpt><trkpt lat="46.009859392400315" lon="12.024383575978597"><ele>1050.0</ele><time>2026-04-03T15:19:22Z</time></trkpt><trkpt lat="46.0099703939354" lon="12.024417773526611"><ele>1050.0</ele><time>2026-04-03T15:19:23Z</time></trkpt><trkpt lat="46.010075890185924" lon="12.024453094008589"><ele>1050.0</ele><time>2026-04-03T15:19:24Z</time></trkpt><trkpt lat="46.01018363172864" lon="12.024510018362491"><ele>1046.8</ele><time>2026-04-03T15:19:25Z</time></trkpt><trkpt lat="46.01029554246986" lon="12.024548001889166"><ele>1043.6</ele><time>2026-04-03T15:19:26Z</time></trkpt><trkpt lat="46.010392369103165" lon="12.024602113197144"><ele>1040.4</ele><time>2026-04-03T15:19:27Z</time></trkpt><trkpt lat="46.01049207616862" lon="12.024620592729246"><ele>1037.2</ele><time>2026-04-03T15:19:28Z</time></trkpt><trkpt lat="46.0105991055995" lon="12.024638824749836"><ele>1034.0</ele><time>2026-04-03T15:19:29Z</time></trkpt><trkpt lat="46.0107029165687" lon="12.02461798450275"><ele>1034.0</ele><time>2026-04-03T15:19:30Z</time></trkpt><trkpt lat="46.01080648429327" lon="12.024583695713767"><ele>1034.0</ele><time>2026-04-03T15:19:30.999Z</time></trkpt><trkpt lat="46.010912340490954" lon="12.024541048660012"><ele>1034.0</ele><time>2026-04-03T15:19:31.999Z</time></trkpt><trkpt lat="46.01101127878262" lon="12.02450418430393"><ele>1034.0</ele><time>2026-04-03T15:19:32.999Z</time></trkpt><trkpt lat="46.01110704475371" lon="12.0244734698701"><ele>1034.0</ele><time>2026-04-03T15:19:33.999Z</time></trkpt><trkpt lat="46.011195464849564" lon="12.024438678669629"><ele>1029.8333333333335</ele><time>2026-04-03T15:19:34.999Z</time></trkpt><trkpt lat="46.01126538777476" lon="12.024417665825693"><ele>1025.6666666666667</ele><time>2026-04-03T15:19:35.999Z</time></trkpt><trkpt lat="46.01134797365563" lon="12.024394352780806"><ele>1021.5</ele><time>2026-04-03T15:19:36.999Z</time></trkpt><trkpt lat="46.01141830348892" lon="12.024382603520003"><ele>1017.3333333333333</ele><time>2026-04-03T15:19:37.999Z</time></trkpt><trkpt lat="46.01151043647395" lon="12.02440109235132"><ele>1013.1666666666666</ele><time>2026-04-03T15:19:38.999Z</time></trkpt><trkpt lat="46.01160874687625" lon="12.024444190554432"><ele>1009.0</ele><time>2026-04-03T15:19:39.999Z</time></trkpt><trkpt lat="46.01170285042135" lon="12.024484481408312"><ele>1007.0</ele><time>2026-04-03T15:19:40.999Z</time></trkpt><trkpt lat="46.01180226011796" lon="12.0245205863913"><ele>1005.0000000000001</ele><time>2026-04-03T15:19:41.999Z</time></trkpt><trkpt lat="46.011904793106886" lon="12.024553654688637"><ele>1003.0000000000001</ele><time>2026-04-03T15:19:42.999Z</time></trkpt><trkpt lat="46.01201420964452" lon="12.024600407181913"><ele>1001.0</ele><time>2026-04-03T15:19:43.999Z</time></trkpt><trkpt lat="46.0121089927682" lon="12.024642922090552"><ele>999.0</ele><time>2026-04-03T15:19:44.999Z</time></trkpt><trkpt lat="46.01220204039391" lon="12.024673209275237"><ele>999.0</ele><time>2026-04-03T15:19:45.999Z</time></trkpt><trkpt lat="46.01227912223354" lon="12.024703181556415"><ele>999.0000000000001</ele><time>2026-04-03T15:19:46.999Z</time></trkpt><trkpt lat="46.01235444876406" lon="12.024736240496884"><ele>999.0</ele><time>2026-04-03T15:19:47.999Z</time></trkpt><trkpt lat="46.01242042950869" lon="12.024772541986886"><ele>999.0</ele><time>2026-04-03T15:19:48.999Z</time></trkpt><trkpt lat="46.01247533632485" lon="12.024826247032507"><ele>999.0000000000001</ele><time>2026-04-03T15:19:49.999Z</time></trkpt><trkpt lat="46.01251237698075" lon="12.024902787912291"><ele>999.0</ele><time>2026-04-03T15:19:50.999Z</time></trkpt><trkpt lat="46.01255193814742" lon="12.025005872201998"><ele>999.0</ele><time>2026-04-03T15:19:51.999Z</time></trkpt><trkpt lat="46.01260114906882" lon="12.025113560282776"><ele>998.1666666666666</ele><time>2026-04-03T15:19:52.999Z</time></trkpt><trkpt lat="46.01265022657163" lon="12.02520999806141"><ele>997.3333333333333</ele><time>2026-04-03T15:19:53.999Z</time></trkpt><trkpt lat="46.012718291369296" lon="12.025297370302518"><ele>996.5</ele><time>2026-04-03T15:19:54.999Z</time></trkpt><trkpt lat="46.01279580614736" lon="12.025365820596582"><ele>995.6666666666666</ele><time>2026-04-03T15:19:55.999Z</time></trkpt><trkpt lat="46.0128762938291" lon="12.025405113755014"><ele>994.8333333333333</ele><time>2026-04-03T15:19:56.999Z</time></trkpt><trkpt lat="46.01296436346279" lon="12.025435411390589"><ele>994.0</ele><time>2026-04-03T15:19:57.999Z</time></trkpt><trkpt lat="46.01305215689085" lon="12.025469745104557"><ele>994.0</ele><time>2026-04-03T15:19:58.999Z</time></trkpt><trkpt lat="46.01313758180926" lon="12.025502158848633"><ele>994.0000000000001</ele><time>2026-04-03T15:19:59.999Z</time></trkpt><trkpt lat="46.01321471400248" lon="12.025559701395949"><ele>994.0000000000001</ele><time>2026-04-03T15:20:00.999Z</time></trkpt><trkpt lat="46.01328812379154" lon="12.025602470775874"><ele>994.0</ele><time>2026-04-03T15:20:01.999Z</time></trkpt><trkpt lat="46.01335913554886" lon="12.025684222353522"><ele>994.0</ele><time>2026-04-03T15:20:02.999Z</time></trkpt><trkpt lat="46.01342773280532" lon="12.02580034882914"><ele>991.4000000000001</ele><time>2026-04-03T15:20:03.999Z</time></trkpt><trkpt lat="46.01348855057766" lon="12.025927004727986"><ele>988.8000000000001</ele><time>2026-04-03T15:20:04.999Z</time></trkpt><trkpt lat="46.01352642936713" lon="12.026070584631723"><ele>986.1999999999999</ele><time>2026-04-03T15:20:05.999Z</time></trkpt><trkpt lat="46.01356980770187" lon="12.026203567953708"><ele>983.5999999999999</ele><time>2026-04-03T15:20:06.999Z</time></trkpt><trkpt lat="46.01361866958856" lon="12.02633160214244"><ele>981.0</ele><time>2026-04-03T15:20:07.999Z</time></trkpt><trkpt lat="46.01365300448301" lon="12.02647098013728"><ele>981.0</ele><time>2026-04-03T15:20:08.999Z</time></trkpt><trkpt lat="46.01366783899215" lon="12.026606696603903"><ele>980.9999999999999</ele><time>2026-04-03T15:20:09.999Z</time></trkpt><trkpt lat="46.013711306357095" lon="12.026726129274326"><ele>980.9999999999999</ele><time>2026-04-03T15:20:10.999Z</time></trkpt><trkpt lat="46.01377201116365" lon="12.026832467113277"><ele>981.0</ele><time>2026-04-03T15:20:11.999Z</time></trkpt><trkpt lat="46.01383586628097" lon="12.026934877856466"><ele>981.0</ele><time>2026-04-03T15:20:12.999Z</time></trkpt><trkpt lat="46.01389973256499" lon="12.02704390928075"><ele>981.8</ele><time>2026-04-03T15:20:13.999Z</time></trkpt><trkpt lat="46.01396581061565" lon="12.02713692679868"><ele>982.5999999999999</ele><time>2026-04-03T15:20:14.999Z</time></trkpt><trkpt lat="46.014034566972875" lon="12.02726034733995"><ele>983.4</ele><time>2026-04-03T15:20:15.999Z</time></trkpt><trkpt lat="46.01409086145314" lon="12.027383360295286"><ele>984.2</ele><time>2026-04-03T15:20:16.999Z</time></trkpt><trkpt lat="46.01415658836146" lon="12.02750621916943"><ele>985.0</ele><time>2026-04-03T15:20:17.999Z</time></trkpt><trkpt lat="46.014218738423715" lon="12.027631209820425"><ele>977.4</ele><time>2026-04-03T15:20:18.999Z</time></trkpt><trkpt lat="46.01427266257057" lon="12.027751979089796"><ele>969.8</ele><time>2026-04-03T15:20:19.999Z</time></trkpt><trkpt lat="46.014334902019414" lon="12.027874808503059"><ele>962.2</ele><time>2026-04-03T15:20:20.999Z</time></trkpt><trkpt lat="46.014395809027896" lon="12.027992028947335"><ele>954.6</ele><time>2026-04-03T15:20:21.999Z</time></trkpt><trkpt lat="46.01445039387569" lon="12.028111021990519"><ele>947.0</ele><time>2026-04-03T15:20:22.999Z</time></trkpt><trkpt lat="46.01450687401525" lon="12.028226527503435"><ele>946.1666666666667</ele><time>2026-04-03T15:20:23.999Z</time></trkpt><trkpt lat="46.01455754437024" lon="12.028331204324365"><ele>945.3333333333334</ele><time>2026-04-03T15:20:25Z</time></trkpt><trkpt lat="46.01460946646849" lon="12.028431391951221"><ele>944.5</ele><time>2026-04-03T15:20:26Z</time></trkpt><trkpt lat="46.014652327958956" lon="12.028520601767259"><ele>943.6666666666667</ele><time>2026-04-03T15:20:27Z</time></trkpt><trkpt lat="46.01467402265032" lon="12.028615098373663"><ele>942.8333333333334</ele><time>2026-04-03T15:20:28Z</time></trkpt><trkpt lat="46.01470032807954" lon="12.028705127928749"><ele>942.0</ele><time>2026-04-03T15:20:29Z</time></trkpt><trkpt lat="46.01472976480374" lon="12.02879204557251"><ele>942.0</ele><time>2026-04-03T15:20:30Z</time></trkpt><trkpt lat="46.01470781814056" lon="12.028897611734653"><ele>942.0</ele><time>2026-04-03T15:20:31Z</time></trkpt><trkpt lat="46.01470092659866" lon="12.029009039694031"><ele>942.0</ele><time>2026-04-03T15:20:32Z</time></trkpt><trkpt lat="46.01471115387046" lon="12.029118618252252"><ele>942.0</ele><time>2026-04-03T15:20:33Z</time></trkpt><trkpt lat="46.01470391691455" lon="12.029227013916588"><ele>942.0</ele><time>2026-04-03T15:20:34Z</time></trkpt><trkpt lat="46.0147246599563" lon="12.029345680838087"><ele>942.0</ele><time>2026-04-03T15:20:35Z</time></trkpt><trkpt lat="46.01477256287838" lon="12.029471069900415"><ele>940.1666666666666</ele><time>2026-04-03T15:20:36Z</time></trkpt><trkpt lat="46.014816040585025" lon="12.029580256048902"><ele>938.3333333333333</ele><time>2026-04-03T15:20:37Z</time></trkpt><trkpt lat="46.01487044248289" lon="12.029692900822425"><ele>936.5</ele><time>2026-04-03T15:20:38Z</time></trkpt><trkpt lat="46.01493103367981" lon="12.029795893207805"><ele>934.6666666666666</ele><time>2026-04-03T15:20:39Z</time></trkpt><trkpt lat="46.01499113633818" lon="12.029884300474167"><ele>932.8333333333333</ele><time>2026-04-03T15:20:40Z</time></trkpt><trkpt lat="46.01505172879142" lon="12.029966056443808"><ele>931.0</ele><time>2026-04-03T15:20:41Z</time></trkpt><trkpt lat="46.01512675146219" lon="12.030025501997507"><ele>928.8571428571429</ele><time>2026-04-03T15:20:42Z</time></trkpt><trkpt lat="46.01517732330025" lon="12.030088676756042"><ele>926.7142857142858</ele><time>2026-04-03T15:20:43Z</time></trkpt><trkpt lat="46.01523488809488" lon="12.030140552877427"><ele>924.5714285714286</ele><time>2026-04-03T15:20:44Z</time></trkpt><trkpt lat="46.015295299105304" lon="12.030185109192415"><ele>922.4285714285714</ele><time>2026-04-03T15:20:45Z</time></trkpt><trkpt lat="46.01535919458897" lon="12.030225893178777"><ele>920.2857142857143</ele><time>2026-04-03T15:20:46Z</time></trkpt><trkpt lat="46.01542550935951" lon="12.030249454942465"><ele>918.1428571428571</ele><time>2026-04-03T15:20:47Z</time></trkpt><trkpt lat="46.0155132342292" lon="12.030253688627598"><ele>916.0</ele><time>2026-04-03T15:20:48Z</time></trkpt><trkpt lat="46.015592589649756" lon="12.030241179709966"><ele>915.9999999999999</ele><time>2026-04-03T15:20:49Z</time></trkpt><trkpt lat="46.01567138111686" lon="12.030209244416938"><ele>916.0</ele><time>2026-04-03T15:20:50Z</time></trkpt><trkpt lat="46.0157364213125" lon="12.030159557197914"><ele>916.0</ele><time>2026-04-03T15:20:51Z</time></trkpt><trkpt lat="46.01578569748842" lon="12.030098749789545"><ele>916.0</ele><time>2026-04-03T15:20:52Z</time></trkpt><trkpt lat="46.015831732212966" lon="12.029941759678072"><ele>915.9999999999999</ele><time>2026-04-03T15:20:54Z</time></trkpt><trkpt lat="46.01583442834894" lon="12.029828082608404"><ele>916.0</ele><time>2026-04-03T15:20:55Z</time></trkpt><trkpt lat="46.01581516973317" lon="12.029702333204904"><ele>917.4</ele><time>2026-04-03T15:20:56Z</time></trkpt><trkpt lat="46.01577569680089" lon="12.029559044844664"><ele>918.8</ele><time>2026-04-03T15:20:57Z</time></trkpt><trkpt lat="46.015732036095635" lon="12.029432011083362"><ele>920.1999999999999</ele><time>2026-04-03T15:20:58Z</time></trkpt><trkpt lat="46.0156960071953" lon="12.029318753828765"><ele>921.5999999999999</ele><time>2026-04-03T15:20:59Z</time></trkpt><trkpt lat="46.015660960823695" lon="12.029226155828777"><ele>923.0</ele><time>2026-04-03T15:21:00Z</time></trkpt><trkpt lat="46.015637414310845" lon="12.029070093298538"><ele>923.8</ele><time>2026-04-03T15:21:02Z</time></trkpt><trkpt lat="46.015690361410755" lon="12.028912728402254"><ele>924.5999999999999</ele><time>2026-04-03T15:21:04Z</time></trkpt><trkpt lat="46.01581287699423" lon="12.02886371522716"><ele>925.4000000000001</ele><time>2026-04-03T15:21:06Z</time></trkpt><trkpt lat="46.0158788040704" lon="12.028922600323597"><ele>926.2</ele><time>2026-04-03T15:21:07Z</time></trkpt><trkpt lat="46.01589328710043" lon="12.029027445998448"><ele>927.0</ele><time>2026-04-03T15:21:08Z</time></trkpt><trkpt lat="46.015909829376874" lon="12.029141660856265"><ele>922.2</ele><time>2026-04-03T15:21:09Z</time></trkpt><trkpt lat="46.0159658031491" lon="12.029299507591952"><ele>917.4000000000001</ele><time>2026-04-03T15:21:10Z</time></trkpt><trkpt lat="46.015992831445445" lon="12.029441279665253"><ele>912.5999999999999</ele><time>2026-04-03T15:21:11Z</time></trkpt><trkpt lat="46.0160256064741" lon="12.02956248401346"><ele>907.8</ele><time>2026-04-03T15:21:12Z</time></trkpt><trkpt lat="46.01606616036194" lon="12.029694862196264"><ele>903.0</ele><time>2026-04-03T15:21:13Z</time></trkpt><trkpt lat="46.01612038633153" lon="12.029834543783053"><ele>903.0</ele><time>2026-04-03T15:21:14Z</time></trkpt><trkpt lat="46.016176410722245" lon="12.029956822107644"><ele>903.0</ele><time>2026-04-03T15:21:15Z</time></trkpt><trkpt lat="46.01624247201577" lon="12.030063924579705"><ele>903.0</ele><time>2026-04-03T15:21:16Z</time></trkpt><trkpt lat="46.016316542077426" lon="12.030162110399806"><ele>903.0</ele><time>2026-04-03T15:21:17Z</time></trkpt><trkpt lat="46.01638252571912" lon="12.03028864491474"><ele>903.0</ele><time>2026-04-03T15:21:18Z</time></trkpt><trkpt lat="46.01644767303737" lon="12.030379403213892"><ele>903.0</ele><time>2026-04-03T15:21:19Z</time></trkpt><trkpt lat="46.016499393902556" lon="12.030461968432013"><ele>903.0</ele><time>2026-04-03T15:21:20Z</time></trkpt><trkpt lat="46.01653605499291" lon="12.030539071930868"><ele>903.0</ele><time>2026-04-03T15:21:21Z</time></trkpt><trkpt lat="46.01659380704689" lon="12.030592376677792"><ele>903.0</ele><time>2026-04-03T15:21:22Z</time></trkpt><trkpt lat="46.0166570508352" lon="12.03063652073601"><ele>903.0</ele><time>2026-04-03T15:21:23Z</time></trkpt><trkpt lat="46.016733468280144" lon="12.030650077477882"><ele>903.0</ele><time>2026-04-03T15:21:24Z</time></trkpt><trkpt lat="46.01684336762124" lon="12.030548162634293"><ele>898.4</ele><time>2026-04-03T15:21:26Z</time></trkpt><trkpt lat="46.0168902954457" lon="12.030451237298383"><ele>893.8</ele><time>2026-04-03T15:21:27Z</time></trkpt><trkpt lat="46.01691524336159" lon="12.030298879657753"><ele>889.2</ele><time>2026-04-03T15:21:28Z</time></trkpt><trkpt lat="46.01693118982556" lon="12.030141733923873"><ele>884.6</ele><time>2026-04-03T15:21:29Z</time></trkpt><trkpt lat="46.01694726644307" lon="12.030011744794859"><ele>880.0</ele><time>2026-04-03T15:21:30Z</time></trkpt><trkpt lat="46.016967948594434" lon="12.02988628029331"><ele>879.8333333333333</ele><time>2026-04-03T15:21:31Z</time></trkpt><trkpt lat="46.01698542777835" lon="12.029747439015289"><ele>879.6666666666666</ele><time>2026-04-03T15:21:32Z</time></trkpt><trkpt lat="46.01698205825176" lon="12.029622267950995"><ele>879.5</ele><time>2026-04-03T15:21:33Z</time></trkpt><trkpt lat="46.01695707281219" lon="12.029490533266365"><ele>879.3333333333333</ele><time>2026-04-03T15:21:34Z</time></trkpt><trkpt lat="46.01693008786056" lon="12.029371425404232"><ele>879.1666666666666</ele><time>2026-04-03T15:21:35Z</time></trkpt><trkpt lat="46.016889422076176" lon="12.029274277639258"><ele>879.0</ele><time>2026-04-03T15:21:36Z</time></trkpt><trkpt lat="46.016858384730604" lon="12.029190685824958"><ele>878.0</ele><time>2026-04-03T15:21:37Z</time></trkpt><trkpt lat="46.01682885080058" lon="12.029031626567912"><ele>877.0000000000001</ele><time>2026-04-03T15:21:38.999Z</time></trkpt><trkpt lat="46.01686480393284" lon="12.028858771058937"><ele>876.0000000000001</ele><time>2026-04-03T15:21:40.999Z</time></trkpt><trkpt lat="46.016916531077676" lon="12.028783161830036"><ele>875.0</ele><time>2026-04-03T15:21:41.999Z</time></trkpt><trkpt lat="46.0169865657872" lon="12.02873885924846"><ele>874.0</ele><time>2026-04-03T15:21:42.999Z</time></trkpt><trkpt lat="46.017069658278686" lon="12.028717967291621"><ele>874.0</ele><time>2026-04-03T15:21:43.999Z</time></trkpt><trkpt lat="46.01717252110649" lon="12.028701897934445"><ele>874.0000000000001</ele><time>2026-04-03T15:21:44.999Z</time></trkpt><trkpt lat="46.01727861352212" lon="12.028693563358383"><ele>874.0000000000001</ele><time>2026-04-03T15:21:45.999Z</time></trkpt><trkpt lat="46.017379051778654" lon="12.028685260474662"><ele>874.0</ele><time>2026-04-03T15:21:46.999Z</time></trkpt><trkpt lat="46.017467167744755" lon="12.028665126808061"><ele>874.0</ele><time>2026-04-03T15:21:47.999Z</time></trkpt><trkpt lat="46.01754274055382" lon="12.028619393860795"><ele>871.6</ele><time>2026-04-03T15:21:48.999Z</time></trkpt><trkpt lat="46.01760579508557" lon="12.028541844785742"><ele>869.2</ele><time>2026-04-03T15:21:49.999Z</time></trkpt><trkpt lat="46.0176534499461" lon="12.028449049530973"><ele>866.8000000000001</ele><time>2026-04-03T15:21:50.999Z</time></trkpt><trkpt lat="46.01768494953199" lon="12.028326478307234"><ele>864.4000000000001</ele><time>2026-04-03T15:21:51.999Z</time></trkpt><trkpt lat="46.01768444325272" lon="12.028192902017965"><ele>862.0</ele><time>2026-04-03T15:21:52.999Z</time></trkpt><trkpt lat="46.01768880390936" lon="12.028016720879611"><ele>862.0</ele><time>2026-04-03T15:21:53.999Z</time></trkpt><trkpt lat="46.01769166994901" lon="12.027831255352922"><ele>862.0</ele><time>2026-04-03T15:21:54.999Z</time></trkpt><trkpt lat="46.01769013197671" lon="12.027668916303572"><ele>862.0</ele><time>2026-04-03T15:21:55.999Z</time></trkpt><trkpt lat="46.017693372748795" lon="12.027529231404575"><ele>862.0</ele><time>2026-04-03T15:21:56.999Z</time></trkpt><trkpt lat="46.017687263317505" lon="12.027380861207803"><ele>862.0</ele><time>2026-04-03T15:21:57.999Z</time></trkpt><trkpt lat="46.01769744883945" lon="12.027247343322776"><ele>861.1666666666666</ele><time>2026-04-03T15:21:58.999Z</time></trkpt><trkpt lat="46.01769650917788" lon="12.027118558125164"><ele>860.3333333333333</ele><time>2026-04-03T15:21:59.999Z</time></trkpt><trkpt lat="46.01770109664767" lon="12.026992161956143"><ele>859.5</ele><time>2026-04-03T15:22:00.999Z</time></trkpt><trkpt lat="46.01770167904481" lon="12.026870580816349"><ele>858.6666666666667</ele><time>2026-04-03T15:22:01.999Z</time></trkpt><trkpt lat="46.01771280214503" lon="12.026761532995602"><ele>857.8333333333334</ele><time>2026-04-03T15:22:02.999Z</time></trkpt><trkpt lat="46.01775583365012" lon="12.02667469110604"><ele>857.0</ele><time>2026-04-03T15:22:03.999Z</time></trkpt><trkpt lat="46.017814441213595" lon="12.026608823322231"><ele>857.0000000000001</ele><time>2026-04-03T15:22:04.999Z</time></trkpt><trkpt lat="46.01788598914024" lon="12.026591266572012"><ele>857.0</ele><time>2026-04-03T15:22:05.999Z</time></trkpt><trkpt lat="46.01796287280261" lon="12.026655727881524"><ele>857.0</ele><time>2026-04-03T15:22:06.999Z</time></trkpt><trkpt lat="46.018024556993055" lon="12.02674096609229"><ele>857.0</ele><time>2026-04-03T15:22:07.999Z</time></trkpt><trkpt lat="46.01807845854878" lon="12.026825830287462"><ele>857.0000000000001</ele><time>2026-04-03T15:22:08.999Z</time></trkpt><trkpt lat="46.01815818042394" lon="12.026930979417191"><ele>857.0</ele><time>2026-04-03T15:22:09.999Z</time></trkpt><trkpt lat="46.01822455096377" lon="12.026989315823043"><ele>857.0000000000001</ele><time>2026-04-03T15:22:10.999Z</time></trkpt><trkpt lat="46.01829536833115" lon="12.027017356287304"><ele>857.0</ele><time>2026-04-03T15:22:11.999Z</time></trkpt><trkpt lat="46.01836581327222" lon="12.027008613344861"><ele>857.0</ele><time>2026-04-03T15:22:12.999Z</time></trkpt><trkpt lat="46.018425656833436" lon="12.026932423455133"><ele>857.0</ele><time>2026-04-03T15:22:13.999Z</time></trkpt><trkpt lat="46.01846474323307" lon="12.026831916378637"><ele>857.0000000000001</ele><time>2026-04-03T15:22:14.999Z</time></trkpt><trkpt lat="46.01847288088026" lon="12.02670494072778"><ele>857.0</ele><time>2026-04-03T15:22:15.999Z</time></trkpt><trkpt lat="46.01846113872752" lon="12.026526435877726"><ele>850.75</ele><time>2026-04-03T15:22:16.999Z</time></trkpt><trkpt lat="46.01844986385948" lon="12.026332432637108"><ele>844.5</ele><time>2026-04-03T15:22:17.999Z</time></trkpt><trkpt lat="46.01845074104187" lon="12.026158039768998"><ele>838.25</ele><time>2026-04-03T15:22:18.999Z</time></trkpt><trkpt lat="46.01844155725694" lon="12.025990604369058"><ele>832.0</ele><time>2026-04-03T15:22:19.999Z</time></trkpt><trkpt lat="46.01843551404273" lon="12.025797589598321"><ele>831.0</ele><time>2026-04-03T15:22:20.999Z</time></trkpt><trkpt lat="46.01841642898158" lon="12.025646849570615"><ele>830.0</ele><time>2026-04-03T15:22:21.999Z</time></trkpt><trkpt lat="46.018429585000696" lon="12.025473100798175"><ele>829.0</ele><time>2026-04-03T15:22:22.999Z</time></trkpt><trkpt lat="46.01841959230975" lon="12.025296924416775"><ele>828.0</ele><time>2026-04-03T15:22:23.999Z</time></trkpt><trkpt lat="46.018427017255966" lon="12.02514216846396"><ele>828.0</ele><time>2026-04-03T15:22:24.999Z</time></trkpt><trkpt lat="46.018429162116284" lon="12.024988944046255"><ele>828.0</ele><time>2026-04-03T15:22:25.999Z</time></trkpt><trkpt lat="46.018428314797006" lon="12.0248268322808"><ele>828.0</ele><time>2026-04-03T15:22:26.999Z</time></trkpt><trkpt lat="46.01843346903872" lon="12.024672946667232"><ele>828.0</ele><time>2026-04-03T15:22:27.999Z</time></trkpt><trkpt lat="46.01843258227546" lon="12.02451958547571"><ele>828.0</ele><time>2026-04-03T15:22:28.999Z</time></trkpt><trkpt lat="46.018446052517334" lon="12.024360788139536"><ele>826.2</ele><time>2026-04-03T15:22:29.999Z</time></trkpt><trkpt lat="46.01844252402908" lon="12.024222950354295"><ele>824.4</ele><time>2026-04-03T15:22:31Z</time></trkpt><trkpt lat="46.01845222626106" lon="12.024077167888942"><ele>822.6</ele><time>2026-04-03T15:22:32Z</time></trkpt><trkpt lat="46.018459943921854" lon="12.023930565497608"><ele>820.8000000000001</ele><time>2026-04-03T15:22:33Z</time></trkpt><trkpt lat="46.01846457644579" lon="12.02378890502118"><ele>819.0</ele><time>2026-04-03T15:22:34Z</time></trkpt><trkpt lat="46.01849450907689" lon="12.02362601223383"><ele>816.8333333333334</ele><time>2026-04-03T15:22:35Z</time></trkpt><trkpt lat="46.018483379138644" lon="12.02350762715376"><ele>814.6666666666667</ele><time>2026-04-03T15:22:36Z</time></trkpt><trkpt lat="46.018483121023834" lon="12.023390617755368"><ele>812.5</ele><time>2026-04-03T15:22:37Z</time></trkpt><trkpt lat="46.01849240917835" lon="12.023289458421102"><ele>810.3333333333334</ele><time>2026-04-03T15:22:38Z</time></trkpt><trkpt lat="46.01849831614139" lon="12.023191340483402"><ele>808.1666666666667</ele><time>2026-04-03T15:22:39Z</time></trkpt><trkpt lat="46.01854673212617" lon="12.023017158739249"><ele>806.0</ele><time>2026-04-03T15:22:41Z</time></trkpt><trkpt lat="46.01860733185951" lon="12.022961731450762"><ele>806.0000000000001</ele><time>2026-04-03T15:22:42Z</time></trkpt><trkpt lat="46.01868372367048" lon="12.02294185128019"><ele>806.0</ele><time>2026-04-03T15:22:43Z</time></trkpt><trkpt lat="46.0187562707001" lon="12.022945860510642"><ele>806.0</ele><time>2026-04-03T15:22:44Z</time></trkpt><trkpt lat="46.01885903455153" lon="12.023046624198901"><ele>806.0</ele><time>2026-04-03T15:22:46Z</time></trkpt><trkpt lat="46.018905963739044" lon="12.023147629655336"><ele>806.0000000000001</ele><time>2026-04-03T15:22:47Z</time></trkpt><trkpt lat="46.01895176563664" lon="12.02325617001807"><ele>806.0</ele><time>2026-04-03T15:22:48Z</time></trkpt><trkpt lat="46.01900174887096" lon="12.023346089041492"><ele>806.0000000000001</ele><time>2026-04-03T15:22:49Z</time></trkpt><trkpt lat="46.01905367322097" lon="12.023408853178163"><ele>806.0</ele><time>2026-04-03T15:22:50Z</time></trkpt><trkpt lat="46.01912313434266" lon="12.02341881582392"><ele>806.0</ele><time>2026-04-03T15:22:51Z</time></trkpt><trkpt lat="46.01920947300025" lon="12.023396801671387"><ele>806.0</ele><time>2026-04-03T15:22:52Z</time></trkpt><trkpt lat="46.01931489978511" lon="12.023363537270733"><ele>806.0000000000001</ele><time>2026-04-03T15:22:53Z</time></trkpt><trkpt lat="46.01942777255408" lon="12.023339164252636"><ele>806.0</ele><time>2026-04-03T15:22:54Z</time></trkpt><trkpt lat="46.01954002048299" lon="12.023345831649205"><ele>803.4</ele><time>2026-04-03T15:22:55Z</time></trkpt><trkpt lat="46.01964407114527" lon="12.023321780768477"><ele>800.8</ele><time>2026-04-03T15:22:56Z</time></trkpt><trkpt lat="46.01975233699699" lon="12.023314718897586"><ele>798.1999999999999</ele><time>2026-04-03T15:22:57Z</time></trkpt><trkpt lat="46.019855237086325" lon="12.023306988943231"><ele>795.5999999999999</ele><time>2026-04-03T15:22:58Z</time></trkpt><trkpt lat="46.01994958987201" lon="12.023280979359802"><ele>793.0</ele><time>2026-04-03T15:22:59Z</time></trkpt><trkpt lat="46.02004365299993" lon="12.023272045228882"><ele>789.8</ele><time>2026-04-03T15:23:00Z</time></trkpt><trkpt lat="46.02013179238402" lon="12.023280056763536"><ele>786.5999999999999</ele><time>2026-04-03T15:23:01Z</time></trkpt><trkpt lat="46.02020917546968" lon="12.023261224329401"><ele>783.4000000000001</ele><time>2026-04-03T15:23:02Z</time></trkpt><trkpt lat="46.02029249522466" lon="12.023256834876047"><ele>780.2</ele><time>2026-04-03T15:23:03Z</time></trkpt><trkpt lat="46.020361877868844" lon="12.023266164772979"><ele>777.0</ele><time>2026-04-03T15:23:04Z</time></trkpt><trkpt lat="46.0205017818897" lon="12.023389717383566"><ele>777.0</ele><time>2026-04-03T15:23:06Z</time></trkpt><trkpt lat="46.02057075415235" lon="12.023444661179918"><ele>777.0</ele><time>2026-04-03T15:23:07Z</time></trkpt><trkpt lat="46.02065964054534" lon="12.023533317816675"><ele>777.0</ele><time>2026-04-03T15:23:08Z</time></trkpt><trkpt lat="46.020752647645956" lon="12.023623311693727"><ele>777.0</ele><time>2026-04-03T15:23:09Z</time></trkpt><trkpt lat="46.02084279775614" lon="12.02369192524602"><ele>777.0</ele><time>2026-04-03T15:23:10Z</time></trkpt><trkpt lat="46.02092816840591" lon="12.023771030047461"><ele>772.2</ele><time>2026-04-03T15:23:11Z</time></trkpt><trkpt lat="46.02101425906773" lon="12.023832631828782"><ele>767.4000000000001</ele><time>2026-04-03T15:23:12Z</time></trkpt><trkpt lat="46.02110417934445" lon="12.023882156665822"><ele>762.5999999999999</ele><time>2026-04-03T15:23:13Z</time></trkpt><trkpt lat="46.02119520003117" lon="12.023931350302213"><ele>757.8</ele><time>2026-04-03T15:23:14Z</time></trkpt><trkpt lat="46.021288274126825" lon="12.023982740072691"><ele>753.0</ele><time>2026-04-03T15:23:15Z</time></trkpt><trkpt lat="46.021378838680825" lon="12.024033287760808"><ele>753.0</ele><time>2026-04-03T15:23:16Z</time></trkpt><trkpt lat="46.02146739960662" lon="12.024084889031391"><ele>753.0</ele><time>2026-04-03T15:23:17Z</time></trkpt><trkpt lat="46.02154864645735" lon="12.024130741523596"><ele>753.0</ele><time>2026-04-03T15:23:18Z</time></trkpt><trkpt lat="46.02161869818115" lon="12.02417388935946"><ele>753.0</ele><time>2026-04-03T15:23:19Z</time></trkpt><trkpt lat="46.02167847802424" lon="12.024219208361997"><ele>753.0</ele><time>2026-04-03T15:23:20Z</time></trkpt><trkpt lat="46.02172847428429" lon="12.02430491570353"><ele>753.0</ele><time>2026-04-03T15:23:21Z</time></trkpt><trkpt lat="46.021792655131726" lon="12.024398678549074"><ele>750.5999999999999</ele><time>2026-04-03T15:23:22Z</time></trkpt><trkpt lat="46.02185291104993" lon="12.024513288239486"><ele>748.1999999999999</ele><time>2026-04-03T15:23:23Z</time></trkpt><trkpt lat="46.0219154390015" lon="12.024635591841708"><ele>745.8</ele><time>2026-04-03T15:23:24Z</time></trkpt><trkpt lat="46.02197427773469" lon="12.024747516235347"><ele>743.4</ele><time>2026-04-03T15:23:25Z</time></trkpt><trkpt lat="46.02202987174609" lon="12.024853083488974"><ele>741.0</ele><time>2026-04-03T15:23:26Z</time></trkpt><trkpt lat="46.02209692030452" lon="12.02494667952253"><ele>740.8333333333334</ele><time>2026-04-03T15:23:27Z</time></trkpt><trkpt lat="46.02214386687092" lon="12.025026858505617"><ele>740.6666666666666</ele><time>2026-04-03T15:23:28Z</time></trkpt><trkpt lat="46.022219863381544" lon="12.02508522327297"><ele>740.5</ele><time>2026-04-03T15:23:29Z</time></trkpt><trkpt lat="46.02230716051432" lon="12.025096694216135"><ele>740.3333333333333</ele><time>2026-04-03T15:23:30Z</time></trkpt><trkpt lat="46.02240007360162" lon="12.025080739896568"><ele>740.1666666666666</ele><time>2026-04-03T15:23:31Z</time></trkpt><trkpt lat="46.022476010819744" lon="12.025064970155086"><ele>740.0</ele><time>2026-04-03T15:23:32Z</time></trkpt><trkpt lat="46.02255497119488" lon="12.025085612200044"><ele>738.5</ele><time>2026-04-03T15:23:33Z</time></trkpt><trkpt lat="46.022618258334134" lon="12.02511751170551"><ele>737.0</ele><time>2026-04-03T15:23:34Z</time></trkpt><trkpt lat="46.022680241540066" lon="12.025168566684318"><ele>735.5</ele><time>2026-04-03T15:23:35Z</time></trkpt><trkpt lat="46.02271887460171" lon="12.025254557894256"><ele>734.0</ele><time>2026-04-03T15:23:36Z</time></trkpt><trkpt lat="46.022750237417334" lon="12.025390879436333"><ele>732.5</ele><time>2026-04-03T15:23:37Z</time></trkpt><trkpt lat="46.022798223459944" lon="12.02556608338827"><ele>731.0</ele><time>2026-04-03T15:23:38Z</time></trkpt><trkpt lat="46.022848598858765" lon="12.025746205522951"><ele>731.1999999999999</ele><time>2026-04-03T15:23:39Z</time></trkpt><trkpt lat="46.02289060956408" lon="12.025906154083346"><ele>731.4</ele><time>2026-04-03T15:23:40Z</time></trkpt><trkpt lat="46.022928943350365" lon="12.026056504796049"><ele>731.6</ele><time>2026-04-03T15:23:41Z</time></trkpt><trkpt lat="46.02296572552767" lon="12.026205140019162"><ele>731.8</ele><time>2026-04-03T15:23:42Z</time></trkpt><trkpt lat="46.022998853174684" lon="12.026341807584568"><ele>732.0</ele><time>2026-04-03T15:23:42.999Z</time></trkpt><trkpt lat="46.02302630774129" lon="12.02646457758164"><ele>732.0</ele><time>2026-04-03T15:23:43.999Z</time></trkpt><trkpt lat="46.02304698604941" lon="12.026592187937371"><ele>732.0</ele><time>2026-04-03T15:23:44.999Z</time></trkpt><trkpt lat="46.023048539351805" lon="12.026696670876662"><ele>732.0</ele><time>2026-04-03T15:23:45.999Z</time></trkpt><trkpt lat="46.02305843169863" lon="12.026832140338033"><ele>732.0</ele><time>2026-04-03T15:23:46.999Z</time></trkpt><trkpt lat="46.02307887606187" lon="12.026930130496824"><ele>732.0</ele><time>2026-04-03T15:23:47.999Z</time></trkpt><trkpt lat="46.02311030513504" lon="12.027017212104148"><ele>732.0</ele><time>2026-04-03T15:23:48.999Z</time></trkpt><trkpt lat="46.02315905284849" lon="12.027089411352629"><ele>731.4000000000001</ele><time>2026-04-03T15:23:49.999Z</time></trkpt><trkpt lat="46.02328887808511" lon="12.02710241510076"><ele>730.8000000000001</ele><time>2026-04-03T15:23:51.999Z</time></trkpt><trkpt lat="46.023389593392245" lon="12.027094402910793"><ele>730.2</ele><time>2026-04-03T15:23:52.999Z</time></trkpt><trkpt lat="46.02348204418782" lon="12.027019835528757"><ele>729.6</ele><time>2026-04-03T15:23:53.999Z</time></trkpt><trkpt lat="46.023567459395665" lon="12.026966877942296"><ele>729.0</ele><time>2026-04-03T15:23:54.999Z</time></trkpt><trkpt lat="46.02363691734867" lon="12.026887979856891"><ele>726.8333333333334</ele><time>2026-04-03T15:23:55.999Z</time></trkpt><trkpt lat="46.02368512672282" lon="12.026797127497316"><ele>724.6666666666666</ele><time>2026-04-03T15:23:56.999Z</time></trkpt><trkpt lat="46.02373507803029" lon="12.026739929408116"><ele>722.5</ele><time>2026-04-03T15:23:57.999Z</time></trkpt><trkpt lat="46.02379411231091" lon="12.026658930206674"><ele>720.3333333333333</ele><time>2026-04-03T15:24:00.999Z</time></trkpt><trkpt lat="46.023861893637466" lon="12.026541394774961"><ele>718.1666666666666</ele><time>2026-04-03T15:24:03.999Z</time></trkpt><trkpt lat="46.023904029873826" lon="12.026448594342831"><ele>716.0</ele><time>2026-04-03T15:24:04.999Z</time></trkpt><trkpt lat="46.02396321696241" lon="12.026343318202937"><ele>716.0</ele><time>2026-04-03T15:24:05.999Z</time></trkpt><trkpt lat="46.02402880233205" lon="12.02621291014115"><ele>716.0</ele><time>2026-04-03T15:24:06.999Z</time></trkpt><trkpt lat="46.02407947763879" lon="12.026052545204964"><ele>716.0</ele><time>2026-04-03T15:24:07.999Z</time></trkpt><trkpt lat="46.0241189714892" lon="12.025931686133793"><ele>716.0</ele><time>2026-04-03T15:24:08.999Z</time></trkpt><trkpt lat="46.024149529968874" lon="12.02580744377256"><ele>716.0</ele><time>2026-04-03T15:24:09.999Z</time></trkpt><trkpt lat="46.024179477137814" lon="12.025694455315751"><ele>709.5999999999999</ele><time>2026-04-03T15:24:10.999Z</time></trkpt><trkpt lat="46.02422808256509" lon="12.0255899177972"><ele>703.2</ele><time>2026-04-03T15:24:11.999Z</time></trkpt><trkpt lat="46.024255826338866" lon="12.025424530246566"><ele>696.8</ele><time>2026-04-03T15:24:13.999Z</time></trkpt><trkpt lat="46.02424575055574" lon="12.025255441867097"><ele>690.4000000000001</ele><time>2026-04-03T15:24:14.999Z</time></trkpt><trkpt lat="46.02419578123339" lon="12.025091337823103"><ele>684.0</ele><time>2026-04-03T15:24:15.999Z</time></trkpt><trkpt lat="46.02415307618512" lon="12.02494318502608"><ele>690.0</ele><time>2026-04-03T15:24:16.999Z</time></trkpt><trkpt lat="46.02410039849721" lon="12.024820429736062"><ele>696.0</ele><time>2026-04-03T15:24:17.999Z</time></trkpt><trkpt lat="46.02406678394519" lon="12.024686380733215"><ele>702.0</ele><time>2026-04-03T15:24:18.999Z</time></trkpt><trkpt lat="46.024038545961766" lon="12.024576357874215"><ele>708.0</ele><time>2026-04-03T15:24:19.999Z</time></trkpt><trkpt lat="46.02404424601586" lon="12.024393467328824"><ele>714.0</ele><time>2026-04-03T15:24:21.999Z</time></trkpt><trkpt lat="46.02406570852212" lon="12.024303947061126"><ele>714.0</ele><time>2026-04-03T15:24:22.999Z</time></trkpt><trkpt lat="46.02411892764826" lon="12.024247230976684"><ele>714.0</ele><time>2026-04-03T15:24:23.999Z</time></trkpt><trkpt lat="46.02418934195309" lon="12.024238007106613"><ele>714.0</ele><time>2026-04-03T15:24:24.999Z</time></trkpt><trkpt lat="46.02429565881078" lon="12.024388194860876"><ele>714.0</ele><time>2026-04-03T15:24:26.999Z</time></trkpt><trkpt lat="46.02434847101146" lon="12.024507415925667"><ele>714.0</ele><time>2026-04-03T15:24:27.999Z</time></trkpt><trkpt lat="46.02441608301659" lon="12.024644394347545"><ele>706.5</ele><time>2026-04-03T15:24:28.999Z</time></trkpt><trkpt lat="46.02446195468017" lon="12.024791164548096"><ele>699.0</ele><time>2026-04-03T15:24:29.999Z</time></trkpt><trkpt lat="46.024526032404005" lon="12.024934583859103"><ele>691.5</ele><time>2026-04-03T15:24:30.999Z</time></trkpt><trkpt lat="46.024587282055265" lon="12.025081997316468"><ele>684.0</ele><time>2026-04-03T15:24:31.999Z</time></trkpt><trkpt lat="46.02465378744891" lon="12.025216261796865"><ele>684.0</ele><time>2026-04-03T15:24:32.999Z</time></trkpt><trkpt lat="46.02470364065532" lon="12.025355051924342"><ele>684.0</ele><time>2026-04-03T15:24:33.999Z</time></trkpt><trkpt lat="46.02475496218928" lon="12.025486021982836"><ele>684.0</ele><time>2026-04-03T15:24:34.999Z</time></trkpt><trkpt lat="46.02480595819606" lon="12.025613601804569"><ele>684.0</ele><time>2026-04-03T15:24:35.999Z</time></trkpt><trkpt lat="46.0248581383041" lon="12.025763537280541"><ele>684.0</ele><time>2026-04-03T15:24:37Z</time></trkpt><trkpt lat="46.02491078857669" lon="12.025901169828371"><ele>685.75</ele><time>2026-04-03T15:24:38Z</time></trkpt><trkpt lat="46.02496886386455" lon="12.0260359774235"><ele>687.5</ele><time>2026-04-03T15:24:39Z</time></trkpt><trkpt lat="46.02501649627394" lon="12.026180175650984"><ele>689.25</ele><time>2026-04-03T15:24:40Z</time></trkpt><trkpt lat="46.025049549678" lon="12.026328512452247"><ele>691.0</ele><time>2026-04-03T15:24:41Z</time></trkpt><trkpt lat="46.02510190089489" lon="12.026487436525013"><ele>684.75</ele><time>2026-04-03T15:24:42Z</time></trkpt><trkpt lat="46.02514285278512" lon="12.026660563875701"><ele>678.5</ele><time>2026-04-03T15:24:43Z</time></trkpt><trkpt lat="46.02517796260597" lon="12.026838403366495"><ele>672.25</ele><time>2026-04-03T15:24:44Z</time></trkpt><trkpt lat="46.02520972359716" lon="12.026997519122554"><ele>666.0</ele><time>2026-04-03T15:24:45Z</time></trkpt><trkpt lat="46.02524178978398" lon="12.027156743357498"><ele>666.0</ele><time>2026-04-03T15:24:46Z</time></trkpt><trkpt lat="46.02526081026281" lon="12.027312239240537"><ele>666.0</ele><time>2026-04-03T15:24:47Z</time></trkpt><trkpt lat="46.02528665026016" lon="12.027464831954063"><ele>666.0</ele><time>2026-04-03T15:24:48Z</time></trkpt><trkpt lat="46.025310543449315" lon="12.02761020007225"><ele>666.0</ele><time>2026-04-03T15:24:49Z</time></trkpt><trkpt lat="46.02533911990829" lon="12.027767114717024"><ele>666.0</ele><time>2026-04-03T15:24:50Z</time></trkpt><trkpt lat="46.0253551416495" lon="12.027914632137943"><ele>666.1999999999999</ele><time>2026-04-03T15:24:51Z</time></trkpt><trkpt lat="46.02538551332711" lon="12.028052387389156"><ele>666.4</ele><time>2026-04-03T15:24:52Z</time></trkpt><trkpt lat="46.02542000070762" lon="12.028165495164345"><ele>666.6</ele><time>2026-04-03T15:24:53Z</time></trkpt><trkpt lat="46.02548015725795" lon="12.028263579906104"><ele>666.8</ele><time>2026-04-03T15:24:54Z</time></trkpt><trkpt lat="46.02556710391858" lon="12.028344859836036"><ele>667.0</ele><time>2026-04-03T15:24:55Z</time></trkpt><trkpt lat="46.025688773468865" lon="12.028413971098152"><ele>669.2</ele><time>2026-04-03T15:24:56Z</time></trkpt><trkpt lat="46.025795038469035" lon="12.028476737674213"><ele>671.4000000000001</ele><time>2026-04-03T15:24:57Z</time></trkpt><trkpt lat="46.02588897633647" lon="12.028539186286249"><ele>673.5999999999999</ele><time>2026-04-03T15:24:58Z</time></trkpt><trkpt lat="46.025966542449176" lon="12.028620060978207"><ele>675.8</ele><time>2026-04-03T15:24:59Z</time></trkpt><trkpt lat="46.0260374501869" lon="12.02868215070437"><ele>678.0</ele><time>2026-04-03T15:25:00Z</time></trkpt><trkpt lat="46.02609052775431" lon="12.02879620065011"><ele>671.75</ele><time>2026-04-03T15:25:01Z</time></trkpt><trkpt lat="46.0261277962538" lon="12.02894789788777"><ele>665.5</ele><time>2026-04-03T15:25:02Z</time></trkpt><trkpt lat="46.02615647518611" lon="12.029123379982487"><ele>659.25</ele><time>2026-04-03T15:25:03Z</time></trkpt><trkpt lat="46.026192675758104" lon="12.029308556515751"><ele>653.0</ele><time>2026-04-03T15:25:04Z</time></trkpt><trkpt lat="46.02624403462176" lon="12.029485120816142"><ele>653.0</ele><time>2026-04-03T15:25:05Z</time></trkpt><trkpt lat="46.02628368395838" lon="12.029663537904632"><ele>653.0</ele><time>2026-04-03T15:25:06Z</time></trkpt><trkpt lat="46.026326137233795" lon="12.029829071029562"><ele>653.0</ele><time>2026-04-03T15:25:07Z</time></trkpt><trkpt lat="46.02636883282163" lon="12.030003577391318"><ele>653.0</ele><time>2026-04-03T15:25:08Z</time></trkpt><trkpt lat="46.02641600234475" lon="12.030167549126453"><ele>652.75</ele><time>2026-04-03T15:25:09Z</time></trkpt><trkpt lat="46.02646840416092" lon="12.030325057072512"><ele>652.5</ele><time>2026-04-03T15:25:10Z</time></trkpt><trkpt lat="46.026519157189384" lon="12.030478666678889"><ele>652.25</ele><time>2026-04-03T15:25:11Z</time></trkpt><trkpt lat="46.02657027089426" lon="12.030642257997348"><ele>652.0</ele><time>2026-04-03T15:25:12Z</time></trkpt><trkpt lat="46.02662309381261" lon="12.030801036279803"><ele>646.5</ele><time>2026-04-03T15:25:13Z</time></trkpt><trkpt lat="46.026677910428575" lon="12.030971868614863"><ele>641.0</ele><time>2026-04-03T15:25:14Z</time></trkpt><trkpt lat="46.02672577071051" lon="12.031152779383959"><ele>635.5</ele><time>2026-04-03T15:25:15Z</time></trkpt><trkpt lat="46.02678742246375" lon="12.031313986534292"><ele>630.0</ele><time>2026-04-03T15:25:16Z</time></trkpt><trkpt lat="46.02683476697529" lon="12.031475921029982"><ele>630.0</ele><time>2026-04-03T15:25:17Z</time></trkpt><trkpt lat="46.02688414976295" lon="12.031628255075187"><ele>630.0</ele><time>2026-04-03T15:25:18Z</time></trkpt><trkpt lat="46.02692859189637" lon="12.031778831406665"><ele>630.0</ele><time>2026-04-03T15:25:19Z</time></trkpt><trkpt lat="46.02697116587905" lon="12.031926952938093"><ele>630.0</ele><time>2026-04-03T15:25:20Z</time></trkpt><trkpt lat="46.027025223900495" lon="12.032071271014756"><ele>630.2</ele><time>2026-04-03T15:25:21Z</time></trkpt><trkpt lat="46.02707614656649" lon="12.032215065534249"><ele>630.4</ele><time>2026-04-03T15:25:22Z</time></trkpt><trkpt lat="46.027121974253134" lon="12.03236231470642"><ele>630.6</ele><time>2026-04-03T15:25:23Z</time></trkpt><trkpt lat="46.02716871583764" lon="12.032494862775108"><ele>630.8</ele><time>2026-04-03T15:25:24Z</time></trkpt><trkpt lat="46.02721673477554" lon="12.032625126068643"><ele>631.0</ele><time>2026-04-03T15:25:25Z</time></trkpt><trkpt lat="46.02727015507043" lon="12.032751774015198"><ele>632.2</ele><time>2026-04-03T15:25:26Z</time></trkpt><trkpt lat="46.027318302483785" lon="12.032895621060215"><ele>633.4000000000001</ele><time>2026-04-03T15:25:27Z</time></trkpt><trkpt lat="46.02736915841893" lon="12.03302336559788"><ele>634.6</ele><time>2026-04-03T15:25:28Z</time></trkpt><trkpt lat="46.027415073482004" lon="12.033159149250768"><ele>635.8000000000001</ele><time>2026-04-03T15:25:29Z</time></trkpt><trkpt lat="46.0274715430403" lon="12.033285078421406"><ele>637.0</ele><time>2026-04-03T15:25:30Z</time></trkpt><trkpt lat="46.02754591563753" lon="12.03339976787796"><ele>631.8000000000001</ele><time>2026-04-03T15:25:31Z</time></trkpt><trkpt lat="46.027612683319305" lon="12.03351176558212"><ele>626.6</ele><time>2026-04-03T15:25:32Z</time></trkpt><trkpt lat="46.02769791188081" lon="12.033605239229091"><ele>621.4000000000001</ele><time>2026-04-03T15:25:33Z</time></trkpt><trkpt lat="46.02777451128284" lon="12.033703944360376"><ele>616.2</ele><time>2026-04-03T15:25:34Z</time></trkpt><trkpt lat="46.02786648611447" lon="12.033796054583227"><ele>611.0</ele><time>2026-04-03T15:25:35Z</time></trkpt><trkpt lat="46.027965919076216" lon="12.033916794551125"><ele>611.0</ele><time>2026-04-03T15:25:36Z</time></trkpt><trkpt lat="46.028063159004894" lon="12.034032225232187"><ele>611.0</ele><time>2026-04-03T15:25:37Z</time></trkpt><trkpt lat="46.02815313453226" lon="12.034144903130827"><ele>611.0</ele><time>2026-04-03T15:25:38Z</time></trkpt><trkpt lat="46.02824718719013" lon="12.034255935218706"><ele>611.0</ele><time>2026-04-03T15:25:39Z</time></trkpt><trkpt lat="46.02833689717716" lon="12.034363367619683"><ele>606.0</ele><time>2026-04-03T15:25:40Z</time></trkpt><trkpt lat="46.02842995112954" lon="12.03445693417599"><ele>601.0</ele><time>2026-04-03T15:25:41Z</time></trkpt><trkpt lat="46.0285298992322" lon="12.034538426570847"><ele>596.0</ele><time>2026-04-03T15:25:42Z</time></trkpt><trkpt lat="46.028644072901905" lon="12.034618148999588"><ele>591.0</ele><time>2026-04-03T15:25:43Z</time></trkpt><trkpt lat="46.028783633283105" lon="12.034702949605796"><ele>591.0</ele><time>2026-04-03T15:25:44Z</time></trkpt><trkpt lat="46.02892236706806" lon="12.03478249022536"><ele>591.0</ele><time>2026-04-03T15:25:44.999Z</time></trkpt><trkpt lat="46.02904675507625" lon="12.03486850224044"><ele>591.0</ele><time>2026-04-03T15:25:45.999Z</time></trkpt><trkpt lat="46.02915183214344" lon="12.034940094232535"><ele>591.0</ele><time>2026-04-03T15:25:46.999Z</time></trkpt><trkpt lat="46.02926206561829" lon="12.035007059451155"><ele>588.75</ele><time>2026-04-03T15:25:47.999Z</time></trkpt><trkpt lat="46.029373245234005" lon="12.035073294629273"><ele>586.5</ele><time>2026-04-03T15:25:48.999Z</time></trkpt><trkpt lat="46.029485639455324" lon="12.035131214924968"><ele>584.25</ele><time>2026-04-03T15:25:49.999Z</time></trkpt><trkpt lat="46.02960027066523" lon="12.035164831766616"><ele>582.0</ele><time>2026-04-03T15:25:50.999Z</time></trkpt><trkpt lat="46.02971675661136" lon="12.035172986893842"><ele>582.0</ele><time>2026-04-03T15:25:51.999Z</time></trkpt><trkpt lat="46.029834285931024" lon="12.035167715495868"><ele>582.0</ele><time>2026-04-03T15:25:52.999Z</time></trkpt><trkpt lat="46.02994664673069" lon="12.035142257158578"><ele>582.0</ele><time>2026-04-03T15:25:53.999Z</time></trkpt><trkpt lat="46.03005851007121" lon="12.035139320714773"><ele>582.0</ele><time>2026-04-03T15:25:54.999Z</time></trkpt><trkpt lat="46.03016794016687" lon="12.03511977169623"><ele>580.25</ele><time>2026-04-03T15:25:55.999Z</time></trkpt><trkpt lat="46.03029233104325" lon="12.035104695932166"><ele>578.5</ele><time>2026-04-03T15:25:56.999Z</time></trkpt><trkpt lat="46.03040981000489" lon="12.035088401661865"><ele>576.75</ele><time>2026-04-03T15:25:57.999Z</time></trkpt><trkpt lat="46.0305272381423" lon="12.035072540307361"><ele>575.0</ele><time>2026-04-03T15:25:58.999Z</time></trkpt><trkpt lat="46.03063861985151" lon="12.035055682826616"><ele>575.0</ele><time>2026-04-03T15:25:59.999Z</time></trkpt><trkpt lat="46.03075449372236" lon="12.035045012750755"><ele>575.0</ele><time>2026-04-03T15:26:00.999Z</time></trkpt><trkpt lat="46.03085746599055" lon="12.035034112819291"><ele>575.0</ele><time>2026-04-03T15:26:01.999Z</time></trkpt><trkpt lat="46.030981061655034" lon="12.035021444248995"><ele>575.0</ele><time>2026-04-03T15:26:02.999Z</time></trkpt><trkpt lat="46.03111353343934" lon="12.034999174654022"><ele>575.25</ele><time>2026-04-03T15:26:03.999Z</time></trkpt><trkpt lat="46.03123905321073" lon="12.034978453259182"><ele>575.5</ele><time>2026-04-03T15:26:04.999Z</time></trkpt><trkpt lat="46.03135885573526" lon="12.03496171644742"><ele>575.75</ele><time>2026-04-03T15:26:05.999Z</time></trkpt><trkpt lat="46.03146190225429" lon="12.034949099686026"><ele>576.0</ele><time>2026-04-03T15:26:06.999Z</time></trkpt><trkpt lat="46.03156736629888" lon="12.034940208890292"><ele>572.8</ele><time>2026-04-03T15:26:07.999Z</time></trkpt><trkpt lat="46.03166500018671" lon="12.034925449410418"><ele>569.6</ele><time>2026-04-03T15:26:08.999Z</time></trkpt><trkpt lat="46.03175830101602" lon="12.034908423429226"><ele>566.4</ele><time>2026-04-03T15:26:09.999Z</time></trkpt><trkpt lat="46.031841003561325" lon="12.034873039549888"><ele>563.2</ele><time>2026-04-03T15:26:10.999Z</time></trkpt><trkpt lat="46.03191374232141" lon="12.034795697013678"><ele>560.0</ele><time>2026-04-03T15:26:11.999Z</time></trkpt><trkpt lat="46.03194879084858" lon="12.034659531353066"><ele>560.0</ele><time>2026-04-03T15:26:12.999Z</time></trkpt><trkpt lat="46.031998506631176" lon="12.034519437334597"><ele>560.0</ele><time>2026-04-03T15:26:13.999Z</time></trkpt><trkpt lat="46.03204892291684" lon="12.034368198677525"><ele>560.0</ele><time>2026-04-03T15:26:14.999Z</time></trkpt><trkpt lat="46.03207949875728" lon="12.034214215321182"><ele>560.0</ele><time>2026-04-03T15:26:15.999Z</time></trkpt><trkpt lat="46.03210526779134" lon="12.03405779046882"><ele>560.0</ele><time>2026-04-03T15:26:16.999Z</time></trkpt><trkpt lat="46.032123296608034" lon="12.033864916988557"><ele>559.25</ele><time>2026-04-03T15:26:17.999Z</time></trkpt><trkpt lat="46.032150340534805" lon="12.033705543965564"><ele>558.5</ele><time>2026-04-03T15:26:18.999Z</time></trkpt><trkpt lat="46.03217716652405" lon="12.033551931961629"><ele>557.75</ele><time>2026-04-03T15:26:19.999Z</time></trkpt><trkpt lat="46.03220628319956" lon="12.03339339012535"><ele>557.0</ele><time>2026-04-03T15:26:20.999Z</time></trkpt><trkpt lat="46.032230486184154" lon="12.033219200234338"><ele>556.4</ele><time>2026-04-03T15:26:21.999Z</time></trkpt><trkpt lat="46.03225557826912" lon="12.033059306826663"><ele>555.8000000000001</ele><time>2026-04-03T15:26:22.999Z</time></trkpt><trkpt lat="46.03227845435956" lon="12.03290266911068"><ele>555.2</ele><time>2026-04-03T15:26:23.999Z</time></trkpt><trkpt lat="46.032301105414504" lon="12.032748888091318"><ele>554.6</ele><time>2026-04-03T15:26:24.999Z</time></trkpt><trkpt lat="46.03232908690394" lon="12.032609372604318"><ele>554.0</ele><time>2026-04-03T15:26:25.999Z</time></trkpt><trkpt lat="46.03236450560361" lon="12.032467354608563"><ele>554.0</ele><time>2026-04-03T15:26:26.999Z</time></trkpt><trkpt lat="46.03240377690096" lon="12.032330248240317"><ele>554.0</ele><time>2026-04-03T15:26:27.999Z</time></trkpt><trkpt lat="46.03245641594018" lon="12.032205460206246"><ele>554.0</ele><time>2026-04-03T15:26:28.999Z</time></trkpt><trkpt lat="46.03254064606554" lon="12.032126389852186"><ele>554.0</ele><time>2026-04-03T15:26:29.999Z</time></trkpt><trkpt lat="46.03261507009638" lon="12.03202483420151"><ele>554.0</ele><time>2026-04-03T15:26:30.999Z</time></trkpt><trkpt lat="46.03267524431195" lon="12.031915395044342"><ele>549.8</ele><time>2026-04-03T15:26:31.999Z</time></trkpt><trkpt lat="46.03274359507682" lon="12.031829349490279"><ele>545.5999999999999</ele><time>2026-04-03T15:26:32.999Z</time></trkpt><trkpt lat="46.03279188962227" lon="12.031720898196152"><ele>541.4</ele><time>2026-04-03T15:26:33.999Z</time></trkpt><trkpt lat="46.032821352472375" lon="12.031590545269097"><ele>537.1999999999999</ele><time>2026-04-03T15:26:34.999Z</time></trkpt><trkpt lat="46.03285209167265" lon="12.031458745893284"><ele>533.0</ele><time>2026-04-03T15:26:35.999Z</time></trkpt><trkpt lat="46.03286176058933" lon="12.031328887984634"><ele>532.1999999999999</ele><time>2026-04-03T15:26:36.999Z</time></trkpt><trkpt lat="46.032854204276745" lon="12.031145605271083"><ele>531.4</ele><time>2026-04-03T15:26:37.999Z</time></trkpt><trkpt lat="46.03283462527289" lon="12.030975057936736"><ele>530.5999999999999</ele><time>2026-04-03T15:26:38.999Z</time></trkpt><trkpt lat="46.032810000057204" lon="12.03083309995653"><ele>529.8</ele><time>2026-04-03T15:26:39.999Z</time></trkpt><trkpt lat="46.03278772128494" lon="12.03070247003698"><ele>529.0</ele><time>2026-04-03T15:26:40.999Z</time></trkpt><trkpt lat="46.032774163778065" lon="12.030578793757838"><ele>528.8</ele><time>2026-04-03T15:26:41.999Z</time></trkpt><trkpt lat="46.03277125948072" lon="12.030451596949177"><ele>528.5999999999999</ele><time>2026-04-03T15:26:43Z</time></trkpt><trkpt lat="46.03278071440491" lon="12.030345206307201"><ele>528.4</ele><time>2026-04-03T15:26:44Z</time></trkpt><trkpt lat="46.03280264200198" lon="12.030230832413016"><ele>528.1999999999999</ele><time>2026-04-03T15:26:45Z</time></trkpt><trkpt lat="46.03284959590175" lon="12.030093754023602"><ele>528.0</ele><time>2026-04-03T15:26:46Z</time></trkpt><trkpt lat="46.032892751365736" lon="12.029955958170918"><ele>528.0</ele><time>2026-04-03T15:26:47Z</time></trkpt><trkpt lat="46.03293426433252" lon="12.029825466945287"><ele>528.0</ele><time>2026-04-03T15:26:48Z</time></trkpt><trkpt lat="46.032970594083" lon="12.02968505626114"><ele>528.0</ele><time>2026-04-03T15:26:49Z</time></trkpt><trkpt lat="46.03299435682461" lon="12.029537780804713"><ele>528.0</ele><time>2026-04-03T15:26:50Z</time></trkpt><trkpt lat="46.03300672535486" lon="12.029389658112052"><ele>528.0</ele><time>2026-04-03T15:26:51Z</time></trkpt><trkpt lat="46.0330116099136" lon="12.029233492527172"><ele>526.1999999999999</ele><time>2026-04-03T15:26:52Z</time></trkpt><trkpt lat="46.033010372279186" lon="12.029068923740255"><ele>524.4</ele><time>2026-04-03T15:26:53Z</time></trkpt><trkpt lat="46.03300398190651" lon="12.028911073347139"><ele>522.5999999999999</ele><time>2026-04-03T15:26:54Z</time></trkpt><trkpt lat="46.0329936540975" lon="12.028763098168566"><ele>520.8</ele><time>2026-04-03T15:26:55Z</time></trkpt><trkpt lat="46.032972579785806" lon="12.028597644998078"><ele>519.0</ele><time>2026-04-03T15:26:56Z</time></trkpt><trkpt lat="46.03294290635839" lon="12.028452620004193"><ele>519.0</ele><time>2026-04-03T15:26:57Z</time></trkpt><trkpt lat="46.03290600412173" lon="12.028315981066939"><ele>519.0</ele><time>2026-04-03T15:26:58Z</time></trkpt><trkpt lat="46.03285393484359" lon="12.028177491229128"><ele>519.0</ele><time>2026-04-03T15:26:59Z</time></trkpt><trkpt lat="46.03279723206954" lon="12.02802601649211"><ele>519.0</ele><time>2026-04-03T15:27:00Z</time></trkpt><trkpt lat="46.03275437112595" lon="12.027871857586337"><ele>519.0</ele><time>2026-04-03T15:27:01Z</time></trkpt><trkpt lat="46.03271516261197" lon="12.027732676887753"><ele>515.8</ele><time>2026-04-03T15:27:02Z</time></trkpt><trkpt lat="46.03268598425489" lon="12.0275977591897"><ele>512.5999999999999</ele><time>2026-04-03T15:27:03Z</time></trkpt><trkpt lat="46.03265347513157" lon="12.02747313885547"><ele>509.4</ele><time>2026-04-03T15:27:04Z</time></trkpt><trkpt lat="46.03263200573498" lon="12.027339429136681"><ele>506.2</ele><time>2026-04-03T15:27:05Z</time></trkpt><trkpt lat="46.032623862406425" lon="12.027185884727214"><ele>503.0</ele><time>2026-04-03T15:27:06Z</time></trkpt><trkpt lat="46.032651574695926" lon="12.027018241572323"><ele>500.0</ele><time>2026-04-03T15:27:07Z</time></trkpt><trkpt lat="46.03268468061151" lon="12.02683981694129"><ele>497.0</ele><time>2026-04-03T15:27:08Z</time></trkpt><trkpt lat="46.032715593965804" lon="12.026668557728886"><ele>494.0</ele><time>2026-04-03T15:27:09Z</time></trkpt><trkpt lat="46.03272989798842" lon="12.026494375779073"><ele>491.0</ele><time>2026-04-03T15:27:10Z</time></trkpt><trkpt lat="46.03276695322112" lon="12.026335772185092"><ele>488.25</ele><time>2026-04-03T15:27:11Z</time></trkpt><trkpt lat="46.03278809948932" lon="12.026166624792964"><ele>485.5</ele><time>2026-04-03T15:27:12Z</time></trkpt><trkpt lat="46.0328206998424" lon="12.026003985729833"><ele>482.75</ele><time>2026-04-03T15:27:13Z</time></trkpt><trkpt lat="46.032846319117276" lon="12.025838702015202"><ele>480.0</ele><time>2026-04-03T15:27:14Z</time></trkpt><trkpt lat="46.03287770441403" lon="12.025675067894067"><ele>478.0</ele><time>2026-04-03T15:27:15Z</time></trkpt><trkpt lat="46.03290918102822" lon="12.025511763140463"><ele>476.0</ele><time>2026-04-03T15:27:16Z</time></trkpt><trkpt lat="46.03293711656035" lon="12.025351819735477"><ele>474.0</ele><time>2026-04-03T15:27:17Z</time></trkpt><trkpt lat="46.03296138611519" lon="12.025189829219864"><ele>472.0</ele><time>2026-04-03T15:27:18Z</time></trkpt><trkpt lat="46.03297683989242" lon="12.02504072550414"><ele>469.20000000000005</ele><time>2026-04-03T15:27:19Z</time></trkpt><trkpt lat="46.03299224574893" lon="12.024905895120078"><ele>466.40000000000003</ele><time>2026-04-03T15:27:20Z</time></trkpt><trkpt lat="46.0330054142749" lon="12.024778606895968"><ele>463.59999999999997</ele><time>2026-04-03T15:27:21Z</time></trkpt><trkpt lat="46.033025990107085" lon="12.024655841175495"><ele>460.79999999999995</ele><time>2026-04-03T15:27:22Z</time></trkpt><trkpt lat="46.03305478235923" lon="12.02453065473838"><ele>458.0</ele><time>2026-04-03T15:27:23Z</time></trkpt><trkpt lat="46.033096886089204" lon="12.024413898306562"><ele>458.0</ele><time>2026-04-03T15:27:24Z</time></trkpt><trkpt lat="46.033134444584405" lon="12.024320013642601"><ele>457.99999999999994</ele><time>2026-04-03T15:27:25Z</time></trkpt><trkpt lat="46.03318441637759" lon="12.02425814889385"><ele>457.99999999999994</ele><time>2026-04-03T15:27:26Z</time></trkpt><trkpt lat="46.033295576674185" lon="12.024188835713927"><ele>458.0</ele><time>2026-04-03T15:27:28Z</time></trkpt><trkpt lat="46.033379662117916" lon="12.02416330377223"><ele>458.0</ele><time>2026-04-03T15:27:29Z</time></trkpt><trkpt lat="46.03348458537442" lon="12.024112445190978"><ele>456.0</ele><time>2026-04-03T15:27:30Z</time></trkpt><trkpt lat="46.0335824335414" lon="12.024056795421524"><ele>453.99999999999994</ele><time>2026-04-03T15:27:31Z</time></trkpt><trkpt lat="46.03366300736899" lon="12.024007975947717"><ele>451.99999999999994</ele><time>2026-04-03T15:27:32Z</time></trkpt><trkpt lat="46.03374175246236" lon="12.023965513605056"><ele>450.0</ele><time>2026-04-03T15:27:33Z</time></trkpt><trkpt lat="46.0338155783902" lon="12.02394958514256"><ele>448.0</ele><time>2026-04-03T15:27:34Z</time></trkpt><trkpt lat="46.03392635816514" lon="12.023934045110424"><ele>448.00000000000006</ele><time>2026-04-03T15:27:36Z</time></trkpt><trkpt lat="46.033981640223416" lon="12.023980850492462"><ele>448.0</ele><time>2026-04-03T15:27:37Z</time></trkpt><trkpt lat="46.034035856020765" lon="12.02405174614116"><ele>448.0</ele><time>2026-04-03T15:27:38Z</time></trkpt><trkpt lat="46.03410246971324" lon="12.024154196992969"><ele>448.0</ele><time>2026-04-03T15:27:39Z</time></trkpt><trkpt lat="46.03417246867347" lon="12.024250346069927"><ele>448.00000000000006</ele><time>2026-04-03T15:27:40Z</time></trkpt><trkpt lat="46.03423250749207" lon="12.024353513787743"><ele>448.0</ele><time>2026-04-03T15:27:41Z</time></trkpt><trkpt lat="46.03428433738967" lon="12.024449993477718"><ele>448.4</ele><time>2026-04-03T15:27:42Z</time></trkpt><trkpt lat="46.03434270168337" lon="12.024566708666546"><ele>448.79999999999995</ele><time>2026-04-03T15:27:43Z</time></trkpt><trkpt lat="46.03438800489091" lon="12.024720335802407"><ele>449.2</ele><time>2026-04-03T15:27:44Z</time></trkpt><trkpt lat="46.03444050328357" lon="12.024849845706374"><ele>449.6</ele><time>2026-04-03T15:27:45Z</time></trkpt><trkpt lat="46.034479017721836" lon="12.024993803861884"><ele>450.0</ele><time>2026-04-03T15:27:46Z</time></trkpt><trkpt lat="46.034489951337875" lon="12.025158760537993"><ele>450.75</ele><time>2026-04-03T15:27:47Z</time></trkpt><trkpt lat="46.03451437690251" lon="12.025321102758717"><ele>451.5</ele><time>2026-04-03T15:27:48Z</time></trkpt><trkpt lat="46.03454224920825" lon="12.025490598110263"><ele>452.25</ele><time>2026-04-03T15:27:49Z</time></trkpt><trkpt lat="46.03458572431038" lon="12.025646219004296"><ele>453.0</ele><time>2026-04-03T15:27:50Z</time></trkpt><trkpt lat="46.03461543107226" lon="12.02580297024535"><ele>453.2</ele><time>2026-04-03T15:27:51Z</time></trkpt><trkpt lat="46.034653716772176" lon="12.025942450424163"><ele>453.4</ele><time>2026-04-03T15:27:52Z</time></trkpt><trkpt lat="46.03470653733791" lon="12.026076070615444"><ele>453.59999999999997</ele><time>2026-04-03T15:27:53Z</time></trkpt><trkpt lat="46.03474866664647" lon="12.026213759742559"><ele>453.79999999999995</ele><time>2026-04-03T15:27:54Z</time></trkpt><trkpt lat="46.034785510436855" lon="12.026366734138408"><ele>454.0</ele><time>2026-04-03T15:27:55Z</time></trkpt><trkpt lat="46.0347846758933" lon="12.026535649057909"><ele>454.2</ele><time>2026-04-03T15:27:56Z</time></trkpt><trkpt lat="46.03482033830204" lon="12.026677854479292"><ele>454.4</ele><time>2026-04-03T15:27:57Z</time></trkpt><trkpt lat="46.034845261026085" lon="12.026825624434638"><ele>454.6</ele><time>2026-04-03T15:27:58Z</time></trkpt><trkpt lat="46.03489018963804" lon="12.026973704803495"><ele>454.8</ele><time>2026-04-03T15:27:59Z</time></trkpt><trkpt lat="46.034957171834954" lon="12.027119615952063"><ele>455.0</ele><time>2026-04-03T15:27:59.999Z</time></trkpt><trkpt lat="46.03503753060246" lon="12.027254117770106"><ele>448.5</ele><time>2026-04-03T15:28:00.999Z</time></trkpt><trkpt lat="46.03512561543393" lon="12.027362721105058"><ele>442.0</ele><time>2026-04-03T15:28:01.999Z</time></trkpt><trkpt lat="46.03520867175329" lon="12.027467834551413"><ele>435.5</ele><time>2026-04-03T15:28:02.999Z</time></trkpt><trkpt lat="46.03528432983702" lon="12.027581642534347"><ele>429.0</ele><time>2026-04-03T15:28:03.999Z</time></trkpt><trkpt lat="46.0353701829952" lon="12.027707885338655"><ele>429.0</ele><time>2026-04-03T15:28:04.999Z</time></trkpt><trkpt lat="46.03546280280881" lon="12.027839004830733"><ele>429.0</ele><time>2026-04-03T15:28:05.999Z</time></trkpt><trkpt lat="46.03555100585027" lon="12.02796469527801"><ele>429.0</ele><time>2026-04-03T15:28:06.999Z</time></trkpt><trkpt lat="46.035635403110696" lon="12.028088276044086"><ele>429.0</ele><time>2026-04-03T15:28:07.999Z</time></trkpt><trkpt lat="46.03571153864929" lon="12.02820048103465"><ele>429.0</ele><time>2026-04-03T15:28:08.999Z</time></trkpt><trkpt lat="46.03577882992972" lon="12.028294386059423"><ele>429.0</ele><time>2026-04-03T15:28:09.999Z</time></trkpt><trkpt lat="46.03584859305694" lon="12.028377200818488"><ele>429.0</ele><time>2026-04-03T15:28:10.999Z</time></trkpt><trkpt lat="46.03592781097504" lon="12.028436516234315"><ele>429.0</ele><time>2026-04-03T15:28:11.999Z</time></trkpt><trkpt lat="46.03600921606947" lon="12.028473459645802"><ele>429.0</ele><time>2026-04-03T15:28:12.999Z</time></trkpt><trkpt lat="46.03608984138867" lon="12.02848099625734"><ele>429.0</ele><time>2026-04-03T15:28:13.999Z</time></trkpt><trkpt lat="46.0361864233384" lon="12.02846922372244"><ele>425.25</ele><time>2026-04-03T15:28:14.999Z</time></trkpt><trkpt lat="46.03630507898034" lon="12.028434531076103"><ele>421.5</ele><time>2026-04-03T15:28:15.999Z</time></trkpt><trkpt lat="46.0364293380999" lon="12.028395811136551"><ele>417.75</ele><time>2026-04-03T15:28:16.999Z</time></trkpt><trkpt lat="46.03653751037401" lon="12.028362617117713"><ele>414.0</ele><time>2026-04-03T15:28:17.999Z</time></trkpt><trkpt lat="46.03664278915264" lon="12.028329855743998"><ele>410.6</ele><time>2026-04-03T15:28:18.999Z</time></trkpt><trkpt lat="46.036740576867" lon="12.02829163349797"><ele>407.2</ele><time>2026-04-03T15:28:19.999Z</time></trkpt><trkpt lat="46.036841735366885" lon="12.028263648771352"><ele>403.8</ele><time>2026-04-03T15:28:20.999Z</time></trkpt><trkpt lat="46.03695155771863" lon="12.02822525974115"><ele>400.40000000000003</ele><time>2026-04-03T15:28:21.999Z</time></trkpt><trkpt lat="46.03705036856868" lon="12.028180257273055"><ele>397.0</ele><time>2026-04-03T15:28:22.999Z</time></trkpt><trkpt lat="46.03714332821689" lon="12.028122772398364"><ele>397.0</ele><time>2026-04-03T15:28:23.999Z</time></trkpt><trkpt lat="46.037241202049344" lon="12.02804510237022"><ele>397.0</ele><time>2026-04-03T15:28:24.999Z</time></trkpt><trkpt lat="46.037338101474305" lon="12.027949631224192"><ele>397.0</ele><time>2026-04-03T15:28:25.999Z</time></trkpt><trkpt lat="46.037419064776444" lon="12.027853766192111"><ele>397.0</ele><time>2026-04-03T15:28:26.999Z</time></trkpt><trkpt lat="46.03747961357757" lon="12.027745790208934"><ele>397.0</ele><time>2026-04-03T15:28:27.999Z</time></trkpt><trkpt lat="46.03753161836197" lon="12.027626058632638"><ele>394.6</ele><time>2026-04-03T15:28:28.999Z</time></trkpt><trkpt lat="46.037572420219064" lon="12.027503988735512"><ele>392.20000000000005</ele><time>2026-04-03T15:28:29.999Z</time></trkpt><trkpt lat="46.037599058585734" lon="12.027380497114734"><ele>389.8</ele><time>2026-04-03T15:28:30.999Z</time></trkpt><trkpt lat="46.03761692993326" lon="12.027236504431901"><ele>387.4</ele><time>2026-04-03T15:28:31.999Z</time></trkpt><trkpt lat="46.03761967832028" lon="12.027079968962633"><ele>385.0</ele><time>2026-04-03T15:28:32.999Z</time></trkpt><trkpt lat="46.03761883344936" lon="12.026945086790725"><ele>385.00000000000006</ele><time>2026-04-03T15:28:33.999Z</time></trkpt><trkpt lat="46.03761234599017" lon="12.026828824128241"><ele>385.0</ele><time>2026-04-03T15:28:34.999Z</time></trkpt><trkpt lat="46.03761269560955" lon="12.02671700325514"><ele>385.0</ele><time>2026-04-03T15:28:35.999Z</time></trkpt><trkpt lat="46.037630218802526" lon="12.026610845456158"><ele>385.0</ele><time>2026-04-03T15:28:36.999Z</time></trkpt><trkpt lat="46.037670642651065" lon="12.02651761449818"><ele>385.00000000000006</ele><time>2026-04-03T15:28:37.999Z</time></trkpt><trkpt lat="46.03773043859872" lon="12.026432774880194"><ele>385.0</ele><time>2026-04-03T15:28:38.999Z</time></trkpt><trkpt lat="46.03780558292587" lon="12.026374557699542"><ele>385.0</ele><time>2026-04-03T15:28:39.999Z</time></trkpt><trkpt lat="46.03788433774145" lon="12.026376922281212"><ele>385.0</ele><time>2026-04-03T15:28:40.999Z</time></trkpt><trkpt lat="46.03801502225338" lon="12.02647596610733"><ele>385.0</ele><time>2026-04-03T15:28:42.999Z</time></trkpt><trkpt lat="46.03808799190995" lon="12.026576868115011"><ele>385.0</ele><time>2026-04-03T15:28:43.999Z</time></trkpt><trkpt lat="46.03815537455074" lon="12.026718992433292"><ele>385.0</ele><time>2026-04-03T15:28:44.999Z</time></trkpt><trkpt lat="46.038242296509296" lon="12.026867268834382"><ele>381.0</ele><time>2026-04-03T15:28:45.999Z</time></trkpt><trkpt lat="46.0383405506812" lon="12.027032881352989"><ele>377.0</ele><time>2026-04-03T15:28:46.999Z</time></trkpt><trkpt lat="46.038428210699024" lon="12.027180637021656"><ele>373.0</ele><time>2026-04-03T15:28:47.999Z</time></trkpt><trkpt lat="46.03851395903326" lon="12.02732517046552"><ele>369.0</ele><time>2026-04-03T15:28:49Z</time></trkpt><trkpt lat="46.038597661482704" lon="12.027465745465221"><ele>369.0</ele><time>2026-04-03T15:28:50Z</time></trkpt><trkpt lat="46.038679555726404" lon="12.02760305020051"><ele>369.0</ele><time>2026-04-03T15:28:51Z</time></trkpt><trkpt lat="46.038773576840754" lon="12.027724149307364"><ele>369.0</ele><time>2026-04-03T15:28:52Z</time></trkpt><trkpt lat="46.03885390621992" lon="12.027858559806562"><ele>369.0</ele><time>2026-04-03T15:28:53Z</time></trkpt><trkpt lat="46.03893008671522" lon="12.027984929739105"><ele>369.0</ele><time>2026-04-03T15:28:54Z</time></trkpt><trkpt lat="46.039001476727215" lon="12.028107089720017"><ele>369.0</ele><time>2026-04-03T15:28:55Z</time></trkpt><trkpt lat="46.039065896885866" lon="12.02821671860603"><ele>369.0</ele><time>2026-04-03T15:28:56Z</time></trkpt><trkpt lat="46.0391342098403" lon="12.028319306903143"><ele>369.0</ele><time>2026-04-03T15:28:57Z</time></trkpt><trkpt lat="46.039217982716224" lon="12.028401327995311"><ele>369.0</ele><time>2026-04-03T15:28:58Z</time></trkpt><trkpt lat="46.03930724043593" lon="12.028465306232455"><ele>365.6</ele><time>2026-04-03T15:28:59Z</time></trkpt><trkpt lat="46.03940292998614" lon="12.028514567758416"><ele>362.2</ele><time>2026-04-03T15:29:00Z</time></trkpt><trkpt lat="46.03950011838296" lon="12.028538796523714"><ele>358.8</ele><time>2026-04-03T15:29:01Z</time></trkpt><trkpt lat="46.03959856773413" lon="12.028557866162828"><ele>355.40000000000003</ele><time>2026-04-03T15:29:02Z</time></trkpt><trkpt lat="46.03970296726621" lon="12.028552397921526"><ele>352.0</ele><time>2026-04-03T15:29:03Z</time></trkpt><trkpt lat="46.0398048341229" lon="12.028529282002692"><ele>352.0</ele><time>2026-04-03T15:29:04Z</time></trkpt><trkpt lat="46.039906169422466" lon="12.02848364279937"><ele>352.0</ele><time>2026-04-03T15:29:05Z</time></trkpt><trkpt lat="46.0400225385311" lon="12.028378058706016"><ele>352.0</ele><time>2026-04-03T15:29:06Z</time></trkpt><trkpt lat="46.04013379767169" lon="12.028295699143706"><ele>352.0</ele><time>2026-04-03T15:29:07Z</time></trkpt><trkpt lat="46.040238991947426" lon="12.028217998123754"><ele>350.25</ele><time>2026-04-03T15:29:08Z</time></trkpt><trkpt lat="46.04034427513475" lon="12.028142624810737"><ele>348.5</ele><time>2026-04-03T15:29:09Z</time></trkpt><trkpt lat="46.04044827396224" lon="12.028063359418145"><ele>346.75</ele><time>2026-04-03T15:29:10Z</time></trkpt><trkpt lat="46.04054694132264" lon="12.02798431480146"><ele>345.0</ele><time>2026-04-03T15:29:11Z</time></trkpt><trkpt lat="46.04063810356739" lon="12.027910248068956"><ele>345.0</ele><time>2026-04-03T15:29:12Z</time></trkpt><trkpt lat="46.040728532283" lon="12.027852979940098"><ele>345.0</ele><time>2026-04-03T15:29:13Z</time></trkpt><trkpt lat="46.0408116393135" lon="12.027791300412794"><ele>345.0</ele><time>2026-04-03T15:29:14Z</time></trkpt><trkpt lat="46.0408849174764" lon="12.027740472624703"><ele>345.0</ele><time>2026-04-03T15:29:15Z</time></trkpt><trkpt lat="46.040948832047484" lon="12.027685622686217"><ele>345.0</ele><time>2026-04-03T15:29:16Z</time></trkpt><trkpt lat="46.04100135281219" lon="12.027626587697716"><ele>345.0</ele><time>2026-04-03T15:29:17Z</time></trkpt><trkpt lat="46.04104451672316" lon="12.027553307637838"><ele>341.5</ele><time>2026-04-03T15:29:18Z</time></trkpt><trkpt lat="46.041077412015284" lon="12.02744447419678"><ele>338.0</ele><time>2026-04-03T15:29:19Z</time></trkpt><trkpt lat="46.0410951930993" lon="12.027287441708646"><ele>334.5</ele><time>2026-04-03T15:29:20Z</time></trkpt><trkpt lat="46.0410828074346" lon="12.02711367788857"><ele>331.0</ele><time>2026-04-03T15:29:21Z</time></trkpt><trkpt lat="46.04106891185756" lon="12.026918668184702"><ele>331.0</ele><time>2026-04-03T15:29:22Z</time></trkpt><trkpt lat="46.0410730606772" lon="12.02675048665782"><ele>331.0</ele><time>2026-04-03T15:29:23Z</time></trkpt><trkpt lat="46.041074849975274" lon="12.02659331923214"><ele>331.0</ele><time>2026-04-03T15:29:24Z</time></trkpt><trkpt lat="46.04107460566901" lon="12.026443572844666"><ele>331.0</ele><time>2026-04-03T15:29:25Z</time></trkpt><trkpt lat="46.041073263449576" lon="12.02629613695871"><ele>331.0</ele><time>2026-04-03T15:29:26Z</time></trkpt><trkpt lat="46.041061719642485" lon="12.026159941680286"><ele>328.66666666666663</ele><time>2026-04-03T15:29:27Z</time></trkpt><trkpt lat="46.04103127340453" lon="12.026035751782059"><ele>326.3333333333333</ele><time>2026-04-03T15:29:28Z</time></trkpt><trkpt lat="46.04099491395614" lon="12.025916745639464"><ele>324.0</ele><time>2026-04-03T15:29:29Z</time></trkpt><trkpt lat="46.04096081088465" lon="12.025809093220104"><ele>321.6666666666667</ele><time>2026-04-03T15:29:30Z</time></trkpt><trkpt lat="46.040933756484385" lon="12.025706317817647"><ele>319.33333333333337</ele><time>2026-04-03T15:29:31Z</time></trkpt><trkpt lat="46.040932134656614" lon="12.025595270056021"><ele>317.0</ele><time>2026-04-03T15:29:32Z</time></trkpt><trkpt lat="46.04095955736253" lon="12.025488039874643"><ele>315.5</ele><time>2026-04-03T15:29:33Z</time></trkpt><trkpt lat="46.04101721306204" lon="12.02538321945381"><ele>314.0</ele><time>2026-04-03T15:29:34Z</time></trkpt><trkpt lat="46.04110841234242" lon="12.025290966271042"><ele>312.5</ele><time>2026-04-03T15:29:35Z</time></trkpt><trkpt lat="46.04121249082242" lon="12.025192830889303"><ele>311.0</ele><time>2026-04-03T15:29:36Z</time></trkpt><trkpt lat="46.04131576284306" lon="12.025090388099514"><ele>311.25</ele><time>2026-04-03T15:29:37Z</time></trkpt><trkpt lat="46.04141842838631" lon="12.024977936269634"><ele>311.5</ele><time>2026-04-03T15:29:38Z</time></trkpt><trkpt lat="46.04150596922789" lon="12.024870136923266"><ele>311.75</ele><time>2026-04-03T15:29:39Z</time></trkpt><trkpt lat="46.04158496027756" lon="12.024742445839394"><ele>312.0</ele><time>2026-04-03T15:29:40Z</time></trkpt><trkpt lat="46.04165866683944" lon="12.024599094178845"><ele>309.8</ele><time>2026-04-03T15:29:41Z</time></trkpt><trkpt lat="46.04172833623196" lon="12.02446646584457"><ele>307.6</ele><time>2026-04-03T15:29:42Z</time></trkpt><trkpt lat="46.04178984601108" lon="12.0243549903065"><ele>305.40000000000003</ele><time>2026-04-03T15:29:43Z</time></trkpt><trkpt lat="46.04184431444531" lon="12.024261940468849"><ele>303.2</ele><time>2026-04-03T15:29:44Z</time></trkpt><trkpt lat="46.041899356625045" lon="12.024178610058621"><ele>301.0</ele><time>2026-04-03T15:29:45Z</time></trkpt><trkpt lat="46.04195539632144" lon="12.024111009866797"><ele>299.5</ele><time>2026-04-03T15:29:46Z</time></trkpt><trkpt lat="46.04202077729064" lon="12.024063465967808"><ele>298.0</ele><time>2026-04-03T15:29:47Z</time></trkpt><trkpt lat="46.042093103046426" lon="12.024039892575477"><ele>296.5</ele><time>2026-04-03T15:29:48Z</time></trkpt><trkpt lat="46.042167535465396" lon="12.024032661163549"><ele>295.0</ele><time>2026-04-03T15:29:49Z</time></trkpt><trkpt lat="46.04224503232842" lon="12.024044654640667"><ele>293.5</ele><time>2026-04-03T15:29:50Z</time></trkpt><trkpt lat="46.04232212871917" lon="12.0240674122561"><ele>292.0</ele><time>2026-04-03T15:29:51Z</time></trkpt><trkpt lat="46.042403122952855" lon="12.024118751345558"><ele>292.16666666666663</ele><time>2026-04-03T15:29:52Z</time></trkpt><trkpt lat="46.042480484956094" lon="12.02418181551762"><ele>292.3333333333333</ele><time>2026-04-03T15:29:53Z</time></trkpt><trkpt lat="46.04254873903198" lon="12.024246366640961"><ele>292.5</ele><time>2026-04-03T15:29:54Z</time></trkpt><trkpt lat="46.042620888350314" lon="12.024293394722987"><ele>292.6666666666667</ele><time>2026-04-03T15:29:55Z</time></trkpt><trkpt lat="46.04269176080693" lon="12.024350375883504"><ele>292.83333333333337</ele><time>2026-04-03T15:29:56Z</time></trkpt><trkpt lat="46.04275325204267" lon="12.02440444217282"><ele>293.0</ele><time>2026-04-03T15:29:57Z</time></trkpt><trkpt lat="46.0428160656284" lon="12.024476872885208"><ele>293.0</ele><time>2026-04-03T15:29:57.999Z</time></trkpt><trkpt lat="46.04286417518964" lon="12.024563241653178"><ele>293.0</ele><time>2026-04-03T15:29:58.999Z</time></trkpt><trkpt lat="46.04290756640806" lon="12.02466785435994"><ele>293.0</ele><time>2026-04-03T15:29:59.999Z</time></trkpt><trkpt lat="46.04296852750383" lon="12.024800826782053"><ele>293.0</ele><time>2026-04-03T15:30:00.999Z</time></trkpt><trkpt lat="46.04301684591251" lon="12.02493905085783"><ele>293.0</ele><time>2026-04-03T15:30:01.999Z</time></trkpt><trkpt lat="46.04306655455558" lon="12.025055350904095"><ele>295.1666666666667</ele><time>2026-04-03T15:30:02.999Z</time></trkpt><trkpt lat="46.043120281489074" lon="12.025163746669474"><ele>297.33333333333337</ele><time>2026-04-03T15:30:03.999Z</time></trkpt><trkpt lat="46.0431783767808" lon="12.02526410719326"><ele>299.5</ele><time>2026-04-03T15:30:04.999Z</time></trkpt><trkpt lat="46.04323607786652" lon="12.025354699431709"><ele>301.6666666666667</ele><time>2026-04-03T15:30:05.999Z</time></trkpt><trkpt lat="46.043284197751" lon="12.025453198752787"><ele>303.8333333333333</ele><time>2026-04-03T15:30:06.999Z</time></trkpt><trkpt lat="46.043330505370484" lon="12.025549037818267"><ele>306.0</ele><time>2026-04-03T15:30:07.999Z</time></trkpt><trkpt lat="46.043393655049144" lon="12.025603013507002"><ele>299.8</ele><time>2026-04-03T15:30:08.999Z</time></trkpt><trkpt lat="46.043478073033356" lon="12.025633420430601"><ele>293.6</ele><time>2026-04-03T15:30:09.999Z</time></trkpt><trkpt lat="46.043572574356865" lon="12.025626774638226"><ele>287.4</ele><time>2026-04-03T15:30:10.999Z</time></trkpt><trkpt lat="46.043644151711455" lon="12.025550387298725"><ele>281.2</ele><time>2026-04-03T15:30:11.999Z</time></trkpt><trkpt lat="46.043761710616636" lon="12.025534040361107"><ele>275.0</ele><time>2026-04-03T15:30:12.999Z</time></trkpt><trkpt lat="46.0438592984535" lon="12.02543973310669"><ele>275.0</ele><time>2026-04-03T15:30:13.999Z</time></trkpt><trkpt lat="46.043938622902196" lon="12.02538279305197"><ele>275.0</ele><time>2026-04-03T15:30:14.999Z</time></trkpt><trkpt lat="46.04401309355861" lon="12.025329014231332"><ele>275.0</ele><time>2026-04-03T15:30:15.999Z</time></trkpt><trkpt lat="46.044095475670495" lon="12.025257229706714"><ele>275.0</ele><time>2026-04-03T15:30:16.999Z</time></trkpt><trkpt lat="46.04416382471833" lon="12.025184579727256"><ele>275.0</ele><time>2026-04-03T15:30:17.999Z</time></trkpt><trkpt lat="46.04423468549911" lon="12.025136020993573"><ele>275.0</ele><time>2026-04-03T15:30:18.999Z</time></trkpt><trkpt lat="46.04434213647455" lon="12.025116248220765"><ele>273.0</ele><time>2026-04-03T15:30:19.999Z</time></trkpt><trkpt lat="46.04447020146617" lon="12.025121888276034"><ele>271.0</ele><time>2026-04-03T15:30:20.999Z</time></trkpt><trkpt lat="46.044596974356814" lon="12.025132775605686"><ele>269.0</ele><time>2026-04-03T15:30:21.999Z</time></trkpt><trkpt lat="46.04470592937019" lon="12.02514019612854"><ele>267.0</ele><time>2026-04-03T15:30:22.999Z</time></trkpt><trkpt lat="46.04480458277952" lon="12.02514264861329"><ele>267.0</ele><time>2026-04-03T15:30:23.999Z</time></trkpt><trkpt lat="46.04489518928148" lon="12.025140586595027"><ele>267.0</ele><time>2026-04-03T15:30:24.999Z</time></trkpt><trkpt lat="46.04497634322244" lon="12.025138680420406"><ele>267.0</ele><time>2026-04-03T15:30:25.999Z</time></trkpt><trkpt lat="46.045077613740375" lon="12.025147290865487"><ele>267.0</ele><time>2026-04-03T15:30:27.999Z</time></trkpt><trkpt lat="46.04517499515694" lon="12.025164127408521"><ele>267.0</ele><time>2026-04-03T15:30:30.999Z</time></trkpt><trkpt lat="46.04526426938448" lon="12.025161724178282"><ele>266.4</ele><time>2026-04-03T15:30:37.999Z</time></trkpt><trkpt lat="46.04527838630309" lon="12.025003228052084"><ele>265.79999999999995</ele><time>2026-04-03T15:30:38.999Z</time></trkpt><trkpt lat="46.04528057236721" lon="12.024867738988476"><ele>265.2</ele><time>2026-04-03T15:30:39.999Z</time></trkpt><trkpt lat="46.04528924454231" lon="12.024723555724847"><ele>264.59999999999997</ele><time>2026-04-03T15:30:40.999Z</time></trkpt><trkpt lat="46.04530658476576" lon="12.02454879815221"><ele>264.0</ele><time>2026-04-03T15:30:41.999Z</time></trkpt><trkpt lat="46.045322394225884" lon="12.024379287179013"><ele>264.0</ele><time>2026-04-03T15:30:42.999Z</time></trkpt><trkpt lat="46.04532802899647" lon="12.024187804286834"><ele>264.0</ele><time>2026-04-03T15:30:43.999Z</time></trkpt><trkpt lat="46.045318753955684" lon="12.02398384925984"><ele>264.0</ele><time>2026-04-03T15:30:44.999Z</time></trkpt><trkpt lat="46.04530457826514" lon="12.023799624967571"><ele>264.0</ele><time>2026-04-03T15:30:45.999Z</time></trkpt><trkpt lat="46.04527573242603" lon="12.023600770158167"><ele>263.75</ele><time>2026-04-03T15:30:46.999Z</time></trkpt><trkpt lat="46.04524554870044" lon="12.023422069531643"><ele>263.5</ele><time>2026-04-03T15:30:47.999Z</time></trkpt><trkpt lat="46.04521534939531" lon="12.02325741863027"><ele>263.25</ele><time>2026-04-03T15:30:48.999Z</time></trkpt><trkpt lat="46.04518828144749" lon="12.023101481462893"><ele>263.0</ele><time>2026-04-03T15:30:49.999Z</time></trkpt><trkpt lat="46.04516209558475" lon="12.022930553225121"><ele>262.75</ele><time>2026-04-03T15:30:50.999Z</time></trkpt><trkpt lat="46.045132619597034" lon="12.022744281807086"><ele>262.5</ele><time>2026-04-03T15:30:51.999Z</time></trkpt><trkpt lat="46.04510066809327" lon="12.022572732934007"><ele>262.25</ele><time>2026-04-03T15:30:52.999Z</time></trkpt><trkpt lat="46.04507618255154" lon="12.02241678546668"><ele>262.0</ele><time>2026-04-03T15:30:53.999Z</time></trkpt><trkpt lat="46.04505208229075" lon="12.022266068655956"><ele>261.8</ele><time>2026-04-03T15:30:55Z</time></trkpt><trkpt lat="46.04502742168519" lon="12.022107460181676"><ele>261.6</ele><time>2026-04-03T15:30:56Z</time></trkpt><trkpt lat="46.04500455448801" lon="12.021952964038396"><ele>261.40000000000003</ele><time>2026-04-03T15:30:57Z</time></trkpt><trkpt lat="46.044974142051984" lon="12.021807693217989"><ele>261.2</ele><time>2026-04-03T15:30:58Z</time></trkpt><trkpt lat="46.04494291807737" lon="12.021664676614861"><ele>261.0</ele><time>2026-04-03T15:30:59Z</time></trkpt><trkpt lat="46.0449033717668" lon="12.021526270533911"><ele>261.0</ele><time>2026-04-03T15:31:00Z</time></trkpt><trkpt lat="46.04485510586655" lon="12.02139946590182"><ele>261.0</ele><time>2026-04-03T15:31:01Z</time></trkpt><trkpt lat="46.04480840268954" lon="12.021261277604559"><ele>261.0</ele><time>2026-04-03T15:31:02Z</time></trkpt><trkpt lat="46.044763521873065" lon="12.02111103222522"><ele>261.0</ele><time>2026-04-03T15:31:03Z</time></trkpt><trkpt lat="46.04472326723823" lon="12.020946237119484"><ele>261.0</ele><time>2026-04-03T15:31:04Z</time></trkpt><trkpt lat="46.044690834865996" lon="12.020774985240777"><ele>261.0</ele><time>2026-04-03T15:31:05Z</time></trkpt><trkpt lat="46.04466027707391" lon="12.020620772003525"><ele>261.0</ele><time>2026-04-03T15:31:06Z</time></trkpt><trkpt lat="46.04463485857371" lon="12.020477294958209"><ele>261.0</ele><time>2026-04-03T15:31:07Z</time></trkpt><trkpt lat="46.04461113348808" lon="12.020322430858"><ele>261.0</ele><time>2026-04-03T15:31:08Z</time></trkpt><trkpt lat="46.04458743023583" lon="12.020164324650931"><ele>261.0</ele><time>2026-04-03T15:31:09Z</time></trkpt><trkpt lat="46.044570254733564" lon="12.020004585947802"><ele>260.6</ele><time>2026-04-03T15:31:10Z</time></trkpt><trkpt lat="46.04456360822126" lon="12.019842047015253"><ele>260.20000000000005</ele><time>2026-04-03T15:31:11Z</time></trkpt><trkpt lat="46.04455769751835" lon="12.019685386436377"><ele>259.79999999999995</ele><time>2026-04-03T15:31:12Z</time></trkpt><trkpt lat="46.04457211647709" lon="12.019536106462823"><ele>259.4</ele><time>2026-04-03T15:31:13Z</time></trkpt><trkpt lat="46.04457139355183" lon="12.019397552122225"><ele>259.0</ele><time>2026-04-03T15:31:14Z</time></trkpt><trkpt lat="46.0445707079636" lon="12.019266153967584"><ele>258.8</ele><time>2026-04-03T15:31:15Z</time></trkpt><trkpt lat="46.04456998703113" lon="12.01912798155169"><ele>258.59999999999997</ele><time>2026-04-03T15:31:16Z</time></trkpt><trkpt lat="46.04456933050063" lon="12.018982555861927"><ele>258.4</ele><time>2026-04-03T15:31:17Z</time></trkpt><trkpt lat="46.04455326629574" lon="12.018827604089504"><ele>258.2</ele><time>2026-04-03T15:31:18Z</time></trkpt><trkpt lat="46.04455872303545" lon="12.01866101903587"><ele>258.0</ele><time>2026-04-03T15:31:19Z</time></trkpt><trkpt lat="46.04456051424086" lon="12.018492572900941"><ele>258.0</ele><time>2026-04-03T15:31:20Z</time></trkpt><trkpt lat="46.04455559985562" lon="12.01832450131583"><ele>258.0</ele><time>2026-04-03T15:31:21Z</time></trkpt><trkpt lat="46.04455668136685" lon="12.018175119680809"><ele>258.0</ele><time>2026-04-03T15:31:22Z</time></trkpt><trkpt lat="46.04455742596356" lon="12.018030829479004"><ele>258.0</ele><time>2026-04-03T15:31:23Z</time></trkpt><trkpt lat="46.04455565302957" lon="12.017880046563185"><ele>258.0</ele><time>2026-04-03T15:31:24Z</time></trkpt><trkpt lat="46.04455317849265" lon="12.017732679623812"><ele>257.8</ele><time>2026-04-03T15:31:25Z</time></trkpt><trkpt lat="46.04455027130138" lon="12.017582731753485"><ele>257.6</ele><time>2026-04-03T15:31:26Z</time></trkpt><trkpt lat="46.044549317390846" lon="12.01742735585156"><ele>257.4</ele><time>2026-04-03T15:31:27Z</time></trkpt><trkpt lat="46.04455068643232" lon="12.01726690049136"><ele>257.2</ele><time>2026-04-03T15:31:28Z</time></trkpt><trkpt lat="46.04455198724155" lon="12.017105852005074"><ele>257.0</ele><time>2026-04-03T15:31:29Z</time></trkpt><trkpt lat="46.044547085471905" lon="12.016941775652807"><ele>257.0</ele><time>2026-04-03T15:31:30Z</time></trkpt><trkpt lat="46.04453207885359" lon="12.016783031939681"><ele>257.0</ele><time>2026-04-03T15:31:31Z</time></trkpt><trkpt lat="46.04450528727823" lon="12.016609577846063"><ele>257.0</ele><time>2026-04-03T15:31:32Z</time></trkpt><trkpt lat="46.04448668928525" lon="12.016421839194718"><ele>257.0</ele><time>2026-04-03T15:31:33Z</time></trkpt><trkpt lat="46.044437894888794" lon="12.016233507766215"><ele>257.0</ele><time>2026-04-03T15:31:34Z</time></trkpt><trkpt lat="46.04436928527982" lon="12.016054368291924"><ele>257.0</ele><time>2026-04-03T15:31:35Z</time></trkpt><trkpt lat="46.044329424036" lon="12.015861844495024"><ele>257.0</ele><time>2026-04-03T15:31:36Z</time></trkpt><trkpt lat="46.04427318749957" lon="12.015670589811073"><ele>257.0</ele><time>2026-04-03T15:31:37Z</time></trkpt><trkpt lat="46.04421596108302" lon="12.015474734959309"><ele>256.75</ele><time>2026-04-03T15:31:38Z</time></trkpt><trkpt lat="46.044159367277366" lon="12.015281065478405"><ele>256.5</ele><time>2026-04-03T15:31:39Z</time></trkpt><trkpt lat="46.04410246617371" lon="12.01508634563576"><ele>256.25</ele><time>2026-04-03T15:31:40Z</time></trkpt><trkpt lat="46.044047127057794" lon="12.014892686917412"><ele>256.0</ele><time>2026-04-03T15:31:41Z</time></trkpt><trkpt lat="46.043988171401054" lon="12.014687107096366"><ele>256.0</ele><time>2026-04-03T15:31:42Z</time></trkpt><trkpt lat="46.04392857993298" lon="12.014479310008234"><ele>256.0</ele><time>2026-04-03T15:31:43Z</time></trkpt><trkpt lat="46.04387411994507" lon="12.014289406388189"><ele>256.0</ele><time>2026-04-03T15:31:44Z</time></trkpt><trkpt lat="46.04381775916257" lon="12.014092875028172"><ele>256.0</ele><time>2026-04-03T15:31:45Z</time></trkpt><trkpt lat="46.04375974145519" lon="12.013890565762022"><ele>254.66666666666666</ele><time>2026-04-03T15:31:46Z</time></trkpt><trkpt lat="46.04370065094129" lon="12.013684926317687"><ele>253.33333333333331</ele><time>2026-04-03T15:31:47Z</time></trkpt><trkpt lat="46.04364194237058" lon="12.013481100007649"><ele>252.0</ele><time>2026-04-03T15:31:48Z</time></trkpt><trkpt lat="46.043572281055006" lon="12.01329191438439"><ele>251.5</ele><time>2026-04-03T15:31:49Z</time></trkpt><trkpt lat="46.04352067859529" lon="12.013108063670247"><ele>251.0</ele><time>2026-04-03T15:31:50Z</time></trkpt><trkpt lat="46.04348262556505" lon="12.012927359803786"><ele>250.5</ele><time>2026-04-03T15:31:51Z</time></trkpt><trkpt lat="46.043414557330024" lon="12.01275230828713"><ele>250.0</ele><time>2026-04-03T15:31:52Z</time></trkpt><trkpt lat="46.04336223543615" lon="12.012562856694883"><ele>249.75</ele><time>2026-04-03T15:31:53Z</time></trkpt><trkpt lat="46.043312780493906" lon="12.012383171091361"><ele>249.5</ele><time>2026-04-03T15:31:54Z</time></trkpt><trkpt lat="46.04326467992284" lon="12.012215677958833"><ele>249.25</ele><time>2026-04-03T15:31:55Z</time></trkpt><trkpt lat="46.04321837054155" lon="12.012051726951393"><ele>249.0</ele><time>2026-04-03T15:31:56Z</time></trkpt><trkpt lat="46.043175708357246" lon="12.011904070740506"><ele>249.2</ele><time>2026-04-03T15:31:57Z</time></trkpt><trkpt lat="46.04313501385339" lon="12.011756146873536"><ele>249.39999999999998</ele><time>2026-04-03T15:31:58Z</time></trkpt><trkpt lat="46.043092242855586" lon="12.011615681602905"><ele>249.6</ele><time>2026-04-03T15:31:59Z</time></trkpt><trkpt lat="46.04304961528681" lon="12.011487702587628"><ele>249.8</ele><time>2026-04-03T15:32:00Z</time></trkpt><trkpt lat="46.043018675942776" lon="12.011369389643185"><ele>250.0</ele><time>2026-04-03T15:32:01Z</time></trkpt><trkpt lat="46.04300190199249" lon="12.011255165442655"><ele>249.99999999999997</ele><time>2026-04-03T15:32:02Z</time></trkpt><trkpt lat="46.0429704614907" lon="12.011124700590162"><ele>250.0</ele><time>2026-04-03T15:32:03Z</time></trkpt><trkpt lat="46.04297556214641" lon="12.011005097342357"><ele>250.0</ele><time>2026-04-03T15:32:04Z</time></trkpt><trkpt lat="46.04297970900986" lon="12.010887756902509"><ele>250.0</ele><time>2026-04-03T15:32:05Z</time></trkpt><trkpt lat="46.04294995745651" lon="12.010777623110512"><ele>249.99999999999997</ele><time>2026-04-03T15:32:06Z</time></trkpt><trkpt lat="46.04290032375848" lon="12.01070395964704"><ele>250.0</ele><time>2026-04-03T15:32:07Z</time></trkpt><trkpt lat="46.04283859548846" lon="12.01064406723799"><ele>249.83333333333331</ele><time>2026-04-03T15:32:08Z</time></trkpt><trkpt lat="46.04279002588872" lon="12.01056236070971"><ele>249.66666666666666</ele><time>2026-04-03T15:32:09Z</time></trkpt><trkpt lat="46.04275672579764" lon="12.010479921422647"><ele>249.5</ele><time>2026-04-03T15:32:10Z</time></trkpt><trkpt lat="46.04272722182602" lon="12.010386812374525"><ele>249.33333333333331</ele><time>2026-04-03T15:32:11Z</time></trkpt><trkpt lat="46.04269029735333" lon="12.010291763502254"><ele>249.16666666666666</ele><time>2026-04-03T15:32:12Z</time></trkpt><trkpt lat="46.042647956220996" lon="12.010192625566443"><ele>249.0</ele><time>2026-04-03T15:32:13Z</time></trkpt><trkpt lat="46.04261001701437" lon="12.010081103577766"><ele>249.2</ele><time>2026-04-03T15:32:13.999Z</time></trkpt><trkpt lat="46.04258243771318" lon="12.009948214655905"><ele>249.39999999999998</ele><time>2026-04-03T15:32:14.999Z</time></trkpt><trkpt lat="46.04251697146564" lon="12.009829768369663"><ele>249.6</ele><time>2026-04-03T15:32:15.999Z</time></trkpt><trkpt lat="46.042463905017705" lon="12.009692729453437"><ele>249.8</ele><time>2026-04-03T15:32:16.999Z</time></trkpt><trkpt lat="46.04240768230704" lon="12.009566504201873"><ele>250.0</ele><time>2026-04-03T15:32:17.999Z</time></trkpt><trkpt lat="46.04234806150739" lon="12.009426329651912"><ele>250.0</ele><time>2026-04-03T15:32:18.999Z</time></trkpt><trkpt lat="46.04228551398487" lon="12.00928312227836"><ele>250.0</ele><time>2026-04-03T15:32:19.999Z</time></trkpt><trkpt lat="46.042223549013" lon="12.009137462880576"><ele>250.0</ele><time>2026-04-03T15:32:20.999Z</time></trkpt><trkpt lat="46.04216736011239" lon="12.008981854585333"><ele>250.0</ele><time>2026-04-03T15:32:21.999Z</time></trkpt><trkpt lat="46.04209780037697" lon="12.008826819068261"><ele>249.75</ele><time>2026-04-03T15:32:22.999Z</time></trkpt><trkpt lat="46.04202976298696" lon="12.008667083414064"><ele>249.5</ele><time>2026-04-03T15:32:23.999Z</time></trkpt><trkpt lat="46.04196211385339" lon="12.008506174225097"><ele>249.25</ele><time>2026-04-03T15:32:24.999Z</time></trkpt><trkpt lat="46.04189866008259" lon="12.00832949216023"><ele>249.0</ele><time>2026-04-03T15:32:25.999Z</time></trkpt><trkpt lat="46.04181508477064" lon="12.008180207454158"><ele>248.75</ele><time>2026-04-03T15:32:26.999Z</time></trkpt><trkpt lat="46.041742284736294" lon="12.008013458851462"><ele>248.5</ele><time>2026-04-03T15:32:27.999Z</time></trkpt><trkpt lat="46.041669168518595" lon="12.007840692788108"><ele>248.25</ele><time>2026-04-03T15:32:28.999Z</time></trkpt><trkpt lat="46.041589337018564" lon="12.007663474716752"><ele>248.0</ele><time>2026-04-03T15:32:29.999Z</time></trkpt><trkpt lat="46.04150041780797" lon="12.00746095193519"><ele>247.66666666666669</ele><time>2026-04-03T15:32:30.999Z</time></trkpt><trkpt lat="46.04142196742217" lon="12.007282218164907"><ele>247.33333333333331</ele><time>2026-04-03T15:32:31.999Z</time></trkpt><trkpt lat="46.041323810488485" lon="12.0070706606851"><ele>247.0</ele><time>2026-04-03T15:32:32.999Z</time></trkpt><trkpt lat="46.04123076311066" lon="12.006856440465157"><ele>247.0</ele><time>2026-04-03T15:32:33.999Z</time></trkpt><trkpt lat="46.041152376183966" lon="12.006662663177755"><ele>247.0</ele><time>2026-04-03T15:32:34.999Z</time></trkpt><trkpt lat="46.041071203134756" lon="12.006465660704608"><ele>247.0</ele><time>2026-04-03T15:32:35.999Z</time></trkpt><trkpt lat="46.04098212300595" lon="12.00626781319353"><ele>246.66666666666666</ele><time>2026-04-03T15:32:36.999Z</time></trkpt><trkpt lat="46.040891257694135" lon="12.006073017943265"><ele>246.33333333333331</ele><time>2026-04-03T15:32:37.999Z</time></trkpt><trkpt lat="46.04080480404242" lon="12.00586800412963"><ele>246.0</ele><time>2026-04-03T15:32:38.999Z</time></trkpt><trkpt lat="46.04071999931411" lon="12.005672695653304"><ele>246.0</ele><time>2026-04-03T15:32:39.999Z</time></trkpt><trkpt lat="46.04065439036756" lon="12.00549209436586"><ele>246.0</ele><time>2026-04-03T15:32:40.999Z</time></trkpt><trkpt lat="46.04057090028539" lon="12.00531293931821"><ele>246.0</ele><time>2026-04-03T15:32:41.999Z</time></trkpt><trkpt lat="46.04048231163197" lon="12.005125002479753"><ele>246.0</ele><time>2026-04-03T15:32:42.999Z</time></trkpt><trkpt lat="46.040396370465075" lon="12.004928735586438"><ele>245.66666666666669</ele><time>2026-04-03T15:32:43.999Z</time></trkpt><trkpt lat="46.04030799690311" lon="12.004727600656954"><ele>245.33333333333334</ele><time>2026-04-03T15:32:44.999Z</time></trkpt><trkpt lat="46.040219836011964" lon="12.004533721401966"><ele>245.0</ele><time>2026-04-03T15:32:45.999Z</time></trkpt><trkpt lat="46.040139776153794" lon="12.00433411293197"><ele>244.33333333333334</ele><time>2026-04-03T15:32:46.999Z</time></trkpt><trkpt lat="46.04005485988207" lon="12.004134937415389"><ele>243.66666666666669</ele><time>2026-04-03T15:32:47.999Z</time></trkpt><trkpt lat="46.039971195108606" lon="12.003952142914466"><ele>243.0</ele><time>2026-04-03T15:32:48.999Z</time></trkpt><trkpt lat="46.039886484480974" lon="12.003770535643044"><ele>243.0</ele><time>2026-04-03T15:32:49.999Z</time></trkpt><trkpt lat="46.03980409523894" lon="12.003582263145264"><ele>243.0</ele><time>2026-04-03T15:32:50.999Z</time></trkpt><trkpt lat="46.03971578072078" lon="12.00340103840829"><ele>243.0</ele><time>2026-04-03T15:32:51.999Z</time></trkpt><trkpt lat="46.039613619836395" lon="12.003220174040404"><ele>243.0</ele><time>2026-04-03T15:32:52.999Z</time></trkpt><trkpt lat="46.03951244018198" lon="12.003044685974414"><ele>243.0</ele><time>2026-04-03T15:32:53.999Z</time></trkpt><trkpt lat="46.03941574714647" lon="12.002886744968444"><ele>243.0</ele><time>2026-04-03T15:32:54.999Z</time></trkpt><trkpt lat="46.039314594364974" lon="12.002717757757058"><ele>243.0</ele><time>2026-04-03T15:32:55.999Z</time></trkpt><trkpt lat="46.03921267904093" lon="12.002544251250578"><ele>243.0</ele><time>2026-04-03T15:32:56.999Z</time></trkpt><trkpt lat="46.039108593659925" lon="12.002369647808619"><ele>243.0</ele><time>2026-04-03T15:32:57.999Z</time></trkpt><trkpt lat="46.03900434657423" lon="12.002200071520278"><ele>243.0</ele><time>2026-04-03T15:32:58.999Z</time></trkpt><trkpt lat="46.038909659210645" lon="12.002044110290942"><ele>243.0</ele><time>2026-04-03T15:32:59.999Z</time></trkpt><trkpt lat="46.03881728435903" lon="12.00188090018874"><ele>243.0</ele><time>2026-04-03T15:33:01Z</time></trkpt><trkpt lat="46.03872363304311" lon="12.001705668971189"><ele>243.0</ele><time>2026-04-03T15:33:02Z</time></trkpt><trkpt lat="46.03862899407841" lon="12.001523693481003"><ele>243.0</ele><time>2026-04-03T15:33:03Z</time></trkpt><trkpt lat="46.03854041711317" lon="12.001333704178538"><ele>243.0</ele><time>2026-04-03T15:33:04Z</time></trkpt><trkpt lat="46.038465529718565" lon="12.001152486020064"><ele>243.0</ele><time>2026-04-03T15:33:05Z</time></trkpt><trkpt lat="46.03839662601433" lon="12.000973453224805"><ele>243.0</ele><time>2026-04-03T15:33:06Z</time></trkpt><trkpt lat="46.03833009326101" lon="12.000788734456334"><ele>242.33333333333331</ele><time>2026-04-03T15:33:07Z</time></trkpt><trkpt lat="46.03826694938398" lon="12.000591658327808"><ele>241.66666666666666</ele><time>2026-04-03T15:33:08Z</time></trkpt><trkpt lat="46.03820504418312" lon="12.000395342664174"><ele>241.0</ele><time>2026-04-03T15:33:09Z</time></trkpt><trkpt lat="46.038146440671156" lon="12.000192452415645"><ele>241.0</ele><time>2026-04-03T15:33:10Z</time></trkpt><trkpt lat="46.038093808487254" lon="11.999985381632076"><ele>241.0</ele><time>2026-04-03T15:33:11Z</time></trkpt><trkpt lat="46.038050386670555" lon="11.999777221899773"><ele>241.0</ele><time>2026-04-03T15:33:12Z</time></trkpt><trkpt lat="46.0380094063412" lon="11.99956591075148"><ele>241.0</ele><time>2026-04-03T15:33:13Z</time></trkpt><trkpt lat="46.03797332344818" lon="11.999349857708062"><ele>241.0</ele><time>2026-04-03T15:33:14Z</time></trkpt><trkpt lat="46.03794206454875" lon="11.999136889526438"><ele>241.0</ele><time>2026-04-03T15:33:15Z</time></trkpt><trkpt lat="46.037912826588894" lon="11.998922529469306"><ele>241.33333333333331</ele><time>2026-04-03T15:33:16Z</time></trkpt><trkpt lat="46.03788285350966" lon="11.998707036960974"><ele>241.66666666666669</ele><time>2026-04-03T15:33:17Z</time></trkpt><trkpt lat="46.03785538729049" lon="11.998489729859733"><ele>242.0</ele><time>2026-04-03T15:33:18Z</time></trkpt><trkpt lat="46.03783546912077" lon="11.998266705952226"><ele>241.0</ele><time>2026-04-03T15:33:19Z</time></trkpt><trkpt lat="46.03781337435214" lon="11.998049773874506"><ele>240.0</ele><time>2026-04-03T15:33:20Z</time></trkpt><trkpt lat="46.037793403277014" lon="11.997828955220463"><ele>239.0</ele><time>2026-04-03T15:33:21Z</time></trkpt><trkpt lat="46.03777846768365" lon="11.997608794765993"><ele>239.66666666666669</ele><time>2026-04-03T15:33:22Z</time></trkpt><trkpt lat="46.037769055614575" lon="11.99739634110504"><ele>240.33333333333331</ele><time>2026-04-03T15:33:23Z</time></trkpt><trkpt lat="46.03776107239211" lon="11.997176389419826"><ele>241.0</ele><time>2026-04-03T15:33:24Z</time></trkpt><trkpt lat="46.03775985580204" lon="11.996960681180068"><ele>241.0</ele><time>2026-04-03T15:33:25Z</time></trkpt><trkpt lat="46.037761898424854" lon="11.996749587607377"><ele>241.0</ele><time>2026-04-03T15:33:26Z</time></trkpt><trkpt lat="46.03776084020502" lon="11.996549770308201"><ele>241.0</ele><time>2026-04-03T15:33:27Z</time></trkpt><trkpt lat="46.0377626587757" lon="11.996360104954082"><ele>241.0</ele><time>2026-04-03T15:33:28Z</time></trkpt><trkpt lat="46.03776834284902" lon="11.996163651459828"><ele>241.25</ele><time>2026-04-03T15:33:29Z</time></trkpt><trkpt lat="46.03777540984938" lon="11.995968597278331"><ele>241.5</ele><time>2026-04-03T15:33:30Z</time></trkpt><trkpt lat="46.03778568778985" lon="11.995775124833104"><ele>241.75</ele><time>2026-04-03T15:33:31Z</time></trkpt><trkpt lat="46.03779618375774" lon="11.995589001265573"><ele>242.0</ele><time>2026-04-03T15:33:32Z</time></trkpt><trkpt lat="46.0378085558706" lon="11.995393143678898"><ele>242.0</ele><time>2026-04-03T15:33:33Z</time></trkpt><trkpt lat="46.03782695551648" lon="11.995189132179753"><ele>242.0</ele><time>2026-04-03T15:33:34Z</time></trkpt><trkpt lat="46.03784609305902" lon="11.994980210288254"><ele>242.0</ele><time>2026-04-03T15:33:35Z</time></trkpt><trkpt lat="46.03787032116681" lon="11.994764511141266"><ele>242.0</ele><time>2026-04-03T15:33:36Z</time></trkpt><trkpt lat="46.03789533270279" lon="11.994558448479752"><ele>242.0</ele><time>2026-04-03T15:33:37Z</time></trkpt><trkpt lat="46.03791358976591" lon="11.994368878176626"><ele>242.0</ele><time>2026-04-03T15:33:38Z</time></trkpt><trkpt lat="46.03793261763877" lon="11.99417903527196"><ele>242.0</ele><time>2026-04-03T15:33:39Z</time></trkpt><trkpt lat="46.037953567796606" lon="11.993982757463062"><ele>242.0</ele><time>2026-04-03T15:33:40Z</time></trkpt><trkpt lat="46.037972412116694" lon="11.993793877901869"><ele>241.5</ele><time>2026-04-03T15:33:41Z</time></trkpt><trkpt lat="46.037991302040936" lon="11.993605226962694"><ele>241.0</ele><time>2026-04-03T15:33:42Z</time></trkpt><trkpt lat="46.03800705394757" lon="11.99342914002544"><ele>240.5</ele><time>2026-04-03T15:33:43Z</time></trkpt><trkpt lat="46.03802607690641" lon="11.993251796587849"><ele>240.0</ele><time>2026-04-03T15:33:44Z</time></trkpt><trkpt lat="46.03804404654219" lon="11.993070442653798"><ele>240.0</ele><time>2026-04-03T15:33:45Z</time></trkpt><trkpt lat="46.03806198061281" lon="11.992893416524712"><ele>240.0</ele><time>2026-04-03T15:33:46Z</time></trkpt><trkpt lat="46.03808194471982" lon="11.992712879706131"><ele>240.0</ele><time>2026-04-03T15:33:47Z</time></trkpt><trkpt lat="46.03809934467737" lon="11.992532038843246"><ele>240.0</ele><time>2026-04-03T15:33:48Z</time></trkpt><trkpt lat="46.03812017992534" lon="11.992346257215143"><ele>240.0</ele><time>2026-04-03T15:33:49Z</time></trkpt><trkpt lat="46.038138604117215" lon="11.992159011734941"><ele>240.0</ele><time>2026-04-03T15:33:50Z</time></trkpt><trkpt lat="46.038156480990025" lon="11.991965447927532"><ele>240.0</ele><time>2026-04-03T15:33:51Z</time></trkpt><trkpt lat="46.03817256184919" lon="11.991784168045172"><ele>240.0</ele><time>2026-04-03T15:33:52Z</time></trkpt><trkpt lat="46.03819020854998" lon="11.99160764159971"><ele>240.0</ele><time>2026-04-03T15:33:53Z</time></trkpt><trkpt lat="46.03820940722409" lon="11.991424684760789"><ele>240.0</ele><time>2026-04-03T15:33:54Z</time></trkpt><trkpt lat="46.03822809790943" lon="11.99124054111699"><ele>240.0</ele><time>2026-04-03T15:33:55Z</time></trkpt><trkpt lat="46.03824973359336" lon="11.991060755506982"><ele>240.0</ele><time>2026-04-03T15:33:56Z</time></trkpt><trkpt lat="46.038270734871965" lon="11.990882516305742"><ele>240.0</ele><time>2026-04-03T15:33:57Z</time></trkpt><trkpt lat="46.03828401558574" lon="11.990720255962978"><ele>240.0</ele><time>2026-04-03T15:33:58Z</time></trkpt><trkpt lat="46.03829893498028" lon="11.99055364468809"><ele>240.0</ele><time>2026-04-03T15:33:59Z</time></trkpt><trkpt lat="46.03831182878554" lon="11.990385267499246"><ele>240.0</ele><time>2026-04-03T15:34:00Z</time></trkpt><trkpt lat="46.038318106916485" lon="11.990219969957623"><ele>239.75</ele><time>2026-04-03T15:34:01Z</time></trkpt><trkpt lat="46.0383124887157" lon="11.990043924074184"><ele>239.5</ele><time>2026-04-03T15:34:02Z</time></trkpt><trkpt lat="46.03829631287418" lon="11.989860561456723"><ele>239.25</ele><time>2026-04-03T15:34:03Z</time></trkpt><trkpt lat="46.03827575289633" lon="11.989682049987612"><ele>239.0</ele><time>2026-04-03T15:34:04Z</time></trkpt><trkpt lat="46.03824997543299" lon="11.989503655627653"><ele>239.0</ele><time>2026-04-03T15:34:05Z</time></trkpt><trkpt lat="46.038230869696655" lon="11.98933141982082"><ele>239.0</ele><time>2026-04-03T15:34:06Z</time></trkpt><trkpt lat="46.03820633792504" lon="11.989150957630187"><ele>239.0</ele><time>2026-04-03T15:34:07Z</time></trkpt><trkpt lat="46.038179154871" lon="11.988968189406712"><ele>239.0</ele><time>2026-04-03T15:34:08Z</time></trkpt><trkpt lat="46.038146543325986" lon="11.988782221202289"><ele>238.25</ele><time>2026-04-03T15:34:09Z</time></trkpt><trkpt lat="46.038113938823514" lon="11.988572293457237"><ele>237.5</ele><time>2026-04-03T15:34:10Z</time></trkpt><trkpt lat="46.03808720754441" lon="11.98838134116553"><ele>236.75</ele><time>2026-04-03T15:34:11Z</time></trkpt><trkpt lat="46.038066258336485" lon="11.98821269028463"><ele>236.0</ele><time>2026-04-03T15:34:12Z</time></trkpt><trkpt lat="46.03804551264338" lon="11.988033892558628"><ele>235.5</ele><time>2026-04-03T15:34:13Z</time></trkpt><trkpt lat="46.038033187140705" lon="11.987844058800091"><ele>235.0</ele><time>2026-04-03T15:34:14Z</time></trkpt><trkpt lat="46.038031177004505" lon="11.987641183523895"><ele>234.5</ele><time>2026-04-03T15:34:15Z</time></trkpt><trkpt lat="46.03803768159136" lon="11.987447645415353"><ele>234.0</ele><time>2026-04-03T15:34:16Z</time></trkpt><trkpt lat="46.03804703210722" lon="11.987272209674265"><ele>233.75</ele><time>2026-04-03T15:34:17Z</time></trkpt><trkpt lat="46.038049770045156" lon="11.987091755524025"><ele>233.5</ele><time>2026-04-03T15:34:18Z</time></trkpt><trkpt lat="46.038052996935015" lon="11.98689902389485"><ele>233.25</ele><time>2026-04-03T15:34:19Z</time></trkpt><trkpt lat="46.03805477274251" lon="11.986692462355856"><ele>233.0</ele><time>2026-04-03T15:34:19.999Z</time></trkpt><trkpt lat="46.03805603976292" lon="11.986513943420151"><ele>233.0</ele><time>2026-04-03T15:34:20.999Z</time></trkpt><trkpt lat="46.038059164066055" lon="11.986346189494684"><ele>233.0</ele><time>2026-04-03T15:34:21.999Z</time></trkpt><trkpt lat="46.03806387452207" lon="11.986173458225755"><ele>233.0</ele><time>2026-04-03T15:34:22.999Z</time></trkpt><trkpt lat="46.038070626035555" lon="11.986002300249282"><ele>233.0</ele><time>2026-04-03T15:34:23.999Z</time></trkpt><trkpt lat="46.03807848309224" lon="11.985842524464129"><ele>233.5</ele><time>2026-04-03T15:34:24.999Z</time></trkpt><trkpt lat="46.038108559273795" lon="11.98568422730051"><ele>234.0</ele><time>2026-04-03T15:34:25.999Z</time></trkpt><trkpt lat="46.038164194065004" lon="11.985518093661554"><ele>234.5</ele><time>2026-04-03T15:34:26.999Z</time></trkpt><trkpt lat="46.038245688443894" lon="11.985365254097106"><ele>235.0</ele><time>2026-04-03T15:34:27.999Z</time></trkpt><trkpt lat="46.03831424981851" lon="11.985207654122908"><ele>235.0</ele><time>2026-04-03T15:34:28.999Z</time></trkpt><trkpt lat="46.03837236486219" lon="11.985048938241855"><ele>235.0</ele><time>2026-04-03T15:34:29.999Z</time></trkpt><trkpt lat="46.038429781928976" lon="11.984899331298147"><ele>235.0</ele><time>2026-04-03T15:34:30.999Z</time></trkpt><trkpt lat="46.03848566793219" lon="11.984766259947806"><ele>235.0</ele><time>2026-04-03T15:34:31.999Z</time></trkpt><trkpt lat="46.038538773210554" lon="11.98462556131579"><ele>236.0</ele><time>2026-04-03T15:34:32.999Z</time></trkpt><trkpt lat="46.0385891451088" lon="11.984493888764025"><ele>237.0</ele><time>2026-04-03T15:34:33.999Z</time></trkpt><trkpt lat="46.03863763374981" lon="11.984365159953224"><ele>238.0</ele><time>2026-04-03T15:34:34.999Z</time></trkpt><trkpt lat="46.03868318289413" lon="11.984236508985115"><ele>239.0</ele><time>2026-04-03T15:34:35.999Z</time></trkpt><trkpt lat="46.03871868828973" lon="11.984106218622438"><ele>240.0</ele><time>2026-04-03T15:34:36.999Z</time></trkpt><trkpt lat="46.0387406578004" lon="11.983967952695252"><ele>241.0</ele><time>2026-04-03T15:34:37.999Z</time></trkpt><trkpt lat="46.03875778402737" lon="11.983842882244991"><ele>242.0</ele><time>2026-04-03T15:34:38.999Z</time></trkpt><trkpt lat="46.038767756860764" lon="11.983717618762217"><ele>243.0</ele><time>2026-04-03T15:34:39.999Z</time></trkpt><trkpt lat="46.03877503162275" lon="11.98361545975111"><ele>244.0</ele><time>2026-04-03T15:34:40.999Z</time></trkpt><trkpt lat="46.03878280236204" lon="11.983521271266554"><ele>245.0</ele><time>2026-04-03T15:34:41.999Z</time></trkpt><trkpt lat="46.038825363583385" lon="11.983351287243014"><ele>246.0</ele><time>2026-04-03T15:34:43.999Z</time></trkpt><trkpt lat="46.03887197354899" lon="11.983250993436556"><ele>246.0</ele><time>2026-04-03T15:34:44.999Z</time></trkpt><trkpt lat="46.03891145051042" lon="11.983144068027483"><ele>246.0</ele><time>2026-04-03T15:34:45.999Z</time></trkpt><trkpt lat="46.03892130879137" lon="11.983028040587802"><ele>246.0</ele><time>2026-04-03T15:34:46.999Z</time></trkpt><trkpt lat="46.03890086532929" lon="11.98291718663861"><ele>246.0</ele><time>2026-04-03T15:34:47.999Z</time></trkpt><trkpt lat="46.038848961287584" lon="11.982815094119838"><ele>246.0</ele><time>2026-04-03T15:34:48.999Z</time></trkpt><trkpt lat="46.03877137000968" lon="11.98272845826466"><ele>246.0</ele><time>2026-04-03T15:34:49.999Z</time></trkpt><trkpt lat="46.03868737795418" lon="11.982630194460057"><ele>246.0</ele><time>2026-04-03T15:34:50.999Z</time></trkpt><trkpt lat="46.038607740449635" lon="11.982520889197833"><ele>246.0</ele><time>2026-04-03T15:34:51.999Z</time></trkpt><trkpt lat="46.03853269099724" lon="11.982390488786155"><ele>246.0</ele><time>2026-04-03T15:34:52.999Z</time></trkpt><trkpt lat="46.038459679774554" lon="11.982249649172944"><ele>246.0</ele><time>2026-04-03T15:34:53.999Z</time></trkpt><trkpt lat="46.038386364123504" lon="11.982116515994422"><ele>246.0</ele><time>2026-04-03T15:34:54.999Z</time></trkpt><trkpt lat="46.038315030413926" lon="11.981980918488752"><ele>246.0</ele><time>2026-04-03T15:34:55.999Z</time></trkpt><trkpt lat="46.03824990191748" lon="11.981846586766803"><ele>246.0</ele><time>2026-04-03T15:34:56.999Z</time></trkpt><trkpt lat="46.03818791796065" lon="11.981711997278445"><ele>246.0</ele><time>2026-04-03T15:34:57.999Z</time></trkpt><trkpt lat="46.03812681102048" lon="11.981573120339128"><ele>246.25</ele><time>2026-04-03T15:34:58.999Z</time></trkpt><trkpt lat="46.03807002262239" lon="11.98143265653575"><ele>246.5</ele><time>2026-04-03T15:34:59.999Z</time></trkpt><trkpt lat="46.0380119279571" lon="11.981290746692126"><ele>246.75</ele><time>2026-04-03T15:35:00.999Z</time></trkpt><trkpt lat="46.037951799986395" lon="11.981142334412048"><ele>247.0</ele><time>2026-04-03T15:35:01.999Z</time></trkpt><trkpt lat="46.03789033004331" lon="11.98099764230264"><ele>247.0</ele><time>2026-04-03T15:35:02.999Z</time></trkpt><trkpt lat="46.03782909208802" lon="11.980844605538069"><ele>247.0</ele><time>2026-04-03T15:35:03.999Z</time></trkpt><trkpt lat="46.03776696438579" lon="11.9806883997093"><ele>247.0</ele><time>2026-04-03T15:35:04.999Z</time></trkpt><trkpt lat="46.037702958865346" lon="11.980533547360796"><ele>247.0</ele><time>2026-04-03T15:35:05.999Z</time></trkpt><trkpt lat="46.03763671494074" lon="11.980366172934588"><ele>247.0</ele><time>2026-04-03T15:35:07Z</time></trkpt><trkpt lat="46.0375663226524" lon="11.980194098187662"><ele>247.0</ele><time>2026-04-03T15:35:08Z</time></trkpt><trkpt lat="46.037492737025346" lon="11.980016243069487"><ele>247.0</ele><time>2026-04-03T15:35:09Z</time></trkpt><trkpt lat="46.03741890220666" lon="11.979835747017814"><ele>247.0</ele><time>2026-04-03T15:35:10Z</time></trkpt><trkpt lat="46.03734160139382" lon="11.979649786594543"><ele>249.66666666666666</ele><time>2026-04-03T15:35:11Z</time></trkpt><trkpt lat="46.037264475888094" lon="11.97946267614963"><ele>252.33333333333331</ele><time>2026-04-03T15:35:12Z</time></trkpt><trkpt lat="46.03717980859052" lon="11.979249288000462"><ele>255.0</ele><time>2026-04-03T15:35:13Z</time></trkpt><trkpt lat="46.03708503599989" lon="11.979020529978865"><ele>257.0</ele><time>2026-04-03T15:35:14Z</time></trkpt><trkpt lat="46.0369978479149" lon="11.978815097198757"><ele>259.0</ele><time>2026-04-03T15:35:15Z</time></trkpt><trkpt lat="46.036912383282555" lon="11.978594976843821"><ele>261.0</ele><time>2026-04-03T15:35:16Z</time></trkpt><trkpt lat="46.03683027919813" lon="11.978400876306587"><ele>262.0</ele><time>2026-04-03T15:35:17Z</time></trkpt><trkpt lat="46.03675423920067" lon="11.978205342030558"><ele>263.0</ele><time>2026-04-03T15:35:18Z</time></trkpt><trkpt lat="46.036664692415314" lon="11.97799192894279"><ele>264.0</ele><time>2026-04-03T15:35:19Z</time></trkpt><trkpt lat="46.036574379408414" lon="11.977770416294073"><ele>264.0</ele><time>2026-04-03T15:35:20Z</time></trkpt><trkpt lat="46.03648572436642" lon="11.977554231386357"><ele>264.0</ele><time>2026-04-03T15:35:21Z</time></trkpt><trkpt lat="46.036404920726696" lon="11.97735827300268"><ele>264.0</ele><time>2026-04-03T15:35:22Z</time></trkpt><trkpt lat="46.03632930951371" lon="11.977166024884113"><ele>262.3333333333333</ele><time>2026-04-03T15:35:23Z</time></trkpt><trkpt lat="46.03625473019847" lon="11.976973946739667"><ele>260.66666666666663</ele><time>2026-04-03T15:35:24Z</time></trkpt><trkpt lat="46.03617920918515" lon="11.976784651847941"><ele>259.0</ele><time>2026-04-03T15:35:25Z</time></trkpt><trkpt lat="46.03610241901307" lon="11.97659851989384"><ele>258.5</ele><time>2026-04-03T15:35:26Z</time></trkpt><trkpt lat="46.03602466973139" lon="11.976403912601022"><ele>258.0</ele><time>2026-04-03T15:35:27Z</time></trkpt><trkpt lat="46.035949172272076" lon="11.97622097300283"><ele>257.5</ele><time>2026-04-03T15:35:28Z</time></trkpt><trkpt lat="46.03588325613529" lon="11.976052587704169"><ele>257.0</ele><time>2026-04-03T15:35:29Z</time></trkpt><trkpt lat="46.03581765782177" lon="11.975880268711235"><ele>258.25</ele><time>2026-04-03T15:35:30Z</time></trkpt><trkpt lat="46.035746152706004" lon="11.975708527554447"><ele>259.5</ele><time>2026-04-03T15:35:31Z</time></trkpt><trkpt lat="46.03567523597517" lon="11.975534242574138"><ele>260.75</ele><time>2026-04-03T15:35:32Z</time></trkpt><trkpt lat="46.03560173624122" lon="11.975357336945136"><ele>262.0</ele><time>2026-04-03T15:35:33Z</time></trkpt><trkpt lat="46.03552783051369" lon="11.975173076327064"><ele>262.0</ele><time>2026-04-03T15:35:34Z</time></trkpt><trkpt lat="46.03544831198156" lon="11.974983733452694"><ele>262.0</ele><time>2026-04-03T15:35:35Z</time></trkpt><trkpt lat="46.035362334908704" lon="11.974772724141785"><ele>262.0</ele><time>2026-04-03T15:35:36Z</time></trkpt><trkpt lat="46.03527849918513" lon="11.974571058208394"><ele>262.0</ele><time>2026-04-03T15:35:37Z</time></trkpt><trkpt lat="46.03520226576918" lon="11.974377409726904"><ele>262.0</ele><time>2026-04-03T15:35:38Z</time></trkpt><trkpt lat="46.03511786720849" lon="11.974170309450896"><ele>262.0</ele><time>2026-04-03T15:35:39Z</time></trkpt><trkpt lat="46.03503670881771" lon="11.973972663753818"><ele>263.66666666666663</ele><time>2026-04-03T15:35:40Z</time></trkpt><trkpt lat="46.034960886352124" lon="11.9737837177907"><ele>265.3333333333333</ele><time>2026-04-03T15:35:41Z</time></trkpt><trkpt lat="46.03488440123181" lon="11.973587989925608"><ele>267.0</ele><time>2026-04-03T15:35:42Z</time></trkpt><trkpt lat="46.034805309224765" lon="11.97340615870699"><ele>266.0</ele><time>2026-04-03T15:35:43Z</time></trkpt><trkpt lat="46.03472897912609" lon="11.973215771624671"><ele>265.0</ele><time>2026-04-03T15:35:44Z</time></trkpt><trkpt lat="46.03465189883258" lon="11.97302446450767"><ele>264.0</ele><time>2026-04-03T15:35:45Z</time></trkpt><trkpt lat="46.0345780541457" lon="11.972832486030464"><ele>264.0</ele><time>2026-04-03T15:35:46Z</time></trkpt><trkpt lat="46.03450263454898" lon="11.972641631800869"><ele>264.0</ele><time>2026-04-03T15:35:47Z</time></trkpt><trkpt lat="46.03442769947475" lon="11.972446982480474"><ele>264.0</ele><time>2026-04-03T15:35:48Z</time></trkpt><trkpt lat="46.0343514550137" lon="11.97225011057684"><ele>264.3333333333333</ele><time>2026-04-03T15:35:49Z</time></trkpt><trkpt lat="46.034275166453085" lon="11.972055277407021"><ele>264.66666666666663</ele><time>2026-04-03T15:35:50Z</time></trkpt><trkpt lat="46.034202022970604" lon="11.971861009389215"><ele>265.0</ele><time>2026-04-03T15:35:51Z</time></trkpt><trkpt lat="46.03412874160266" lon="11.97166299849098"><ele>264.0</ele><time>2026-04-03T15:35:52Z</time></trkpt><trkpt lat="46.03405944166085" lon="11.971464885658662"><ele>263.0</ele><time>2026-04-03T15:35:53Z</time></trkpt><trkpt lat="46.03398553630079" lon="11.971265232398371"><ele>262.0</ele><time>2026-04-03T15:35:54Z</time></trkpt><trkpt lat="46.033908127249866" lon="11.971066388450783"><ele>262.0</ele><time>2026-04-03T15:35:55Z</time></trkpt><trkpt lat="46.03384128778147" lon="11.97088490126443"><ele>262.0</ele><time>2026-04-03T15:35:56Z</time></trkpt><trkpt lat="46.033776557893745" lon="11.970705941087017"><ele>262.0</ele><time>2026-04-03T15:35:57Z</time></trkpt><trkpt lat="46.0337090230796" lon="11.970520246376132"><ele>262.0</ele><time>2026-04-03T15:35:58Z</time></trkpt><trkpt lat="46.03364258324806" lon="11.970323499114771"><ele>262.3333333333333</ele><time>2026-04-03T15:35:59Z</time></trkpt><trkpt lat="46.03359256781819" lon="11.970118096839945"><ele>262.6666666666667</ele><time>2026-04-03T15:36:00Z</time></trkpt><trkpt lat="46.033553965280056" lon="11.969895275690881"><ele>263.0</ele><time>2026-04-03T15:36:01Z</time></trkpt><trkpt lat="46.033522189173944" lon="11.969660804181691"><ele>263.6666666666667</ele><time>2026-04-03T15:36:02Z</time></trkpt><trkpt lat="46.033503621497005" lon="11.969415879904941"><ele>264.3333333333333</ele><time>2026-04-03T15:36:03Z</time></trkpt><trkpt lat="46.03349713418175" lon="11.969164748157208"><ele>265.0</ele><time>2026-04-03T15:36:04Z</time></trkpt><trkpt lat="46.03349770667217" lon="11.96892683428692"><ele>265.0</ele><time>2026-04-03T15:36:05Z</time></trkpt><trkpt lat="46.033499989437914" lon="11.968703790588282"><ele>265.0</ele><time>2026-04-03T15:36:06Z</time></trkpt><trkpt lat="46.033503766216874" lon="11.968484432247125"><ele>265.0</ele><time>2026-04-03T15:36:07Z</time></trkpt><trkpt lat="46.033509087135805" lon="11.968257263697973"><ele>265.3333333333333</ele><time>2026-04-03T15:36:08Z</time></trkpt><trkpt lat="46.03351475071786" lon="11.968024283693731"><ele>265.6666666666667</ele><time>2026-04-03T15:36:09Z</time></trkpt><trkpt lat="46.03352106119326" lon="11.967768843729935"><ele>266.0</ele><time>2026-04-03T15:36:10Z</time></trkpt><trkpt lat="46.0335218247415" lon="11.967511585140288"><ele>267.6666666666667</ele><time>2026-04-03T15:36:11Z</time></trkpt><trkpt lat="46.033520947482906" lon="11.96728007634968"><ele>269.3333333333333</ele><time>2026-04-03T15:36:12Z</time></trkpt><trkpt lat="46.03351741575987" lon="11.967067386074852"><ele>271.0</ele><time>2026-04-03T15:36:13Z</time></trkpt><trkpt lat="46.03350667089957" lon="11.966859750687805"><ele>272.0</ele><time>2026-04-03T15:36:14Z</time></trkpt><trkpt lat="46.033484102315676" lon="11.96665238550028"><ele>273.0</ele><time>2026-04-03T15:36:14.999Z</time></trkpt><trkpt lat="46.03344649230688" lon="11.96644621658317"><ele>274.0</ele><time>2026-04-03T15:36:15.999Z</time></trkpt><trkpt lat="46.033397253771085" lon="11.96624551637546"><ele>275.0</ele><time>2026-04-03T15:36:16.999Z</time></trkpt><trkpt lat="46.033347279345506" lon="11.966053059165992"><ele>274.5</ele><time>2026-04-03T15:36:17.999Z</time></trkpt><trkpt lat="46.03329269684994" lon="11.965856346402532"><ele>274.0</ele><time>2026-04-03T15:36:18.999Z</time></trkpt><trkpt lat="46.03324141704327" lon="11.96566829307586"><ele>273.5</ele><time>2026-04-03T15:36:19.999Z</time></trkpt><trkpt lat="46.03319043389922" lon="11.965499543688047"><ele>273.0</ele><time>2026-04-03T15:36:20.999Z</time></trkpt><trkpt lat="46.03314174298317" lon="11.965332483800225"><ele>273.0</ele><time>2026-04-03T15:36:21.999Z</time></trkpt><trkpt lat="46.03308671002912" lon="11.965163755809193"><ele>273.0</ele><time>2026-04-03T15:36:22.999Z</time></trkpt><trkpt lat="46.03302870988931" lon="11.96499015944109"><ele>273.0</ele><time>2026-04-03T15:36:23.999Z</time></trkpt><trkpt lat="46.032963978918254" lon="11.964815414759"><ele>273.0</ele><time>2026-04-03T15:36:24.999Z</time></trkpt><trkpt lat="46.03289838482083" lon="11.964632887394622"><ele>273.5</ele><time>2026-04-03T15:36:25.999Z</time></trkpt><trkpt lat="46.032823353048485" lon="11.964447357961987"><ele>274.0</ele><time>2026-04-03T15:36:26.999Z</time></trkpt><trkpt lat="46.032746789486445" lon="11.964285614740685"><ele>274.5</ele><time>2026-04-03T15:36:27.999Z</time></trkpt><trkpt lat="46.032663134089724" lon="11.964142428689446"><ele>275.0</ele><time>2026-04-03T15:36:28.999Z</time></trkpt><trkpt lat="46.03257302346989" lon="11.964000792184835"><ele>276.25</ele><time>2026-04-03T15:36:29.999Z</time></trkpt><trkpt lat="46.03248609459172" lon="11.963853338314934"><ele>277.5</ele><time>2026-04-03T15:36:30.999Z</time></trkpt><trkpt lat="46.03240709627852" lon="11.963713884787273"><ele>278.75</ele><time>2026-04-03T15:36:31.999Z</time></trkpt><trkpt lat="46.03232687010779" lon="11.96358505009927"><ele>280.0</ele><time>2026-04-03T15:36:32.999Z</time></trkpt><trkpt lat="46.03225102946459" lon="11.96345423565923"><ele>281.75</ele><time>2026-04-03T15:36:33.999Z</time></trkpt><trkpt lat="46.03217371733779" lon="11.963328180068338"><ele>283.5</ele><time>2026-04-03T15:36:34.999Z</time></trkpt><trkpt lat="46.03209883326059" lon="11.963204951846091"><ele>285.25</ele><time>2026-04-03T15:36:35.999Z</time></trkpt><trkpt lat="46.0320289878115" lon="11.963077972448223"><ele>287.0</ele><time>2026-04-03T15:36:36.999Z</time></trkpt><trkpt lat="46.03195622311883" lon="11.962956106427196"><ele>287.0</ele><time>2026-04-03T15:36:37.999Z</time></trkpt><trkpt lat="46.03188745341826" lon="11.962840822005427"><ele>287.0</ele><time>2026-04-03T15:36:38.999Z</time></trkpt><trkpt lat="46.03182290960871" lon="11.962711580456489"><ele>287.0</ele><time>2026-04-03T15:36:39.999Z</time></trkpt><trkpt lat="46.03176457037554" lon="11.962570649331253"><ele>287.0</ele><time>2026-04-03T15:36:40.999Z</time></trkpt><trkpt lat="46.0317096513759" lon="11.962414612093884"><ele>286.75</ele><time>2026-04-03T15:36:41.999Z</time></trkpt><trkpt lat="46.03166319723496" lon="11.962241593041318"><ele>286.5</ele><time>2026-04-03T15:36:42.999Z</time></trkpt><trkpt lat="46.03162220363442" lon="11.962064927065367"><ele>286.25</ele><time>2026-04-03T15:36:43.999Z</time></trkpt><trkpt lat="46.03159353448774" lon="11.961903392830122"><ele>286.0</ele><time>2026-04-03T15:36:44.999Z</time></trkpt><trkpt lat="46.03157223433828" lon="11.961746897626405"><ele>285.8</ele><time>2026-04-03T15:36:45.999Z</time></trkpt><trkpt lat="46.03155650265144" lon="11.961576632171555"><ele>285.6</ele><time>2026-04-03T15:36:46.999Z</time></trkpt><trkpt lat="46.03154879472526" lon="11.961390107931779"><ele>285.4</ele><time>2026-04-03T15:36:47.999Z</time></trkpt><trkpt lat="46.0315246620428" lon="11.961253408526947"><ele>285.2</ele><time>2026-04-03T15:36:48.999Z</time></trkpt><trkpt lat="46.03150075432047" lon="11.961110548092048"><ele>285.0</ele><time>2026-04-03T15:36:49.999Z</time></trkpt><trkpt lat="46.03148492653571" lon="11.960954612312145"><ele>285.3333333333333</ele><time>2026-04-03T15:36:50.999Z</time></trkpt><trkpt lat="46.03147459186808" lon="11.96081164377257"><ele>285.6666666666667</ele><time>2026-04-03T15:36:51.999Z</time></trkpt><trkpt lat="46.03146517325756" lon="11.960676756741364"><ele>286.0</ele><time>2026-04-03T15:36:52.999Z</time></trkpt><trkpt lat="46.03145566029224" lon="11.960540397207863"><ele>286.33333333333337</ele><time>2026-04-03T15:36:53.999Z</time></trkpt><trkpt lat="46.03144761856307" lon="11.960427608716701"><ele>286.6666666666667</ele><time>2026-04-03T15:36:54.999Z</time></trkpt><trkpt lat="46.03143886672429" lon="11.960337029406006"><ele>287.0</ele><time>2026-04-03T15:36:55.999Z</time></trkpt><trkpt lat="46.0314334165852" lon="11.960159844455022"><ele>287.0</ele><time>2026-04-03T15:36:57.999Z</time></trkpt><trkpt lat="46.03143897040067" lon="11.96005700126497"><ele>287.0</ele><time>2026-04-03T15:36:58.999Z</time></trkpt><trkpt lat="46.03142916253477" lon="11.95994988600604"><ele>287.0</ele><time>2026-04-03T15:36:59.999Z</time></trkpt><trkpt lat="46.031408899534384" lon="11.959838723107756"><ele>287.0</ele><time>2026-04-03T15:37:00.999Z</time></trkpt><trkpt lat="46.03138294113526" lon="11.959719611203369"><ele>287.0</ele><time>2026-04-03T15:37:01.999Z</time></trkpt><trkpt lat="46.031363047540005" lon="11.95958771261376"><ele>287.0</ele><time>2026-04-03T15:37:02.999Z</time></trkpt><trkpt lat="46.031355722728534" lon="11.95944852223233"><ele>287.2</ele><time>2026-04-03T15:37:03.999Z</time></trkpt><trkpt lat="46.03134665090328" lon="11.959296621150244"><ele>287.4</ele><time>2026-04-03T15:37:04.999Z</time></trkpt><trkpt lat="46.031333758203814" lon="11.959154320583941"><ele>287.6</ele><time>2026-04-03T15:37:05.999Z</time></trkpt><trkpt lat="46.03131856705006" lon="11.959002979646275"><ele>287.8</ele><time>2026-04-03T15:37:06.999Z</time></trkpt><trkpt lat="46.03130262097692" lon="11.95884095873407"><ele>288.0</ele><time>2026-04-03T15:37:07.999Z</time></trkpt><trkpt lat="46.03128717272133" lon="11.9586808175161"><ele>288.3333333333333</ele><time>2026-04-03T15:37:08.999Z</time></trkpt><trkpt lat="46.03127515974481" lon="11.958539711540835"><ele>288.6666666666667</ele><time>2026-04-03T15:37:09.999Z</time></trkpt><trkpt lat="46.03126301351442" lon="11.958414707234988"><ele>289.0</ele><time>2026-04-03T15:37:10.999Z</time></trkpt><trkpt lat="46.031254574611324" lon="11.958314897214546"><ele>289.33333333333337</ele><time>2026-04-03T15:37:11.999Z</time></trkpt><trkpt lat="46.031242592110026" lon="11.958181824930998"><ele>289.6666666666667</ele><time>2026-04-03T15:37:14Z</time></trkpt><trkpt lat="46.0312276836198" lon="11.958078863107941"><ele>290.0</ele><time>2026-04-03T15:37:16Z</time></trkpt><trkpt lat="46.031208251371886" lon="11.957930884953951"><ele>290.2</ele><time>2026-04-03T15:37:19Z</time></trkpt><trkpt lat="46.03118749713789" lon="11.957741960485146"><ele>290.4</ele><time>2026-04-03T15:37:21Z</time></trkpt><trkpt lat="46.03117412910542" lon="11.957606373706353"><ele>290.6</ele><time>2026-04-03T15:37:22Z</time></trkpt><trkpt lat="46.031160864934826" lon="11.957474135685844"><ele>290.8</ele><time>2026-04-03T15:37:23Z</time></trkpt><trkpt lat="46.031146619964396" lon="11.957347882279857"><ele>291.0</ele><time>2026-04-03T15:37:24Z</time></trkpt><trkpt lat="46.031128653710056" lon="11.957207959509685"><ele>291.5</ele><time>2026-04-03T15:37:25Z</time></trkpt><trkpt lat="46.03111654703992" lon="11.957061355252552"><ele>292.0</ele><time>2026-04-03T15:37:26Z</time></trkpt><trkpt lat="46.03109875295909" lon="11.956882225204653"><ele>292.5</ele><time>2026-04-03T15:37:27Z</time></trkpt><trkpt lat="46.031090064589264" lon="11.956654831125116"><ele>293.0</ele><time>2026-04-03T15:37:28Z</time></trkpt><trkpt lat="46.03105553236732" lon="11.956450368239103"><ele>293.75</ele><time>2026-04-03T15:37:29Z</time></trkpt><trkpt lat="46.031045136054274" lon="11.95625395089206"><ele>294.5</ele><time>2026-04-03T15:37:30Z</time></trkpt><trkpt lat="46.031030793752805" lon="11.956056271586624"><ele>295.25</ele><time>2026-04-03T15:37:31Z</time></trkpt><trkpt lat="46.0310082466316" lon="11.95586503390528"><ele>296.0</ele><time>2026-04-03T15:37:32Z</time></trkpt><trkpt lat="46.03098512999515" lon="11.955655688962592"><ele>296.25</ele><time>2026-04-03T15:37:33Z</time></trkpt><trkpt lat="46.03096798624596" lon="11.955444346244818"><ele>296.5</ele><time>2026-04-03T15:37:34Z</time></trkpt><trkpt lat="46.03095021203511" lon="11.955228947881345"><ele>296.75</ele><time>2026-04-03T15:37:35Z</time></trkpt><trkpt lat="46.03093082890522" lon="11.955013693011123"><ele>297.0</ele><time>2026-04-03T15:37:36Z</time></trkpt><trkpt lat="46.030909896916086" lon="11.954796308150605"><ele>297.3333333333333</ele><time>2026-04-03T15:37:37Z</time></trkpt><trkpt lat="46.03088943447393" lon="11.954572877864702"><ele>297.66666666666663</ele><time>2026-04-03T15:37:38Z</time></trkpt><trkpt lat="46.03086989482076" lon="11.954353649631624"><ele>298.0</ele><time>2026-04-03T15:37:39Z</time></trkpt><trkpt lat="46.03084946072084" lon="11.95413501115011"><ele>299.66666666666663</ele><time>2026-04-03T15:37:40Z</time></trkpt><trkpt lat="46.03082822884621" lon="11.953914763657723"><ele>301.3333333333333</ele><time>2026-04-03T15:37:41Z</time></trkpt><trkpt lat="46.030811027702285" lon="11.953694635897742"><ele>303.0</ele><time>2026-04-03T15:37:42Z</time></trkpt><trkpt lat="46.03078875766762" lon="11.95347065338314"><ele>303.0</ele><time>2026-04-03T15:37:43Z</time></trkpt><trkpt lat="46.030766112776575" lon="11.953248786822243"><ele>303.0</ele><time>2026-04-03T15:37:44Z</time></trkpt><trkpt lat="46.03074717479138" lon="11.953031208344845"><ele>303.0</ele><time>2026-04-03T15:37:45Z</time></trkpt><trkpt lat="46.03071946903026" lon="11.952821823574617"><ele>303.0</ele><time>2026-04-03T15:37:46Z</time></trkpt><trkpt lat="46.03069599615834" lon="11.952612161949117"><ele>303.0</ele><time>2026-04-03T15:37:47Z</time></trkpt><trkpt lat="46.03067238135137" lon="11.952409342929236"><ele>303.0</ele><time>2026-04-03T15:37:48Z</time></trkpt><trkpt lat="46.0306432230143" lon="11.952205677759283"><ele>303.0</ele><time>2026-04-03T15:37:49Z</time></trkpt><trkpt lat="46.03061115570904" lon="11.95199128637831"><ele>303.25</ele><time>2026-04-03T15:37:50Z</time></trkpt><trkpt lat="46.0305758283639" lon="11.951777435327545"><ele>303.5</ele><time>2026-04-03T15:37:51Z</time></trkpt><trkpt lat="46.030538675767296" lon="11.951583698691575"><ele>303.75</ele><time>2026-04-03T15:37:52Z</time></trkpt><trkpt lat="46.030516161151404" lon="11.951403227613154"><ele>304.0</ele><time>2026-04-03T15:37:53Z</time></trkpt><trkpt lat="46.03047473554435" lon="11.95120900040282"><ele>304.75</ele><time>2026-04-03T15:37:54Z</time></trkpt><trkpt lat="46.030441799136234" lon="11.951016341978164"><ele>305.5</ele><time>2026-04-03T15:37:55Z</time></trkpt><trkpt lat="46.030412426828136" lon="11.950832120161833"><ele>306.25</ele><time>2026-04-03T15:37:56Z</time></trkpt><trkpt lat="46.03037304299635" lon="11.950638228454814"><ele>307.0</ele><time>2026-04-03T15:37:57Z</time></trkpt><trkpt lat="46.030336022291635" lon="11.950451367098832"><ele>307.0</ele><time>2026-04-03T15:37:58Z</time></trkpt><trkpt lat="46.030304228886386" lon="11.950256930446"><ele>307.0</ele><time>2026-04-03T15:37:59Z</time></trkpt><trkpt lat="46.03026708772675" lon="11.95006089901206"><ele>307.0</ele><time>2026-04-03T15:38:00Z</time></trkpt><trkpt lat="46.030227923102856" lon="11.949864906716915"><ele>307.0</ele><time>2026-04-03T15:38:01Z</time></trkpt><trkpt lat="46.03019309424654" lon="11.949662795541881"><ele>307.5</ele><time>2026-04-03T15:38:02Z</time></trkpt><trkpt lat="46.030153151772524" lon="11.949459862158294"><ele>308.0</ele><time>2026-04-03T15:38:03Z</time></trkpt><trkpt lat="46.0301170769308" lon="11.94925558309821"><ele>308.5</ele><time>2026-04-03T15:38:04Z</time></trkpt><trkpt lat="46.03007741690274" lon="11.949056028972555"><ele>309.0</ele><time>2026-04-03T15:38:05Z</time></trkpt><trkpt lat="46.0300387828406" lon="11.948856232384195"><ele>308.75</ele><time>2026-04-03T15:38:06Z</time></trkpt><trkpt lat="46.030003084833965" lon="11.94866184640338"><ele>308.5</ele><time>2026-04-03T15:38:07Z</time></trkpt><trkpt lat="46.02996566356042" lon="11.948464448162577"><ele>308.25</ele><time>2026-04-03T15:38:08Z</time></trkpt><trkpt lat="46.029933932786584" lon="11.948265550629543"><ele>308.0</ele><time>2026-04-03T15:38:09Z</time></trkpt><trkpt lat="46.029897160198196" lon="11.948061708195517"><ele>308.6666666666667</ele><time>2026-04-03T15:38:10Z</time></trkpt><trkpt lat="46.02985768691737" lon="11.947843991081704"><ele>309.3333333333333</ele><time>2026-04-03T15:38:11Z</time></trkpt><trkpt lat="46.02981495610304" lon="11.94761561609743"><ele>310.0</ele><time>2026-04-03T15:38:12Z</time></trkpt><trkpt lat="46.0297654853569" lon="11.947353662063081"><ele>311.0</ele><time>2026-04-03T15:38:13Z</time></trkpt><trkpt lat="46.02971747271198" lon="11.947126631960653"><ele>312.0</ele><time>2026-04-03T15:38:14Z</time></trkpt><trkpt lat="46.02968310565448" lon="11.94691246321542"><ele>313.0</ele><time>2026-04-03T15:38:15Z</time></trkpt><trkpt lat="46.02964325464502" lon="11.946702940780378"><ele>313.3333333333333</ele><time>2026-04-03T15:38:16Z</time></trkpt><trkpt lat="46.02960574000044" lon="11.946485400389552"><ele>313.6666666666667</ele><time>2026-04-03T15:38:17Z</time></trkpt><trkpt lat="46.029565432077355" lon="11.94626352580677"><ele>314.0</ele><time>2026-04-03T15:38:18Z</time></trkpt><trkpt lat="46.029528058912994" lon="11.946046437572214"><ele>313.6666666666667</ele><time>2026-04-03T15:38:19Z</time></trkpt><trkpt lat="46.02949105341257" lon="11.945825661860772"><ele>313.3333333333333</ele><time>2026-04-03T15:38:20Z</time></trkpt><trkpt lat="46.02944836406886" lon="11.945601479653142"><ele>313.0</ele><time>2026-04-03T15:38:21Z</time></trkpt><trkpt lat="46.029403704020744" lon="11.945383216701629"><ele>313.0</ele><time>2026-04-03T15:38:22Z</time></trkpt><trkpt lat="46.02936030566611" lon="11.945164108949074"><ele>313.0</ele><time>2026-04-03T15:38:23Z</time></trkpt><trkpt lat="46.02931737635073" lon="11.944948301047438"><ele>313.0</ele><time>2026-04-03T15:38:24Z</time></trkpt><trkpt lat="46.02926860707543" lon="11.944738008288127"><ele>313.66666666666663</ele><time>2026-04-03T15:38:25Z</time></trkpt><trkpt lat="46.02921694236293" lon="11.944529524807537"><ele>314.3333333333333</ele><time>2026-04-03T15:38:26Z</time></trkpt><trkpt lat="46.029163518054666" lon="11.944327044851775"><ele>315.0</ele><time>2026-04-03T15:38:27Z</time></trkpt><trkpt lat="46.029112164489675" lon="11.94412001394979"><ele>315.6666666666667</ele><time>2026-04-03T15:38:28Z</time></trkpt><trkpt lat="46.02906070449985" lon="11.943916637229545"><ele>316.33333333333337</ele><time>2026-04-03T15:38:29Z</time></trkpt><trkpt lat="46.02900570612953" lon="11.94371934062589"><ele>317.0</ele><time>2026-04-03T15:38:29.999Z</time></trkpt><trkpt lat="46.02895064625478" lon="11.943512926528882"><ele>316.33333333333337</ele><time>2026-04-03T15:38:30.999Z</time></trkpt><trkpt lat="46.02889077988413" lon="11.943316437956396"><ele>315.6666666666667</ele><time>2026-04-03T15:38:31.999Z</time></trkpt><trkpt lat="46.02882939576227" lon="11.943112631189482"><ele>315.0</ele><time>2026-04-03T15:38:32.999Z</time></trkpt><trkpt lat="46.02876708793674" lon="11.942905949070171"><ele>315.0</ele><time>2026-04-03T15:38:33.999Z</time></trkpt><trkpt lat="46.028699298053596" lon="11.942676240671666"><ele>315.0</ele><time>2026-04-03T15:38:34.999Z</time></trkpt><trkpt lat="46.02864180362577" lon="11.942460610640634"><ele>315.0</ele><time>2026-04-03T15:38:35.999Z</time></trkpt><trkpt lat="46.028567371461314" lon="11.94220164906505"><ele>315.0</ele><time>2026-04-03T15:38:36.999Z</time></trkpt><trkpt lat="46.02848177281968" lon="11.941961519864977"><ele>315.0</ele><time>2026-04-03T15:38:37.999Z</time></trkpt><trkpt lat="46.02842081430563" lon="11.94171486257648"><ele>315.0</ele><time>2026-04-03T15:38:38.999Z</time></trkpt><trkpt lat="46.02835262047531" lon="11.941495013188252"><ele>314.0</ele><time>2026-04-03T15:38:39.999Z</time></trkpt><trkpt lat="46.028298384657994" lon="11.941286178253637"><ele>313.0</ele><time>2026-04-03T15:38:40.999Z</time></trkpt><trkpt lat="46.02823301218614" lon="11.94106346073765"><ele>312.0</ele><time>2026-04-03T15:38:41.999Z</time></trkpt><trkpt lat="46.02815697488521" lon="11.94083060061273"><ele>311.3333333333333</ele><time>2026-04-03T15:38:42.999Z</time></trkpt><trkpt lat="46.02809485027585" lon="11.940600760570245"><ele>310.66666666666663</ele><time>2026-04-03T15:38:43.999Z</time></trkpt><trkpt lat="46.028023098008234" lon="11.940352665035364"><ele>310.0</ele><time>2026-04-03T15:38:44.999Z</time></trkpt><trkpt lat="46.02794889030034" lon="11.940108142740016"><ele>308.3333333333333</ele><time>2026-04-03T15:38:45.999Z</time></trkpt><trkpt lat="46.02788601924549" lon="11.939875806328015"><ele>306.6666666666667</ele><time>2026-04-03T15:38:46.999Z</time></trkpt><trkpt lat="46.027817843843096" lon="11.939650570890093"><ele>305.0</ele><time>2026-04-03T15:38:47.999Z</time></trkpt><trkpt lat="46.02774965122324" lon="11.93942163825378"><ele>305.0</ele><time>2026-04-03T15:38:48.999Z</time></trkpt><trkpt lat="46.02768585473765" lon="11.939187918336932"><ele>305.0</ele><time>2026-04-03T15:38:49.999Z</time></trkpt><trkpt lat="46.02762498176884" lon="11.938959171492787"><ele>305.0</ele><time>2026-04-03T15:38:50.999Z</time></trkpt><trkpt lat="46.02756971111235" lon="11.938723195733285"><ele>305.0</ele><time>2026-04-03T15:38:51.999Z</time></trkpt><trkpt lat="46.02752180514153" lon="11.938486299942982"><ele>305.0</ele><time>2026-04-03T15:38:52.999Z</time></trkpt><trkpt lat="46.02747294774154" lon="11.93825542592279"><ele>305.0</ele><time>2026-04-03T15:38:53.999Z</time></trkpt><trkpt lat="46.027427705180784" lon="11.938015363000689"><ele>307.33333333333337</ele><time>2026-04-03T15:38:54.999Z</time></trkpt><trkpt lat="46.0273806397799" lon="11.9377736000946"><ele>309.6666666666667</ele><time>2026-04-03T15:38:55.999Z</time></trkpt><trkpt lat="46.02733269817457" lon="11.937534664078772"><ele>312.0</ele><time>2026-04-03T15:38:56.999Z</time></trkpt><trkpt lat="46.0272876825323" lon="11.9372940113474"><ele>313.0</ele><time>2026-04-03T15:38:57.999Z</time></trkpt><trkpt lat="46.027241993404644" lon="11.937054878692125"><ele>314.0</ele><time>2026-04-03T15:38:58.999Z</time></trkpt><trkpt lat="46.027193337708916" lon="11.93681723151919"><ele>315.0</ele><time>2026-04-03T15:38:59.999Z</time></trkpt><trkpt lat="46.0271460656094" lon="11.936581937919573"><ele>315.0</ele><time>2026-04-03T15:39:00.999Z</time></trkpt><trkpt lat="46.027099996490556" lon="11.936343781472088"><ele>315.0</ele><time>2026-04-03T15:39:01.999Z</time></trkpt><trkpt lat="46.02705703885686" lon="11.936108836668916"><ele>315.0</ele><time>2026-04-03T15:39:02.999Z</time></trkpt><trkpt lat="46.02701159551353" lon="11.9358689973399"><ele>312.6666666666667</ele><time>2026-04-03T15:39:03.999Z</time></trkpt><trkpt lat="46.02696763337767" lon="11.93563096407968"><ele>310.33333333333337</ele><time>2026-04-03T15:39:04.999Z</time></trkpt><trkpt lat="46.02692512299877" lon="11.93540864417022"><ele>308.0</ele><time>2026-04-03T15:39:05.999Z</time></trkpt><trkpt lat="46.02688465441368" lon="11.935197788488288"><ele>308.0</ele><time>2026-04-03T15:39:06.999Z</time></trkpt><trkpt lat="46.026849197591424" lon="11.934997937346479"><ele>308.0</ele><time>2026-04-03T15:39:07.999Z</time></trkpt><trkpt lat="46.026817513417285" lon="11.9347893125146"><ele>308.0</ele><time>2026-04-03T15:39:08.999Z</time></trkpt><trkpt lat="46.02678650727079" lon="11.934565696058026"><ele>308.0</ele><time>2026-04-03T15:39:09.999Z</time></trkpt><trkpt lat="46.02676039756729" lon="11.934343439245556"><ele>308.0</ele><time>2026-04-03T15:39:10.999Z</time></trkpt><trkpt lat="46.02673780743581" lon="11.93412801824027"><ele>308.0</ele><time>2026-04-03T15:39:11.999Z</time></trkpt><trkpt lat="46.02672308662097" lon="11.933899343187628"><ele>307.33333333333337</ele><time>2026-04-03T15:39:12.999Z</time></trkpt><trkpt lat="46.026711901981855" lon="11.933663379173153"><ele>306.6666666666667</ele><time>2026-04-03T15:39:13.999Z</time></trkpt><trkpt lat="46.026697888978404" lon="11.933423358570487"><ele>306.0</ele><time>2026-04-03T15:39:14.999Z</time></trkpt><trkpt lat="46.02668346978281" lon="11.933192795010335"><ele>305.75</ele><time>2026-04-03T15:39:15.999Z</time></trkpt><trkpt lat="46.02667251170828" lon="11.932975712840193"><ele>305.5</ele><time>2026-04-03T15:39:16.999Z</time></trkpt><trkpt lat="46.02666252662276" lon="11.932768178734621"><ele>305.25</ele><time>2026-04-03T15:39:17.999Z</time></trkpt><trkpt lat="46.026653851194574" lon="11.932547077976018"><ele>305.0</ele><time>2026-04-03T15:39:19Z</time></trkpt><trkpt lat="46.026640335265824" lon="11.932330573565434"><ele>308.25</ele><time>2026-04-03T15:39:20Z</time></trkpt><trkpt lat="46.02662861337713" lon="11.93212509856379"><ele>311.5</ele><time>2026-04-03T15:39:21Z</time></trkpt><trkpt lat="46.02661607755427" lon="11.93191555722785"><ele>314.75</ele><time>2026-04-03T15:39:22Z</time></trkpt><trkpt lat="46.02659406836007" lon="11.93170063465337"><ele>318.0</ele><time>2026-04-03T15:39:23Z</time></trkpt><trkpt lat="46.02657807154066" lon="11.931482412531881"><ele>318.0</ele><time>2026-04-03T15:39:24Z</time></trkpt><trkpt lat="46.026552289923764" lon="11.931261794380353"><ele>318.0</ele><time>2026-04-03T15:39:25Z</time></trkpt><trkpt lat="46.02652545918032" lon="11.931056144303692"><ele>318.0</ele><time>2026-04-03T15:39:26Z</time></trkpt><trkpt lat="46.02649433839906" lon="11.930850314743335"><ele>318.0</ele><time>2026-04-03T15:39:27Z</time></trkpt><trkpt lat="46.02646236585409" lon="11.930645117317358"><ele>316.75</ele><time>2026-04-03T15:39:28Z</time></trkpt><trkpt lat="46.02642845167517" lon="11.930455781856951"><ele>315.5</ele><time>2026-04-03T15:39:29Z</time></trkpt><trkpt lat="46.026402234154894" lon="11.93027710677492"><ele>314.25</ele><time>2026-04-03T15:39:30Z</time></trkpt><trkpt lat="46.026357447814874" lon="11.930113159655237"><ele>313.0</ele><time>2026-04-03T15:39:31Z</time></trkpt><trkpt lat="46.026320589072355" lon="11.929951989709233"><ele>312.0</ele><time>2026-04-03T15:39:32Z</time></trkpt><trkpt lat="46.02628465375687" lon="11.929798688194904"><ele>311.0</ele><time>2026-04-03T15:39:33Z</time></trkpt><trkpt lat="46.026246267669165" lon="11.92964835894195"><ele>310.0</ele><time>2026-04-03T15:39:34Z</time></trkpt><trkpt lat="46.02621291704218" lon="11.929507932536469"><ele>309.0</ele><time>2026-04-03T15:39:35Z</time></trkpt><trkpt lat="46.026169683972356" lon="11.92937592604632"><ele>308.0</ele><time>2026-04-03T15:39:36Z</time></trkpt><trkpt lat="46.02613405094743" lon="11.929247382328175"><ele>306.83333333333337</ele><time>2026-04-03T15:39:37Z</time></trkpt><trkpt lat="46.02609991943706" lon="11.929127325142575"><ele>305.6666666666667</ele><time>2026-04-03T15:39:38Z</time></trkpt><trkpt lat="46.026066412622264" lon="11.92901682381624"><ele>304.5</ele><time>2026-04-03T15:39:39Z</time></trkpt><trkpt lat="46.026043525500505" lon="11.928923111995037"><ele>303.3333333333333</ele><time>2026-04-03T15:39:40Z</time></trkpt><trkpt lat="46.02601386416267" lon="11.928829911684039"><ele>302.16666666666663</ele><time>2026-04-03T15:39:41Z</time></trkpt><trkpt lat="46.02596915348517" lon="11.928680185584797"><ele>301.0</ele><time>2026-04-03T15:39:43Z</time></trkpt><trkpt lat="46.02592597353606" lon="11.928554911373782"><ele>301.0</ele><time>2026-04-03T15:39:45Z</time></trkpt><trkpt lat="46.02589107580452" lon="11.928439920684102"><ele>301.0</ele><time>2026-04-03T15:39:47Z</time></trkpt><trkpt lat="46.02584978970066" lon="11.928305453829823"><ele>301.0</ele><time>2026-04-03T15:39:49Z</time></trkpt><trkpt lat="46.02582242218963" lon="11.928221171715373"><ele>301.0</ele><time>2026-04-03T15:39:50Z</time></trkpt><trkpt lat="46.02579442911353" lon="11.92812656803112"><ele>301.0</ele><time>2026-04-03T15:39:51Z</time></trkpt><trkpt lat="46.02576592943558" lon="11.928029475592254"><ele>301.0</ele><time>2026-04-03T15:39:52Z</time></trkpt><trkpt lat="46.025733541590725" lon="11.927924005704396"><ele>301.40000000000003</ele><time>2026-04-03T15:39:53Z</time></trkpt><trkpt lat="46.02569480473" lon="11.92780362448613"><ele>301.8</ele><time>2026-04-03T15:39:54Z</time></trkpt><trkpt lat="46.0256551403707" lon="11.927669221927188"><ele>302.20000000000005</ele><time>2026-04-03T15:39:55Z</time></trkpt><trkpt lat="46.02561119928749" lon="11.927528557611707"><ele>302.6</ele><time>2026-04-03T15:39:56Z</time></trkpt><trkpt lat="46.02556203911712" lon="11.927372469996675"><ele>303.0</ele><time>2026-04-03T15:39:57Z</time></trkpt><trkpt lat="46.02551963262376" lon="11.927234003124832"><ele>303.0</ele><time>2026-04-03T15:39:58Z</time></trkpt><trkpt lat="46.025477616099145" lon="11.927096574453468"><ele>303.0</ele><time>2026-04-03T15:39:59Z</time></trkpt><trkpt lat="46.025433025536444" lon="11.92694346749306"><ele>303.0</ele><time>2026-04-03T15:40:00Z</time></trkpt><trkpt lat="46.02538342482287" lon="11.926790364020514"><ele>303.0</ele><time>2026-04-03T15:40:01Z</time></trkpt><trkpt lat="46.02533761343168" lon="11.926647008910331"><ele>303.0</ele><time>2026-04-03T15:40:02Z</time></trkpt><trkpt lat="46.02528747453651" lon="11.926491639684643"><ele>302.0</ele><time>2026-04-03T15:40:03Z</time></trkpt><trkpt lat="46.02522905286198" lon="11.926325177152327"><ele>301.0</ele><time>2026-04-03T15:40:04Z</time></trkpt><trkpt lat="46.025156954509264" lon="11.926158940888874"><ele>300.0</ele><time>2026-04-03T15:40:05Z</time></trkpt><trkpt lat="46.025080387911025" lon="11.925986596931738"><ele>299.0</ele><time>2026-04-03T15:40:06Z</time></trkpt><trkpt lat="46.02501982812821" lon="11.925831077362364"><ele>299.2</ele><time>2026-04-03T15:40:07Z</time></trkpt><trkpt lat="46.02495926704785" lon="11.925694913335054"><ele>299.4</ele><time>2026-04-03T15:40:08Z</time></trkpt><trkpt lat="46.02488985006659" lon="11.925553354039485"><ele>299.6</ele><time>2026-04-03T15:40:09Z</time></trkpt><trkpt lat="46.02483213709448" lon="11.92542520261401"><ele>299.8</ele><time>2026-04-03T15:40:10Z</time></trkpt><trkpt lat="46.024774208532364" lon="11.925313165116046"><ele>300.0</ele><time>2026-04-03T15:40:11Z</time></trkpt><trkpt lat="46.02471227367462" lon="11.925196954386017"><ele>300.0</ele><time>2026-04-03T15:40:12Z</time></trkpt><trkpt lat="46.024650711022055" lon="11.925078236524199"><ele>300.0</ele><time>2026-04-03T15:40:13Z</time></trkpt><trkpt lat="46.02459462791309" lon="11.924968854485504"><ele>300.0</ele><time>2026-04-03T15:40:14Z</time></trkpt><trkpt lat="46.02453596331235" lon="11.924874997494136"><ele>300.0</ele><time>2026-04-03T15:40:15Z</time></trkpt><trkpt lat="46.02447929752961" lon="11.924789037533774"><ele>300.0</ele><time>2026-04-03T15:40:16Z</time></trkpt><trkpt lat="46.0244227740867" lon="11.924702152245736"><ele>299.5</ele><time>2026-04-03T15:40:17Z</time></trkpt><trkpt lat="46.024375723094394" lon="11.924611764108192"><ele>299.0</ele><time>2026-04-03T15:40:18Z</time></trkpt><trkpt lat="46.024323965033304" lon="11.92452050949518"><ele>298.5</ele><time>2026-04-03T15:40:19Z</time></trkpt><trkpt lat="46.024271750343054" lon="11.924427086793772"><ele>298.0</ele><time>2026-04-03T15:40:20Z</time></trkpt><trkpt lat="46.02421797326732" lon="11.924332715514772"><ele>297.5</ele><time>2026-04-03T15:40:21Z</time></trkpt><trkpt lat="46.02415242119297" lon="11.92422408704901"><ele>297.0</ele><time>2026-04-03T15:40:22Z</time></trkpt><trkpt lat="46.02408166574985" lon="11.924113311852805"><ele>297.0</ele><time>2026-04-03T15:40:22.999Z</time></trkpt><trkpt lat="46.0240223961911" lon="11.924001507466983"><ele>297.0</ele><time>2026-04-03T15:40:23.999Z</time></trkpt><trkpt lat="46.023956465419246" lon="11.923880086158741"><ele>297.0</ele><time>2026-04-03T15:40:24.999Z</time></trkpt><trkpt lat="46.023901060152625" lon="11.923776541901589"><ele>297.0</ele><time>2026-04-03T15:40:25.999Z</time></trkpt><trkpt lat="46.023851068405996" lon="11.923675042611618"><ele>297.0</ele><time>2026-04-03T15:40:26.999Z</time></trkpt><trkpt lat="46.0237988349881" lon="11.923564599494691"><ele>297.0</ele><time>2026-04-03T15:40:27.999Z</time></trkpt><trkpt lat="46.02374173467545" lon="11.923456986081206"><ele>297.0</ele><time>2026-04-03T15:40:28.999Z</time></trkpt><trkpt lat="46.02369057581442" lon="11.923364270892785"><ele>297.0</ele><time>2026-04-03T15:40:29.999Z</time></trkpt><trkpt lat="46.0236401295578" lon="11.923277240624829"><ele>297.0</ele><time>2026-04-03T15:40:30.999Z</time></trkpt><trkpt lat="46.023597078379645" lon="11.92318782771759"><ele>297.0</ele><time>2026-04-03T15:40:31.999Z</time></trkpt><trkpt lat="46.02354034597268" lon="11.923047193141342"><ele>297.0</ele><time>2026-04-03T15:40:33.999Z</time></trkpt><trkpt lat="46.02347572736215" lon="11.922976920737922"><ele>296.6</ele><time>2026-04-03T15:40:35.999Z</time></trkpt><trkpt lat="46.0233958593047" lon="11.923043511394505"><ele>296.2</ele><time>2026-04-03T15:40:37.999Z</time></trkpt><trkpt lat="46.023531804414326" lon="11.922976598150225"><ele>295.8</ele><time>2026-04-03T15:40:39.999Z</time></trkpt><trkpt lat="46.023565715850786" lon="11.923058362330337"><ele>295.4</ele><time>2026-04-03T15:43:10.999Z</time></trkpt><trkpt lat="46.023486486143675" lon="11.923186854529778"><ele>295.0</ele><time>2026-04-03T15:44:46.999Z</time></trkpt><trkpt lat="46.02354616705101" lon="11.923260647498529"><ele>295.0</ele><time>2026-04-03T15:45:42Z</time></trkpt><trkpt lat="46.02357261669979" lon="11.923354448979499"><ele>295.0</ele><time>2026-04-03T15:45:45Z</time></trkpt><trkpt lat="46.02363372653425" lon="11.92338072001138"><ele>295.0</ele><time>2026-04-03T15:45:51Z</time></trkpt><trkpt lat="46.02366442801951" lon="11.923255342301065"><ele>295.0</ele><time>2026-04-03T15:45:56Z</time></trkpt><trkpt lat="46.02360359189806" lon="11.923077700224459"><ele>295.0</ele><time>2026-04-03T15:45:58Z</time></trkpt><trkpt lat="46.02355496498083" lon="11.922977817901742"><ele>295.0</ele><time>2026-04-03T15:45:59Z</time></trkpt><trkpt lat="46.02351241157276" lon="11.92287229646691"><ele>295.0</ele><time>2026-04-03T15:46:00Z</time></trkpt><trkpt lat="46.02346913961354" lon="11.922771527136609"><ele>295.0</ele><time>2026-04-03T15:46:01Z</time></trkpt><trkpt lat="46.02343485935762" lon="11.922678849698547"><ele>295.0</ele><time>2026-04-03T15:46:02Z</time></trkpt><trkpt lat="46.02339884641742" lon="11.922579681992962"><ele>295.0</ele><time>2026-04-03T15:46:03Z</time></trkpt><trkpt lat="46.02335872570677" lon="11.92247261520959"><ele>295.0</ele><time>2026-04-03T15:46:04Z</time></trkpt><trkpt lat="46.02331746477664" lon="11.922363087865492"><ele>295.0</ele><time>2026-04-03T15:46:05Z</time></trkpt><trkpt lat="46.02328593310016" lon="11.922269692188793"><ele>294.66666666666663</ele><time>2026-04-03T15:46:06Z</time></trkpt><trkpt lat="46.023255401048175" lon="11.92216818137975"><ele>294.3333333333333</ele><time>2026-04-03T15:46:07Z</time></trkpt><trkpt lat="46.02322447353719" lon="11.922057790373062"><ele>294.0</ele><time>2026-04-03T15:46:08Z</time></trkpt><trkpt lat="46.02320164969788" lon="11.921956705752166"><ele>293.6666666666667</ele><time>2026-04-03T15:46:09Z</time></trkpt><trkpt lat="46.023179650516596" lon="11.92184830402635"><ele>293.33333333333337</ele><time>2026-04-03T15:46:10Z</time></trkpt><trkpt lat="46.02316447645737" lon="11.921754388219545"><ele>293.0</ele><time>2026-04-03T15:46:11Z</time></trkpt><trkpt lat="46.02315486739185" lon="11.921561402420387"><ele>293.0</ele><time>2026-04-03T15:46:13Z</time></trkpt><trkpt lat="46.02317230842601" lon="11.921445972858306"><ele>293.0</ele><time>2026-04-03T15:46:14Z</time></trkpt><trkpt lat="46.02316909021075" lon="11.921352531055634"><ele>293.0</ele><time>2026-04-03T15:46:15Z</time></trkpt><trkpt lat="46.023159824612044" lon="11.921257894256298"><ele>293.0</ele><time>2026-04-03T15:46:16Z</time></trkpt><trkpt lat="46.023126915931485" lon="11.921148615698112"><ele>293.0</ele><time>2026-04-03T15:46:17Z</time></trkpt><trkpt lat="46.023098648579975" lon="11.92106275640083"><ele>293.0</ele><time>2026-04-03T15:46:18Z</time></trkpt><trkpt lat="46.02306746383557" lon="11.920883270117574"><ele>293.0</ele><time>2026-04-03T15:46:20Z</time></trkpt><trkpt lat="46.023054781000006" lon="11.920775458238136"><ele>293.0</ele><time>2026-04-03T15:46:21Z</time></trkpt><trkpt lat="46.023019789721474" lon="11.92067872131073"><ele>293.0</ele><time>2026-04-03T15:46:22Z</time></trkpt><trkpt lat="46.02303632101951" lon="11.920546020210454"><ele>293.0</ele><time>2026-04-03T15:46:23Z</time></trkpt><trkpt lat="46.02302277178269" lon="11.920422290489704"><ele>293.0</ele><time>2026-04-03T15:46:24Z</time></trkpt><trkpt lat="46.02301164970458" lon="11.920307405553125"><ele>293.0</ele><time>2026-04-03T15:46:25Z</time></trkpt><trkpt lat="46.02299929389523" lon="11.920210740249338"><ele>293.0</ele><time>2026-04-03T15:46:26Z</time></trkpt><trkpt lat="46.02299460532984" lon="11.920115285293472"><ele>293.0</ele><time>2026-04-03T15:46:27Z</time></trkpt><trkpt lat="46.022979116232406" lon="11.920008386435427"><ele>293.0</ele><time>2026-04-03T15:46:28Z</time></trkpt><trkpt lat="46.02297285318119" lon="11.91987966972021"><ele>293.0</ele><time>2026-04-03T15:46:29Z</time></trkpt><trkpt lat="46.02296870653324" lon="11.91975103245403"><ele>293.0</ele><time>2026-04-03T15:46:30Z</time></trkpt><trkpt lat="46.02296417958979" lon="11.919625656388217"><ele>293.0</ele><time>2026-04-03T15:46:31Z</time></trkpt><trkpt lat="46.02296057489249" lon="11.919511864097792"><ele>293.1666666666667</ele><time>2026-04-03T15:46:32Z</time></trkpt><trkpt lat="46.022956973937674" lon="11.91938373766476"><ele>293.33333333333337</ele><time>2026-04-03T15:46:33Z</time></trkpt><trkpt lat="46.0229594746187" lon="11.919243432693731"><ele>293.5</ele><time>2026-04-03T15:46:34Z</time></trkpt><trkpt lat="46.022944830424905" lon="11.919154491996672"><ele>293.6666666666667</ele><time>2026-04-03T15:46:35Z</time></trkpt><trkpt lat="46.022938743654876" lon="11.919036990985996"><ele>293.8333333333333</ele><time>2026-04-03T15:46:36Z</time></trkpt><trkpt lat="46.02293508573507" lon="11.91893464151923"><ele>294.0</ele><time>2026-04-03T15:46:37Z</time></trkpt><trkpt lat="46.02293046056706" lon="11.91880911912874"><ele>293.4</ele><time>2026-04-03T15:46:38Z</time></trkpt><trkpt lat="46.022924805433924" lon="11.918671528242534"><ele>292.79999999999995</ele><time>2026-04-03T15:46:39Z</time></trkpt><trkpt lat="46.02291722719181" lon="11.918538464566423"><ele>292.20000000000005</ele><time>2026-04-03T15:46:40Z</time></trkpt><trkpt lat="46.022911501466616" lon="11.918390936438351"><ele>291.6</ele><time>2026-04-03T15:46:41Z</time></trkpt><trkpt lat="46.02290451765037" lon="11.918253802614707"><ele>291.0</ele><time>2026-04-03T15:46:42Z</time></trkpt><trkpt lat="46.02289820345707" lon="11.91811287405203"><ele>290.3333333333333</ele><time>2026-04-03T15:46:43Z</time></trkpt><trkpt lat="46.022892836387925" lon="11.917973163398985"><ele>289.6666666666667</ele><time>2026-04-03T15:46:44Z</time></trkpt><trkpt lat="46.02288543353782" lon="11.917842332472517"><ele>289.0</ele><time>2026-04-03T15:46:45Z</time></trkpt><trkpt lat="46.02288122166549" lon="11.917722317553142"><ele>288.33333333333337</ele><time>2026-04-03T15:46:45.999Z</time></trkpt><trkpt lat="46.022878404751" lon="11.9176040666745"><ele>287.6666666666667</ele><time>2026-04-03T15:46:46.999Z</time></trkpt><trkpt lat="46.02287404368485" lon="11.917481516975165"><ele>287.0</ele><time>2026-04-03T15:46:47.999Z</time></trkpt><trkpt lat="46.022866449265" lon="11.91735786617613"><ele>286.8</ele><time>2026-04-03T15:46:48.999Z</time></trkpt><trkpt lat="46.02286055463808" lon="11.917235874223557"><ele>286.6</ele><time>2026-04-03T15:46:49.999Z</time></trkpt><trkpt lat="46.022854409209295" lon="11.917116111855124"><ele>286.40000000000003</ele><time>2026-04-03T15:46:50.999Z</time></trkpt><trkpt lat="46.02284443800283" lon="11.916991879664959"><ele>286.2</ele><time>2026-04-03T15:46:51.999Z</time></trkpt><trkpt lat="46.02283436094342" lon="11.916840659814179"><ele>286.0</ele><time>2026-04-03T15:46:52.999Z</time></trkpt><trkpt lat="46.022827429179316" lon="11.916705104411768"><ele>285.40000000000003</ele><time>2026-04-03T15:46:53.999Z</time></trkpt><trkpt lat="46.02282356137466" lon="11.916576762057625"><ele>284.8</ele><time>2026-04-03T15:46:54.999Z</time></trkpt><trkpt lat="46.0228216057203" lon="11.916439762683236"><ele>284.20000000000005</ele><time>2026-04-03T15:46:55.999Z</time></trkpt><trkpt lat="46.02281355361262" lon="11.91628664785097"><ele>283.6</ele><time>2026-04-03T15:46:56.999Z</time></trkpt><trkpt lat="46.0228113491858" lon="11.916131403694301"><ele>283.0</ele><time>2026-04-03T15:46:57.999Z</time></trkpt><trkpt lat="46.02280533446262" lon="11.915976616892102"><ele>282.16666666666663</ele><time>2026-04-03T15:46:58.999Z</time></trkpt><trkpt lat="46.02280019624949" lon="11.915839244792506"><ele>281.3333333333333</ele><time>2026-04-03T15:46:59.999Z</time></trkpt><trkpt lat="46.02279350125016" lon="11.915720102558089"><ele>280.5</ele><time>2026-04-03T15:47:00.999Z</time></trkpt><trkpt lat="46.02278951312667" lon="11.915601391440358"><ele>279.6666666666667</ele><time>2026-04-03T15:47:01.999Z</time></trkpt><trkpt lat="46.02278362959583" lon="11.91547763829075"><ele>278.83333333333337</ele><time>2026-04-03T15:47:02.999Z</time></trkpt><trkpt lat="46.02277795527731" lon="11.915369505746417"><ele>278.0</ele><time>2026-04-03T15:47:03.999Z</time></trkpt><trkpt lat="46.02277607315541" lon="11.915269759640703"><ele>278.0</ele><time>2026-04-03T15:47:04.999Z</time></trkpt><trkpt lat="46.02276943950882" lon="11.915112317328328"><ele>278.0</ele><time>2026-04-03T15:47:06.999Z</time></trkpt><trkpt lat="46.02276296972738" lon="11.91499347899528"><ele>278.0</ele><time>2026-04-03T15:47:08.999Z</time></trkpt><trkpt lat="46.02275868327348" lon="11.914873784252668"><ele>278.0</ele><time>2026-04-03T15:47:10.999Z</time></trkpt><trkpt lat="46.022755490643036" lon="11.914743045647779"><ele>278.0</ele><time>2026-04-03T15:47:12.999Z</time></trkpt><trkpt lat="46.022747367754" lon="11.9145792218753"><ele>277.5</ele><time>2026-04-03T15:47:14.999Z</time></trkpt><trkpt lat="46.02274115106684" lon="11.914447874425612"><ele>277.0</ele><time>2026-04-03T15:47:16.999Z</time></trkpt><trkpt lat="46.02273466384459" lon="11.914339193228807"><ele>276.5</ele><time>2026-04-03T15:47:19.999Z</time></trkpt><trkpt lat="46.02273190905825" lon="11.914246768679268"><ele>276.0</ele><time>2026-04-03T15:47:25.999Z</time></trkpt><trkpt lat="46.02272331474101" lon="11.914122376308535"><ele>275.5</ele><time>2026-04-03T15:47:27.999Z</time></trkpt><trkpt lat="46.02272058183329" lon="11.914000065482618"><ele>275.0</ele><time>2026-04-03T15:47:29.999Z</time></trkpt><trkpt lat="46.02271140118076" lon="11.91388917982842"><ele>275.0</ele><time>2026-04-03T15:47:31.999Z</time></trkpt><trkpt lat="46.022707398349056" lon="11.913792854107655"><ele>275.0</ele><time>2026-04-03T15:47:33.999Z</time></trkpt><trkpt lat="46.02270312860651" lon="11.91368060263436"><ele>275.0</ele><time>2026-04-03T15:47:35.999Z</time></trkpt><trkpt lat="46.022696260042125" lon="11.913555529414694"><ele>275.0</ele><time>2026-04-03T15:47:37.999Z</time></trkpt><trkpt lat="46.02268661447205" lon="11.91341298633542"><ele>275.0</ele><time>2026-04-03T15:47:39.999Z</time></trkpt><trkpt lat="46.02268075720855" lon="11.913269306585661"><ele>275.0</ele><time>2026-04-03T15:47:41.999Z</time></trkpt><trkpt lat="46.02267508385477" lon="11.91314199934342"><ele>275.0</ele><time>2026-04-03T15:47:44Z</time></trkpt><trkpt lat="46.02267262015774" lon="11.913037382698342"><ele>275.0</ele><time>2026-04-03T15:47:46Z</time></trkpt><trkpt lat="46.022669517609714" lon="11.912918215709691"><ele>275.0</ele><time>2026-04-03T15:47:49Z</time></trkpt><trkpt lat="46.022668803350626" lon="11.912802449228796"><ele>275.0</ele><time>2026-04-03T15:47:52Z</time></trkpt><trkpt lat="46.02268557837373" lon="11.912676390265936"><ele>275.0</ele><time>2026-04-03T15:48:01Z</time></trkpt><trkpt lat="46.022719253218725" lon="11.912511746536527"><ele>275.0</ele><time>2026-04-03T15:48:03Z</time></trkpt><trkpt lat="46.02270565986372" lon="11.912408704106312"><ele>275.2857142857143</ele><time>2026-04-03T15:48:04Z</time></trkpt><trkpt lat="46.02268759046867" lon="11.912316067025758"><ele>275.57142857142856</ele><time>2026-04-03T15:48:05Z</time></trkpt><trkpt lat="46.022665589642564" lon="11.912230574852343"><ele>275.85714285714283</ele><time>2026-04-03T15:48:06Z</time></trkpt><trkpt lat="46.02264443783841" lon="11.91214326965223"><ele>276.1428571428571</ele><time>2026-04-03T15:48:07Z</time></trkpt><trkpt lat="46.022627862911875" lon="11.91205186438034"><ele>276.4285714285714</ele><time>2026-04-03T15:48:08Z</time></trkpt><trkpt lat="46.02261960098164" lon="11.91195482220746"><ele>276.7142857142857</ele><time>2026-04-03T15:48:09Z</time></trkpt><trkpt lat="46.02261806019096" lon="11.91186012856156"><ele>277.0</ele><time>2026-04-03T15:48:10Z</time></trkpt><trkpt lat="46.02262882493663" lon="11.911762756239844"><ele>277.0</ele><time>2026-04-03T15:48:11Z</time></trkpt><trkpt lat="46.02268502679154" lon="11.911674525544111"><ele>277.0</ele><time>2026-04-03T15:48:13Z</time></trkpt><trkpt lat="46.02283319425939" lon="11.911652328781615"><ele>277.0</ele><time>2026-04-03T15:48:14Z</time></trkpt><trkpt lat="46.022932928425355" lon="11.91162088982781"><ele>277.0</ele><time>2026-04-03T15:48:15Z</time></trkpt><trkpt lat="46.02304278621188" lon="11.911534096643704"><ele>277.0</ele><time>2026-04-03T15:48:16Z</time></trkpt><trkpt lat="46.02315392501766" lon="11.911426468849525"><ele>277.0</ele><time>2026-04-03T15:48:17Z</time></trkpt><trkpt lat="46.02329169490898" lon="11.911363585920743"><ele>277.0</ele><time>2026-04-03T15:48:18Z</time></trkpt><trkpt lat="46.023428019774876" lon="11.911295721429038"><ele>277.0</ele><time>2026-04-03T15:48:19Z</time></trkpt><trkpt lat="46.02357476961446" lon="11.91123900465166"><ele>277.3333333333333</ele><time>2026-04-03T15:48:20Z</time></trkpt><trkpt lat="46.02372565681636" lon="11.911177261895395"><ele>277.6666666666667</ele><time>2026-04-03T15:48:21Z</time></trkpt><trkpt lat="46.02388277709567" lon="11.911178391706676"><ele>278.0</ele><time>2026-04-03T15:48:22Z</time></trkpt><trkpt lat="46.02401976095148" lon="11.911149031901926"><ele>278.5</ele><time>2026-04-03T15:48:23Z</time></trkpt><trkpt lat="46.0241512308957" lon="11.911151148726537"><ele>279.0</ele><time>2026-04-03T15:48:24Z</time></trkpt><trkpt lat="46.02426950567883" lon="11.911154757150662"><ele>279.5</ele><time>2026-04-03T15:48:25Z</time></trkpt><trkpt lat="46.024375200955845" lon="11.911161850221394"><ele>280.0</ele><time>2026-04-03T15:48:26Z</time></trkpt><trkpt lat="46.024476147917056" lon="11.911154786101944"><ele>280.0</ele><time>2026-04-03T15:48:27Z</time></trkpt><trkpt lat="46.024563123476845" lon="11.911123229029823"><ele>280.0</ele><time>2026-04-03T15:48:28Z</time></trkpt><trkpt lat="46.02464089668518" lon="11.911057123231366"><ele>280.0</ele><time>2026-04-03T15:48:29Z</time></trkpt><trkpt lat="46.02471113210897" lon="11.910953396213124"><ele>280.0</ele><time>2026-04-03T15:48:30Z</time></trkpt><trkpt lat="46.024764134495854" lon="11.910809153293767"><ele>280.0</ele><time>2026-04-03T15:48:31Z</time></trkpt><trkpt lat="46.02480033171267" lon="11.910635142575329"><ele>280.66666666666663</ele><time>2026-04-03T15:48:32Z</time></trkpt><trkpt lat="46.02484063001766" lon="11.910427525451377"><ele>281.3333333333333</ele><time>2026-04-03T15:48:33Z</time></trkpt><trkpt lat="46.02488865308131" lon="11.91020369205636"><ele>282.0</ele><time>2026-04-03T15:48:34Z</time></trkpt><trkpt lat="46.024942641197526" lon="11.909983089732158"><ele>281.6666666666667</ele><time>2026-04-03T15:48:35Z</time></trkpt><trkpt lat="46.024995694094" lon="11.909749649681343"><ele>281.33333333333337</ele><time>2026-04-03T15:48:36Z</time></trkpt><trkpt lat="46.02504420389285" lon="11.909534229054449"><ele>281.0</ele><time>2026-04-03T15:48:37Z</time></trkpt><trkpt lat="46.02509251011295" lon="11.909316034417293"><ele>280.33333333333337</ele><time>2026-04-03T15:48:38Z</time></trkpt><trkpt lat="46.025141637383115" lon="11.909093653149297"><ele>279.6666666666667</ele><time>2026-04-03T15:48:39Z</time></trkpt><trkpt lat="46.02519293139752" lon="11.90888196596381"><ele>279.0</ele><time>2026-04-03T15:48:40Z</time></trkpt><trkpt lat="46.02523834479722" lon="11.908668758402243"><ele>279.0</ele><time>2026-04-03T15:48:41Z</time></trkpt><trkpt lat="46.02528608506744" lon="11.908455985760572"><ele>279.0</ele><time>2026-04-03T15:48:42Z</time></trkpt><trkpt lat="46.02533345549525" lon="11.908255517233902"><ele>279.0</ele><time>2026-04-03T15:48:43Z</time></trkpt><trkpt lat="46.025381197438655" lon="11.908052570009705"><ele>279.0</ele><time>2026-04-03T15:48:44Z</time></trkpt><trkpt lat="46.02543171762812" lon="11.907845017095042"><ele>279.0</ele><time>2026-04-03T15:48:45Z</time></trkpt><trkpt lat="46.02548266210625" lon="11.907638685343946"><ele>279.0</ele><time>2026-04-03T15:48:46Z</time></trkpt><trkpt lat="46.02553088111663" lon="11.907420275655719"><ele>279.25</ele><time>2026-04-03T15:48:47Z</time></trkpt><trkpt lat="46.025572070697315" lon="11.907210266414241"><ele>279.5</ele><time>2026-04-03T15:48:48Z</time></trkpt><trkpt lat="46.0256028235703" lon="11.907017407618591"><ele>279.75</ele><time>2026-04-03T15:48:49Z</time></trkpt><trkpt lat="46.02560919379656" lon="11.906829250704027"><ele>280.0</ele><time>2026-04-03T15:48:50Z</time></trkpt><trkpt lat="46.02561299007439" lon="11.906631087509243"><ele>280.0</ele><time>2026-04-03T15:48:51Z</time></trkpt><trkpt lat="46.02560238390337" lon="11.906426834070388"><ele>280.0</ele><time>2026-04-03T15:48:52Z</time></trkpt><trkpt lat="46.025585857564685" lon="11.906230999015921"><ele>280.0</ele><time>2026-04-03T15:48:53Z</time></trkpt><trkpt lat="46.02557064227704" lon="11.906079860429577"><ele>280.0</ele><time>2026-04-03T15:48:54Z</time></trkpt><trkpt lat="46.02555416449143" lon="11.905920374074453"><ele>280.8</ele><time>2026-04-03T15:48:55Z</time></trkpt><trkpt lat="46.02553795517274" lon="11.905768938538325"><ele>281.6</ele><time>2026-04-03T15:48:56Z</time></trkpt><trkpt lat="46.02552090375931" lon="11.905609635773953"><ele>282.4</ele><time>2026-04-03T15:48:57Z</time></trkpt><trkpt lat="46.02550434396834" lon="11.905454925807105"><ele>283.2</ele><time>2026-04-03T15:48:57.999Z</time></trkpt><trkpt lat="46.02548942680632" lon="11.905315562378716"><ele>284.0</ele><time>2026-04-03T15:48:58.999Z</time></trkpt><trkpt lat="46.02547608047243" lon="11.905190873995311"><ele>284.1666666666667</ele><time>2026-04-03T15:48:59.999Z</time></trkpt><trkpt lat="46.02546346780541" lon="11.905073040153757"><ele>284.33333333333337</ele><time>2026-04-03T15:49:00.999Z</time></trkpt><trkpt lat="46.025451787929796" lon="11.904963920928736"><ele>284.5</ele><time>2026-04-03T15:49:01.999Z</time></trkpt><trkpt lat="46.02544247519014" lon="11.904873734371742"><ele>284.6666666666667</ele><time>2026-04-03T15:49:02.999Z</time></trkpt><trkpt lat="46.025428501729834" lon="11.904773763717566"><ele>284.8333333333333</ele><time>2026-04-03T15:49:05.999Z</time></trkpt><trkpt lat="46.02544160253679" lon="11.90465884584736"><ele>285.0</ele><time>2026-04-03T15:49:08.999Z</time></trkpt><trkpt lat="46.02547838444321" lon="11.904554409810135"><ele>285.0</ele><time>2026-04-03T15:49:10.999Z</time></trkpt><trkpt lat="46.025561740489856" lon="11.904555742499925"><ele>285.0</ele><time>2026-04-03T15:49:12.999Z</time></trkpt><trkpt lat="46.02565658029033" lon="11.904614444016968"><ele>285.0</ele><time>2026-04-03T15:49:14.999Z</time></trkpt><trkpt lat="46.025771594521835" lon="11.904686325674845"><ele>285.0</ele><time>2026-04-03T15:49:16.999Z</time></trkpt><trkpt lat="46.02589122950079" lon="11.904626254513882"><ele>285.0</ele><time>2026-04-03T15:49:18.999Z</time></trkpt><trkpt lat="46.025947802967444" lon="11.904558227034896"><ele>284.3333333333333</ele><time>2026-04-03T15:49:19.999Z</time></trkpt><trkpt lat="46.02600989416717" lon="11.904495487168088"><ele>283.6666666666667</ele><time>2026-04-03T15:49:20.999Z</time></trkpt><trkpt lat="46.026061592655914" lon="11.904442638311998"><ele>283.0</ele><time>2026-04-03T15:49:21.999Z</time></trkpt><trkpt lat="46.02613331701971" lon="11.904354468439696"><ele>282.33333333333337</ele><time>2026-04-03T15:49:23.999Z</time></trkpt><trkpt lat="46.026047302086376" lon="11.904217371919279"><ele>281.6666666666667</ele><time>2026-04-03T15:49:26.999Z</time></trkpt><trkpt lat="46.02599274608007" lon="11.90414646961091"><ele>281.0</ele><time>2026-04-03T15:49:28.999Z</time></trkpt><trkpt lat="46.02607550316068" lon="11.903924510299934"><ele>281.0</ele><time>2026-04-03T15:49:31.999Z</time></trkpt><trkpt lat="46.02611594439263" lon="11.903832202097334"><ele>281.0</ele><time>2026-04-03T15:49:32.999Z</time></trkpt><trkpt lat="46.02616037558119" lon="11.903718161137826"><ele>281.0</ele><time>2026-04-03T15:49:34.999Z</time></trkpt><trkpt lat="46.02619489634088" lon="11.903611761455743"><ele>281.0</ele><time>2026-04-03T15:49:37.999Z</time></trkpt><trkpt lat="46.026246317017225" lon="11.903531761296982"><ele>281.0</ele><time>2026-04-03T15:50:20Z</time></trkpt><trkpt lat="46.0263451422062" lon="11.902451952930448"><ele>281.0</ele><time>2026-04-03T15:52:29Z</time></trkpt><trkpt lat="46.026312997607825" lon="11.903444370265962"><ele>281.0</ele><time>2026-04-03T15:52:38Z</time></trkpt><trkpt lat="46.02639161923649" lon="11.903397633421996"><ele>283.0</ele><time>2026-04-03T15:54:02Z</time></trkpt><trkpt lat="46.02628847117471" lon="11.903589172323965"><ele>281.0</ele><time>2026-04-03T15:54:51.021Z</time></trkpt></trkseg></trk></gpx>